<?xml version='1.0' encoding='UTF-8'?><gpx version="1.1" creator="JPX - https://github.com/jenetics/jpx" xmlns="http://www.topografix.com/GPX/1/1"><trk><trkseg><trkpt lat="41.2169505" lon="9.4182856"><ele>3.9999999999999996</ele><time>2026-04-19T09:15:21.089Z</time></trkpt><trkpt lat="41.216984" lon="9.4181749"><ele>4.0</ele><time>2026-04-19T09:15:22.089Z</time></trkpt><trkpt lat="41.2170122" lon="9.4180683"><ele>4.0</ele><time>2026-04-19T09:15:23.089Z</time></trkpt><trkpt lat="41.2170356" lon="9.4179744"><ele>4.0</ele><time>2026-04-19T09:15:24.088Z</time></trkpt><trkpt lat="41.2170548" lon="9.4178903"><ele>3.9999999999999996</ele><time>2026-04-19T09:15:25.089Z</time></trkpt><trkpt lat="41.2170759" lon="9.417811"><ele>4.0</ele><time>2026-04-19T09:15:26.089Z</time></trkpt><trkpt lat="41.2171446" lon="9.4176805"><ele>3.6666666666666665</ele><time>2026-04-19T09:15:28.089Z</time></trkpt><trkpt lat="41.217206" lon="9.4176349"><ele>3.333333333333333</ele><time>2026-04-19T09:15:29.089Z</time></trkpt><trkpt lat="41.2172755" lon="9.4176034"><ele>3.0</ele><time>2026-04-19T09:15:30.088Z</time></trkpt><trkpt lat="41.2173555" lon="9.4175781"><ele>2.6666666666666665</ele><time>2026-04-19T09:15:31.089Z</time></trkpt><trkpt lat="41.2174494" lon="9.4175538"><ele>2.333333333333333</ele><time>2026-04-19T09:15:32.089Z</time></trkpt><trkpt lat="41.2175484" lon="9.4175321"><ele>2.0</ele><time>2026-04-19T09:15:33.089Z</time></trkpt><trkpt lat="41.2176505" lon="9.4175075"><ele>3.5</ele><time>2026-04-19T09:15:34.089Z</time></trkpt><trkpt lat="41.2177602" lon="9.4174821"><ele>5.0</ele><time>2026-04-19T09:15:35.088Z</time></trkpt><trkpt lat="41.2178752" lon="9.4174567"><ele>6.5</ele><time>2026-04-19T09:15:36.089Z</time></trkpt><trkpt lat="41.2179905" lon="9.4174314"><ele>8.0</ele><time>2026-04-19T09:15:37.089Z</time></trkpt><trkpt lat="41.218106" lon="9.4174024"><ele>7.75</ele><time>2026-04-19T09:15:38.089Z</time></trkpt><trkpt lat="41.2182223" lon="9.4173795"><ele>7.5</ele><time>2026-04-19T09:15:39.089Z</time></trkpt><trkpt lat="41.2183398" lon="9.4173582"><ele>7.25</ele><time>2026-04-19T09:15:40.089Z</time></trkpt><trkpt lat="41.2184596" lon="9.4173412"><ele>7.0</ele><time>2026-04-19T09:15:41.089Z</time></trkpt><trkpt lat="41.2185776" lon="9.4173201"><ele>7.0</ele><time>2026-04-19T09:15:42.089Z</time></trkpt><trkpt lat="41.2186982" lon="9.4172959"><ele>7.0</ele><time>2026-04-19T09:15:43.088Z</time></trkpt><trkpt lat="41.2188185" lon="9.417274"><ele>7.0</ele><time>2026-04-19T09:15:44.088Z</time></trkpt><trkpt lat="41.2189257" lon="9.4172535"><ele>7.0</ele><time>2026-04-19T09:15:45.088Z</time></trkpt><trkpt lat="41.2190251" lon="9.4172329"><ele>7.199999999999999</ele><time>2026-04-19T09:15:46.088Z</time></trkpt><trkpt lat="41.2191208" lon="9.4172145"><ele>7.3999999999999995</ele><time>2026-04-19T09:15:47.089Z</time></trkpt><trkpt lat="41.21922" lon="9.4172007"><ele>7.6000000000000005</ele><time>2026-04-19T09:15:48.088Z</time></trkpt><trkpt lat="41.2193238" lon="9.4171853"><ele>7.800000000000001</ele><time>2026-04-19T09:15:49.088Z</time></trkpt><trkpt lat="41.2194214" lon="9.4171718"><ele>8.0</ele><time>2026-04-19T09:15:50.088Z</time></trkpt><trkpt lat="41.2195132" lon="9.4171437"><ele>8.4</ele><time>2026-04-19T09:15:51.088Z</time></trkpt><trkpt lat="41.2195795" lon="9.4170666"><ele>8.8</ele><time>2026-04-19T09:15:52.089Z</time></trkpt><trkpt lat="41.2196486" lon="9.4169547"><ele>9.2</ele><time>2026-04-19T09:15:53.089Z</time></trkpt><trkpt lat="41.2197111" lon="9.4168237"><ele>9.6</ele><time>2026-04-19T09:15:54.089Z</time></trkpt><trkpt lat="41.2197449" lon="9.4167116"><ele>10.0</ele><time>2026-04-19T09:15:55.089Z</time></trkpt><trkpt lat="41.2197712" lon="9.4166195"><ele>11.0</ele><time>2026-04-19T09:15:56.089Z</time></trkpt><trkpt lat="41.2198184" lon="9.4164982"><ele>12.0</ele><time>2026-04-19T09:15:58.089Z</time></trkpt><trkpt lat="41.2199167" lon="9.4165041"><ele>13.0</ele><time>2026-04-19T09:16:01.089Z</time></trkpt><trkpt lat="41.220014" lon="9.4165972"><ele>14.0</ele><time>2026-04-19T09:16:03.089Z</time></trkpt><trkpt lat="41.2200774" lon="9.4166542"><ele>15.0</ele><time>2026-04-19T09:16:04.089Z</time></trkpt><trkpt lat="41.2201431" lon="9.4167143"><ele>15.0</ele><time>2026-04-19T09:16:05.089Z</time></trkpt><trkpt lat="41.2202183" lon="9.4167866"><ele>15.0</ele><time>2026-04-19T09:16:06.089Z</time></trkpt><trkpt lat="41.2202958" lon="9.4168608"><ele>15.0</ele><time>2026-04-19T09:16:07.089Z</time></trkpt><trkpt lat="41.2203719" lon="9.4169327"><ele>15.0</ele><time>2026-04-19T09:16:08.089Z</time></trkpt><trkpt lat="41.22045" lon="9.4170219"><ele>15.0</ele><time>2026-04-19T09:16:09.089Z</time></trkpt><trkpt lat="41.2205211" lon="9.417116"><ele>14.8</ele><time>2026-04-19T09:16:10.089Z</time></trkpt><trkpt lat="41.2205964" lon="9.4172111"><ele>14.6</ele><time>2026-04-19T09:16:11.089Z</time></trkpt><trkpt lat="41.2206773" lon="9.4173009"><ele>14.399999999999999</ele><time>2026-04-19T09:16:12.089Z</time></trkpt><trkpt lat="41.2207629" lon="9.4173682"><ele>14.2</ele><time>2026-04-19T09:16:13.089Z</time></trkpt><trkpt lat="41.2208629" lon="9.4174147"><ele>14.0</ele><time>2026-04-19T09:16:14.089Z</time></trkpt><trkpt lat="41.2209663" lon="9.4174417"><ele>14.0</ele><time>2026-04-19T09:16:15.089Z</time></trkpt><trkpt lat="41.2210746" lon="9.4174593"><ele>14.0</ele><time>2026-04-19T09:16:16.089Z</time></trkpt><trkpt lat="41.2211899" lon="9.4174699"><ele>14.0</ele><time>2026-04-19T09:16:17.089Z</time></trkpt><trkpt lat="41.2213096" lon="9.4174796"><ele>14.0</ele><time>2026-04-19T09:16:18.089Z</time></trkpt><trkpt lat="41.2214253" lon="9.4174911"><ele>15.0</ele><time>2026-04-19T09:16:19.089Z</time></trkpt><trkpt lat="41.2215434" lon="9.4175034"><ele>16.0</ele><time>2026-04-19T09:16:20.089Z</time></trkpt><trkpt lat="41.221662" lon="9.4175104"><ele>17.0</ele><time>2026-04-19T09:16:21.089Z</time></trkpt><trkpt lat="41.2217777" lon="9.4175199"><ele>18.0</ele><time>2026-04-19T09:16:22.089Z</time></trkpt><trkpt lat="41.2218896" lon="9.4175225"><ele>18.0</ele><time>2026-04-19T09:16:23.089Z</time></trkpt><trkpt lat="41.221998" lon="9.4175074"><ele>18.0</ele><time>2026-04-19T09:16:24.089Z</time></trkpt><trkpt lat="41.2220999" lon="9.4174511"><ele>18.0</ele><time>2026-04-19T09:16:25.089Z</time></trkpt><trkpt lat="41.2222052" lon="9.4173852"><ele>18.0</ele><time>2026-04-19T09:16:26.089Z</time></trkpt><trkpt lat="41.2223056" lon="9.4173057"><ele>19.5</ele><time>2026-04-19T09:16:27.089Z</time></trkpt><trkpt lat="41.2224046" lon="9.4172239"><ele>21.0</ele><time>2026-04-19T09:16:28.089Z</time></trkpt><trkpt lat="41.2225037" lon="9.417149"><ele>22.5</ele><time>2026-04-19T09:16:29.089Z</time></trkpt><trkpt lat="41.2226041" lon="9.4170679"><ele>24.0</ele><time>2026-04-19T09:16:30.089Z</time></trkpt><trkpt lat="41.2227044" lon="9.416978"><ele>24.6</ele><time>2026-04-19T09:16:31.089Z</time></trkpt><trkpt lat="41.2228044" lon="9.4168932"><ele>25.2</ele><time>2026-04-19T09:16:32.089Z</time></trkpt><trkpt lat="41.2228986" lon="9.4168085"><ele>25.800000000000004</ele><time>2026-04-19T09:16:33.088Z</time></trkpt><trkpt lat="41.2229872" lon="9.4167308"><ele>26.400000000000002</ele><time>2026-04-19T09:16:34.089Z</time></trkpt><trkpt lat="41.2230663" lon="9.4166665"><ele>27.0</ele><time>2026-04-19T09:16:35.089Z</time></trkpt><trkpt lat="41.2231403" lon="9.4166124"><ele>27.0</ele><time>2026-04-19T09:16:36.088Z</time></trkpt><trkpt lat="41.223227" lon="9.4165945"><ele>27.000000000000004</ele><time>2026-04-19T09:16:37.088Z</time></trkpt><trkpt lat="41.2232989" lon="9.4166247"><ele>27.000000000000004</ele><time>2026-04-19T09:16:38.089Z</time></trkpt><trkpt lat="41.2233522" lon="9.4167039"><ele>27.0</ele><time>2026-04-19T09:16:39.089Z</time></trkpt><trkpt lat="41.2233991" lon="9.4168375"><ele>27.0</ele><time>2026-04-19T09:16:40.089Z</time></trkpt><trkpt lat="41.2234276" lon="9.4169954"><ele>27.0</ele><time>2026-04-19T09:16:41.089Z</time></trkpt><trkpt lat="41.2234483" lon="9.4171396"><ele>27.0</ele><time>2026-04-19T09:16:42.089Z</time></trkpt><trkpt lat="41.2234791" lon="9.4172868"><ele>27.0</ele><time>2026-04-19T09:16:43.088Z</time></trkpt><trkpt lat="41.2235221" lon="9.4174336"><ele>27.0</ele><time>2026-04-19T09:16:44.089Z</time></trkpt><trkpt lat="41.2235723" lon="9.4175662"><ele>28.0</ele><time>2026-04-19T09:16:45.089Z</time></trkpt><trkpt lat="41.2236356" lon="9.4176937"><ele>29.0</ele><time>2026-04-19T09:16:46.089Z</time></trkpt><trkpt lat="41.2237091" lon="9.4178135"><ele>30.0</ele><time>2026-04-19T09:16:47.089Z</time></trkpt><trkpt lat="41.2237836" lon="9.4179381"><ele>31.0</ele><time>2026-04-19T09:16:48.089Z</time></trkpt><trkpt lat="41.2238648" lon="9.4180641"><ele>31.0</ele><time>2026-04-19T09:16:49.089Z</time></trkpt><trkpt lat="41.2239413" lon="9.4181915"><ele>31.0</ele><time>2026-04-19T09:16:50.089Z</time></trkpt><trkpt lat="41.224021" lon="9.4183176"><ele>31.0</ele><time>2026-04-19T09:16:51.089Z</time></trkpt><trkpt lat="41.2240962" lon="9.4184423"><ele>31.0</ele><time>2026-04-19T09:16:52.089Z</time></trkpt><trkpt lat="41.2241774" lon="9.418558"><ele>33.5</ele><time>2026-04-19T09:16:53.088Z</time></trkpt><trkpt lat="41.2242677" lon="9.4186725"><ele>36.0</ele><time>2026-04-19T09:16:54.089Z</time></trkpt><trkpt lat="41.2243674" lon="9.4187753"><ele>38.5</ele><time>2026-04-19T09:16:55.089Z</time></trkpt><trkpt lat="41.2244768" lon="9.4188711"><ele>41.0</ele><time>2026-04-19T09:16:56.089Z</time></trkpt><trkpt lat="41.2245901" lon="9.4189516"><ele>41.0</ele><time>2026-04-19T09:16:57.089Z</time></trkpt><trkpt lat="41.2247119" lon="9.4190365"><ele>41.0</ele><time>2026-04-19T09:16:58.089Z</time></trkpt><trkpt lat="41.2248365" lon="9.4191196"><ele>41.0</ele><time>2026-04-19T09:16:59.089Z</time></trkpt><trkpt lat="41.2249585" lon="9.4192023"><ele>41.0</ele><time>2026-04-19T09:17:00.089Z</time></trkpt><trkpt lat="41.2250819" lon="9.4192785"><ele>42.25</ele><time>2026-04-19T09:17:01.089Z</time></trkpt><trkpt lat="41.2252044" lon="9.4193596"><ele>43.5</ele><time>2026-04-19T09:17:02.089Z</time></trkpt><trkpt lat="41.2253269" lon="9.419444"><ele>44.75</ele><time>2026-04-19T09:17:03.089Z</time></trkpt><trkpt lat="41.2254534" lon="9.4195297"><ele>46.0</ele><time>2026-04-19T09:17:04.089Z</time></trkpt><trkpt lat="41.2255744" lon="9.419612"><ele>46.5</ele><time>2026-04-19T09:17:05.089Z</time></trkpt><trkpt lat="41.2256991" lon="9.419694"><ele>47.0</ele><time>2026-04-19T09:17:06.089Z</time></trkpt><trkpt lat="41.2258211" lon="9.4197828"><ele>47.5</ele><time>2026-04-19T09:17:07.088Z</time></trkpt><trkpt lat="41.2259474" lon="9.4198652"><ele>48.0</ele><time>2026-04-19T09:17:08.089Z</time></trkpt><trkpt lat="41.2260721" lon="9.419951"><ele>48.0</ele><time>2026-04-19T09:17:09.089Z</time></trkpt><trkpt lat="41.2261926" lon="9.4200498"><ele>48.0</ele><time>2026-04-19T09:17:10.089Z</time></trkpt><trkpt lat="41.2263097" lon="9.4201636"><ele>48.0</ele><time>2026-04-19T09:17:11.089Z</time></trkpt><trkpt lat="41.226422" lon="9.4202829"><ele>48.0</ele><time>2026-04-19T09:17:12.089Z</time></trkpt><trkpt lat="41.2265321" lon="9.4203963"><ele>46.5</ele><time>2026-04-19T09:17:13.088Z</time></trkpt><trkpt lat="41.2266418" lon="9.420512"><ele>45.0</ele><time>2026-04-19T09:17:14.089Z</time></trkpt><trkpt lat="41.2267529" lon="9.4206284"><ele>43.5</ele><time>2026-04-19T09:17:15.089Z</time></trkpt><trkpt lat="41.2268702" lon="9.4207476"><ele>42.0</ele><time>2026-04-19T09:17:16.089Z</time></trkpt><trkpt lat="41.2269857" lon="9.4208685"><ele>42.0</ele><time>2026-04-19T09:17:17.089Z</time></trkpt><trkpt lat="41.2271031" lon="9.4209879"><ele>42.0</ele><time>2026-04-19T09:17:18.089Z</time></trkpt><trkpt lat="41.2272157" lon="9.4211051"><ele>42.0</ele><time>2026-04-19T09:17:19.088Z</time></trkpt><trkpt lat="41.2273294" lon="9.4212228"><ele>42.0</ele><time>2026-04-19T09:17:20.089Z</time></trkpt><trkpt lat="41.2274386" lon="9.4213322"><ele>41.25</ele><time>2026-04-19T09:17:21.089Z</time></trkpt><trkpt lat="41.2275594" lon="9.4214169"><ele>40.5</ele><time>2026-04-19T09:17:22.089Z</time></trkpt><trkpt lat="41.227684" lon="9.4214774"><ele>39.75</ele><time>2026-04-19T09:17:23.089Z</time></trkpt><trkpt lat="41.2278144" lon="9.4215131"><ele>39.0</ele><time>2026-04-19T09:17:24.089Z</time></trkpt><trkpt lat="41.2279496" lon="9.4215342"><ele>39.0</ele><time>2026-04-19T09:17:25.088Z</time></trkpt><trkpt lat="41.2280895" lon="9.4215522"><ele>39.0</ele><time>2026-04-19T09:17:26.089Z</time></trkpt><trkpt lat="41.2282282" lon="9.4215681"><ele>39.0</ele><time>2026-04-19T09:17:27.089Z</time></trkpt><trkpt lat="41.2283672" lon="9.4215915"><ele>39.0</ele><time>2026-04-19T09:17:28.089Z</time></trkpt><trkpt lat="41.2285065" lon="9.4216108"><ele>38.5</ele><time>2026-04-19T09:17:29.088Z</time></trkpt><trkpt lat="41.2286388" lon="9.4216284"><ele>38.0</ele><time>2026-04-19T09:17:30.089Z</time></trkpt><trkpt lat="41.2287622" lon="9.4216457"><ele>37.5</ele><time>2026-04-19T09:17:31.089Z</time></trkpt><trkpt lat="41.2288887" lon="9.4216604"><ele>37.0</ele><time>2026-04-19T09:17:32.089Z</time></trkpt><trkpt lat="41.2290107" lon="9.4216796"><ele>36.0</ele><time>2026-04-19T09:17:33.089Z</time></trkpt><trkpt lat="41.2291372" lon="9.4216973"><ele>35.0</ele><time>2026-04-19T09:17:34.089Z</time></trkpt><trkpt lat="41.2292705" lon="9.4217142"><ele>34.0</ele><time>2026-04-19T09:17:35.089Z</time></trkpt><trkpt lat="41.2294104" lon="9.4217343"><ele>33.0</ele><time>2026-04-19T09:17:36.089Z</time></trkpt><trkpt lat="41.2295539" lon="9.4217468"><ele>33.0</ele><time>2026-04-19T09:17:37.089Z</time></trkpt><trkpt lat="41.2296995" lon="9.4217692"><ele>33.0</ele><time>2026-04-19T09:17:38.089Z</time></trkpt><trkpt lat="41.2298428" lon="9.4217899"><ele>33.0</ele><time>2026-04-19T09:17:39.089Z</time></trkpt><trkpt lat="41.2299822" lon="9.421813"><ele>33.0</ele><time>2026-04-19T09:17:40.089Z</time></trkpt><trkpt lat="41.230117" lon="9.4218353"><ele>31.75</ele><time>2026-04-19T09:17:41.089Z</time></trkpt><trkpt lat="41.2302508" lon="9.421863"><ele>30.5</ele><time>2026-04-19T09:17:42.089Z</time></trkpt><trkpt lat="41.23039" lon="9.421905"><ele>29.25</ele><time>2026-04-19T09:17:43.089Z</time></trkpt><trkpt lat="41.2305261" lon="9.4219711"><ele>28.0</ele><time>2026-04-19T09:17:44.088Z</time></trkpt><trkpt lat="41.2306617" lon="9.4220533"><ele>26.666666666666668</ele><time>2026-04-19T09:17:45.087Z</time></trkpt><trkpt lat="41.2307978" lon="9.4221463"><ele>25.333333333333336</ele><time>2026-04-19T09:17:46.087Z</time></trkpt><trkpt lat="41.2309378" lon="9.4222415"><ele>24.0</ele><time>2026-04-19T09:17:47.088Z</time></trkpt><trkpt lat="41.2310834" lon="9.4223385"><ele>24.0</ele><time>2026-04-19T09:17:48.088Z</time></trkpt><trkpt lat="41.2312288" lon="9.4224385"><ele>24.0</ele><time>2026-04-19T09:17:49.088Z</time></trkpt><trkpt lat="41.23138" lon="9.4225317"><ele>24.0</ele><time>2026-04-19T09:17:50.088Z</time></trkpt><trkpt lat="41.2315276" lon="9.4226141"><ele>23.333333333333332</ele><time>2026-04-19T09:17:51.088Z</time></trkpt><trkpt lat="41.2316809" lon="9.4226909"><ele>22.666666666666664</ele><time>2026-04-19T09:17:52.088Z</time></trkpt><trkpt lat="41.2318392" lon="9.4227561"><ele>22.0</ele><time>2026-04-19T09:17:53.088Z</time></trkpt><trkpt lat="41.2320013" lon="9.4228199"><ele>22.0</ele><time>2026-04-19T09:17:54.088Z</time></trkpt><trkpt lat="41.2321534" lon="9.422875"><ele>22.0</ele><time>2026-04-19T09:17:55.088Z</time></trkpt><trkpt lat="41.2323015" lon="9.4229308"><ele>22.0</ele><time>2026-04-19T09:17:56.088Z</time></trkpt><trkpt lat="41.2324406" lon="9.4229809"><ele>20.75</ele><time>2026-04-19T09:17:57.087Z</time></trkpt><trkpt lat="41.2325695" lon="9.4230303"><ele>19.5</ele><time>2026-04-19T09:17:58.088Z</time></trkpt><trkpt lat="41.2326954" lon="9.4230788"><ele>18.25</ele><time>2026-04-19T09:17:59.088Z</time></trkpt><trkpt lat="41.2328175" lon="9.4231226"><ele>17.0</ele><time>2026-04-19T09:18:00.088Z</time></trkpt><trkpt lat="41.2329417" lon="9.4231653"><ele>17.0</ele><time>2026-04-19T09:18:01.088Z</time></trkpt><trkpt lat="41.2330782" lon="9.4232123"><ele>17.0</ele><time>2026-04-19T09:18:02.088Z</time></trkpt><trkpt lat="41.23323" lon="9.4232686"><ele>17.0</ele><time>2026-04-19T09:18:03.088Z</time></trkpt><trkpt lat="41.2333823" lon="9.423326"><ele>17.666666666666668</ele><time>2026-04-19T09:18:04.088Z</time></trkpt><trkpt lat="41.2335414" lon="9.423386"><ele>18.333333333333332</ele><time>2026-04-19T09:18:05.088Z</time></trkpt><trkpt lat="41.2337014" lon="9.4234452"><ele>19.0</ele><time>2026-04-19T09:18:06.088Z</time></trkpt><trkpt lat="41.2338629" lon="9.4235058"><ele>20.333333333333332</ele><time>2026-04-19T09:18:07.088Z</time></trkpt><trkpt lat="41.234027" lon="9.4235667"><ele>21.666666666666668</ele><time>2026-04-19T09:18:08.088Z</time></trkpt><trkpt lat="41.2341928" lon="9.4236277"><ele>23.0</ele><time>2026-04-19T09:18:09.088Z</time></trkpt><trkpt lat="41.234359" lon="9.4236912"><ele>23.0</ele><time>2026-04-19T09:18:10.088Z</time></trkpt><trkpt lat="41.2345226" lon="9.4237543"><ele>23.0</ele><time>2026-04-19T09:18:11.088Z</time></trkpt><trkpt lat="41.2346826" lon="9.4238127"><ele>23.0</ele><time>2026-04-19T09:18:12.088Z</time></trkpt><trkpt lat="41.2348439" lon="9.4238758"><ele>25.0</ele><time>2026-04-19T09:18:13.088Z</time></trkpt><trkpt lat="41.2350061" lon="9.4239363"><ele>27.0</ele><time>2026-04-19T09:18:14.088Z</time></trkpt><trkpt lat="41.2351696" lon="9.4240016"><ele>29.0</ele><time>2026-04-19T09:18:15.088Z</time></trkpt><trkpt lat="41.2353338" lon="9.4240629"><ele>29.0</ele><time>2026-04-19T09:18:16.088Z</time></trkpt><trkpt lat="41.2355012" lon="9.4241248"><ele>29.0</ele><time>2026-04-19T09:18:17.088Z</time></trkpt><trkpt lat="41.2356651" lon="9.4241914"><ele>29.0</ele><time>2026-04-19T09:18:18.088Z</time></trkpt><trkpt lat="41.2358264" lon="9.4242507"><ele>31.0</ele><time>2026-04-19T09:18:19.088Z</time></trkpt><trkpt lat="41.235984" lon="9.4243081"><ele>33.0</ele><time>2026-04-19T09:18:20.088Z</time></trkpt><trkpt lat="41.23614" lon="9.4243651"><ele>35.0</ele><time>2026-04-19T09:18:21.087Z</time></trkpt><trkpt lat="41.2362909" lon="9.4244144"><ele>35.0</ele><time>2026-04-19T09:18:22.087Z</time></trkpt><trkpt lat="41.2364303" lon="9.4244639"><ele>35.0</ele><time>2026-04-19T09:18:23.088Z</time></trkpt><trkpt lat="41.2365572" lon="9.4245087"><ele>35.0</ele><time>2026-04-19T09:18:24.088Z</time></trkpt><trkpt lat="41.236669" lon="9.4245537"><ele>35.0</ele><time>2026-04-19T09:18:25.088Z</time></trkpt><trkpt lat="41.2367525" lon="9.4245908"><ele>36.166666666666664</ele><time>2026-04-19T09:18:26.087Z</time></trkpt><trkpt lat="41.2368354" lon="9.4246316"><ele>37.33333333333333</ele><time>2026-04-19T09:18:28.088Z</time></trkpt><trkpt lat="41.2368676" lon="9.4245546"><ele>38.5</ele><time>2026-04-19T09:18:40.087Z</time></trkpt><trkpt lat="41.2368605" lon="9.4244711"><ele>39.666666666666664</ele><time>2026-04-19T09:18:43.088Z</time></trkpt><trkpt lat="41.2369067" lon="9.424365"><ele>40.833333333333336</ele><time>2026-04-19T09:19:51.088Z</time></trkpt><trkpt lat="41.2369752" lon="9.4242579"><ele>42.0</ele><time>2026-04-19T09:19:53.088Z</time></trkpt><trkpt lat="41.2370093" lon="9.424184"><ele>42.0</ele><time>2026-04-19T09:19:54.088Z</time></trkpt><trkpt lat="41.2370469" lon="9.424096"><ele>42.0</ele><time>2026-04-19T09:19:55.087Z</time></trkpt><trkpt lat="41.2370735" lon="9.4240154"><ele>42.0</ele><time>2026-04-19T09:19:56.088Z</time></trkpt><trkpt lat="41.2371053" lon="9.4239224"><ele>42.0</ele><time>2026-04-19T09:19:57.088Z</time></trkpt><trkpt lat="41.2371427" lon="9.4238353"><ele>42.0</ele><time>2026-04-19T09:19:58.088Z</time></trkpt><trkpt lat="41.2371784" lon="9.4237476"><ele>42.0</ele><time>2026-04-19T09:19:59.088Z</time></trkpt><trkpt lat="41.2372176" lon="9.4236488"><ele>42.2</ele><time>2026-04-19T09:20:00.088Z</time></trkpt><trkpt lat="41.2372524" lon="9.4235503"><ele>42.400000000000006</ele><time>2026-04-19T09:20:01.088Z</time></trkpt><trkpt lat="41.2372757" lon="9.4234452"><ele>42.599999999999994</ele><time>2026-04-19T09:20:02.088Z</time></trkpt><trkpt lat="41.2372909" lon="9.4233161"><ele>42.8</ele><time>2026-04-19T09:20:03.088Z</time></trkpt><trkpt lat="41.2373035" lon="9.4231781"><ele>43.0</ele><time>2026-04-19T09:20:04.088Z</time></trkpt><trkpt lat="41.2373097" lon="9.4230681"><ele>43.333333333333336</ele><time>2026-04-19T09:20:05.088Z</time></trkpt><trkpt lat="41.2373124" lon="9.4229764"><ele>43.66666666666667</ele><time>2026-04-19T09:20:06.088Z</time></trkpt><trkpt lat="41.2373484" lon="9.4228258"><ele>44.0</ele><time>2026-04-19T09:20:08.088Z</time></trkpt><trkpt lat="41.237401" lon="9.4227027"><ele>44.333333333333336</ele><time>2026-04-19T09:20:10.088Z</time></trkpt><trkpt lat="41.237452" lon="9.4226507"><ele>44.666666666666664</ele><time>2026-04-19T09:20:11.087Z</time></trkpt><trkpt lat="41.2375187" lon="9.4226131"><ele>45.0</ele><time>2026-04-19T09:20:12.088Z</time></trkpt><trkpt lat="41.2375915" lon="9.4225773"><ele>45.0</ele><time>2026-04-19T09:20:13.088Z</time></trkpt><trkpt lat="41.2376609" lon="9.4225327"><ele>45.0</ele><time>2026-04-19T09:20:14.088Z</time></trkpt><trkpt lat="41.2377169" lon="9.4224787"><ele>45.0</ele><time>2026-04-19T09:20:15.088Z</time></trkpt><trkpt lat="41.2377588" lon="9.4224114"><ele>45.0</ele><time>2026-04-19T09:20:16.088Z</time></trkpt><trkpt lat="41.2377972" lon="9.422308"><ele>45.0</ele><time>2026-04-19T09:20:17.088Z</time></trkpt><trkpt lat="41.2378385" lon="9.4221888"><ele>45.0</ele><time>2026-04-19T09:20:18.087Z</time></trkpt><trkpt lat="41.2378768" lon="9.4220837"><ele>44.833333333333336</ele><time>2026-04-19T09:20:19.088Z</time></trkpt><trkpt lat="41.2379062" lon="9.4219874"><ele>44.666666666666664</ele><time>2026-04-19T09:20:20.088Z</time></trkpt><trkpt lat="41.2379252" lon="9.4218907"><ele>44.5</ele><time>2026-04-19T09:20:21.088Z</time></trkpt><trkpt lat="41.2379353" lon="9.4217916"><ele>44.33333333333333</ele><time>2026-04-19T09:20:22.088Z</time></trkpt><trkpt lat="41.2379366" lon="9.4216921"><ele>44.166666666666664</ele><time>2026-04-19T09:20:23.088Z</time></trkpt><trkpt lat="41.237925" lon="9.4215919"><ele>44.0</ele><time>2026-04-19T09:20:24.088Z</time></trkpt><trkpt lat="41.2379108" lon="9.4214971"><ele>44.0</ele><time>2026-04-19T09:20:25.088Z</time></trkpt><trkpt lat="41.2378886" lon="9.4214034"><ele>44.0</ele><time>2026-04-19T09:20:26.088Z</time></trkpt><trkpt lat="41.2378565" lon="9.4213079"><ele>44.0</ele><time>2026-04-19T09:20:27.087Z</time></trkpt><trkpt lat="41.2378187" lon="9.4212149"><ele>44.0</ele><time>2026-04-19T09:20:28.088Z</time></trkpt><trkpt lat="41.2377815" lon="9.4211302"><ele>44.0</ele><time>2026-04-19T09:20:29.088Z</time></trkpt><trkpt lat="41.2377373" lon="9.4210548"><ele>44.0</ele><time>2026-04-19T09:20:30.088Z</time></trkpt><trkpt lat="41.2376858" lon="9.4209779"><ele>44.33333333333333</ele><time>2026-04-19T09:20:31.088Z</time></trkpt><trkpt lat="41.2376358" lon="9.42089"><ele>44.666666666666664</ele><time>2026-04-19T09:20:32.088Z</time></trkpt><trkpt lat="41.2375963" lon="9.4208067"><ele>45.0</ele><time>2026-04-19T09:20:33.088Z</time></trkpt><trkpt lat="41.2375662" lon="9.4207316"><ele>45.333333333333336</ele><time>2026-04-19T09:20:34.087Z</time></trkpt><trkpt lat="41.2375415" lon="9.4206495"><ele>45.66666666666667</ele><time>2026-04-19T09:20:35.088Z</time></trkpt><trkpt lat="41.2375228" lon="9.4205592"><ele>46.0</ele><time>2026-04-19T09:20:36.088Z</time></trkpt><trkpt lat="41.2375251" lon="9.420433"><ele>46.599999999999994</ele><time>2026-04-19T09:20:38.088Z</time></trkpt><trkpt lat="41.2375859" lon="9.4203759"><ele>47.2</ele><time>2026-04-19T09:20:40.088Z</time></trkpt><trkpt lat="41.2376743" lon="9.4203703"><ele>47.8</ele><time>2026-04-19T09:20:42.088Z</time></trkpt><trkpt lat="41.2377224" lon="9.4202185"><ele>48.400000000000006</ele><time>2026-04-19T09:20:46.087Z</time></trkpt><trkpt lat="41.2377347" lon="9.4201103"><ele>49.0</ele><time>2026-04-19T09:20:47.088Z</time></trkpt><trkpt lat="41.2377533" lon="9.4200007"><ele>48.99999999999999</ele><time>2026-04-19T09:20:48.088Z</time></trkpt><trkpt lat="41.2377824" lon="9.4198834"><ele>49.0</ele><time>2026-04-19T09:20:49.088Z</time></trkpt><trkpt lat="41.2378053" lon="9.4197693"><ele>49.0</ele><time>2026-04-19T09:20:50.088Z</time></trkpt><trkpt lat="41.2378077" lon="9.4196745"><ele>49.0</ele><time>2026-04-19T09:20:51.088Z</time></trkpt><trkpt lat="41.2378022" lon="9.4195574"><ele>48.99999999999999</ele><time>2026-04-19T09:20:53.088Z</time></trkpt><trkpt lat="41.2378577" lon="9.4195028"><ele>49.0</ele><time>2026-04-19T09:20:55.088Z</time></trkpt><trkpt lat="41.2379612" lon="9.4195019"><ele>48.99999999999999</ele><time>2026-04-19T09:20:57.088Z</time></trkpt><trkpt lat="41.2380244" lon="9.4195069"><ele>49.0</ele><time>2026-04-19T09:20:58.088Z</time></trkpt><trkpt lat="41.2380909" lon="9.4195249"><ele>49.0</ele><time>2026-04-19T09:20:59.088Z</time></trkpt><trkpt lat="41.2381562" lon="9.4195562"><ele>49.0</ele><time>2026-04-19T09:21:00.088Z</time></trkpt><trkpt lat="41.238223" lon="9.4196111"><ele>48.99999999999999</ele><time>2026-04-19T09:21:01.088Z</time></trkpt><trkpt lat="41.2382779" lon="9.4196698"><ele>49.0</ele><time>2026-04-19T09:21:02.088Z</time></trkpt><trkpt lat="41.2383687" lon="9.4197311"><ele>49.714285714285715</ele><time>2026-04-19T09:21:04.088Z</time></trkpt><trkpt lat="41.2384376" lon="9.4197307"><ele>50.42857142857143</ele><time>2026-04-19T09:21:07.087Z</time></trkpt><trkpt lat="41.2384808" lon="9.4196409"><ele>51.14285714285714</ele><time>2026-04-19T09:21:09.088Z</time></trkpt><trkpt lat="41.23846" lon="9.4195523"><ele>51.85714285714286</ele><time>2026-04-19T09:21:11.088Z</time></trkpt><trkpt lat="41.2384262" lon="9.4194698"><ele>52.57142857142857</ele><time>2026-04-19T09:21:13.103Z</time></trkpt><trkpt lat="41.2384367" lon="9.4193809"><ele>53.285714285714285</ele><time>2026-04-19T09:21:15.088Z</time></trkpt><trkpt lat="41.2384916" lon="9.4192844"><ele>54.0</ele><time>2026-04-19T09:21:17.085Z</time></trkpt><trkpt lat="41.2385517" lon="9.4191907"><ele>54.0</ele><time>2026-04-19T09:21:19.088Z</time></trkpt><trkpt lat="41.2385527" lon="9.4190797"><ele>54.00000000000001</ele><time>2026-04-19T09:21:21.088Z</time></trkpt><trkpt lat="41.2384762" lon="9.418989"><ele>54.00000000000001</ele><time>2026-04-19T09:21:23.088Z</time></trkpt><trkpt lat="41.2383791" lon="9.418886"><ele>54.0</ele><time>2026-04-19T09:21:25.088Z</time></trkpt><trkpt lat="41.2383109" lon="9.4187615"><ele>54.0</ele><time>2026-04-19T09:21:27.088Z</time></trkpt><trkpt lat="41.2382615" lon="9.4186616"><ele>53.0</ele><time>2026-04-19T09:21:29.088Z</time></trkpt><trkpt lat="41.2382443" lon="9.4185515"><ele>52.00000000000001</ele><time>2026-04-19T09:21:31.088Z</time></trkpt><trkpt lat="41.2382424" lon="9.4184241"><ele>51.0</ele><time>2026-04-19T09:21:33.088Z</time></trkpt><trkpt lat="41.2382907" lon="9.4182585"><ele>50.0</ele><time>2026-04-19T09:21:35.088Z</time></trkpt><trkpt lat="41.2383334" lon="9.4181754"><ele>49.0</ele><time>2026-04-19T09:21:36.088Z</time></trkpt><trkpt lat="41.2383783" lon="9.4181045"><ele>48.99999999999999</ele><time>2026-04-19T09:21:37.088Z</time></trkpt><trkpt lat="41.2384245" lon="9.4180439"><ele>49.0</ele><time>2026-04-19T09:21:38.088Z</time></trkpt><trkpt lat="41.2384941" lon="9.4179093"><ele>49.0</ele><time>2026-04-19T09:21:40.087Z</time></trkpt><trkpt lat="41.2385227" lon="9.417828"><ele>49.0</ele><time>2026-04-19T09:21:41.087Z</time></trkpt><trkpt lat="41.2385456" lon="9.4177438"><ele>48.99999999999999</ele><time>2026-04-19T09:21:42.088Z</time></trkpt><trkpt lat="41.2385911" lon="9.4176267"><ele>49.0</ele><time>2026-04-19T09:21:44.088Z</time></trkpt><trkpt lat="41.2385861" lon="9.4175122"><ele>47.99999999999999</ele><time>2026-04-19T09:21:46.088Z</time></trkpt><trkpt lat="41.2385726" lon="9.4174282"><ele>47.0</ele><time>2026-04-19T09:21:47.088Z</time></trkpt><trkpt lat="41.2385952" lon="9.4172659"><ele>46.0</ele><time>2026-04-19T09:21:49.087Z</time></trkpt><trkpt lat="41.2386247" lon="9.41718"><ele>45.0</ele><time>2026-04-19T09:21:50.088Z</time></trkpt><trkpt lat="41.2386519" lon="9.4170883"><ele>44.0</ele><time>2026-04-19T09:21:51.088Z</time></trkpt><trkpt lat="41.238678" lon="9.4169774"><ele>43.0</ele><time>2026-04-19T09:21:52.088Z</time></trkpt><trkpt lat="41.2386985" lon="9.4168668"><ele>42.833333333333336</ele><time>2026-04-19T09:21:53.088Z</time></trkpt><trkpt lat="41.2387186" lon="9.4167647"><ele>42.66666666666667</ele><time>2026-04-19T09:21:54.088Z</time></trkpt><trkpt lat="41.238742" lon="9.4166796"><ele>42.5</ele><time>2026-04-19T09:21:55.088Z</time></trkpt><trkpt lat="41.238749" lon="9.4165358"><ele>42.333333333333336</ele><time>2026-04-19T09:21:57.088Z</time></trkpt><trkpt lat="41.2386873" lon="9.4164176"><ele>42.166666666666664</ele><time>2026-04-19T09:21:59.088Z</time></trkpt><trkpt lat="41.2386407" lon="9.4163594"><ele>42.0</ele><time>2026-04-19T09:22:00.088Z</time></trkpt><trkpt lat="41.2385936" lon="9.4162938"><ele>42.0</ele><time>2026-04-19T09:22:01.088Z</time></trkpt><trkpt lat="41.2385592" lon="9.4162177"><ele>42.0</ele><time>2026-04-19T09:22:02.088Z</time></trkpt><trkpt lat="41.2385365" lon="9.4161338"><ele>42.0</ele><time>2026-04-19T09:22:03.088Z</time></trkpt><trkpt lat="41.2385189" lon="9.4160518"><ele>42.0</ele><time>2026-04-19T09:22:04.087Z</time></trkpt><trkpt lat="41.2385028" lon="9.4159191"><ele>42.0</ele><time>2026-04-19T09:22:06.087Z</time></trkpt><trkpt lat="41.2385372" lon="9.4158081"><ele>42.0</ele><time>2026-04-19T09:22:08.088Z</time></trkpt><trkpt lat="41.2386184" lon="9.4156738"><ele>42.0</ele><time>2026-04-19T09:22:10.088Z</time></trkpt><trkpt lat="41.2386543" lon="9.4155846"><ele>42.0</ele><time>2026-04-19T09:22:11.087Z</time></trkpt><trkpt lat="41.2386701" lon="9.4155022"><ele>42.0</ele><time>2026-04-19T09:22:12.088Z</time></trkpt><trkpt lat="41.238676" lon="9.4153657"><ele>42.0</ele><time>2026-04-19T09:22:14.088Z</time></trkpt><trkpt lat="41.2387787" lon="9.4152904"><ele>42.0</ele><time>2026-04-19T09:22:17.088Z</time></trkpt><trkpt lat="41.238855" lon="9.4152959"><ele>42.0</ele><time>2026-04-19T09:22:18.087Z</time></trkpt><trkpt lat="41.2389326" lon="9.4153091"><ele>42.2</ele><time>2026-04-19T09:22:19.088Z</time></trkpt><trkpt lat="41.2390185" lon="9.4153082"><ele>42.400000000000006</ele><time>2026-04-19T09:22:20.088Z</time></trkpt><trkpt lat="41.2391182" lon="9.4152864"><ele>42.599999999999994</ele><time>2026-04-19T09:22:21.088Z</time></trkpt><trkpt lat="41.2392398" lon="9.4152485"><ele>42.8</ele><time>2026-04-19T09:22:22.088Z</time></trkpt><trkpt lat="41.2393516" lon="9.4152066"><ele>43.0</ele><time>2026-04-19T09:22:23.088Z</time></trkpt><trkpt lat="41.2394351" lon="9.415172"><ele>43.00000000000001</ele><time>2026-04-19T09:22:24.088Z</time></trkpt><trkpt lat="41.2394946" lon="9.4151439"><ele>43.0</ele><time>2026-04-19T09:22:25.088Z</time></trkpt><trkpt lat="41.2395588" lon="9.4151104"><ele>43.0</ele><time>2026-04-19T09:22:27.088Z</time></trkpt><trkpt lat="41.2396569" lon="9.4151497"><ele>43.0</ele><time>2026-04-19T09:22:30.088Z</time></trkpt><trkpt lat="41.2397075" lon="9.4152143"><ele>43.0</ele><time>2026-04-19T09:22:31.088Z</time></trkpt><trkpt lat="41.239757" lon="9.4152828"><ele>43.00000000000001</ele><time>2026-04-19T09:22:32.088Z</time></trkpt><trkpt lat="41.2398053" lon="9.415339"><ele>43.0</ele><time>2026-04-19T09:22:33.088Z</time></trkpt><trkpt lat="41.2398831" lon="9.4154293"><ele>43.0</ele><time>2026-04-19T09:22:35.088Z</time></trkpt><trkpt lat="41.2399471" lon="9.415502"><ele>43.0</ele><time>2026-04-19T09:22:37.088Z</time></trkpt><trkpt lat="41.239999" lon="9.4155649"><ele>43.0</ele><time>2026-04-19T09:22:39.088Z</time></trkpt><trkpt lat="41.2400549" lon="9.4156262"><ele>43.0</ele><time>2026-04-19T09:22:41.088Z</time></trkpt><trkpt lat="41.240156" lon="9.415746"><ele>43.0</ele><time>2026-04-19T09:22:43.088Z</time></trkpt><trkpt lat="41.2402339" lon="9.4158362"><ele>43.0</ele><time>2026-04-19T09:22:44.088Z</time></trkpt><trkpt lat="41.2403165" lon="9.4159285"><ele>43.0</ele><time>2026-04-19T09:22:45.088Z</time></trkpt><trkpt lat="41.240411" lon="9.4160328"><ele>43.0</ele><time>2026-04-19T09:22:46.087Z</time></trkpt><trkpt lat="41.2405169" lon="9.4161513"><ele>43.0</ele><time>2026-04-19T09:22:47.088Z</time></trkpt><trkpt lat="41.240625" lon="9.4162773"><ele>43.75</ele><time>2026-04-19T09:22:48.088Z</time></trkpt><trkpt lat="41.2407362" lon="9.4164099"><ele>44.5</ele><time>2026-04-19T09:22:49.088Z</time></trkpt><trkpt lat="41.2408377" lon="9.4165331"><ele>45.25</ele><time>2026-04-19T09:22:50.088Z</time></trkpt><trkpt lat="41.2409328" lon="9.4166425"><ele>46.0</ele><time>2026-04-19T09:22:51.088Z</time></trkpt><trkpt lat="41.2410162" lon="9.4167415"><ele>46.0</ele><time>2026-04-19T09:22:52.088Z</time></trkpt><trkpt lat="41.2410927" lon="9.416839"><ele>46.0</ele><time>2026-04-19T09:22:53.087Z</time></trkpt><trkpt lat="41.241166" lon="9.4169526"><ele>46.0</ele><time>2026-04-19T09:22:54.088Z</time></trkpt><trkpt lat="41.2412384" lon="9.4170993"><ele>46.0</ele><time>2026-04-19T09:22:55.088Z</time></trkpt><trkpt lat="41.2412852" lon="9.4172764"><ele>48.0</ele><time>2026-04-19T09:22:56.088Z</time></trkpt><trkpt lat="41.2413057" lon="9.4174856"><ele>50.0</ele><time>2026-04-19T09:22:57.088Z</time></trkpt><trkpt lat="41.2413191" lon="9.4177056"><ele>52.0</ele><time>2026-04-19T09:22:58.088Z</time></trkpt><trkpt lat="41.2413261" lon="9.417918"><ele>52.5</ele><time>2026-04-19T09:22:59.088Z</time></trkpt><trkpt lat="41.2413359" lon="9.418114"><ele>53.0</ele><time>2026-04-19T09:23:00.088Z</time></trkpt><trkpt lat="41.241348" lon="9.4183108"><ele>53.5</ele><time>2026-04-19T09:23:01.087Z</time></trkpt><trkpt lat="41.2413595" lon="9.4185041"><ele>54.0</ele><time>2026-04-19T09:23:02.088Z</time></trkpt><trkpt lat="41.2413635" lon="9.4186929"><ele>54.25</ele><time>2026-04-19T09:23:03.088Z</time></trkpt><trkpt lat="41.2413832" lon="9.4188745"><ele>54.5</ele><time>2026-04-19T09:23:04.088Z</time></trkpt><trkpt lat="41.2414337" lon="9.4190449"><ele>54.75</ele><time>2026-04-19T09:23:05.087Z</time></trkpt><trkpt lat="41.2415113" lon="9.4191925"><ele>55.0</ele><time>2026-04-19T09:23:06.087Z</time></trkpt><trkpt lat="41.2416195" lon="9.4193156"><ele>56.0</ele><time>2026-04-19T09:23:07.087Z</time></trkpt><trkpt lat="41.2417589" lon="9.4194198"><ele>57.0</ele><time>2026-04-19T09:23:08.087Z</time></trkpt><trkpt lat="41.2419082" lon="9.4195167"><ele>58.0</ele><time>2026-04-19T09:23:09.087Z</time></trkpt><trkpt lat="41.2420576" lon="9.4196125"><ele>58.0</ele><time>2026-04-19T09:23:10.086Z</time></trkpt><trkpt lat="41.2422082" lon="9.4197055"><ele>58.0</ele><time>2026-04-19T09:23:11.086Z</time></trkpt><trkpt lat="41.2423595" lon="9.4198039"><ele>58.0</ele><time>2026-04-19T09:23:12.087Z</time></trkpt><trkpt lat="41.2425102" lon="9.4198979"><ele>59.666666666666664</ele><time>2026-04-19T09:23:13.087Z</time></trkpt><trkpt lat="41.2426517" lon="9.4199956"><ele>61.33333333333333</ele><time>2026-04-19T09:23:14.087Z</time></trkpt><trkpt lat="41.2427885" lon="9.4201103"><ele>63.0</ele><time>2026-04-19T09:23:15.087Z</time></trkpt><trkpt lat="41.2429211" lon="9.4202424"><ele>63.0</ele><time>2026-04-19T09:23:16.087Z</time></trkpt><trkpt lat="41.2430553" lon="9.4203766"><ele>63.0</ele><time>2026-04-19T09:23:17.087Z</time></trkpt><trkpt lat="41.2431854" lon="9.420515"><ele>63.0</ele><time>2026-04-19T09:23:18.087Z</time></trkpt><trkpt lat="41.2433078" lon="9.4206666"><ele>61.0</ele><time>2026-04-19T09:23:19.087Z</time></trkpt><trkpt lat="41.2434271" lon="9.4208405"><ele>59.0</ele><time>2026-04-19T09:23:20.087Z</time></trkpt><trkpt lat="41.2435489" lon="9.4210186"><ele>57.0</ele><time>2026-04-19T09:23:21.087Z</time></trkpt><trkpt lat="41.2436676" lon="9.4211954"><ele>55.33333333333333</ele><time>2026-04-19T09:23:22.087Z</time></trkpt><trkpt lat="41.243783" lon="9.4213681"><ele>53.666666666666664</ele><time>2026-04-19T09:23:23.087Z</time></trkpt><trkpt lat="41.2438948" lon="9.4215405"><ele>52.0</ele><time>2026-04-19T09:23:24.087Z</time></trkpt><trkpt lat="41.2439954" lon="9.4217104"><ele>52.0</ele><time>2026-04-19T09:23:25.087Z</time></trkpt><trkpt lat="41.2440809" lon="9.4218787"><ele>52.0</ele><time>2026-04-19T09:23:26.087Z</time></trkpt><trkpt lat="41.2441598" lon="9.4220366"><ele>52.0</ele><time>2026-04-19T09:23:27.087Z</time></trkpt><trkpt lat="41.2442527" lon="9.4221691"><ele>52.0</ele><time>2026-04-19T09:23:28.087Z</time></trkpt><trkpt lat="41.2443613" lon="9.4222808"><ele>50.33333333333333</ele><time>2026-04-19T09:23:29.087Z</time></trkpt><trkpt lat="41.2444938" lon="9.4223713"><ele>48.666666666666664</ele><time>2026-04-19T09:23:30.087Z</time></trkpt><trkpt lat="41.2446379" lon="9.422427"><ele>47.0</ele><time>2026-04-19T09:23:31.087Z</time></trkpt><trkpt lat="41.244793" lon="9.4224514"><ele>46.666666666666664</ele><time>2026-04-19T09:23:32.087Z</time></trkpt><trkpt lat="41.2449593" lon="9.4224574"><ele>46.333333333333336</ele><time>2026-04-19T09:23:33.086Z</time></trkpt><trkpt lat="41.2451318" lon="9.42246"><ele>46.0</ele><time>2026-04-19T09:23:34.087Z</time></trkpt><trkpt lat="41.2453099" lon="9.4224697"><ele>46.0</ele><time>2026-04-19T09:23:35.087Z</time></trkpt><trkpt lat="41.2454892" lon="9.4224909"><ele>46.0</ele><time>2026-04-19T09:23:36.087Z</time></trkpt><trkpt lat="41.245664" lon="9.4225371"><ele>46.0</ele><time>2026-04-19T09:23:37.087Z</time></trkpt><trkpt lat="41.2458336" lon="9.4226047"><ele>46.0</ele><time>2026-04-19T09:23:38.087Z</time></trkpt><trkpt lat="41.2460051" lon="9.422673"><ele>46.0</ele><time>2026-04-19T09:23:39.087Z</time></trkpt><trkpt lat="41.2461746" lon="9.4227377"><ele>46.0</ele><time>2026-04-19T09:23:40.087Z</time></trkpt><trkpt lat="41.2463419" lon="9.4228076"><ele>46.0</ele><time>2026-04-19T09:23:41.087Z</time></trkpt><trkpt lat="41.2465048" lon="9.422875"><ele>46.0</ele><time>2026-04-19T09:23:42.087Z</time></trkpt><trkpt lat="41.246662" lon="9.4229385"><ele>46.0</ele><time>2026-04-19T09:23:43.087Z</time></trkpt><trkpt lat="41.2468136" lon="9.4229982"><ele>46.0</ele><time>2026-04-19T09:23:44.087Z</time></trkpt><trkpt lat="41.2469602" lon="9.4230561"><ele>46.0</ele><time>2026-04-19T09:23:45.087Z</time></trkpt><trkpt lat="41.2471032" lon="9.4231113"><ele>46.0</ele><time>2026-04-19T09:23:46.087Z</time></trkpt><trkpt lat="41.2472399" lon="9.4231759"><ele>46.0</ele><time>2026-04-19T09:23:47.087Z</time></trkpt><trkpt lat="41.2473691" lon="9.4232497"><ele>46.25</ele><time>2026-04-19T09:23:48.087Z</time></trkpt><trkpt lat="41.2474952" lon="9.4233231"><ele>46.5</ele><time>2026-04-19T09:23:49.087Z</time></trkpt><trkpt lat="41.2476112" lon="9.4234079"><ele>46.75</ele><time>2026-04-19T09:23:50.086Z</time></trkpt><trkpt lat="41.2477164" lon="9.4235134"><ele>47.0</ele><time>2026-04-19T09:23:51.086Z</time></trkpt><trkpt lat="41.2478073" lon="9.4236346"><ele>47.0</ele><time>2026-04-19T09:23:52.087Z</time></trkpt><trkpt lat="41.2478785" lon="9.4237867"><ele>47.0</ele><time>2026-04-19T09:23:53.087Z</time></trkpt><trkpt lat="41.2479118" lon="9.4239477"><ele>47.0</ele><time>2026-04-19T09:23:54.087Z</time></trkpt><trkpt lat="41.2479047" lon="9.4241118"><ele>47.0</ele><time>2026-04-19T09:23:55.087Z</time></trkpt><trkpt lat="41.2478615" lon="9.4242607"><ele>45.75</ele><time>2026-04-19T09:23:56.087Z</time></trkpt><trkpt lat="41.2477897" lon="9.4243979"><ele>44.5</ele><time>2026-04-19T09:23:57.087Z</time></trkpt><trkpt lat="41.2477003" lon="9.4245221"><ele>43.25</ele><time>2026-04-19T09:23:58.087Z</time></trkpt><trkpt lat="41.2476109" lon="9.4246636"><ele>42.0</ele><time>2026-04-19T09:23:59.087Z</time></trkpt><trkpt lat="41.2475307" lon="9.424833"><ele>40.666666666666664</ele><time>2026-04-19T09:24:00.087Z</time></trkpt><trkpt lat="41.2474462" lon="9.425004"><ele>39.33333333333333</ele><time>2026-04-19T09:24:01.087Z</time></trkpt><trkpt lat="41.2473638" lon="9.4251747"><ele>38.0</ele><time>2026-04-19T09:24:02.087Z</time></trkpt><trkpt lat="41.2472854" lon="9.4253492"><ele>34.75</ele><time>2026-04-19T09:24:03.087Z</time></trkpt><trkpt lat="41.2472063" lon="9.4255217"><ele>31.5</ele><time>2026-04-19T09:24:04.086Z</time></trkpt><trkpt lat="41.2471285" lon="9.4256916"><ele>28.25</ele><time>2026-04-19T09:24:05.087Z</time></trkpt><trkpt lat="41.2470514" lon="9.4258545"><ele>25.0</ele><time>2026-04-19T09:24:06.087Z</time></trkpt><trkpt lat="41.2469827" lon="9.4259984"><ele>25.0</ele><time>2026-04-19T09:24:07.086Z</time></trkpt><trkpt lat="41.2469243" lon="9.4261377"><ele>25.0</ele><time>2026-04-19T09:24:08.087Z</time></trkpt><trkpt lat="41.2468911" lon="9.4262929"><ele>25.0</ele><time>2026-04-19T09:24:09.087Z</time></trkpt><trkpt lat="41.2469047" lon="9.4264556"><ele>25.0</ele><time>2026-04-19T09:24:10.087Z</time></trkpt><trkpt lat="41.2469509" lon="9.4265999"><ele>24.75</ele><time>2026-04-19T09:24:11.087Z</time></trkpt><trkpt lat="41.2470295" lon="9.4267245"><ele>24.5</ele><time>2026-04-19T09:24:12.087Z</time></trkpt><trkpt lat="41.2471297" lon="9.4268327"><ele>24.25</ele><time>2026-04-19T09:24:13.087Z</time></trkpt><trkpt lat="41.2472352" lon="9.4269275"><ele>24.0</ele><time>2026-04-19T09:24:14.087Z</time></trkpt><trkpt lat="41.2473531" lon="9.4270051"><ele>24.0</ele><time>2026-04-19T09:24:15.087Z</time></trkpt><trkpt lat="41.2474843" lon="9.4270651"><ele>24.0</ele><time>2026-04-19T09:24:16.086Z</time></trkpt><trkpt lat="41.2476171" lon="9.4271146"><ele>24.0</ele><time>2026-04-19T09:24:17.086Z</time></trkpt><trkpt lat="41.2477509" lon="9.4271648"><ele>24.0</ele><time>2026-04-19T09:24:18.087Z</time></trkpt><trkpt lat="41.2478782" lon="9.4272011"><ele>21.8</ele><time>2026-04-19T09:24:19.087Z</time></trkpt><trkpt lat="41.247999" lon="9.4272166"><ele>19.599999999999998</ele><time>2026-04-19T09:24:20.087Z</time></trkpt><trkpt lat="41.2480994" lon="9.4272047"><ele>17.4</ele><time>2026-04-19T09:24:21.087Z</time></trkpt><trkpt lat="41.2481849" lon="9.427177"><ele>15.2</ele><time>2026-04-19T09:24:22.087Z</time></trkpt><trkpt lat="41.2482663" lon="9.4271777"><ele>13.0</ele><time>2026-04-19T09:24:23.087Z</time></trkpt><trkpt lat="41.2483365" lon="9.4272165"><ele>12.0</ele><time>2026-04-19T09:24:24.087Z</time></trkpt><trkpt lat="41.2484364" lon="9.4272874"><ele>11.0</ele><time>2026-04-19T09:24:26.087Z</time></trkpt><trkpt lat="41.248538" lon="9.4273097"><ele>10.0</ele><time>2026-04-19T09:24:28.087Z</time></trkpt><trkpt lat="41.2486095" lon="9.4272886"><ele>9.0</ele><time>2026-04-19T09:24:29.087Z</time></trkpt><trkpt lat="41.2487007" lon="9.4272563"><ele>8.0</ele><time>2026-04-19T09:24:30.087Z</time></trkpt><trkpt lat="41.2487972" lon="9.4272348"><ele>8.0</ele><time>2026-04-19T09:24:31.087Z</time></trkpt><trkpt lat="41.2489037" lon="9.427213"><ele>8.0</ele><time>2026-04-19T09:24:32.087Z</time></trkpt><trkpt lat="41.2490167" lon="9.4272105"><ele>8.0</ele><time>2026-04-19T09:24:33.087Z</time></trkpt><trkpt lat="41.2491335" lon="9.4272415"><ele>8.0</ele><time>2026-04-19T09:24:34.087Z</time></trkpt><trkpt lat="41.2492633" lon="9.4273158"><ele>8.0</ele><time>2026-04-19T09:24:35.087Z</time></trkpt><trkpt lat="41.2494099" lon="9.4274222"><ele>8.0</ele><time>2026-04-19T09:24:36.087Z</time></trkpt><trkpt lat="41.2495645" lon="9.4275515"><ele>8.0</ele><time>2026-04-19T09:24:37.087Z</time></trkpt><trkpt lat="41.2497086" lon="9.4276755"><ele>14.333333333333332</ele><time>2026-04-19T09:24:38.087Z</time></trkpt><trkpt lat="41.2498778" lon="9.4277823"><ele>20.666666666666668</ele><time>2026-04-19T09:24:39.087Z</time></trkpt><trkpt lat="41.2500721" lon="9.4278553"><ele>27.0</ele><time>2026-04-19T09:24:40.086Z</time></trkpt><trkpt lat="41.2502572" lon="9.4279217"><ele>27.0</ele><time>2026-04-19T09:24:41.086Z</time></trkpt><trkpt lat="41.2504539" lon="9.4279763"><ele>27.0</ele><time>2026-04-19T09:24:42.087Z</time></trkpt><trkpt lat="41.250656" lon="9.4280155"><ele>27.0</ele><time>2026-04-19T09:24:43.087Z</time></trkpt><trkpt lat="41.2508421" lon="9.4280395"><ele>23.0</ele><time>2026-04-19T09:24:44.086Z</time></trkpt><trkpt lat="41.2510076" lon="9.4280878"><ele>19.0</ele><time>2026-04-19T09:24:45.087Z</time></trkpt><trkpt lat="41.2511465" lon="9.4281343"><ele>15.0</ele><time>2026-04-19T09:24:46.087Z</time></trkpt><trkpt lat="41.2512909" lon="9.4281408"><ele>15.0</ele><time>2026-04-19T09:24:47.086Z</time></trkpt><trkpt lat="41.2514422" lon="9.4281058"><ele>15.0</ele><time>2026-04-19T09:24:48.087Z</time></trkpt><trkpt lat="41.2515877" lon="9.42801"><ele>15.0</ele><time>2026-04-19T09:24:49.087Z</time></trkpt><trkpt lat="41.251712" lon="9.4279021"><ele>19.75</ele><time>2026-04-19T09:24:50.087Z</time></trkpt><trkpt lat="41.2518308" lon="9.4277995"><ele>24.5</ele><time>2026-04-19T09:24:51.087Z</time></trkpt><trkpt lat="41.2519458" lon="9.4277227"><ele>29.25</ele><time>2026-04-19T09:24:52.087Z</time></trkpt><trkpt lat="41.2520711" lon="9.4276929"><ele>34.0</ele><time>2026-04-19T09:24:53.086Z</time></trkpt><trkpt lat="41.2521943" lon="9.4277145"><ele>33.5</ele><time>2026-04-19T09:24:54.087Z</time></trkpt><trkpt lat="41.2523074" lon="9.4277927"><ele>33.0</ele><time>2026-04-19T09:24:55.087Z</time></trkpt><trkpt lat="41.2524215" lon="9.4279324"><ele>32.5</ele><time>2026-04-19T09:24:56.087Z</time></trkpt><trkpt lat="41.2525313" lon="9.4280884"><ele>32.0</ele><time>2026-04-19T09:24:57.087Z</time></trkpt><trkpt lat="41.252637" lon="9.4282331"><ele>29.25</ele><time>2026-04-19T09:24:58.086Z</time></trkpt><trkpt lat="41.2527544" lon="9.4283488"><ele>26.5</ele><time>2026-04-19T09:24:59.087Z</time></trkpt><trkpt lat="41.2528815" lon="9.4284163"><ele>23.75</ele><time>2026-04-19T09:25:00.087Z</time></trkpt><trkpt lat="41.2530151" lon="9.4284424"><ele>21.0</ele><time>2026-04-19T09:25:01.087Z</time></trkpt><trkpt lat="41.2531581" lon="9.4284173"><ele>21.0</ele><time>2026-04-19T09:25:02.087Z</time></trkpt><trkpt lat="41.2533021" lon="9.4283452"><ele>21.0</ele><time>2026-04-19T09:25:03.087Z</time></trkpt><trkpt lat="41.2534559" lon="9.428257"><ele>21.0</ele><time>2026-04-19T09:25:04.087Z</time></trkpt><trkpt lat="41.2536029" lon="9.4281764"><ele>21.0</ele><time>2026-04-19T09:25:05.087Z</time></trkpt><trkpt lat="41.2537472" lon="9.4281004"><ele>21.0</ele><time>2026-04-19T09:25:06.087Z</time></trkpt><trkpt lat="41.2538885" lon="9.4280252"><ele>21.0</ele><time>2026-04-19T09:25:07.087Z</time></trkpt><trkpt lat="41.2540292" lon="9.4279838"><ele>18.0</ele><time>2026-04-19T09:25:08.087Z</time></trkpt><trkpt lat="41.2541689" lon="9.427987"><ele>15.0</ele><time>2026-04-19T09:25:09.087Z</time></trkpt><trkpt lat="41.2543183" lon="9.4280257"><ele>12.0</ele><time>2026-04-19T09:25:10.087Z</time></trkpt><trkpt lat="41.2544752" lon="9.4280788"><ele>12.0</ele><time>2026-04-19T09:25:11.087Z</time></trkpt><trkpt lat="41.2546249" lon="9.428133"><ele>12.0</ele><time>2026-04-19T09:25:12.087Z</time></trkpt><trkpt lat="41.2547689" lon="9.4281807"><ele>12.0</ele><time>2026-04-19T09:25:13.087Z</time></trkpt><trkpt lat="41.2549049" lon="9.4282263"><ele>12.0</ele><time>2026-04-19T09:25:14.086Z</time></trkpt><trkpt lat="41.2550347" lon="9.4282722"><ele>10.5</ele><time>2026-04-19T09:25:15.087Z</time></trkpt><trkpt lat="41.2551613" lon="9.4283043"><ele>9.0</ele><time>2026-04-19T09:25:16.087Z</time></trkpt><trkpt lat="41.2552877" lon="9.4282896"><ele>7.5</ele><time>2026-04-19T09:25:17.087Z</time></trkpt><trkpt lat="41.2554071" lon="9.4282238"><ele>6.0</ele><time>2026-04-19T09:25:18.087Z</time></trkpt><trkpt lat="41.2555168" lon="9.4281071"><ele>8.0</ele><time>2026-04-19T09:25:19.087Z</time></trkpt><trkpt lat="41.255612" lon="9.4279429"><ele>10.0</ele><time>2026-04-19T09:25:20.087Z</time></trkpt><trkpt lat="41.2557096" lon="9.4277737"><ele>12.0</ele><time>2026-04-19T09:25:21.087Z</time></trkpt><trkpt lat="41.2557938" lon="9.4276106"><ele>12.0</ele><time>2026-04-19T09:25:22.087Z</time></trkpt><trkpt lat="41.2558743" lon="9.4274572"><ele>12.0</ele><time>2026-04-19T09:25:23.086Z</time></trkpt><trkpt lat="41.2559485" lon="9.4273081"><ele>12.0</ele><time>2026-04-19T09:25:24.087Z</time></trkpt><trkpt lat="41.2560407" lon="9.427163"><ele>12.0</ele><time>2026-04-19T09:25:25.087Z</time></trkpt><trkpt lat="41.2561513" lon="9.4270421"><ele>11.0</ele><time>2026-04-19T09:25:26.087Z</time></trkpt><trkpt lat="41.2562696" lon="9.426948"><ele>10.0</ele><time>2026-04-19T09:25:27.087Z</time></trkpt><trkpt lat="41.2563864" lon="9.4268902"><ele>9.0</ele><time>2026-04-19T09:25:28.087Z</time></trkpt><trkpt lat="41.2564894" lon="9.4268285"><ele>8.0</ele><time>2026-04-19T09:25:29.087Z</time></trkpt><trkpt lat="41.2565796" lon="9.4267397"><ele>8.0</ele><time>2026-04-19T09:25:30.087Z</time></trkpt><trkpt lat="41.2566598" lon="9.4266205"><ele>8.0</ele><time>2026-04-19T09:25:31.086Z</time></trkpt><trkpt lat="41.2567327" lon="9.4264719"><ele>8.0</ele><time>2026-04-19T09:25:32.087Z</time></trkpt><trkpt lat="41.2567982" lon="9.4263124"><ele>8.0</ele><time>2026-04-19T09:25:33.087Z</time></trkpt><trkpt lat="41.2568564" lon="9.4261528"><ele>11.0</ele><time>2026-04-19T09:25:34.086Z</time></trkpt><trkpt lat="41.2569133" lon="9.4260007"><ele>14.0</ele><time>2026-04-19T09:25:35.087Z</time></trkpt><trkpt lat="41.2569686" lon="9.4258449"><ele>17.0</ele><time>2026-04-19T09:25:36.087Z</time></trkpt><trkpt lat="41.2570202" lon="9.4256804"><ele>20.0</ele><time>2026-04-19T09:25:37.087Z</time></trkpt><trkpt lat="41.2570608" lon="9.4255087"><ele>21.25</ele><time>2026-04-19T09:25:38.087Z</time></trkpt><trkpt lat="41.2570819" lon="9.4253345"><ele>22.5</ele><time>2026-04-19T09:25:39.086Z</time></trkpt><trkpt lat="41.2570905" lon="9.425154"><ele>23.75</ele><time>2026-04-19T09:25:40.086Z</time></trkpt><trkpt lat="41.2570901" lon="9.4249685"><ele>25.0</ele><time>2026-04-19T09:25:41.086Z</time></trkpt><trkpt lat="41.2570932" lon="9.4247884"><ele>26.25</ele><time>2026-04-19T09:25:42.086Z</time></trkpt><trkpt lat="41.2571079" lon="9.4246098"><ele>27.5</ele><time>2026-04-19T09:25:43.087Z</time></trkpt><trkpt lat="41.2571483" lon="9.4244239"><ele>28.75</ele><time>2026-04-19T09:25:44.087Z</time></trkpt><trkpt lat="41.2572027" lon="9.4242357"><ele>30.0</ele><time>2026-04-19T09:25:45.087Z</time></trkpt><trkpt lat="41.2572407" lon="9.4240471"><ele>30.0</ele><time>2026-04-19T09:25:46.086Z</time></trkpt><trkpt lat="41.257263" lon="9.4238468"><ele>30.0</ele><time>2026-04-19T09:25:47.087Z</time></trkpt><trkpt lat="41.2572638" lon="9.4236444"><ele>30.0</ele><time>2026-04-19T09:25:48.087Z</time></trkpt><trkpt lat="41.2572649" lon="9.4234458"><ele>29.75</ele><time>2026-04-19T09:25:49.087Z</time></trkpt><trkpt lat="41.2572712" lon="9.4232535"><ele>29.5</ele><time>2026-04-19T09:25:50.086Z</time></trkpt><trkpt lat="41.2572892" lon="9.423061"><ele>29.25</ele><time>2026-04-19T09:25:51.087Z</time></trkpt><trkpt lat="41.2573106" lon="9.4228579"><ele>29.0</ele><time>2026-04-19T09:25:52.087Z</time></trkpt><trkpt lat="41.2573292" lon="9.4226448"><ele>28.333333333333332</ele><time>2026-04-19T09:25:53.086Z</time></trkpt><trkpt lat="41.2573538" lon="9.4224346"><ele>27.666666666666664</ele><time>2026-04-19T09:25:54.087Z</time></trkpt><trkpt lat="41.2573706" lon="9.4222302"><ele>27.0</ele><time>2026-04-19T09:25:55.087Z</time></trkpt><trkpt lat="41.2573786" lon="9.4220229"><ele>27.0</ele><time>2026-04-19T09:25:56.086Z</time></trkpt><trkpt lat="41.2573756" lon="9.4218115"><ele>27.0</ele><time>2026-04-19T09:25:57.087Z</time></trkpt><trkpt lat="41.2573598" lon="9.4216002"><ele>27.0</ele><time>2026-04-19T09:25:58.087Z</time></trkpt><trkpt lat="41.2573377" lon="9.4213969"><ele>26.666666666666664</ele><time>2026-04-19T09:25:59.087Z</time></trkpt><trkpt lat="41.2573184" lon="9.4211898"><ele>26.333333333333332</ele><time>2026-04-19T09:26:00.087Z</time></trkpt><trkpt lat="41.2572974" lon="9.4209801"><ele>26.0</ele><time>2026-04-19T09:26:01.087Z</time></trkpt><trkpt lat="41.25728" lon="9.4207778"><ele>24.666666666666664</ele><time>2026-04-19T09:26:02.087Z</time></trkpt><trkpt lat="41.2572796" lon="9.4205629"><ele>23.333333333333332</ele><time>2026-04-19T09:26:03.086Z</time></trkpt><trkpt lat="41.2572996" lon="9.4203373"><ele>22.0</ele><time>2026-04-19T09:26:04.087Z</time></trkpt><trkpt lat="41.2573207" lon="9.4201108"><ele>22.0</ele><time>2026-04-19T09:26:05.087Z</time></trkpt><trkpt lat="41.2573381" lon="9.4198874"><ele>22.0</ele><time>2026-04-19T09:26:06.087Z</time></trkpt><trkpt lat="41.2573414" lon="9.4196563"><ele>22.0</ele><time>2026-04-19T09:26:07.086Z</time></trkpt><trkpt lat="41.2573341" lon="9.4194334"><ele>19.666666666666664</ele><time>2026-04-19T09:26:08.087Z</time></trkpt><trkpt lat="41.2573247" lon="9.4192179"><ele>17.333333333333332</ele><time>2026-04-19T09:26:09.087Z</time></trkpt><trkpt lat="41.2573089" lon="9.4190021"><ele>15.0</ele><time>2026-04-19T09:26:10.087Z</time></trkpt><trkpt lat="41.2572981" lon="9.4187864"><ele>14.75</ele><time>2026-04-19T09:26:11.087Z</time></trkpt><trkpt lat="41.2572886" lon="9.4185801"><ele>14.5</ele><time>2026-04-19T09:26:12.087Z</time></trkpt><trkpt lat="41.2572772" lon="9.4184068"><ele>14.25</ele><time>2026-04-19T09:26:13.087Z</time></trkpt><trkpt lat="41.2572531" lon="9.4182526"><ele>14.0</ele><time>2026-04-19T09:26:14.087Z</time></trkpt><trkpt lat="41.2571945" lon="9.4181273"><ele>14.0</ele><time>2026-04-19T09:26:15.087Z</time></trkpt><trkpt lat="41.2571066" lon="9.4180451"><ele>14.0</ele><time>2026-04-19T09:26:16.087Z</time></trkpt><trkpt lat="41.2569999" lon="9.4180037"><ele>14.0</ele><time>2026-04-19T09:26:17.086Z</time></trkpt><trkpt lat="41.2568817" lon="9.4179845"><ele>14.0</ele><time>2026-04-19T09:26:18.087Z</time></trkpt><trkpt lat="41.2566993" lon="9.4179994"><ele>14.0</ele><time>2026-04-19T09:26:19.086Z</time></trkpt><trkpt lat="41.2565464" lon="9.4180046"><ele>14.0</ele><time>2026-04-19T09:26:20.087Z</time></trkpt><trkpt lat="41.2563943" lon="9.4180145"><ele>14.0</ele><time>2026-04-19T09:26:21.087Z</time></trkpt><trkpt lat="41.256248" lon="9.4180239"><ele>14.0</ele><time>2026-04-19T09:26:22.087Z</time></trkpt><trkpt lat="41.2561104" lon="9.4180406"><ele>14.0</ele><time>2026-04-19T09:26:23.087Z</time></trkpt><trkpt lat="41.2559812" lon="9.4180806"><ele>14.0</ele><time>2026-04-19T09:26:24.087Z</time></trkpt><trkpt lat="41.2558481" lon="9.4181465"><ele>14.0</ele><time>2026-04-19T09:26:25.087Z</time></trkpt><trkpt lat="41.2557219" lon="9.4182299"><ele>12.5</ele><time>2026-04-19T09:26:26.087Z</time></trkpt><trkpt lat="41.2556022" lon="9.4183109"><ele>11.0</ele><time>2026-04-19T09:26:27.087Z</time></trkpt><trkpt lat="41.2554877" lon="9.4183879"><ele>9.5</ele><time>2026-04-19T09:26:28.087Z</time></trkpt><trkpt lat="41.2553838" lon="9.4184593"><ele>8.0</ele><time>2026-04-19T09:26:29.087Z</time></trkpt><trkpt lat="41.255286" lon="9.4184948"><ele>8.0</ele><time>2026-04-19T09:26:30.087Z</time></trkpt><trkpt lat="41.2551918" lon="9.418481"><ele>8.0</ele><time>2026-04-19T09:26:31.087Z</time></trkpt><trkpt lat="41.255113" lon="9.4184228"><ele>8.0</ele><time>2026-04-19T09:26:32.087Z</time></trkpt><trkpt lat="41.2550491" lon="9.4183306"><ele>8.0</ele><time>2026-04-19T09:26:33.087Z</time></trkpt><trkpt lat="41.2550191" lon="9.4182114"><ele>8.0</ele><time>2026-04-19T09:26:34.087Z</time></trkpt><trkpt lat="41.2550243" lon="9.418066"><ele>9.25</ele><time>2026-04-19T09:26:35.087Z</time></trkpt><trkpt lat="41.2550608" lon="9.4179176"><ele>10.5</ele><time>2026-04-19T09:26:36.087Z</time></trkpt><trkpt lat="41.2551178" lon="9.4177683"><ele>11.75</ele><time>2026-04-19T09:26:37.087Z</time></trkpt><trkpt lat="41.255199" lon="9.4176212"><ele>13.0</ele><time>2026-04-19T09:26:38.087Z</time></trkpt><trkpt lat="41.2553044" lon="9.4174928"><ele>13.0</ele><time>2026-04-19T09:26:39.087Z</time></trkpt><trkpt lat="41.2554132" lon="9.4173752"><ele>13.0</ele><time>2026-04-19T09:26:40.086Z</time></trkpt><trkpt lat="41.255526" lon="9.4172588"><ele>13.0</ele><time>2026-04-19T09:26:41.086Z</time></trkpt><trkpt lat="41.2556393" lon="9.4171468"><ele>13.0</ele><time>2026-04-19T09:26:42.087Z</time></trkpt><trkpt lat="41.2557425" lon="9.4170379"><ele>11.25</ele><time>2026-04-19T09:26:43.087Z</time></trkpt><trkpt lat="41.2558291" lon="9.4169251"><ele>9.5</ele><time>2026-04-19T09:26:44.086Z</time></trkpt><trkpt lat="41.2558914" lon="9.4167924"><ele>7.75</ele><time>2026-04-19T09:26:45.087Z</time></trkpt><trkpt lat="41.2559368" lon="9.4166388"><ele>6.0</ele><time>2026-04-19T09:26:46.087Z</time></trkpt><trkpt lat="41.2559566" lon="9.4164665"><ele>4.75</ele><time>2026-04-19T09:26:47.087Z</time></trkpt><trkpt lat="41.2559698" lon="9.4163101"><ele>3.5</ele><time>2026-04-19T09:26:48.087Z</time></trkpt><trkpt lat="41.2559605" lon="9.4161523"><ele>2.25</ele><time>2026-04-19T09:26:49.087Z</time></trkpt><trkpt lat="41.2559236" lon="9.4159956"><ele>1.0</ele><time>2026-04-19T09:26:50.087Z</time></trkpt><trkpt lat="41.255866" lon="9.4158487"><ele>1.0</ele><time>2026-04-19T09:26:51.087Z</time></trkpt><trkpt lat="41.2558015" lon="9.4157177"><ele>1.0</ele><time>2026-04-19T09:26:52.087Z</time></trkpt><trkpt lat="41.2557317" lon="9.415609"><ele>1.0</ele><time>2026-04-19T09:26:53.087Z</time></trkpt><trkpt lat="41.2556459" lon="9.4155242"><ele>1.0</ele><time>2026-04-19T09:26:54.086Z</time></trkpt><trkpt lat="41.2555406" lon="9.415487"><ele>1.0</ele><time>2026-04-19T09:26:55.087Z</time></trkpt><trkpt lat="41.2554243" lon="9.415499"><ele>2.25</ele><time>2026-04-19T09:26:56.087Z</time></trkpt><trkpt lat="41.2553101" lon="9.4155413"><ele>3.5</ele><time>2026-04-19T09:26:57.087Z</time></trkpt><trkpt lat="41.2551924" lon="9.4155884"><ele>4.75</ele><time>2026-04-19T09:26:58.087Z</time></trkpt><trkpt lat="41.2550633" lon="9.4156184"><ele>6.0</ele><time>2026-04-19T09:26:59.087Z</time></trkpt><trkpt lat="41.2549275" lon="9.4156325"><ele>5.666666666666667</ele><time>2026-04-19T09:27:00.086Z</time></trkpt><trkpt lat="41.2547854" lon="9.4156346"><ele>5.333333333333334</ele><time>2026-04-19T09:27:01.086Z</time></trkpt><trkpt lat="41.2546281" lon="9.415632"><ele>5.0</ele><time>2026-04-19T09:27:02.086Z</time></trkpt><trkpt lat="41.2544675" lon="9.4156273"><ele>5.0</ele><time>2026-04-19T09:27:03.086Z</time></trkpt><trkpt lat="41.2543119" lon="9.4156084"><ele>5.0</ele><time>2026-04-19T09:27:04.087Z</time></trkpt><trkpt lat="41.2541518" lon="9.4155633"><ele>5.0</ele><time>2026-04-19T09:27:05.086Z</time></trkpt><trkpt lat="41.2539943" lon="9.4155007"><ele>4.666666666666667</ele><time>2026-04-19T09:27:06.087Z</time></trkpt><trkpt lat="41.2538261" lon="9.415428"><ele>4.333333333333333</ele><time>2026-04-19T09:27:07.087Z</time></trkpt><trkpt lat="41.2536495" lon="9.4153463"><ele>4.0</ele><time>2026-04-19T09:27:08.087Z</time></trkpt><trkpt lat="41.2534868" lon="9.4152687"><ele>4.0</ele><time>2026-04-19T09:27:09.087Z</time></trkpt><trkpt lat="41.253334" lon="9.4151976"><ele>4.0</ele><time>2026-04-19T09:27:10.086Z</time></trkpt><trkpt lat="41.2531842" lon="9.4151302"><ele>4.0</ele><time>2026-04-19T09:27:11.087Z</time></trkpt><trkpt lat="41.2530378" lon="9.415061"><ele>5.666666666666666</ele><time>2026-04-19T09:27:12.087Z</time></trkpt><trkpt lat="41.252892" lon="9.4150008"><ele>7.333333333333333</ele><time>2026-04-19T09:27:13.087Z</time></trkpt><trkpt lat="41.2527386" lon="9.4149697"><ele>9.0</ele><time>2026-04-19T09:27:14.086Z</time></trkpt><trkpt lat="41.2525848" lon="9.4149642"><ele>9.0</ele><time>2026-04-19T09:27:15.087Z</time></trkpt><trkpt lat="41.2524397" lon="9.4149716"><ele>9.0</ele><time>2026-04-19T09:27:16.086Z</time></trkpt><trkpt lat="41.2523001" lon="9.4150051"><ele>9.0</ele><time>2026-04-19T09:27:17.087Z</time></trkpt><trkpt lat="41.2521579" lon="9.4150744"><ele>9.0</ele><time>2026-04-19T09:27:18.086Z</time></trkpt><trkpt lat="41.2520224" lon="9.4151899"><ele>8.666666666666666</ele><time>2026-04-19T09:27:19.086Z</time></trkpt><trkpt lat="41.2518889" lon="9.4153326"><ele>8.333333333333332</ele><time>2026-04-19T09:27:20.087Z</time></trkpt><trkpt lat="41.2517483" lon="9.4154821"><ele>8.0</ele><time>2026-04-19T09:27:21.087Z</time></trkpt><trkpt lat="41.2516101" lon="9.4156262"><ele>8.0</ele><time>2026-04-19T09:27:22.087Z</time></trkpt><trkpt lat="41.2514795" lon="9.4157642"><ele>8.0</ele><time>2026-04-19T09:27:23.087Z</time></trkpt><trkpt lat="41.2513489" lon="9.4158951"><ele>8.0</ele><time>2026-04-19T09:27:24.087Z</time></trkpt><trkpt lat="41.251216" lon="9.4159976"><ele>6.5</ele><time>2026-04-19T09:27:25.087Z</time></trkpt><trkpt lat="41.25108" lon="9.4160516"><ele>5.0</ele><time>2026-04-19T09:27:26.086Z</time></trkpt><trkpt lat="41.2509394" lon="9.416066"><ele>3.5</ele><time>2026-04-19T09:27:27.087Z</time></trkpt><trkpt lat="41.2508122" lon="9.4160442"><ele>2.0</ele><time>2026-04-19T09:27:28.086Z</time></trkpt><trkpt lat="41.250695" lon="9.4160053"><ele>2.6</ele><time>2026-04-19T09:27:29.087Z</time></trkpt><trkpt lat="41.2505854" lon="9.4159684"><ele>3.2</ele><time>2026-04-19T09:27:30.087Z</time></trkpt><trkpt lat="41.2504815" lon="9.4159345"><ele>3.8</ele><time>2026-04-19T09:27:31.087Z</time></trkpt><trkpt lat="41.2503815" lon="9.4159005"><ele>4.4</ele><time>2026-04-19T09:27:32.087Z</time></trkpt><trkpt lat="41.2502831" lon="9.4158592"><ele>5.0</ele><time>2026-04-19T09:27:33.086Z</time></trkpt><trkpt lat="41.2501785" lon="9.4158149"><ele>5.0</ele><time>2026-04-19T09:27:34.087Z</time></trkpt><trkpt lat="41.2500655" lon="9.4157404"><ele>5.0</ele><time>2026-04-19T09:27:35.086Z</time></trkpt><trkpt lat="41.2499543" lon="9.4156485"><ele>5.0</ele><time>2026-04-19T09:27:36.087Z</time></trkpt><trkpt lat="41.2498441" lon="9.4155403"><ele>5.0</ele><time>2026-04-19T09:27:37.087Z</time></trkpt><trkpt lat="41.2497347" lon="9.4154241"><ele>5.0</ele><time>2026-04-19T09:27:38.087Z</time></trkpt><trkpt lat="41.2496216" lon="9.4153109"><ele>5.0</ele><time>2026-04-19T09:27:39.086Z</time></trkpt><trkpt lat="41.249515" lon="9.4151966"><ele>5.0</ele><time>2026-04-19T09:27:40.086Z</time></trkpt><trkpt lat="41.2494201" lon="9.4150717"><ele>5.0</ele><time>2026-04-19T09:27:41.086Z</time></trkpt><trkpt lat="41.2493412" lon="9.4149266"><ele>5.0</ele><time>2026-04-19T09:27:42.087Z</time></trkpt><trkpt lat="41.24929" lon="9.4147568"><ele>5.0</ele><time>2026-04-19T09:27:43.087Z</time></trkpt><trkpt lat="41.2492626" lon="9.414568"><ele>5.0</ele><time>2026-04-19T09:27:44.087Z</time></trkpt><trkpt lat="41.2492688" lon="9.414365"><ele>5.0</ele><time>2026-04-19T09:27:45.087Z</time></trkpt><trkpt lat="41.2492968" lon="9.4141539"><ele>4.666666666666667</ele><time>2026-04-19T09:27:46.087Z</time></trkpt><trkpt lat="41.2493274" lon="9.413934"><ele>4.333333333333333</ele><time>2026-04-19T09:27:47.087Z</time></trkpt><trkpt lat="41.249358" lon="9.4137185"><ele>4.0</ele><time>2026-04-19T09:27:48.087Z</time></trkpt><trkpt lat="41.2493806" lon="9.41352"><ele>4.75</ele><time>2026-04-19T09:27:49.087Z</time></trkpt><trkpt lat="41.2493943" lon="9.4133275"><ele>5.5</ele><time>2026-04-19T09:27:50.087Z</time></trkpt><trkpt lat="41.2493771" lon="9.4131274"><ele>6.25</ele><time>2026-04-19T09:27:51.087Z</time></trkpt><trkpt lat="41.2493444" lon="9.4129376"><ele>7.0</ele><time>2026-04-19T09:27:52.087Z</time></trkpt><trkpt lat="41.249305" lon="9.4127604"><ele>7.0</ele><time>2026-04-19T09:27:53.087Z</time></trkpt><trkpt lat="41.2492715" lon="9.4125959"><ele>7.0</ele><time>2026-04-19T09:27:54.086Z</time></trkpt><trkpt lat="41.2492532" lon="9.4124426"><ele>7.0</ele><time>2026-04-19T09:27:55.087Z</time></trkpt><trkpt lat="41.2492626" lon="9.4122868"><ele>7.0</ele><time>2026-04-19T09:27:56.087Z</time></trkpt><trkpt lat="41.249298" lon="9.4121194"><ele>9.666666666666668</ele><time>2026-04-19T09:27:57.087Z</time></trkpt><trkpt lat="41.2493523" lon="9.411941"><ele>12.333333333333334</ele><time>2026-04-19T09:27:58.087Z</time></trkpt><trkpt lat="41.2494129" lon="9.4117485"><ele>15.0</ele><time>2026-04-19T09:27:59.086Z</time></trkpt><trkpt lat="41.2494698" lon="9.4115598"><ele>15.0</ele><time>2026-04-19T09:28:00.087Z</time></trkpt><trkpt lat="41.2495231" lon="9.4113868"><ele>15.0</ele><time>2026-04-19T09:28:01.087Z</time></trkpt><trkpt lat="41.2495711" lon="9.4112211"><ele>15.0</ele><time>2026-04-19T09:28:02.086Z</time></trkpt><trkpt lat="41.249607" lon="9.411044"><ele>15.0</ele><time>2026-04-19T09:28:03.087Z</time></trkpt><trkpt lat="41.2496298" lon="9.4108529"><ele>17.5</ele><time>2026-04-19T09:28:04.087Z</time></trkpt><trkpt lat="41.2496402" lon="9.4106498"><ele>20.0</ele><time>2026-04-19T09:28:05.087Z</time></trkpt><trkpt lat="41.2496424" lon="9.410451"><ele>22.5</ele><time>2026-04-19T09:28:06.087Z</time></trkpt><trkpt lat="41.249666" lon="9.4102726"><ele>25.0</ele><time>2026-04-19T09:28:07.087Z</time></trkpt><trkpt lat="41.2497141" lon="9.4101176"><ele>25.0</ele><time>2026-04-19T09:28:08.087Z</time></trkpt><trkpt lat="41.2497617" lon="9.4099832"><ele>25.0</ele><time>2026-04-19T09:28:09.087Z</time></trkpt><trkpt lat="41.2497814" lon="9.4098516"><ele>25.0</ele><time>2026-04-19T09:28:10.086Z</time></trkpt><trkpt lat="41.249754" lon="9.4097251"><ele>25.0</ele><time>2026-04-19T09:28:11.087Z</time></trkpt><trkpt lat="41.2497263" lon="9.4096129"><ele>25.0</ele><time>2026-04-19T09:28:12.087Z</time></trkpt><trkpt lat="41.2495662" lon="9.4095801"><ele>24.0</ele><time>2026-04-19T09:28:13.087Z</time></trkpt><trkpt lat="41.2494284" lon="9.4095475"><ele>23.0</ele><time>2026-04-19T09:28:14.087Z</time></trkpt><trkpt lat="41.2492663" lon="9.4094843"><ele>22.0</ele><time>2026-04-19T09:28:15.087Z</time></trkpt><trkpt lat="41.2490881" lon="9.4093929"><ele>24.333333333333332</ele><time>2026-04-19T09:28:16.087Z</time></trkpt><trkpt lat="41.2488867" lon="9.4093205"><ele>26.666666666666664</ele><time>2026-04-19T09:28:17.087Z</time></trkpt><trkpt lat="41.2486926" lon="9.4092695"><ele>29.0</ele><time>2026-04-19T09:28:18.087Z</time></trkpt><trkpt lat="41.2485133" lon="9.4092278"><ele>29.0</ele><time>2026-04-19T09:28:19.087Z</time></trkpt><trkpt lat="41.2483291" lon="9.4091826"><ele>29.0</ele><time>2026-04-19T09:28:20.087Z</time></trkpt><trkpt lat="41.2481687" lon="9.4091423"><ele>29.0</ele><time>2026-04-19T09:28:21.086Z</time></trkpt><trkpt lat="41.2480205" lon="9.4091109"><ele>29.0</ele><time>2026-04-19T09:28:22.086Z</time></trkpt><trkpt lat="41.2478877" lon="9.4090799"><ele>29.0</ele><time>2026-04-19T09:28:23.086Z</time></trkpt><trkpt lat="41.247771" lon="9.4090506"><ele>29.0</ele><time>2026-04-19T09:28:24.086Z</time></trkpt><trkpt lat="41.2476689" lon="9.4090289"><ele>29.0</ele><time>2026-04-19T09:28:25.087Z</time></trkpt><trkpt lat="41.2475783" lon="9.4090134"><ele>29.0</ele><time>2026-04-19T09:28:26.087Z</time></trkpt><trkpt lat="41.2475121" lon="9.4089915"><ele>28.999999999999996</ele><time>2026-04-19T09:28:27.087Z</time></trkpt><trkpt lat="41.2474527" lon="9.4089289"><ele>29.0</ele><time>2026-04-19T09:28:29.087Z</time></trkpt><trkpt lat="41.2474494" lon="9.4088378"><ele>29.0</ele><time>2026-04-19T09:28:31.087Z</time></trkpt><trkpt lat="41.2474884" lon="9.4087087"><ele>29.0</ele><time>2026-04-19T09:28:33.087Z</time></trkpt><trkpt lat="41.2475159" lon="9.4086178"><ele>28.999999999999996</ele><time>2026-04-19T09:28:34.086Z</time></trkpt><trkpt lat="41.2475456" lon="9.4085057"><ele>29.0</ele><time>2026-04-19T09:28:35.087Z</time></trkpt><trkpt lat="41.2475743" lon="9.4083735"><ele>28.75</ele><time>2026-04-19T09:28:36.087Z</time></trkpt><trkpt lat="41.2476011" lon="9.408224"><ele>28.5</ele><time>2026-04-19T09:28:37.087Z</time></trkpt><trkpt lat="41.2476285" lon="9.408062"><ele>28.25</ele><time>2026-04-19T09:28:38.087Z</time></trkpt><trkpt lat="41.2476645" lon="9.407877"><ele>28.0</ele><time>2026-04-19T09:28:39.087Z</time></trkpt><trkpt lat="41.2477053" lon="9.4077052"><ele>28.000000000000004</ele><time>2026-04-19T09:28:40.087Z</time></trkpt><trkpt lat="41.2477424" lon="9.4075683"><ele>28.0</ele><time>2026-04-19T09:28:41.087Z</time></trkpt><trkpt lat="41.2477709" lon="9.4074609"><ele>28.0</ele><time>2026-04-19T09:28:42.087Z</time></trkpt><trkpt lat="41.2477803" lon="9.4073632"><ele>28.0</ele><time>2026-04-19T09:28:43.086Z</time></trkpt><trkpt lat="41.2477776" lon="9.407263"><ele>28.000000000000004</ele><time>2026-04-19T09:28:44.086Z</time></trkpt><trkpt lat="41.2477699" lon="9.4071664"><ele>28.0</ele><time>2026-04-19T09:28:45.086Z</time></trkpt><trkpt lat="41.2477809" lon="9.4070724"><ele>27.666666666666668</ele><time>2026-04-19T09:28:46.086Z</time></trkpt><trkpt lat="41.2478026" lon="9.406969"><ele>27.333333333333336</ele><time>2026-04-19T09:28:47.086Z</time></trkpt><trkpt lat="41.2478368" lon="9.4068829"><ele>27.0</ele><time>2026-04-19T09:28:48.086Z</time></trkpt><trkpt lat="41.2478892" lon="9.4067889"><ele>26.666666666666664</ele><time>2026-04-19T09:28:49.086Z</time></trkpt><trkpt lat="41.2479434" lon="9.4066881"><ele>26.333333333333332</ele><time>2026-04-19T09:28:50.086Z</time></trkpt><trkpt lat="41.2479885" lon="9.4065845"><ele>26.0</ele><time>2026-04-19T09:28:51.085Z</time></trkpt><trkpt lat="41.2480392" lon="9.4064924"><ele>25.999999999999996</ele><time>2026-04-19T09:28:52.086Z</time></trkpt><trkpt lat="41.2480915" lon="9.4064066"><ele>26.0</ele><time>2026-04-19T09:28:53.085Z</time></trkpt><trkpt lat="41.2481548" lon="9.4063337"><ele>26.0</ele><time>2026-04-19T09:28:54.086Z</time></trkpt><trkpt lat="41.2482246" lon="9.4062573"><ele>26.0</ele><time>2026-04-19T09:28:55.086Z</time></trkpt><trkpt lat="41.2483016" lon="9.4061945"><ele>25.999999999999996</ele><time>2026-04-19T09:28:56.086Z</time></trkpt><trkpt lat="41.2483851" lon="9.4061405"><ele>26.0</ele><time>2026-04-19T09:28:57.086Z</time></trkpt><trkpt lat="41.2484778" lon="9.4060842"><ele>25.4</ele><time>2026-04-19T09:28:58.086Z</time></trkpt><trkpt lat="41.248576" lon="9.4060345"><ele>24.8</ele><time>2026-04-19T09:28:59.086Z</time></trkpt><trkpt lat="41.2486709" lon="9.405987"><ele>24.2</ele><time>2026-04-19T09:29:00.085Z</time></trkpt><trkpt lat="41.2487619" lon="9.4059353"><ele>23.599999999999998</ele><time>2026-04-19T09:29:01.086Z</time></trkpt><trkpt lat="41.2488497" lon="9.4058952"><ele>23.0</ele><time>2026-04-19T09:29:02.086Z</time></trkpt><trkpt lat="41.2489329" lon="9.4058573"><ele>23.599999999999998</ele><time>2026-04-19T09:29:03.086Z</time></trkpt><trkpt lat="41.2490172" lon="9.4058248"><ele>24.2</ele><time>2026-04-19T09:29:04.085Z</time></trkpt><trkpt lat="41.2491055" lon="9.4057939"><ele>24.8</ele><time>2026-04-19T09:29:05.086Z</time></trkpt><trkpt lat="41.2491886" lon="9.4057506"><ele>25.4</ele><time>2026-04-19T09:29:06.086Z</time></trkpt><trkpt lat="41.2492705" lon="9.4056992"><ele>26.0</ele><time>2026-04-19T09:29:07.086Z</time></trkpt><trkpt lat="41.249347" lon="9.4056301"><ele>26.0</ele><time>2026-04-19T09:29:08.086Z</time></trkpt><trkpt lat="41.2494153" lon="9.4055485"><ele>26.0</ele><time>2026-04-19T09:29:09.086Z</time></trkpt><trkpt lat="41.2494782" lon="9.4054639"><ele>26.0</ele><time>2026-04-19T09:29:10.086Z</time></trkpt><trkpt lat="41.2495467" lon="9.4053736"><ele>26.0</ele><time>2026-04-19T09:29:11.086Z</time></trkpt><trkpt lat="41.2496256" lon="9.4052876"><ele>26.0</ele><time>2026-04-19T09:29:12.086Z</time></trkpt><trkpt lat="41.2497048" lon="9.4052098"><ele>23.8</ele><time>2026-04-19T09:29:13.086Z</time></trkpt><trkpt lat="41.2497849" lon="9.4051469"><ele>21.6</ele><time>2026-04-19T09:29:14.085Z</time></trkpt><trkpt lat="41.2498747" lon="9.4051071"><ele>19.4</ele><time>2026-04-19T09:29:15.086Z</time></trkpt><trkpt lat="41.2499783" lon="9.4050856"><ele>17.2</ele><time>2026-04-19T09:29:16.086Z</time></trkpt><trkpt lat="41.2500843" lon="9.4050707"><ele>15.0</ele><time>2026-04-19T09:29:17.086Z</time></trkpt><trkpt lat="41.2501935" lon="9.4050588"><ele>14.75</ele><time>2026-04-19T09:29:18.086Z</time></trkpt><trkpt lat="41.2503031" lon="9.4050377"><ele>14.5</ele><time>2026-04-19T09:29:19.085Z</time></trkpt><trkpt lat="41.2504183" lon="9.4050139"><ele>14.25</ele><time>2026-04-19T09:29:20.086Z</time></trkpt><trkpt lat="41.2505275" lon="9.4049935"><ele>14.0</ele><time>2026-04-19T09:29:21.086Z</time></trkpt><trkpt lat="41.2506407" lon="9.4049778"><ele>13.6</ele><time>2026-04-19T09:29:22.085Z</time></trkpt><trkpt lat="41.2507573" lon="9.4049696"><ele>13.2</ele><time>2026-04-19T09:29:23.086Z</time></trkpt><trkpt lat="41.2508719" lon="9.4049637"><ele>12.799999999999999</ele><time>2026-04-19T09:29:24.086Z</time></trkpt><trkpt lat="41.2509744" lon="9.4049396"><ele>12.399999999999999</ele><time>2026-04-19T09:29:25.086Z</time></trkpt><trkpt lat="41.2510782" lon="9.4049239"><ele>12.0</ele><time>2026-04-19T09:29:26.086Z</time></trkpt><trkpt lat="41.2511839" lon="9.4049245"><ele>12.0</ele><time>2026-04-19T09:29:27.086Z</time></trkpt><trkpt lat="41.2512881" lon="9.4049296"><ele>12.0</ele><time>2026-04-19T09:29:28.085Z</time></trkpt><trkpt lat="41.2513892" lon="9.4049101"><ele>12.0</ele><time>2026-04-19T09:29:29.085Z</time></trkpt><trkpt lat="41.2514933" lon="9.4048701"><ele>12.0</ele><time>2026-04-19T09:29:30.086Z</time></trkpt><trkpt lat="41.2515852" lon="9.4048371"><ele>12.0</ele><time>2026-04-19T09:29:31.086Z</time></trkpt><trkpt lat="41.2516748" lon="9.4048106"><ele>12.399999999999999</ele><time>2026-04-19T09:29:32.085Z</time></trkpt><trkpt lat="41.2517636" lon="9.4047876"><ele>12.799999999999999</ele><time>2026-04-19T09:29:33.085Z</time></trkpt><trkpt lat="41.2518584" lon="9.4047636"><ele>13.2</ele><time>2026-04-19T09:29:34.085Z</time></trkpt><trkpt lat="41.2519659" lon="9.4047417"><ele>13.6</ele><time>2026-04-19T09:29:35.085Z</time></trkpt><trkpt lat="41.2520835" lon="9.4047091"><ele>14.0</ele><time>2026-04-19T09:29:36.085Z</time></trkpt><trkpt lat="41.2521905" lon="9.4046831"><ele>12.2</ele><time>2026-04-19T09:29:37.085Z</time></trkpt><trkpt lat="41.2522909" lon="9.4046503"><ele>10.399999999999999</ele><time>2026-04-19T09:29:38.085Z</time></trkpt><trkpt lat="41.2524002" lon="9.4046175"><ele>8.6</ele><time>2026-04-19T09:29:39.084Z</time></trkpt><trkpt lat="41.2525084" lon="9.404592"><ele>6.8</ele><time>2026-04-19T09:29:40.085Z</time></trkpt><trkpt lat="41.252614" lon="9.4045643"><ele>5.0</ele><time>2026-04-19T09:29:41.086Z</time></trkpt><trkpt lat="41.2527181" lon="9.4045415"><ele>5.0</ele><time>2026-04-19T09:29:42.085Z</time></trkpt><trkpt lat="41.252813" lon="9.404519"><ele>5.0</ele><time>2026-04-19T09:29:43.085Z</time></trkpt><trkpt lat="41.2529067" lon="9.4044972"><ele>5.0</ele><time>2026-04-19T09:29:44.085Z</time></trkpt><trkpt lat="41.2529917" lon="9.4044859"><ele>5.0</ele><time>2026-04-19T09:29:45.086Z</time></trkpt><trkpt lat="41.2530729" lon="9.4044673"><ele>5.0</ele><time>2026-04-19T09:29:46.086Z</time></trkpt><trkpt lat="41.2531471" lon="9.4044454"><ele>5.0</ele><time>2026-04-19T09:29:47.086Z</time></trkpt><trkpt lat="41.2532127" lon="9.404425"><ele>5.333333333333334</ele><time>2026-04-19T09:29:48.086Z</time></trkpt><trkpt lat="41.2533283" lon="9.4044428"><ele>5.666666666666667</ele><time>2026-04-19T09:29:50.086Z</time></trkpt><trkpt lat="41.2533833" lon="9.4044944"><ele>6.0</ele><time>2026-04-19T09:29:51.086Z</time></trkpt><trkpt lat="41.2534399" lon="9.4045715"><ele>6.333333333333334</ele><time>2026-04-19T09:29:52.086Z</time></trkpt><trkpt lat="41.2534829" lon="9.4046334"><ele>6.666666666666667</ele><time>2026-04-19T09:29:53.086Z</time></trkpt><trkpt lat="41.2535656" lon="9.4047033"><ele>7.0</ele><time>2026-04-19T09:29:55.086Z</time></trkpt><trkpt lat="41.253657" lon="9.4046813"><ele>7.0</ele><time>2026-04-19T09:29:57.086Z</time></trkpt><trkpt lat="41.2537159" lon="9.4046375"><ele>7.0</ele><time>2026-04-19T09:29:58.086Z</time></trkpt><trkpt lat="41.2537882" lon="9.404596"><ele>7.0</ele><time>2026-04-19T09:29:59.086Z</time></trkpt><trkpt lat="41.2538458" lon="9.4045584"><ele>7.0</ele><time>2026-04-19T09:30:00.086Z</time></trkpt><trkpt lat="41.2539062" lon="9.4045188"><ele>7.0</ele><time>2026-04-19T09:30:01.086Z</time></trkpt><trkpt lat="41.2539637" lon="9.4044836"><ele>7.0</ele><time>2026-04-19T09:30:02.086Z</time></trkpt><trkpt lat="41.2540281" lon="9.4044443"><ele>7.0</ele><time>2026-04-19T09:30:03.086Z</time></trkpt><trkpt lat="41.2541071" lon="9.4044025"><ele>6.833333333333334</ele><time>2026-04-19T09:30:04.085Z</time></trkpt><trkpt lat="41.2541773" lon="9.404363"><ele>6.666666666666667</ele><time>2026-04-19T09:30:05.086Z</time></trkpt><trkpt lat="41.2542434" lon="9.404325"><ele>6.5</ele><time>2026-04-19T09:30:06.086Z</time></trkpt><trkpt lat="41.2543119" lon="9.4042842"><ele>6.333333333333334</ele><time>2026-04-19T09:30:07.086Z</time></trkpt><trkpt lat="41.2543872" lon="9.404248"><ele>6.166666666666667</ele><time>2026-04-19T09:30:08.086Z</time></trkpt><trkpt lat="41.2544722" lon="9.4042052"><ele>6.0</ele><time>2026-04-19T09:30:09.086Z</time></trkpt><trkpt lat="41.2545488" lon="9.4041658"><ele>6.0</ele><time>2026-04-19T09:30:10.086Z</time></trkpt><trkpt lat="41.2546224" lon="9.404142"><ele>6.0</ele><time>2026-04-19T09:30:11.086Z</time></trkpt><trkpt lat="41.2546917" lon="9.4041262"><ele>6.0</ele><time>2026-04-19T09:30:12.086Z</time></trkpt><trkpt lat="41.254759" lon="9.404114"><ele>6.0</ele><time>2026-04-19T09:30:13.086Z</time></trkpt><trkpt lat="41.2548282" lon="9.4041071"><ele>6.0</ele><time>2026-04-19T09:30:14.086Z</time></trkpt><trkpt lat="41.2549546" lon="9.4041485"><ele>6.0</ele><time>2026-04-19T09:30:16.086Z</time></trkpt><trkpt lat="41.2550209" lon="9.4041969"><ele>5.833333333333333</ele><time>2026-04-19T09:30:17.086Z</time></trkpt><trkpt lat="41.255084" lon="9.4042475"><ele>5.666666666666667</ele><time>2026-04-19T09:30:18.086Z</time></trkpt><trkpt lat="41.2551426" lon="9.4042869"><ele>5.5</ele><time>2026-04-19T09:30:19.086Z</time></trkpt><trkpt lat="41.2552537" lon="9.4043092"><ele>5.333333333333334</ele><time>2026-04-19T09:30:21.086Z</time></trkpt><trkpt lat="41.2553211" lon="9.4042864"><ele>5.166666666666667</ele><time>2026-04-19T09:30:22.086Z</time></trkpt><trkpt lat="41.2554091" lon="9.4042431"><ele>5.0</ele><time>2026-04-19T09:30:23.086Z</time></trkpt><trkpt lat="41.255498" lon="9.4042011"><ele>5.0</ele><time>2026-04-19T09:30:24.086Z</time></trkpt><trkpt lat="41.2555763" lon="9.4041617"><ele>5.0</ele><time>2026-04-19T09:30:25.085Z</time></trkpt><trkpt lat="41.2556385" lon="9.404124"><ele>5.0</ele><time>2026-04-19T09:30:26.085Z</time></trkpt><trkpt lat="41.2557531" lon="9.4040754"><ele>5.0</ele><time>2026-04-19T09:30:28.086Z</time></trkpt><trkpt lat="41.2558665" lon="9.4040812"><ele>5.0</ele><time>2026-04-19T09:30:30.086Z</time></trkpt><trkpt lat="41.2559503" lon="9.4040877"><ele>5.0</ele><time>2026-04-19T09:30:32.086Z</time></trkpt><trkpt lat="41.2558829" lon="9.4040687"><ele>5.0</ele><time>2026-04-19T09:31:24.086Z</time></trkpt><trkpt lat="41.2557609" lon="9.4040662"><ele>5.0</ele><time>2026-04-19T09:31:26.086Z</time></trkpt><trkpt lat="41.255693" lon="9.4040862"><ele>5.0</ele><time>2026-04-19T09:31:27.086Z</time></trkpt><trkpt lat="41.2556227" lon="9.4041178"><ele>5.0</ele><time>2026-04-19T09:31:28.086Z</time></trkpt><trkpt lat="41.2555443" lon="9.4041615"><ele>5.0</ele><time>2026-04-19T09:31:29.086Z</time></trkpt><trkpt lat="41.2554679" lon="9.4042058"><ele>5.0</ele><time>2026-04-19T09:31:30.086Z</time></trkpt><trkpt lat="41.255396" lon="9.4042435"><ele>5.0</ele><time>2026-04-19T09:31:31.086Z</time></trkpt><trkpt lat="41.255333" lon="9.4042793"><ele>5.0</ele><time>2026-04-19T09:31:32.086Z</time></trkpt><trkpt lat="41.2552265" lon="9.4043139"><ele>5.0</ele><time>2026-04-19T09:31:34.086Z</time></trkpt><trkpt lat="41.2551092" lon="9.4042573"><ele>5.0</ele><time>2026-04-19T09:31:36.086Z</time></trkpt><trkpt lat="41.255046" lon="9.404205"><ele>5.0</ele><time>2026-04-19T09:31:37.086Z</time></trkpt><trkpt lat="41.2549883" lon="9.4041574"><ele>5.0</ele><time>2026-04-19T09:31:38.086Z</time></trkpt><trkpt lat="41.2549219" lon="9.404121"><ele>5.0</ele><time>2026-04-19T09:31:39.086Z</time></trkpt><trkpt lat="41.254846" lon="9.4041038"><ele>5.0</ele><time>2026-04-19T09:31:40.086Z</time></trkpt><trkpt lat="41.2547523" lon="9.4041146"><ele>5.0</ele><time>2026-04-19T09:31:41.085Z</time></trkpt><trkpt lat="41.2546624" lon="9.4041249"><ele>5.0</ele><time>2026-04-19T09:31:42.086Z</time></trkpt><trkpt lat="41.2545673" lon="9.4041543"><ele>5.166666666666667</ele><time>2026-04-19T09:31:43.085Z</time></trkpt><trkpt lat="41.2544764" lon="9.4042025"><ele>5.333333333333334</ele><time>2026-04-19T09:31:44.085Z</time></trkpt><trkpt lat="41.2543879" lon="9.4042471"><ele>5.5</ele><time>2026-04-19T09:31:45.086Z</time></trkpt><trkpt lat="41.2543075" lon="9.4042891"><ele>5.666666666666667</ele><time>2026-04-19T09:31:46.085Z</time></trkpt><trkpt lat="41.2542369" lon="9.4043307"><ele>5.833333333333333</ele><time>2026-04-19T09:31:47.086Z</time></trkpt><trkpt lat="41.2541609" lon="9.4043744"><ele>6.0</ele><time>2026-04-19T09:31:48.086Z</time></trkpt><trkpt lat="41.2540735" lon="9.4044213"><ele>6.0</ele><time>2026-04-19T09:31:49.086Z</time></trkpt><trkpt lat="41.2539823" lon="9.4044687"><ele>6.0</ele><time>2026-04-19T09:31:50.086Z</time></trkpt><trkpt lat="41.2538991" lon="9.4045083"><ele>6.0</ele><time>2026-04-19T09:31:51.086Z</time></trkpt><trkpt lat="41.2538239" lon="9.4045484"><ele>6.0</ele><time>2026-04-19T09:31:52.086Z</time></trkpt><trkpt lat="41.2537584" lon="9.4045983"><ele>6.0</ele><time>2026-04-19T09:31:53.086Z</time></trkpt><trkpt lat="41.2537043" lon="9.4046488"><ele>6.0</ele><time>2026-04-19T09:31:54.086Z</time></trkpt><trkpt lat="41.2535939" lon="9.4046919"><ele>6.199999999999999</ele><time>2026-04-19T09:31:56.086Z</time></trkpt><trkpt lat="41.2534898" lon="9.4046301"><ele>6.3999999999999995</ele><time>2026-04-19T09:31:58.085Z</time></trkpt><trkpt lat="41.253442" lon="9.4045666"><ele>6.6</ele><time>2026-04-19T09:31:59.086Z</time></trkpt><trkpt lat="41.2533919" lon="9.4044999"><ele>6.8</ele><time>2026-04-19T09:32:00.086Z</time></trkpt><trkpt lat="41.2533382" lon="9.4044528"><ele>7.0</ele><time>2026-04-19T09:32:01.086Z</time></trkpt><trkpt lat="41.2532064" lon="9.404419"><ele>6.6</ele><time>2026-04-19T09:32:03.085Z</time></trkpt><trkpt lat="41.2531213" lon="9.404439"><ele>6.199999999999999</ele><time>2026-04-19T09:32:04.085Z</time></trkpt><trkpt lat="41.2530253" lon="9.4044595"><ele>5.8</ele><time>2026-04-19T09:32:05.085Z</time></trkpt><trkpt lat="41.2529197" lon="9.4044857"><ele>5.4</ele><time>2026-04-19T09:32:06.086Z</time></trkpt><trkpt lat="41.2528183" lon="9.4045096"><ele>5.0</ele><time>2026-04-19T09:32:07.086Z</time></trkpt><trkpt lat="41.2527226" lon="9.4045262"><ele>5.0</ele><time>2026-04-19T09:32:08.086Z</time></trkpt><trkpt lat="41.2526209" lon="9.4045464"><ele>5.0</ele><time>2026-04-19T09:32:09.086Z</time></trkpt><trkpt lat="41.2525169" lon="9.4045681"><ele>5.0</ele><time>2026-04-19T09:32:10.086Z</time></trkpt><trkpt lat="41.2524101" lon="9.4045935"><ele>5.0</ele><time>2026-04-19T09:32:11.086Z</time></trkpt><trkpt lat="41.2523081" lon="9.4046266"><ele>5.0</ele><time>2026-04-19T09:32:12.086Z</time></trkpt><trkpt lat="41.2522126" lon="9.4046608"><ele>6.8</ele><time>2026-04-19T09:32:13.085Z</time></trkpt><trkpt lat="41.2521246" lon="9.4046778"><ele>8.6</ele><time>2026-04-19T09:32:14.086Z</time></trkpt><trkpt lat="41.2520431" lon="9.4046953"><ele>10.399999999999999</ele><time>2026-04-19T09:32:15.086Z</time></trkpt><trkpt lat="41.2519556" lon="9.4047189"><ele>12.2</ele><time>2026-04-19T09:32:16.086Z</time></trkpt><trkpt lat="41.2518623" lon="9.4047413"><ele>14.0</ele><time>2026-04-19T09:32:17.086Z</time></trkpt><trkpt lat="41.2517635" lon="9.404772"><ele>14.0</ele><time>2026-04-19T09:32:18.086Z</time></trkpt><trkpt lat="41.2516587" lon="9.4048077"><ele>13.999999999999998</ele><time>2026-04-19T09:32:19.086Z</time></trkpt><trkpt lat="41.2515502" lon="9.4048388"><ele>13.999999999999998</ele><time>2026-04-19T09:32:20.086Z</time></trkpt><trkpt lat="41.2514499" lon="9.4048756"><ele>14.0</ele><time>2026-04-19T09:32:21.086Z</time></trkpt><trkpt lat="41.2513579" lon="9.4048976"><ele>14.0</ele><time>2026-04-19T09:32:22.086Z</time></trkpt><trkpt lat="41.2512746" lon="9.404902"><ele>13.6</ele><time>2026-04-19T09:32:23.086Z</time></trkpt><trkpt lat="41.251197" lon="9.4048928"><ele>13.2</ele><time>2026-04-19T09:32:24.086Z</time></trkpt><trkpt lat="41.2510718" lon="9.4048964"><ele>12.799999999999999</ele><time>2026-04-19T09:32:26.086Z</time></trkpt><trkpt lat="41.2510041" lon="9.4049203"><ele>12.399999999999999</ele><time>2026-04-19T09:32:27.086Z</time></trkpt><trkpt lat="41.2509134" lon="9.4049465"><ele>12.0</ele><time>2026-04-19T09:32:28.086Z</time></trkpt><trkpt lat="41.2508075" lon="9.4049548"><ele>12.0</ele><time>2026-04-19T09:32:29.086Z</time></trkpt><trkpt lat="41.2507065" lon="9.4049633"><ele>12.0</ele><time>2026-04-19T09:32:30.086Z</time></trkpt><trkpt lat="41.2506141" lon="9.4049712"><ele>12.0</ele><time>2026-04-19T09:32:31.086Z</time></trkpt><trkpt lat="41.2505213" lon="9.4049853"><ele>12.0</ele><time>2026-04-19T09:32:32.086Z</time></trkpt><trkpt lat="41.2504184" lon="9.4049969"><ele>12.0</ele><time>2026-04-19T09:32:33.086Z</time></trkpt><trkpt lat="41.2503086" lon="9.405018"><ele>12.399999999999999</ele><time>2026-04-19T09:32:34.086Z</time></trkpt><trkpt lat="41.2501991" lon="9.4050351"><ele>12.799999999999999</ele><time>2026-04-19T09:32:35.085Z</time></trkpt><trkpt lat="41.2501053" lon="9.4050554"><ele>13.2</ele><time>2026-04-19T09:32:36.086Z</time></trkpt><trkpt lat="41.2500098" lon="9.4050701"><ele>13.6</ele><time>2026-04-19T09:32:37.086Z</time></trkpt><trkpt lat="41.2499254" lon="9.4050801"><ele>14.0</ele><time>2026-04-19T09:32:38.086Z</time></trkpt><trkpt lat="41.2498369" lon="9.4051074"><ele>14.2</ele><time>2026-04-19T09:32:39.086Z</time></trkpt><trkpt lat="41.2497506" lon="9.4051559"><ele>14.399999999999999</ele><time>2026-04-19T09:32:40.086Z</time></trkpt><trkpt lat="41.2496657" lon="9.4052309"><ele>14.6</ele><time>2026-04-19T09:32:41.086Z</time></trkpt><trkpt lat="41.249581" lon="9.4053217"><ele>14.8</ele><time>2026-04-19T09:32:42.086Z</time></trkpt><trkpt lat="41.2495025" lon="9.4054178"><ele>15.0</ele><time>2026-04-19T09:32:43.086Z</time></trkpt><trkpt lat="41.2494238" lon="9.4055225"><ele>17.75</ele><time>2026-04-19T09:32:44.086Z</time></trkpt><trkpt lat="41.2493442" lon="9.4056144"><ele>20.5</ele><time>2026-04-19T09:32:45.086Z</time></trkpt><trkpt lat="41.2492587" lon="9.4056867"><ele>23.25</ele><time>2026-04-19T09:32:46.086Z</time></trkpt><trkpt lat="41.2491466" lon="9.4057488"><ele>26.0</ele><time>2026-04-19T09:32:47.086Z</time></trkpt><trkpt lat="41.2490159" lon="9.4058061"><ele>25.4</ele><time>2026-04-19T09:32:48.085Z</time></trkpt><trkpt lat="41.2489007" lon="9.4058547"><ele>24.8</ele><time>2026-04-19T09:32:49.086Z</time></trkpt><trkpt lat="41.2487953" lon="9.4059091"><ele>24.2</ele><time>2026-04-19T09:32:50.086Z</time></trkpt><trkpt lat="41.2486925" lon="9.4059545"><ele>23.599999999999998</ele><time>2026-04-19T09:32:51.086Z</time></trkpt><trkpt lat="41.2485941" lon="9.4059972"><ele>23.0</ele><time>2026-04-19T09:32:52.086Z</time></trkpt><trkpt lat="41.2484964" lon="9.4060436"><ele>23.0</ele><time>2026-04-19T09:32:53.086Z</time></trkpt><trkpt lat="41.2484026" lon="9.4061008"><ele>23.0</ele><time>2026-04-19T09:32:54.086Z</time></trkpt><trkpt lat="41.2483086" lon="9.4061624"><ele>23.0</ele><time>2026-04-19T09:32:55.086Z</time></trkpt><trkpt lat="41.2482213" lon="9.4062324"><ele>23.0</ele><time>2026-04-19T09:32:56.086Z</time></trkpt><trkpt lat="41.248149" lon="9.4063068"><ele>23.0</ele><time>2026-04-19T09:32:57.086Z</time></trkpt><trkpt lat="41.248078" lon="9.4064023"><ele>23.599999999999998</ele><time>2026-04-19T09:32:58.086Z</time></trkpt><trkpt lat="41.2480149" lon="9.4065243"><ele>24.2</ele><time>2026-04-19T09:32:59.086Z</time></trkpt><trkpt lat="41.247957" lon="9.4066474"><ele>24.8</ele><time>2026-04-19T09:33:00.086Z</time></trkpt><trkpt lat="41.247898" lon="9.4067515"><ele>25.4</ele><time>2026-04-19T09:33:01.086Z</time></trkpt><trkpt lat="41.2478441" lon="9.4068413"><ele>26.0</ele><time>2026-04-19T09:33:02.086Z</time></trkpt><trkpt lat="41.2478056" lon="9.4069394"><ele>26.0</ele><time>2026-04-19T09:33:03.086Z</time></trkpt><trkpt lat="41.247789" lon="9.4070435"><ele>26.0</ele><time>2026-04-19T09:33:04.086Z</time></trkpt><trkpt lat="41.2477858" lon="9.4071641"><ele>26.0</ele><time>2026-04-19T09:33:05.086Z</time></trkpt><trkpt lat="41.2477899" lon="9.4072833"><ele>26.0</ele><time>2026-04-19T09:33:06.086Z</time></trkpt><trkpt lat="41.2477785" lon="9.4074036"><ele>26.0</ele><time>2026-04-19T09:33:07.086Z</time></trkpt><trkpt lat="41.2477464" lon="9.4075533"><ele>26.25</ele><time>2026-04-19T09:33:08.086Z</time></trkpt><trkpt lat="41.2477006" lon="9.4077092"><ele>26.5</ele><time>2026-04-19T09:33:09.085Z</time></trkpt><trkpt lat="41.2476675" lon="9.4078613"><ele>26.75</ele><time>2026-04-19T09:33:10.086Z</time></trkpt><trkpt lat="41.2476385" lon="9.4080298"><ele>27.0</ele><time>2026-04-19T09:33:11.086Z</time></trkpt><trkpt lat="41.2476099" lon="9.4081858"><ele>27.0</ele><time>2026-04-19T09:33:12.086Z</time></trkpt><trkpt lat="41.2475832" lon="9.4083341"><ele>27.000000000000004</ele><time>2026-04-19T09:33:13.086Z</time></trkpt><trkpt lat="41.2475505" lon="9.408469"><ele>27.000000000000004</ele><time>2026-04-19T09:33:14.085Z</time></trkpt><trkpt lat="41.2475267" lon="9.4085744"><ele>27.0</ele><time>2026-04-19T09:33:15.086Z</time></trkpt><trkpt lat="41.2475047" lon="9.4086557"><ele>27.0</ele><time>2026-04-19T09:33:16.086Z</time></trkpt><trkpt lat="41.247471" lon="9.4087793"><ele>27.333333333333332</ele><time>2026-04-19T09:33:18.086Z</time></trkpt><trkpt lat="41.2474467" lon="9.4088674"><ele>27.666666666666664</ele><time>2026-04-19T09:34:00.085Z</time></trkpt><trkpt lat="41.2474643" lon="9.4089679"><ele>28.0</ele><time>2026-04-19T09:34:03.085Z</time></trkpt><trkpt lat="41.2475236" lon="9.4090121"><ele>28.333333333333332</ele><time>2026-04-19T09:34:04.086Z</time></trkpt><trkpt lat="41.2475999" lon="9.4090305"><ele>28.666666666666664</ele><time>2026-04-19T09:34:05.086Z</time></trkpt><trkpt lat="41.2476781" lon="9.4090473"><ele>29.0</ele><time>2026-04-19T09:34:06.086Z</time></trkpt><trkpt lat="41.2477651" lon="9.4090943"><ele>29.0</ele><time>2026-04-19T09:34:08.086Z</time></trkpt><trkpt lat="41.2476881" lon="9.4090143"><ele>29.0</ele><time>2026-04-19T09:34:16.085Z</time></trkpt><trkpt lat="41.2475986" lon="9.409003"><ele>29.0</ele><time>2026-04-19T09:34:17.086Z</time></trkpt><trkpt lat="41.2474935" lon="9.4089822"><ele>29.0</ele><time>2026-04-19T09:34:18.086Z</time></trkpt><trkpt lat="41.2473864" lon="9.4089604"><ele>29.0</ele><time>2026-04-19T09:34:19.085Z</time></trkpt><trkpt lat="41.2472736" lon="9.4089313"><ele>30.0</ele><time>2026-04-19T09:34:20.085Z</time></trkpt><trkpt lat="41.2471632" lon="9.4089085"><ele>31.0</ele><time>2026-04-19T09:34:21.086Z</time></trkpt><trkpt lat="41.2470483" lon="9.4088959"><ele>32.0</ele><time>2026-04-19T09:34:22.086Z</time></trkpt><trkpt lat="41.2469294" lon="9.4088926"><ele>33.0</ele><time>2026-04-19T09:34:23.086Z</time></trkpt><trkpt lat="41.2468053" lon="9.4088894"><ele>33.0</ele><time>2026-04-19T09:34:24.086Z</time></trkpt><trkpt lat="41.2466759" lon="9.4088879"><ele>33.0</ele><time>2026-04-19T09:34:25.086Z</time></trkpt><trkpt lat="41.2465439" lon="9.4088857"><ele>33.0</ele><time>2026-04-19T09:34:26.085Z</time></trkpt><trkpt lat="41.2464044" lon="9.4088837"><ele>33.0</ele><time>2026-04-19T09:34:27.085Z</time></trkpt><trkpt lat="41.2462609" lon="9.4088849"><ele>33.25</ele><time>2026-04-19T09:34:28.085Z</time></trkpt><trkpt lat="41.2461141" lon="9.4088835"><ele>33.5</ele><time>2026-04-19T09:34:29.084Z</time></trkpt><trkpt lat="41.2459639" lon="9.4088911"><ele>33.75</ele><time>2026-04-19T09:34:30.085Z</time></trkpt><trkpt lat="41.2458133" lon="9.4089134"><ele>34.0</ele><time>2026-04-19T09:34:31.085Z</time></trkpt><trkpt lat="41.2456616" lon="9.408957"><ele>40.333333333333336</ele><time>2026-04-19T09:34:32.085Z</time></trkpt><trkpt lat="41.2455146" lon="9.4090255"><ele>46.66666666666667</ele><time>2026-04-19T09:34:33.085Z</time></trkpt><trkpt lat="41.2453758" lon="9.4091234"><ele>53.0</ele><time>2026-04-19T09:34:34.085Z</time></trkpt><trkpt lat="41.2452419" lon="9.4092393"><ele>53.0</ele><time>2026-04-19T09:34:35.085Z</time></trkpt><trkpt lat="41.2451065" lon="9.4093572"><ele>53.0</ele><time>2026-04-19T09:34:36.084Z</time></trkpt><trkpt lat="41.2449698" lon="9.4094743"><ele>53.0</ele><time>2026-04-19T09:34:37.085Z</time></trkpt><trkpt lat="41.2448294" lon="9.4095978"><ele>54.333333333333336</ele><time>2026-04-19T09:34:38.084Z</time></trkpt><trkpt lat="41.2446924" lon="9.4097166"><ele>55.66666666666667</ele><time>2026-04-19T09:34:39.084Z</time></trkpt><trkpt lat="41.2445514" lon="9.409828"><ele>57.0</ele><time>2026-04-19T09:34:40.085Z</time></trkpt><trkpt lat="41.2444003" lon="9.4099247"><ele>57.0</ele><time>2026-04-19T09:34:41.084Z</time></trkpt><trkpt lat="41.2442447" lon="9.4100116"><ele>57.0</ele><time>2026-04-19T09:34:42.084Z</time></trkpt><trkpt lat="41.2440911" lon="9.4100929"><ele>57.0</ele><time>2026-04-19T09:34:43.085Z</time></trkpt><trkpt lat="41.2439341" lon="9.4101831"><ele>58.33333333333333</ele><time>2026-04-19T09:34:44.085Z</time></trkpt><trkpt lat="41.2437768" lon="9.4102698"><ele>59.666666666666664</ele><time>2026-04-19T09:34:45.084Z</time></trkpt><trkpt lat="41.2436201" lon="9.4103521"><ele>61.0</ele><time>2026-04-19T09:34:46.085Z</time></trkpt><trkpt lat="41.2434746" lon="9.4104204"><ele>61.0</ele><time>2026-04-19T09:34:47.085Z</time></trkpt><trkpt lat="41.2433286" lon="9.4104524"><ele>61.0</ele><time>2026-04-19T09:34:48.084Z</time></trkpt><trkpt lat="41.2431756" lon="9.4104522"><ele>61.0</ele><time>2026-04-19T09:34:49.085Z</time></trkpt><trkpt lat="41.2430199" lon="9.410446"><ele>63.666666666666664</ele><time>2026-04-19T09:34:50.085Z</time></trkpt><trkpt lat="41.242868" lon="9.4104308"><ele>66.33333333333333</ele><time>2026-04-19T09:34:51.085Z</time></trkpt><trkpt lat="41.2427072" lon="9.4104107"><ele>69.0</ele><time>2026-04-19T09:34:52.084Z</time></trkpt><trkpt lat="41.2425479" lon="9.4103895"><ele>69.0</ele><time>2026-04-19T09:34:53.085Z</time></trkpt><trkpt lat="41.2423852" lon="9.4103706"><ele>69.0</ele><time>2026-04-19T09:34:54.085Z</time></trkpt><trkpt lat="41.2422235" lon="9.4103505"><ele>69.0</ele><time>2026-04-19T09:34:55.085Z</time></trkpt><trkpt lat="41.2420605" lon="9.410331"><ele>69.0</ele><time>2026-04-19T09:34:56.084Z</time></trkpt><trkpt lat="41.2418944" lon="9.4103102"><ele>69.0</ele><time>2026-04-19T09:34:57.085Z</time></trkpt><trkpt lat="41.2417282" lon="9.4102936"><ele>69.0</ele><time>2026-04-19T09:34:58.085Z</time></trkpt><trkpt lat="41.2415661" lon="9.4102736"><ele>68.66666666666667</ele><time>2026-04-19T09:34:59.085Z</time></trkpt><trkpt lat="41.2414016" lon="9.4102542"><ele>68.33333333333334</ele><time>2026-04-19T09:35:00.084Z</time></trkpt><trkpt lat="41.2412437" lon="9.4102418"><ele>68.0</ele><time>2026-04-19T09:35:01.085Z</time></trkpt><trkpt lat="41.2410884" lon="9.4102305"><ele>68.0</ele><time>2026-04-19T09:35:02.085Z</time></trkpt><trkpt lat="41.2409397" lon="9.4102166"><ele>68.0</ele><time>2026-04-19T09:35:03.084Z</time></trkpt><trkpt lat="41.2407956" lon="9.4102001"><ele>68.0</ele><time>2026-04-19T09:35:04.085Z</time></trkpt><trkpt lat="41.2406546" lon="9.4101841"><ele>68.0</ele><time>2026-04-19T09:35:05.085Z</time></trkpt><trkpt lat="41.2405117" lon="9.4101588"><ele>68.5</ele><time>2026-04-19T09:35:06.084Z</time></trkpt><trkpt lat="41.2403756" lon="9.4101415"><ele>69.0</ele><time>2026-04-19T09:35:07.085Z</time></trkpt><trkpt lat="41.2402405" lon="9.410123"><ele>69.5</ele><time>2026-04-19T09:35:08.084Z</time></trkpt><trkpt lat="41.2401058" lon="9.4101064"><ele>70.0</ele><time>2026-04-19T09:35:09.085Z</time></trkpt><trkpt lat="41.2399688" lon="9.4101031"><ele>70.0</ele><time>2026-04-19T09:35:10.085Z</time></trkpt><trkpt lat="41.2398286" lon="9.4101156"><ele>70.0</ele><time>2026-04-19T09:35:11.085Z</time></trkpt><trkpt lat="41.2396843" lon="9.4101533"><ele>70.0</ele><time>2026-04-19T09:35:12.085Z</time></trkpt><trkpt lat="41.2395415" lon="9.4102119"><ele>70.0</ele><time>2026-04-19T09:35:13.085Z</time></trkpt><trkpt lat="41.2393963" lon="9.41028"><ele>71.66666666666666</ele><time>2026-04-19T09:35:14.085Z</time></trkpt><trkpt lat="41.2392507" lon="9.4103495"><ele>73.33333333333333</ele><time>2026-04-19T09:35:15.085Z</time></trkpt><trkpt lat="41.2391042" lon="9.4104159"><ele>75.0</ele><time>2026-04-19T09:35:16.085Z</time></trkpt><trkpt lat="41.2389642" lon="9.4104792"><ele>73.0</ele><time>2026-04-19T09:35:17.085Z</time></trkpt><trkpt lat="41.2388317" lon="9.4105409"><ele>71.0</ele><time>2026-04-19T09:35:18.084Z</time></trkpt><trkpt lat="41.2386998" lon="9.4105998"><ele>69.0</ele><time>2026-04-19T09:35:19.085Z</time></trkpt><trkpt lat="41.2385721" lon="9.4106617"><ele>67.0</ele><time>2026-04-19T09:35:20.085Z</time></trkpt><trkpt lat="41.2384412" lon="9.4107203"><ele>67.0</ele><time>2026-04-19T09:35:21.084Z</time></trkpt><trkpt lat="41.2383098" lon="9.4107792"><ele>67.0</ele><time>2026-04-19T09:35:22.084Z</time></trkpt><trkpt lat="41.2381772" lon="9.4108389"><ele>67.0</ele><time>2026-04-19T09:35:23.085Z</time></trkpt><trkpt lat="41.2380374" lon="9.4108985"><ele>67.0</ele><time>2026-04-19T09:35:24.085Z</time></trkpt><trkpt lat="41.2378982" lon="9.4109563"><ele>67.66666666666666</ele><time>2026-04-19T09:35:25.085Z</time></trkpt><trkpt lat="41.2377575" lon="9.4110109"><ele>68.33333333333333</ele><time>2026-04-19T09:35:26.085Z</time></trkpt><trkpt lat="41.2376106" lon="9.4110607"><ele>69.0</ele><time>2026-04-19T09:35:27.085Z</time></trkpt><trkpt lat="41.2374615" lon="9.4111024"><ele>69.0</ele><time>2026-04-19T09:35:28.085Z</time></trkpt><trkpt lat="41.2373175" lon="9.4111417"><ele>69.0</ele><time>2026-04-19T09:35:29.085Z</time></trkpt><trkpt lat="41.2371822" lon="9.41118"><ele>69.0</ele><time>2026-04-19T09:35:30.085Z</time></trkpt><trkpt lat="41.237052" lon="9.4112094"><ele>69.0</ele><time>2026-04-19T09:35:31.085Z</time></trkpt><trkpt lat="41.2369294" lon="9.4112252"><ele>69.60000000000001</ele><time>2026-04-19T09:35:32.085Z</time></trkpt><trkpt lat="41.2368252" lon="9.4112293"><ele>70.2</ele><time>2026-04-19T09:35:33.085Z</time></trkpt><trkpt lat="41.2367372" lon="9.4112136"><ele>70.80000000000001</ele><time>2026-04-19T09:35:34.085Z</time></trkpt><trkpt lat="41.2366526" lon="9.4111781"><ele>71.4</ele><time>2026-04-19T09:35:35.085Z</time></trkpt><trkpt lat="41.2365681" lon="9.4111216"><ele>72.0</ele><time>2026-04-19T09:35:36.085Z</time></trkpt><trkpt lat="41.2364838" lon="9.4110474"><ele>73.0</ele><time>2026-04-19T09:35:37.084Z</time></trkpt><trkpt lat="41.2363975" lon="9.4109557"><ele>74.0</ele><time>2026-04-19T09:35:38.084Z</time></trkpt><trkpt lat="41.2363029" lon="9.4108524"><ele>75.0</ele><time>2026-04-19T09:35:39.085Z</time></trkpt><trkpt lat="41.2362086" lon="9.4107428"><ele>76.0</ele><time>2026-04-19T09:35:40.085Z</time></trkpt><trkpt lat="41.2361122" lon="9.4106313"><ele>76.0</ele><time>2026-04-19T09:35:41.085Z</time></trkpt><trkpt lat="41.2360072" lon="9.4105134"><ele>76.0</ele><time>2026-04-19T09:35:42.085Z</time></trkpt><trkpt lat="41.2358859" lon="9.4103994"><ele>76.0</ele><time>2026-04-19T09:35:43.085Z</time></trkpt><trkpt lat="41.2357468" lon="9.4102965"><ele>76.0</ele><time>2026-04-19T09:35:44.085Z</time></trkpt><trkpt lat="41.2355978" lon="9.4101929"><ele>79.33333333333333</ele><time>2026-04-19T09:35:45.085Z</time></trkpt><trkpt lat="41.2354525" lon="9.4100898"><ele>82.66666666666667</ele><time>2026-04-19T09:35:46.084Z</time></trkpt><trkpt lat="41.2353141" lon="9.4099943"><ele>86.0</ele><time>2026-04-19T09:35:47.085Z</time></trkpt><trkpt lat="41.2351797" lon="9.4099046"><ele>86.0</ele><time>2026-04-19T09:35:48.085Z</time></trkpt><trkpt lat="41.2350511" lon="9.4098093"><ele>86.0</ele><time>2026-04-19T09:35:49.085Z</time></trkpt><trkpt lat="41.2349365" lon="9.4096831"><ele>86.0</ele><time>2026-04-19T09:35:50.085Z</time></trkpt><trkpt lat="41.2348375" lon="9.4095244"><ele>88.33333333333334</ele><time>2026-04-19T09:35:51.085Z</time></trkpt><trkpt lat="41.2347412" lon="9.4093681"><ele>90.66666666666667</ele><time>2026-04-19T09:35:52.085Z</time></trkpt><trkpt lat="41.2346347" lon="9.4092186"><ele>93.0</ele><time>2026-04-19T09:35:53.085Z</time></trkpt><trkpt lat="41.2345061" lon="9.4090729"><ele>93.0</ele><time>2026-04-19T09:35:54.085Z</time></trkpt><trkpt lat="41.2343742" lon="9.4089406"><ele>93.0</ele><time>2026-04-19T09:35:55.085Z</time></trkpt><trkpt lat="41.2342376" lon="9.4088171"><ele>93.0</ele><time>2026-04-19T09:35:56.085Z</time></trkpt><trkpt lat="41.2340955" lon="9.408726"><ele>94.25</ele><time>2026-04-19T09:35:57.085Z</time></trkpt><trkpt lat="41.2339504" lon="9.408673"><ele>95.5</ele><time>2026-04-19T09:35:58.085Z</time></trkpt><trkpt lat="41.2338128" lon="9.4086266"><ele>96.75</ele><time>2026-04-19T09:35:59.085Z</time></trkpt><trkpt lat="41.2336965" lon="9.4085715"><ele>98.0</ele><time>2026-04-19T09:36:00.085Z</time></trkpt><trkpt lat="41.2335985" lon="9.4084776"><ele>98.0</ele><time>2026-04-19T09:36:01.085Z</time></trkpt><trkpt lat="41.2335104" lon="9.4083437"><ele>98.0</ele><time>2026-04-19T09:36:02.084Z</time></trkpt><trkpt lat="41.2334253" lon="9.4082018"><ele>98.0</ele><time>2026-04-19T09:36:03.085Z</time></trkpt><trkpt lat="41.2333269" lon="9.4080731"><ele>98.0</ele><time>2026-04-19T09:36:04.085Z</time></trkpt><trkpt lat="41.2332199" lon="9.4079518"><ele>99.25</ele><time>2026-04-19T09:36:05.085Z</time></trkpt><trkpt lat="41.2331196" lon="9.407827"><ele>100.5</ele><time>2026-04-19T09:36:06.085Z</time></trkpt><trkpt lat="41.2330259" lon="9.4077"><ele>101.75</ele><time>2026-04-19T09:36:07.085Z</time></trkpt><trkpt lat="41.2329407" lon="9.4075542"><ele>103.0</ele><time>2026-04-19T09:36:08.085Z</time></trkpt><trkpt lat="41.2328621" lon="9.407392"><ele>103.0</ele><time>2026-04-19T09:36:09.085Z</time></trkpt><trkpt lat="41.2327753" lon="9.4072432"><ele>103.0</ele><time>2026-04-19T09:36:10.085Z</time></trkpt><trkpt lat="41.232674" lon="9.4071094"><ele>103.0</ele><time>2026-04-19T09:36:11.085Z</time></trkpt><trkpt lat="41.2325644" lon="9.4069817"><ele>103.0</ele><time>2026-04-19T09:36:12.085Z</time></trkpt><trkpt lat="41.2324548" lon="9.4068538"><ele>102.66666666666667</ele><time>2026-04-19T09:36:13.085Z</time></trkpt><trkpt lat="41.2323464" lon="9.4067236"><ele>102.33333333333334</ele><time>2026-04-19T09:36:14.085Z</time></trkpt><trkpt lat="41.2322308" lon="9.4065884"><ele>102.0</ele><time>2026-04-19T09:36:15.085Z</time></trkpt><trkpt lat="41.232115" lon="9.4064517"><ele>102.75</ele><time>2026-04-19T09:36:16.085Z</time></trkpt><trkpt lat="41.2320081" lon="9.4063135"><ele>103.5</ele><time>2026-04-19T09:36:17.085Z</time></trkpt><trkpt lat="41.2319074" lon="9.4061669"><ele>104.25</ele><time>2026-04-19T09:36:18.085Z</time></trkpt><trkpt lat="41.2318167" lon="9.406015"><ele>105.0</ele><time>2026-04-19T09:36:19.085Z</time></trkpt><trkpt lat="41.2317259" lon="9.4058624"><ele>105.0</ele><time>2026-04-19T09:36:20.085Z</time></trkpt><trkpt lat="41.2316365" lon="9.4057217"><ele>105.0</ele><time>2026-04-19T09:36:21.085Z</time></trkpt><trkpt lat="41.2315592" lon="9.4055839"><ele>105.0</ele><time>2026-04-19T09:36:22.085Z</time></trkpt><trkpt lat="41.2314879" lon="9.4054527"><ele>105.0</ele><time>2026-04-19T09:36:23.085Z</time></trkpt><trkpt lat="41.2314118" lon="9.4053352"><ele>105.2</ele><time>2026-04-19T09:36:24.084Z</time></trkpt><trkpt lat="41.2313328" lon="9.405243"><ele>105.4</ele><time>2026-04-19T09:36:25.085Z</time></trkpt><trkpt lat="41.2312484" lon="9.4051808"><ele>105.6</ele><time>2026-04-19T09:36:26.085Z</time></trkpt><trkpt lat="41.2311583" lon="9.4051272"><ele>105.8</ele><time>2026-04-19T09:36:27.085Z</time></trkpt><trkpt lat="41.2310555" lon="9.4050812"><ele>106.0</ele><time>2026-04-19T09:36:28.085Z</time></trkpt><trkpt lat="41.2309354" lon="9.4050344"><ele>106.0</ele><time>2026-04-19T09:36:29.085Z</time></trkpt><trkpt lat="41.2308132" lon="9.4049846"><ele>106.0</ele><time>2026-04-19T09:36:30.084Z</time></trkpt><trkpt lat="41.2306881" lon="9.404935"><ele>106.0</ele><time>2026-04-19T09:36:31.085Z</time></trkpt><trkpt lat="41.2305633" lon="9.4048833"><ele>106.0</ele><time>2026-04-19T09:36:32.085Z</time></trkpt><trkpt lat="41.2304375" lon="9.404842"><ele>107.0</ele><time>2026-04-19T09:36:33.085Z</time></trkpt><trkpt lat="41.2303141" lon="9.4048092"><ele>108.0</ele><time>2026-04-19T09:36:34.085Z</time></trkpt><trkpt lat="41.2301916" lon="9.4047897"><ele>109.0</ele><time>2026-04-19T09:36:35.085Z</time></trkpt><trkpt lat="41.230067" lon="9.4047854"><ele>110.0</ele><time>2026-04-19T09:36:36.084Z</time></trkpt><trkpt lat="41.2299444" lon="9.4047939"><ele>110.0</ele><time>2026-04-19T09:36:37.085Z</time></trkpt><trkpt lat="41.229821" lon="9.4048014"><ele>110.0</ele><time>2026-04-19T09:36:38.085Z</time></trkpt><trkpt lat="41.2296935" lon="9.404788"><ele>110.0</ele><time>2026-04-19T09:36:39.085Z</time></trkpt><trkpt lat="41.2295642" lon="9.4047611"><ele>110.0</ele><time>2026-04-19T09:36:40.085Z</time></trkpt><trkpt lat="41.2294328" lon="9.4047243"><ele>112.0</ele><time>2026-04-19T09:36:41.085Z</time></trkpt><trkpt lat="41.2293042" lon="9.4046799"><ele>114.0</ele><time>2026-04-19T09:36:42.085Z</time></trkpt><trkpt lat="41.2291725" lon="9.4046457"><ele>116.0</ele><time>2026-04-19T09:36:43.084Z</time></trkpt><trkpt lat="41.2290396" lon="9.4046287"><ele>118.0</ele><time>2026-04-19T09:36:44.085Z</time></trkpt><trkpt lat="41.2289069" lon="9.404615"><ele>121.75</ele><time>2026-04-19T09:36:45.085Z</time></trkpt><trkpt lat="41.228772" lon="9.4046131"><ele>125.5</ele><time>2026-04-19T09:36:46.084Z</time></trkpt><trkpt lat="41.2286368" lon="9.4045935"><ele>129.25</ele><time>2026-04-19T09:36:47.085Z</time></trkpt><trkpt lat="41.2285029" lon="9.4045581"><ele>133.0</ele><time>2026-04-19T09:36:48.085Z</time></trkpt><trkpt lat="41.2283773" lon="9.4045182"><ele>133.0</ele><time>2026-04-19T09:36:49.085Z</time></trkpt><trkpt lat="41.2282664" lon="9.4044728"><ele>133.0</ele><time>2026-04-19T09:36:50.085Z</time></trkpt><trkpt lat="41.2281498" lon="9.4044259"><ele>133.0</ele><time>2026-04-19T09:36:51.085Z</time></trkpt><trkpt lat="41.2280299" lon="9.404366"><ele>133.0</ele><time>2026-04-19T09:36:52.084Z</time></trkpt><trkpt lat="41.2279017" lon="9.4042883"><ele>132.5</ele><time>2026-04-19T09:36:53.085Z</time></trkpt><trkpt lat="41.2277583" lon="9.404226"><ele>132.0</ele><time>2026-04-19T09:36:54.084Z</time></trkpt><trkpt lat="41.2276168" lon="9.4041594"><ele>131.5</ele><time>2026-04-19T09:36:55.084Z</time></trkpt><trkpt lat="41.2274752" lon="9.4041035"><ele>131.0</ele><time>2026-04-19T09:36:56.085Z</time></trkpt><trkpt lat="41.2273284" lon="9.4040635"><ele>130.5</ele><time>2026-04-19T09:36:57.085Z</time></trkpt><trkpt lat="41.2271807" lon="9.4040293"><ele>130.0</ele><time>2026-04-19T09:36:58.085Z</time></trkpt><trkpt lat="41.2270346" lon="9.4039988"><ele>129.5</ele><time>2026-04-19T09:36:59.085Z</time></trkpt><trkpt lat="41.226891" lon="9.4039719"><ele>129.0</ele><time>2026-04-19T09:37:00.085Z</time></trkpt><trkpt lat="41.2267525" lon="9.4039393"><ele>129.0</ele><time>2026-04-19T09:37:01.085Z</time></trkpt><trkpt lat="41.2266177" lon="9.4039028"><ele>129.0</ele><time>2026-04-19T09:37:02.084Z</time></trkpt><trkpt lat="41.2264914" lon="9.4038593"><ele>129.0</ele><time>2026-04-19T09:37:03.085Z</time></trkpt><trkpt lat="41.226365" lon="9.4038016"><ele>129.0</ele><time>2026-04-19T09:37:04.084Z</time></trkpt><trkpt lat="41.2262456" lon="9.4037302"><ele>129.0</ele><time>2026-04-19T09:37:05.085Z</time></trkpt><trkpt lat="41.2261258" lon="9.4036559"><ele>129.0</ele><time>2026-04-19T09:37:06.084Z</time></trkpt><trkpt lat="41.2260074" lon="9.4036037"><ele>129.0</ele><time>2026-04-19T09:37:07.084Z</time></trkpt><trkpt lat="41.2258906" lon="9.4035617"><ele>129.0</ele><time>2026-04-19T09:37:08.084Z</time></trkpt><trkpt lat="41.2257774" lon="9.4035238"><ele>129.0</ele><time>2026-04-19T09:37:09.085Z</time></trkpt><trkpt lat="41.225671" lon="9.4034918"><ele>129.0</ele><time>2026-04-19T09:37:10.084Z</time></trkpt><trkpt lat="41.2255774" lon="9.4034543"><ele>129.0</ele><time>2026-04-19T09:37:11.085Z</time></trkpt><trkpt lat="41.2254988" lon="9.4033839"><ele>129.0</ele><time>2026-04-19T09:37:12.084Z</time></trkpt><trkpt lat="41.2254593" lon="9.4032918"><ele>129.0</ele><time>2026-04-19T09:37:13.085Z</time></trkpt><trkpt lat="41.2254611" lon="9.4031933"><ele>129.0</ele><time>2026-04-19T09:37:14.085Z</time></trkpt><trkpt lat="41.2255103" lon="9.4031184"><ele>129.0</ele><time>2026-04-19T09:37:15.085Z</time></trkpt><trkpt lat="41.2255943" lon="9.4030722"><ele>129.0</ele><time>2026-04-19T09:37:16.085Z</time></trkpt><trkpt lat="41.2257018" lon="9.4030263"><ele>129.0</ele><time>2026-04-19T09:37:17.085Z</time></trkpt><trkpt lat="41.2258247" lon="9.4029732"><ele>129.0</ele><time>2026-04-19T09:37:18.085Z</time></trkpt><trkpt lat="41.2259489" lon="9.4029249"><ele>128.5</ele><time>2026-04-19T09:37:19.085Z</time></trkpt><trkpt lat="41.2260698" lon="9.4028759"><ele>128.0</ele><time>2026-04-19T09:37:20.085Z</time></trkpt><trkpt lat="41.226186" lon="9.4028297"><ele>127.5</ele><time>2026-04-19T09:37:21.085Z</time></trkpt><trkpt lat="41.2262952" lon="9.4027763"><ele>127.0</ele><time>2026-04-19T09:37:22.085Z</time></trkpt><trkpt lat="41.2263887" lon="9.402688"><ele>127.0</ele><time>2026-04-19T09:37:23.085Z</time></trkpt><trkpt lat="41.226459" lon="9.4025733"><ele>126.99999999999999</ele><time>2026-04-19T09:37:24.084Z</time></trkpt><trkpt lat="41.2264824" lon="9.4024387"><ele>126.99999999999999</ele><time>2026-04-19T09:37:25.085Z</time></trkpt><trkpt lat="41.2264741" lon="9.4023152"><ele>127.0</ele><time>2026-04-19T09:37:26.085Z</time></trkpt><trkpt lat="41.226427" lon="9.4022098"><ele>127.0</ele><time>2026-04-19T09:37:27.085Z</time></trkpt><trkpt lat="41.2263509" lon="9.4021283"><ele>128.75</ele><time>2026-04-19T09:37:28.084Z</time></trkpt><trkpt lat="41.2262673" lon="9.4020598"><ele>130.5</ele><time>2026-04-19T09:37:29.085Z</time></trkpt><trkpt lat="41.2261506" lon="9.402032"><ele>132.25</ele><time>2026-04-19T09:37:30.085Z</time></trkpt><trkpt lat="41.2260382" lon="9.4019928"><ele>134.0</ele><time>2026-04-19T09:37:31.085Z</time></trkpt><trkpt lat="41.2259239" lon="9.4019488"><ele>134.0</ele><time>2026-04-19T09:37:32.084Z</time></trkpt><trkpt lat="41.2258021" lon="9.4019069"><ele>134.0</ele><time>2026-04-19T09:37:33.085Z</time></trkpt><trkpt lat="41.2256695" lon="9.4018705"><ele>134.0</ele><time>2026-04-19T09:37:34.085Z</time></trkpt><trkpt lat="41.2255325" lon="9.4018299"><ele>134.0</ele><time>2026-04-19T09:37:35.084Z</time></trkpt><trkpt lat="41.2253895" lon="9.4017833"><ele>133.75</ele><time>2026-04-19T09:37:36.085Z</time></trkpt><trkpt lat="41.2252466" lon="9.4017359"><ele>133.5</ele><time>2026-04-19T09:37:37.084Z</time></trkpt><trkpt lat="41.2251035" lon="9.4016934"><ele>133.25</ele><time>2026-04-19T09:37:38.085Z</time></trkpt><trkpt lat="41.2249651" lon="9.4016615"><ele>133.0</ele><time>2026-04-19T09:37:39.085Z</time></trkpt><trkpt lat="41.2248305" lon="9.4016415"><ele>132.75</ele><time>2026-04-19T09:37:40.085Z</time></trkpt><trkpt lat="41.2246932" lon="9.4016407"><ele>132.5</ele><time>2026-04-19T09:37:41.085Z</time></trkpt><trkpt lat="41.2245515" lon="9.4016577"><ele>132.25</ele><time>2026-04-19T09:37:42.085Z</time></trkpt><trkpt lat="41.2244092" lon="9.4016687"><ele>132.0</ele><time>2026-04-19T09:37:43.085Z</time></trkpt><trkpt lat="41.2242663" lon="9.4016674"><ele>132.0</ele><time>2026-04-19T09:37:44.085Z</time></trkpt><trkpt lat="41.2241323" lon="9.40165"><ele>132.0</ele><time>2026-04-19T09:37:45.085Z</time></trkpt><trkpt lat="41.2240032" lon="9.4016186"><ele>132.0</ele><time>2026-04-19T09:37:46.085Z</time></trkpt><trkpt lat="41.2238781" lon="9.4016087"><ele>132.0</ele><time>2026-04-19T09:37:47.085Z</time></trkpt><trkpt lat="41.2237548" lon="9.4016271"><ele>132.5</ele><time>2026-04-19T09:37:48.085Z</time></trkpt><trkpt lat="41.2236424" lon="9.4016914"><ele>133.0</ele><time>2026-04-19T09:37:49.085Z</time></trkpt><trkpt lat="41.2235472" lon="9.4018018"><ele>133.5</ele><time>2026-04-19T09:37:50.084Z</time></trkpt><trkpt lat="41.2234711" lon="9.4019279"><ele>134.0</ele><time>2026-04-19T09:37:51.085Z</time></trkpt><trkpt lat="41.2234114" lon="9.4020625"><ele>132.8</ele><time>2026-04-19T09:37:52.085Z</time></trkpt><trkpt lat="41.2233508" lon="9.4021851"><ele>131.60000000000002</ele><time>2026-04-19T09:37:53.085Z</time></trkpt><trkpt lat="41.223281" lon="9.402292"><ele>130.4</ele><time>2026-04-19T09:37:54.085Z</time></trkpt><trkpt lat="41.2231928" lon="9.4023585"><ele>129.20000000000002</ele><time>2026-04-19T09:37:55.085Z</time></trkpt><trkpt lat="41.2230915" lon="9.4023881"><ele>128.0</ele><time>2026-04-19T09:37:56.084Z</time></trkpt><trkpt lat="41.222993" lon="9.4023737"><ele>127.80000000000001</ele><time>2026-04-19T09:37:57.085Z</time></trkpt><trkpt lat="41.2229043" lon="9.4023112"><ele>127.60000000000001</ele><time>2026-04-19T09:37:58.085Z</time></trkpt><trkpt lat="41.2228442" lon="9.4022171"><ele>127.39999999999999</ele><time>2026-04-19T09:37:59.085Z</time></trkpt><trkpt lat="41.2227996" lon="9.4020963"><ele>127.19999999999999</ele><time>2026-04-19T09:38:00.085Z</time></trkpt><trkpt lat="41.2227581" lon="9.4019629"><ele>127.0</ele><time>2026-04-19T09:38:01.085Z</time></trkpt><trkpt lat="41.2227058" lon="9.4018288"><ele>127.0</ele><time>2026-04-19T09:38:02.085Z</time></trkpt><trkpt lat="41.222655" lon="9.4016933"><ele>126.99999999999999</ele><time>2026-04-19T09:38:03.085Z</time></trkpt><trkpt lat="41.2225954" lon="9.4015649"><ele>126.99999999999999</ele><time>2026-04-19T09:38:04.084Z</time></trkpt><trkpt lat="41.2225367" lon="9.4014391"><ele>127.0</ele><time>2026-04-19T09:38:05.085Z</time></trkpt><trkpt lat="41.2225059" lon="9.4013024"><ele>127.0</ele><time>2026-04-19T09:38:06.085Z</time></trkpt><trkpt lat="41.2224965" lon="9.4011624"><ele>127.0</ele><time>2026-04-19T09:38:07.085Z</time></trkpt><trkpt lat="41.2224834" lon="9.4010225"><ele>126.99999999999999</ele><time>2026-04-19T09:38:08.084Z</time></trkpt><trkpt lat="41.2224423" lon="9.400888"><ele>126.99999999999999</ele><time>2026-04-19T09:38:09.085Z</time></trkpt><trkpt lat="41.2223825" lon="9.4007617"><ele>127.0</ele><time>2026-04-19T09:38:10.085Z</time></trkpt><trkpt lat="41.222306" lon="9.40066"><ele>127.0</ele><time>2026-04-19T09:38:11.085Z</time></trkpt><trkpt lat="41.2222243" lon="9.4005715"><ele>127.6</ele><time>2026-04-19T09:38:12.084Z</time></trkpt><trkpt lat="41.2221296" lon="9.4005113"><ele>128.2</ele><time>2026-04-19T09:38:13.084Z</time></trkpt><trkpt lat="41.2220349" lon="9.4004986"><ele>128.8</ele><time>2026-04-19T09:38:14.085Z</time></trkpt><trkpt lat="41.2219171" lon="9.4005294"><ele>129.4</ele><time>2026-04-19T09:38:15.085Z</time></trkpt><trkpt lat="41.2217947" lon="9.400531"><ele>130.0</ele><time>2026-04-19T09:38:16.085Z</time></trkpt><trkpt lat="41.2216702" lon="9.4005196"><ele>130.0</ele><time>2026-04-19T09:38:17.084Z</time></trkpt><trkpt lat="41.2215706" lon="9.4005031"><ele>130.0</ele><time>2026-04-19T09:38:18.084Z</time></trkpt><trkpt lat="41.2214824" lon="9.4004873"><ele>130.0</ele><time>2026-04-19T09:38:19.085Z</time></trkpt><trkpt lat="41.2213833" lon="9.4004721"><ele>130.0</ele><time>2026-04-19T09:38:20.085Z</time></trkpt><trkpt lat="41.2212781" lon="9.4004515"><ele>130.0</ele><time>2026-04-19T09:38:21.085Z</time></trkpt><trkpt lat="41.2211672" lon="9.4004326"><ele>128.75</ele><time>2026-04-19T09:38:22.085Z</time></trkpt><trkpt lat="41.221054" lon="9.4004092"><ele>127.5</ele><time>2026-04-19T09:38:23.085Z</time></trkpt><trkpt lat="41.220948" lon="9.4003736"><ele>126.25</ele><time>2026-04-19T09:38:24.085Z</time></trkpt><trkpt lat="41.2208416" lon="9.4003143"><ele>125.0</ele><time>2026-04-19T09:38:25.085Z</time></trkpt><trkpt lat="41.2207417" lon="9.4002365"><ele>125.0</ele><time>2026-04-19T09:38:26.085Z</time></trkpt><trkpt lat="41.2206579" lon="9.4001446"><ele>125.0</ele><time>2026-04-19T09:38:27.085Z</time></trkpt><trkpt lat="41.2205809" lon="9.4000432"><ele>125.0</ele><time>2026-04-19T09:38:28.085Z</time></trkpt><trkpt lat="41.2205175" lon="9.3999277"><ele>125.0</ele><time>2026-04-19T09:38:29.084Z</time></trkpt><trkpt lat="41.2204613" lon="9.3997997"><ele>125.0</ele><time>2026-04-19T09:38:30.084Z</time></trkpt><trkpt lat="41.2204209" lon="9.3996578"><ele>122.75</ele><time>2026-04-19T09:38:31.085Z</time></trkpt><trkpt lat="41.2203956" lon="9.3995098"><ele>120.5</ele><time>2026-04-19T09:38:32.085Z</time></trkpt><trkpt lat="41.2203823" lon="9.3993553"><ele>118.25</ele><time>2026-04-19T09:38:33.085Z</time></trkpt><trkpt lat="41.2203928" lon="9.3992018"><ele>116.0</ele><time>2026-04-19T09:38:34.084Z</time></trkpt><trkpt lat="41.2204219" lon="9.3990598"><ele>116.0</ele><time>2026-04-19T09:38:35.085Z</time></trkpt><trkpt lat="41.2204625" lon="9.3989222"><ele>116.0</ele><time>2026-04-19T09:38:36.085Z</time></trkpt><trkpt lat="41.220517" lon="9.3987865"><ele>116.0</ele><time>2026-04-19T09:38:37.085Z</time></trkpt><trkpt lat="41.2205843" lon="9.3986514"><ele>116.0</ele><time>2026-04-19T09:38:38.085Z</time></trkpt><trkpt lat="41.2206513" lon="9.3985286"><ele>118.0</ele><time>2026-04-19T09:38:39.085Z</time></trkpt><trkpt lat="41.2207207" lon="9.3984141"><ele>120.0</ele><time>2026-04-19T09:38:40.085Z</time></trkpt><trkpt lat="41.2207954" lon="9.3983095"><ele>122.0</ele><time>2026-04-19T09:38:41.085Z</time></trkpt><trkpt lat="41.2208788" lon="9.3982134"><ele>124.0</ele><time>2026-04-19T09:38:42.085Z</time></trkpt><trkpt lat="41.2209686" lon="9.3981301"><ele>126.0</ele><time>2026-04-19T09:38:43.085Z</time></trkpt><trkpt lat="41.2210616" lon="9.3980561"><ele>125.19999999999999</ele><time>2026-04-19T09:38:44.085Z</time></trkpt><trkpt lat="41.2211574" lon="9.3979911"><ele>124.39999999999999</ele><time>2026-04-19T09:38:45.085Z</time></trkpt><trkpt lat="41.2212521" lon="9.3979468"><ele>123.6</ele><time>2026-04-19T09:38:46.085Z</time></trkpt><trkpt lat="41.221358" lon="9.3979192"><ele>122.8</ele><time>2026-04-19T09:38:47.084Z</time></trkpt><trkpt lat="41.2214717" lon="9.3979079"><ele>122.0</ele><time>2026-04-19T09:38:48.084Z</time></trkpt><trkpt lat="41.2215865" lon="9.3979048"><ele>122.0</ele><time>2026-04-19T09:38:49.085Z</time></trkpt><trkpt lat="41.2216957" lon="9.3979029"><ele>121.99999999999999</ele><time>2026-04-19T09:38:50.085Z</time></trkpt><trkpt lat="41.2218045" lon="9.3979027"><ele>121.99999999999999</ele><time>2026-04-19T09:38:51.085Z</time></trkpt><trkpt lat="41.2219092" lon="9.3979074"><ele>122.0</ele><time>2026-04-19T09:38:52.085Z</time></trkpt><trkpt lat="41.2220305" lon="9.3979094"><ele>122.0</ele><time>2026-04-19T09:38:53.085Z</time></trkpt><trkpt lat="41.2221514" lon="9.3979082"><ele>122.0</ele><time>2026-04-19T09:38:54.084Z</time></trkpt><trkpt lat="41.2222675" lon="9.3979065"><ele>121.99999999999999</ele><time>2026-04-19T09:38:55.085Z</time></trkpt><trkpt lat="41.2223761" lon="9.3978932"><ele>121.99999999999999</ele><time>2026-04-19T09:38:56.085Z</time></trkpt><trkpt lat="41.222475" lon="9.397859"><ele>122.0</ele><time>2026-04-19T09:38:57.085Z</time></trkpt><trkpt lat="41.2225636" lon="9.3977882"><ele>122.0</ele><time>2026-04-19T09:38:58.085Z</time></trkpt><trkpt lat="41.2226444" lon="9.397698"><ele>123.0</ele><time>2026-04-19T09:38:59.085Z</time></trkpt><trkpt lat="41.2226983" lon="9.3975364"><ele>124.0</ele><time>2026-04-19T09:39:00.085Z</time></trkpt><trkpt lat="41.2227348" lon="9.3973895"><ele>125.0</ele><time>2026-04-19T09:39:01.085Z</time></trkpt><trkpt lat="41.2227524" lon="9.3972304"><ele>126.0</ele><time>2026-04-19T09:39:02.085Z</time></trkpt><trkpt lat="41.2227558" lon="9.3970618"><ele>126.0</ele><time>2026-04-19T09:39:03.085Z</time></trkpt><trkpt lat="41.2227537" lon="9.396895"><ele>126.0</ele><time>2026-04-19T09:39:04.085Z</time></trkpt><trkpt lat="41.222748" lon="9.3967235"><ele>126.0</ele><time>2026-04-19T09:39:05.085Z</time></trkpt><trkpt lat="41.2227183" lon="9.3965588"><ele>126.0</ele><time>2026-04-19T09:39:06.085Z</time></trkpt><trkpt lat="41.2226776" lon="9.3963943"><ele>127.75</ele><time>2026-04-19T09:39:07.085Z</time></trkpt><trkpt lat="41.2226313" lon="9.3962383"><ele>129.5</ele><time>2026-04-19T09:39:08.084Z</time></trkpt><trkpt lat="41.2225794" lon="9.3960927"><ele>131.25</ele><time>2026-04-19T09:39:09.084Z</time></trkpt><trkpt lat="41.222534" lon="9.3959579"><ele>133.0</ele><time>2026-04-19T09:39:10.084Z</time></trkpt><trkpt lat="41.222494" lon="9.3958213"><ele>133.0</ele><time>2026-04-19T09:39:11.084Z</time></trkpt><trkpt lat="41.2224677" lon="9.3956744"><ele>133.0</ele><time>2026-04-19T09:39:12.084Z</time></trkpt><trkpt lat="41.2224676" lon="9.395534"><ele>133.0</ele><time>2026-04-19T09:39:13.085Z</time></trkpt><trkpt lat="41.2224812" lon="9.3953958"><ele>133.0</ele><time>2026-04-19T09:39:14.084Z</time></trkpt><trkpt lat="41.2225119" lon="9.3952571"><ele>133.0</ele><time>2026-04-19T09:39:15.084Z</time></trkpt><trkpt lat="41.2225564" lon="9.3951392"><ele>133.16666666666669</ele><time>2026-04-19T09:39:16.085Z</time></trkpt><trkpt lat="41.2226113" lon="9.3950378"><ele>133.33333333333334</ele><time>2026-04-19T09:39:17.085Z</time></trkpt><trkpt lat="41.2226765" lon="9.3949505"><ele>133.5</ele><time>2026-04-19T09:39:18.085Z</time></trkpt><trkpt lat="41.2227402" lon="9.3948757"><ele>133.66666666666666</ele><time>2026-04-19T09:39:19.085Z</time></trkpt><trkpt lat="41.2227997" lon="9.3948143"><ele>133.83333333333331</ele><time>2026-04-19T09:39:20.084Z</time></trkpt><trkpt lat="41.2228613" lon="9.3947594"><ele>134.0</ele><time>2026-04-19T09:39:21.084Z</time></trkpt><trkpt lat="41.222925" lon="9.3947146"><ele>134.0</ele><time>2026-04-19T09:39:22.085Z</time></trkpt><trkpt lat="41.2229945" lon="9.3946759"><ele>134.0</ele><time>2026-04-19T09:39:23.085Z</time></trkpt><trkpt lat="41.2230703" lon="9.3946383"><ele>134.0</ele><time>2026-04-19T09:39:24.085Z</time></trkpt><trkpt lat="41.2231494" lon="9.3945948"><ele>134.0</ele><time>2026-04-19T09:39:25.085Z</time></trkpt><trkpt lat="41.2232221" lon="9.3945543"><ele>134.0</ele><time>2026-04-19T09:39:26.085Z</time></trkpt><trkpt lat="41.2232934" lon="9.394526"><ele>134.0</ele><time>2026-04-19T09:39:27.084Z</time></trkpt><trkpt lat="41.2233989" lon="9.3944842"><ele>134.28571428571428</ele><time>2026-04-19T09:39:29.085Z</time></trkpt><trkpt lat="41.2234558" lon="9.3945295"><ele>134.57142857142856</ele><time>2026-04-19T09:39:31.085Z</time></trkpt><trkpt lat="41.2234443" lon="9.3946523"><ele>134.85714285714283</ele><time>2026-04-19T09:39:34.085Z</time></trkpt><trkpt lat="41.2234078" lon="9.3947337"><ele>135.14285714285714</ele><time>2026-04-19T09:39:36.085Z</time></trkpt><trkpt lat="41.2233772" lon="9.3948171"><ele>135.42857142857142</ele><time>2026-04-19T09:39:46.085Z</time></trkpt><trkpt lat="41.2233542" lon="9.3948957"><ele>135.7142857142857</ele><time>2026-04-19T09:39:47.084Z</time></trkpt><trkpt lat="41.2233302" lon="9.3949931"><ele>136.0</ele><time>2026-04-19T09:39:48.085Z</time></trkpt><trkpt lat="41.2233047" lon="9.3951002"><ele>136.66666666666669</ele><time>2026-04-19T09:39:49.085Z</time></trkpt><trkpt lat="41.2232772" lon="9.3952114"><ele>137.33333333333334</ele><time>2026-04-19T09:39:50.085Z</time></trkpt><trkpt lat="41.223253" lon="9.3953219"><ele>138.0</ele><time>2026-04-19T09:39:51.085Z</time></trkpt><trkpt lat="41.2232213" lon="9.3954362"><ele>138.66666666666666</ele><time>2026-04-19T09:39:52.085Z</time></trkpt><trkpt lat="41.223192" lon="9.3955506"><ele>139.33333333333331</ele><time>2026-04-19T09:39:53.085Z</time></trkpt><trkpt lat="41.2231721" lon="9.3956561"><ele>140.0</ele><time>2026-04-19T09:39:54.085Z</time></trkpt><trkpt lat="41.2231556" lon="9.3957518"><ele>140.33333333333331</ele><time>2026-04-19T09:39:55.085Z</time></trkpt><trkpt lat="41.2231554" lon="9.3958449"><ele>140.66666666666666</ele><time>2026-04-19T09:39:56.085Z</time></trkpt><trkpt lat="41.2231747" lon="9.3959339"><ele>141.0</ele><time>2026-04-19T09:39:57.085Z</time></trkpt><trkpt lat="41.2232151" lon="9.3960144"><ele>141.33333333333334</ele><time>2026-04-19T09:39:58.085Z</time></trkpt><trkpt lat="41.2232583" lon="9.3960823"><ele>141.66666666666669</ele><time>2026-04-19T09:39:59.085Z</time></trkpt><trkpt lat="41.2233413" lon="9.3961756"><ele>142.0</ele><time>2026-04-19T09:40:01.085Z</time></trkpt><trkpt lat="41.2233816" lon="9.3962842"><ele>142.0</ele><time>2026-04-19T09:40:03.085Z</time></trkpt><trkpt lat="41.2234015" lon="9.3963672"><ele>142.0</ele><time>2026-04-19T09:40:04.085Z</time></trkpt><trkpt lat="41.2234306" lon="9.3964518"><ele>142.0</ele><time>2026-04-19T09:40:05.085Z</time></trkpt><trkpt lat="41.2234626" lon="9.3965244"><ele>142.0</ele><time>2026-04-19T09:40:06.085Z</time></trkpt><trkpt lat="41.2235078" lon="9.39666"><ele>142.0</ele><time>2026-04-19T09:40:08.085Z</time></trkpt><trkpt lat="41.2235107" lon="9.3968005"><ele>142.0</ele><time>2026-04-19T09:40:10.083Z</time></trkpt><trkpt lat="41.2235193" lon="9.3968909"><ele>142.0</ele><time>2026-04-19T09:40:11.085Z</time></trkpt><trkpt lat="41.2235234" lon="9.3969814"><ele>142.0</ele><time>2026-04-19T09:40:12.085Z</time></trkpt><trkpt lat="41.2235276" lon="9.397077"><ele>142.0</ele><time>2026-04-19T09:40:13.085Z</time></trkpt><trkpt lat="41.2235359" lon="9.3971729"><ele>142.0</ele><time>2026-04-19T09:40:14.085Z</time></trkpt><trkpt lat="41.2235494" lon="9.3972664"><ele>142.0</ele><time>2026-04-19T09:40:15.085Z</time></trkpt><trkpt lat="41.2235553" lon="9.3973726"><ele>142.0</ele><time>2026-04-19T09:40:16.085Z</time></trkpt><trkpt lat="41.2235628" lon="9.3974658"><ele>142.0</ele><time>2026-04-19T09:40:17.085Z</time></trkpt><trkpt lat="41.2235674" lon="9.3975566"><ele>141.66666666666669</ele><time>2026-04-19T09:40:18.084Z</time></trkpt><trkpt lat="41.2235749" lon="9.3976507"><ele>141.33333333333334</ele><time>2026-04-19T09:40:19.084Z</time></trkpt><trkpt lat="41.2235866" lon="9.3977504"><ele>141.0</ele><time>2026-04-19T09:40:20.084Z</time></trkpt><trkpt lat="41.2235911" lon="9.3978414"><ele>140.66666666666666</ele><time>2026-04-19T09:40:21.085Z</time></trkpt><trkpt lat="41.2236048" lon="9.3979927"><ele>140.33333333333331</ele><time>2026-04-19T09:40:23.085Z</time></trkpt><trkpt lat="41.2236278" lon="9.3981316"><ele>140.0</ele><time>2026-04-19T09:40:25.085Z</time></trkpt><trkpt lat="41.2236607" lon="9.3982288"><ele>140.0</ele><time>2026-04-19T09:40:27.085Z</time></trkpt><trkpt lat="41.2237172" lon="9.3982807"><ele>140.0</ele><time>2026-04-19T09:40:31.085Z</time></trkpt><trkpt lat="41.2238012" lon="9.3982544"><ele>140.0</ele><time>2026-04-19T09:40:33.085Z</time></trkpt><trkpt lat="41.2238619" lon="9.3982311"><ele>140.0</ele><time>2026-04-19T09:40:34.085Z</time></trkpt><trkpt lat="41.2239759" lon="9.3981727"><ele>140.0</ele><time>2026-04-19T09:40:36.085Z</time></trkpt><trkpt lat="41.2240886" lon="9.3981074"><ele>140.8</ele><time>2026-04-19T09:40:38.084Z</time></trkpt><trkpt lat="41.2242007" lon="9.3980457"><ele>141.6</ele><time>2026-04-19T09:40:40.085Z</time></trkpt><trkpt lat="41.2242968" lon="9.3980135"><ele>142.4</ele><time>2026-04-19T09:40:42.084Z</time></trkpt><trkpt lat="41.2243773" lon="9.3980203"><ele>143.2</ele><time>2026-04-19T09:40:44.083Z</time></trkpt><trkpt lat="41.2244525" lon="9.3980577"><ele>144.0</ele><time>2026-04-19T09:40:46.084Z</time></trkpt><trkpt lat="41.2245747" lon="9.3980945"><ele>144.0</ele><time>2026-04-19T09:40:48.084Z</time></trkpt><trkpt lat="41.224665" lon="9.398117"><ele>144.0</ele><time>2026-04-19T09:40:49.084Z</time></trkpt><trkpt lat="41.2247463" lon="9.3981397"><ele>144.0</ele><time>2026-04-19T09:40:50.084Z</time></trkpt><trkpt lat="41.2248187" lon="9.3981636"><ele>144.0</ele><time>2026-04-19T09:40:51.084Z</time></trkpt><trkpt lat="41.2248875" lon="9.3981833"><ele>144.0</ele><time>2026-04-19T09:40:52.084Z</time></trkpt><trkpt lat="41.2249527" lon="9.398203"><ele>144.0</ele><time>2026-04-19T09:40:53.084Z</time></trkpt><trkpt lat="41.2250155" lon="9.3982202"><ele>143.6</ele><time>2026-04-19T09:40:54.084Z</time></trkpt><trkpt lat="41.2251336" lon="9.3982553"><ele>143.2</ele><time>2026-04-19T09:40:56.084Z</time></trkpt><trkpt lat="41.2252618" lon="9.3983036"><ele>142.79999999999998</ele><time>2026-04-19T09:40:58.084Z</time></trkpt><trkpt lat="41.2253335" lon="9.3983223"><ele>142.4</ele><time>2026-04-19T09:40:59.084Z</time></trkpt><trkpt lat="41.2253967" lon="9.3983373"><ele>142.0</ele><time>2026-04-19T09:41:00.084Z</time></trkpt><trkpt lat="41.2255142" lon="9.3983637"><ele>142.0</ele><time>2026-04-19T09:41:02.083Z</time></trkpt><trkpt lat="41.225623" lon="9.3983927"><ele>142.0</ele><time>2026-04-19T09:41:04.084Z</time></trkpt><trkpt lat="41.2257255" lon="9.3984211"><ele>142.0</ele><time>2026-04-19T09:41:06.083Z</time></trkpt><trkpt lat="41.2258092" lon="9.3984504"><ele>142.0</ele><time>2026-04-19T09:41:08.084Z</time></trkpt><trkpt lat="41.2258925" lon="9.3984727"><ele>142.0</ele><time>2026-04-19T09:41:10.084Z</time></trkpt><trkpt lat="41.2259675" lon="9.3984869"><ele>141.66666666666669</ele><time>2026-04-19T09:41:12.083Z</time></trkpt><trkpt lat="41.2260304" lon="9.398469"><ele>141.33333333333334</ele><time>2026-04-19T09:41:14.084Z</time></trkpt><trkpt lat="41.2261077" lon="9.3984275"><ele>141.0</ele><time>2026-04-19T09:41:17.084Z</time></trkpt><trkpt lat="41.2261067" lon="9.3983432"><ele>140.66666666666666</ele><time>2026-04-19T09:41:23.083Z</time></trkpt><trkpt lat="41.2260431" lon="9.398425"><ele>140.33333333333331</ele><time>2026-04-19T09:41:27.084Z</time></trkpt><trkpt lat="41.225956" lon="9.3984642"><ele>140.0</ele><time>2026-04-19T09:41:29.084Z</time></trkpt><trkpt lat="41.2258614" lon="9.3984475"><ele>140.0</ele><time>2026-04-19T09:41:31.083Z</time></trkpt><trkpt lat="41.2257595" lon="9.3984246"><ele>140.0</ele><time>2026-04-19T09:41:33.084Z</time></trkpt><trkpt lat="41.2256918" lon="9.3984126"><ele>140.0</ele><time>2026-04-19T09:41:34.084Z</time></trkpt><trkpt lat="41.2256204" lon="9.3983922"><ele>140.0</ele><time>2026-04-19T09:41:35.084Z</time></trkpt><trkpt lat="41.2255521" lon="9.3983691"><ele>140.0</ele><time>2026-04-19T09:41:36.084Z</time></trkpt><trkpt lat="41.2254827" lon="9.3983528"><ele>140.0</ele><time>2026-04-19T09:41:37.084Z</time></trkpt><trkpt lat="41.2254137" lon="9.3983425"><ele>140.33333333333331</ele><time>2026-04-19T09:41:38.084Z</time></trkpt><trkpt lat="41.2253406" lon="9.398324"><ele>140.66666666666666</ele><time>2026-04-19T09:41:39.084Z</time></trkpt><trkpt lat="41.2252531" lon="9.3982936"><ele>141.0</ele><time>2026-04-19T09:41:40.084Z</time></trkpt><trkpt lat="41.2251746" lon="9.3982701"><ele>141.33333333333334</ele><time>2026-04-19T09:41:41.084Z</time></trkpt><trkpt lat="41.2251047" lon="9.3982498"><ele>141.66666666666669</ele><time>2026-04-19T09:41:42.084Z</time></trkpt><trkpt lat="41.2250296" lon="9.3982258"><ele>142.0</ele><time>2026-04-19T09:41:43.084Z</time></trkpt><trkpt lat="41.2249566" lon="9.3982006"><ele>142.0</ele><time>2026-04-19T09:41:44.084Z</time></trkpt><trkpt lat="41.2248794" lon="9.3981721"><ele>142.0</ele><time>2026-04-19T09:41:45.084Z</time></trkpt><trkpt lat="41.2247871" lon="9.3981435"><ele>142.0</ele><time>2026-04-19T09:41:46.084Z</time></trkpt><trkpt lat="41.22469" lon="9.398118"><ele>142.0</ele><time>2026-04-19T09:41:47.084Z</time></trkpt><trkpt lat="41.2246091" lon="9.3980981"><ele>142.0</ele><time>2026-04-19T09:41:48.084Z</time></trkpt><trkpt lat="41.2245456" lon="9.3980854"><ele>142.0</ele><time>2026-04-19T09:41:49.084Z</time></trkpt><trkpt lat="41.2244459" lon="9.3980425"><ele>142.33333333333334</ele><time>2026-04-19T09:41:51.084Z</time></trkpt><trkpt lat="41.2243477" lon="9.3980072"><ele>142.66666666666669</ele><time>2026-04-19T09:41:53.083Z</time></trkpt><trkpt lat="41.2242438" lon="9.3980205"><ele>143.0</ele><time>2026-04-19T09:41:55.083Z</time></trkpt><trkpt lat="41.2241844" lon="9.3980518"><ele>143.33333333333334</ele><time>2026-04-19T09:41:56.084Z</time></trkpt><trkpt lat="41.2241188" lon="9.3980953"><ele>143.66666666666666</ele><time>2026-04-19T09:41:57.084Z</time></trkpt><trkpt lat="41.2240385" lon="9.3981487"><ele>144.0</ele><time>2026-04-19T09:41:58.084Z</time></trkpt><trkpt lat="41.2239479" lon="9.3982012"><ele>143.33333333333334</ele><time>2026-04-19T09:41:59.084Z</time></trkpt><trkpt lat="41.2238754" lon="9.3982367"><ele>142.66666666666666</ele><time>2026-04-19T09:42:00.084Z</time></trkpt><trkpt lat="41.2237677" lon="9.3982777"><ele>142.0</ele><time>2026-04-19T09:42:02.084Z</time></trkpt><trkpt lat="41.2236824" lon="9.3982726"><ele>141.33333333333331</ele><time>2026-04-19T09:42:05.084Z</time></trkpt><trkpt lat="41.2236359" lon="9.398181"><ele>140.66666666666666</ele><time>2026-04-19T09:42:07.083Z</time></trkpt><trkpt lat="41.2236153" lon="9.398094"><ele>140.0</ele><time>2026-04-19T09:42:08.084Z</time></trkpt><trkpt lat="41.2235999" lon="9.3979844"><ele>140.0</ele><time>2026-04-19T09:42:09.083Z</time></trkpt><trkpt lat="41.2235888" lon="9.3978702"><ele>140.0</ele><time>2026-04-19T09:42:10.084Z</time></trkpt><trkpt lat="41.2235794" lon="9.3977612"><ele>140.0</ele><time>2026-04-19T09:42:11.084Z</time></trkpt><trkpt lat="41.2235684" lon="9.3976553"><ele>140.0</ele><time>2026-04-19T09:42:12.084Z</time></trkpt><trkpt lat="41.2235579" lon="9.3975377"><ele>140.0</ele><time>2026-04-19T09:42:13.084Z</time></trkpt><trkpt lat="41.2235497" lon="9.3973961"><ele>140.0</ele><time>2026-04-19T09:42:14.084Z</time></trkpt><trkpt lat="41.2235433" lon="9.3972617"><ele>140.4</ele><time>2026-04-19T09:42:15.084Z</time></trkpt><trkpt lat="41.2235357" lon="9.3971551"><ele>140.8</ele><time>2026-04-19T09:42:16.084Z</time></trkpt><trkpt lat="41.2235284" lon="9.397051"><ele>141.2</ele><time>2026-04-19T09:42:17.084Z</time></trkpt><trkpt lat="41.2235229" lon="9.3969564"><ele>141.6</ele><time>2026-04-19T09:42:18.084Z</time></trkpt><trkpt lat="41.2235063" lon="9.3967746"><ele>142.0</ele><time>2026-04-19T09:42:20.084Z</time></trkpt><trkpt lat="41.2234987" lon="9.3966647"><ele>142.0</ele><time>2026-04-19T09:42:21.084Z</time></trkpt><trkpt lat="41.2234829" lon="9.3965748"><ele>142.0</ele><time>2026-04-19T09:42:22.083Z</time></trkpt><trkpt lat="41.2234457" lon="9.3964889"><ele>142.0</ele><time>2026-04-19T09:42:23.083Z</time></trkpt><trkpt lat="41.2234088" lon="9.3963936"><ele>142.0</ele><time>2026-04-19T09:42:24.084Z</time></trkpt><trkpt lat="41.2233828" lon="9.3962941"><ele>142.0</ele><time>2026-04-19T09:42:25.084Z</time></trkpt><trkpt lat="41.2233497" lon="9.3962017"><ele>142.0</ele><time>2026-04-19T09:42:26.084Z</time></trkpt><trkpt lat="41.2232879" lon="9.3961186"><ele>142.0</ele><time>2026-04-19T09:42:27.084Z</time></trkpt><trkpt lat="41.223219" lon="9.396042"><ele>142.0</ele><time>2026-04-19T09:42:28.084Z</time></trkpt><trkpt lat="41.2231737" lon="9.3959531"><ele>142.0</ele><time>2026-04-19T09:42:29.084Z</time></trkpt><trkpt lat="41.2231573" lon="9.3958478"><ele>142.0</ele><time>2026-04-19T09:42:30.084Z</time></trkpt><trkpt lat="41.2231691" lon="9.395725"><ele>142.0</ele><time>2026-04-19T09:42:31.084Z</time></trkpt><trkpt lat="41.2231981" lon="9.395584"><ele>141.5</ele><time>2026-04-19T09:42:32.083Z</time></trkpt><trkpt lat="41.2232303" lon="9.395434"><ele>141.0</ele><time>2026-04-19T09:42:33.084Z</time></trkpt><trkpt lat="41.223265" lon="9.3952883"><ele>140.5</ele><time>2026-04-19T09:42:34.083Z</time></trkpt><trkpt lat="41.2232998" lon="9.3951482"><ele>140.0</ele><time>2026-04-19T09:42:35.084Z</time></trkpt><trkpt lat="41.2233331" lon="9.395012"><ele>140.0</ele><time>2026-04-19T09:42:36.084Z</time></trkpt><trkpt lat="41.2233642" lon="9.3948876"><ele>140.0</ele><time>2026-04-19T09:42:37.084Z</time></trkpt><trkpt lat="41.2233949" lon="9.3947876"><ele>140.0</ele><time>2026-04-19T09:42:38.084Z</time></trkpt><trkpt lat="41.2234245" lon="9.3947"><ele>140.0</ele><time>2026-04-19T09:42:39.084Z</time></trkpt><trkpt lat="41.2234606" lon="9.3945622"><ele>140.0</ele><time>2026-04-19T09:42:41.084Z</time></trkpt><trkpt lat="41.2235222" lon="9.3944542"><ele>139.2</ele><time>2026-04-19T09:42:43.084Z</time></trkpt><trkpt lat="41.2235913" lon="9.3944053"><ele>138.4</ele><time>2026-04-19T09:42:44.084Z</time></trkpt><trkpt lat="41.223673" lon="9.3943723"><ele>137.6</ele><time>2026-04-19T09:42:45.084Z</time></trkpt><trkpt lat="41.2237637" lon="9.3943301"><ele>136.8</ele><time>2026-04-19T09:42:46.084Z</time></trkpt><trkpt lat="41.2238604" lon="9.3942817"><ele>136.0</ele><time>2026-04-19T09:42:47.084Z</time></trkpt><trkpt lat="41.2239604" lon="9.3942325"><ele>134.8</ele><time>2026-04-19T09:42:48.082Z</time></trkpt><trkpt lat="41.2240568" lon="9.3941752"><ele>133.6</ele><time>2026-04-19T09:42:49.084Z</time></trkpt><trkpt lat="41.2241398" lon="9.3940915"><ele>132.4</ele><time>2026-04-19T09:42:50.084Z</time></trkpt><trkpt lat="41.2242012" lon="9.3939863"><ele>131.2</ele><time>2026-04-19T09:42:51.084Z</time></trkpt><trkpt lat="41.2242327" lon="9.3938552"><ele>130.0</ele><time>2026-04-19T09:42:52.084Z</time></trkpt><trkpt lat="41.2242342" lon="9.3937204"><ele>128.2</ele><time>2026-04-19T09:42:53.084Z</time></trkpt><trkpt lat="41.22421" lon="9.3935866"><ele>126.4</ele><time>2026-04-19T09:42:54.084Z</time></trkpt><trkpt lat="41.2241757" lon="9.3934503"><ele>124.6</ele><time>2026-04-19T09:42:55.084Z</time></trkpt><trkpt lat="41.2241373" lon="9.3933133"><ele>122.8</ele><time>2026-04-19T09:42:56.084Z</time></trkpt><trkpt lat="41.2241113" lon="9.3931755"><ele>121.0</ele><time>2026-04-19T09:42:57.084Z</time></trkpt><trkpt lat="41.2240984" lon="9.3930343"><ele>120.19999999999999</ele><time>2026-04-19T09:42:58.084Z</time></trkpt><trkpt lat="41.2241074" lon="9.3928951"><ele>119.39999999999999</ele><time>2026-04-19T09:42:59.084Z</time></trkpt><trkpt lat="41.2241383" lon="9.3927607"><ele>118.6</ele><time>2026-04-19T09:43:00.084Z</time></trkpt><trkpt lat="41.2241859" lon="9.3926361"><ele>117.8</ele><time>2026-04-19T09:43:01.084Z</time></trkpt><trkpt lat="41.2242483" lon="9.3925182"><ele>117.0</ele><time>2026-04-19T09:43:02.084Z</time></trkpt><trkpt lat="41.2243257" lon="9.3924129"><ele>117.0</ele><time>2026-04-19T09:43:03.084Z</time></trkpt><trkpt lat="41.2244164" lon="9.3923228"><ele>117.0</ele><time>2026-04-19T09:43:04.084Z</time></trkpt><trkpt lat="41.2245104" lon="9.3922325"><ele>117.0</ele><time>2026-04-19T09:43:05.084Z</time></trkpt><trkpt lat="41.2246121" lon="9.392133"><ele>117.0</ele><time>2026-04-19T09:43:06.084Z</time></trkpt><trkpt lat="41.2247104" lon="9.3920238"><ele>117.5</ele><time>2026-04-19T09:43:07.083Z</time></trkpt><trkpt lat="41.2248001" lon="9.3918975"><ele>118.0</ele><time>2026-04-19T09:43:08.084Z</time></trkpt><trkpt lat="41.2248852" lon="9.3917621"><ele>118.5</ele><time>2026-04-19T09:43:09.084Z</time></trkpt><trkpt lat="41.2249723" lon="9.3916279"><ele>119.0</ele><time>2026-04-19T09:43:10.084Z</time></trkpt><trkpt lat="41.22506" lon="9.3915173"><ele>119.0</ele><time>2026-04-19T09:43:11.084Z</time></trkpt><trkpt lat="41.2251589" lon="9.3914132"><ele>119.0</ele><time>2026-04-19T09:43:12.084Z</time></trkpt><trkpt lat="41.2252659" lon="9.3913271"><ele>119.0</ele><time>2026-04-19T09:43:13.084Z</time></trkpt><trkpt lat="41.2253735" lon="9.3912462"><ele>119.0</ele><time>2026-04-19T09:43:14.084Z</time></trkpt><trkpt lat="41.2254885" lon="9.39118"><ele>119.25</ele><time>2026-04-19T09:43:15.084Z</time></trkpt><trkpt lat="41.2256067" lon="9.3911348"><ele>119.5</ele><time>2026-04-19T09:43:16.084Z</time></trkpt><trkpt lat="41.2257336" lon="9.3911097"><ele>119.75</ele><time>2026-04-19T09:43:17.084Z</time></trkpt><trkpt lat="41.2258639" lon="9.3911029"><ele>120.0</ele><time>2026-04-19T09:43:18.084Z</time></trkpt><trkpt lat="41.2259943" lon="9.3911169"><ele>120.0</ele><time>2026-04-19T09:43:19.084Z</time></trkpt><trkpt lat="41.2261261" lon="9.391136"><ele>120.0</ele><time>2026-04-19T09:43:20.083Z</time></trkpt><trkpt lat="41.2262556" lon="9.3911515"><ele>120.0</ele><time>2026-04-19T09:43:21.084Z</time></trkpt><trkpt lat="41.2263841" lon="9.3911621"><ele>120.0</ele><time>2026-04-19T09:43:22.084Z</time></trkpt><trkpt lat="41.2265136" lon="9.3911838"><ele>118.25</ele><time>2026-04-19T09:43:23.084Z</time></trkpt><trkpt lat="41.2266435" lon="9.3912014"><ele>116.5</ele><time>2026-04-19T09:43:24.084Z</time></trkpt><trkpt lat="41.2267712" lon="9.3911928"><ele>114.75</ele><time>2026-04-19T09:43:25.084Z</time></trkpt><trkpt lat="41.2268931" lon="9.3911596"><ele>113.0</ele><time>2026-04-19T09:43:26.084Z</time></trkpt><trkpt lat="41.2270017" lon="9.3910956"><ele>113.0</ele><time>2026-04-19T09:43:27.083Z</time></trkpt><trkpt lat="41.2270975" lon="9.3910032"><ele>113.0</ele><time>2026-04-19T09:43:28.084Z</time></trkpt><trkpt lat="41.2271806" lon="9.3908921"><ele>113.0</ele><time>2026-04-19T09:43:29.084Z</time></trkpt><trkpt lat="41.227262" lon="9.3907667"><ele>113.0</ele><time>2026-04-19T09:43:30.084Z</time></trkpt><trkpt lat="41.2273466" lon="9.3906417"><ele>112.5</ele><time>2026-04-19T09:43:31.084Z</time></trkpt><trkpt lat="41.2274313" lon="9.3905117"><ele>112.0</ele><time>2026-04-19T09:43:32.084Z</time></trkpt><trkpt lat="41.2275177" lon="9.3903827"><ele>111.5</ele><time>2026-04-19T09:43:33.084Z</time></trkpt><trkpt lat="41.2276045" lon="9.3902558"><ele>111.0</ele><time>2026-04-19T09:43:34.084Z</time></trkpt><trkpt lat="41.2276875" lon="9.3901265"><ele>111.0</ele><time>2026-04-19T09:43:35.084Z</time></trkpt><trkpt lat="41.2277731" lon="9.3899982"><ele>111.0</ele><time>2026-04-19T09:43:36.084Z</time></trkpt><trkpt lat="41.2278595" lon="9.3898746"><ele>111.0</ele><time>2026-04-19T09:43:37.084Z</time></trkpt><trkpt lat="41.2279251" lon="9.389728"><ele>111.0</ele><time>2026-04-19T09:43:38.084Z</time></trkpt><trkpt lat="41.2279679" lon="9.3895555"><ele>113.25</ele><time>2026-04-19T09:43:39.084Z</time></trkpt><trkpt lat="41.2279873" lon="9.3893666"><ele>115.5</ele><time>2026-04-19T09:43:40.084Z</time></trkpt><trkpt lat="41.2279969" lon="9.3891826"><ele>117.75</ele><time>2026-04-19T09:43:41.084Z</time></trkpt><trkpt lat="41.2280161" lon="9.3890116"><ele>120.0</ele><time>2026-04-19T09:43:42.083Z</time></trkpt><trkpt lat="41.2280444" lon="9.3888618"><ele>120.0</ele><time>2026-04-19T09:43:43.084Z</time></trkpt><trkpt lat="41.2281033" lon="9.3887286"><ele>120.0</ele><time>2026-04-19T09:43:44.084Z</time></trkpt><trkpt lat="41.2281883" lon="9.3886098"><ele>120.0</ele><time>2026-04-19T09:43:45.084Z</time></trkpt><trkpt lat="41.2282891" lon="9.3885122"><ele>120.0</ele><time>2026-04-19T09:43:46.084Z</time></trkpt><trkpt lat="41.2284026" lon="9.3884376"><ele>119.0</ele><time>2026-04-19T09:43:47.084Z</time></trkpt><trkpt lat="41.2285196" lon="9.3883636"><ele>118.0</ele><time>2026-04-19T09:43:48.084Z</time></trkpt><trkpt lat="41.2286294" lon="9.3882736"><ele>117.0</ele><time>2026-04-19T09:43:49.084Z</time></trkpt><trkpt lat="41.228722" lon="9.3881737"><ele>116.0</ele><time>2026-04-19T09:43:50.084Z</time></trkpt><trkpt lat="41.2288047" lon="9.388061"><ele>115.0</ele><time>2026-04-19T09:43:51.084Z</time></trkpt><trkpt lat="41.2288819" lon="9.3879526"><ele>114.0</ele><time>2026-04-19T09:43:52.083Z</time></trkpt><trkpt lat="41.2289678" lon="9.3878577"><ele>113.0</ele><time>2026-04-19T09:43:53.083Z</time></trkpt><trkpt lat="41.2290658" lon="9.3877829"><ele>112.0</ele><time>2026-04-19T09:43:54.084Z</time></trkpt><trkpt lat="41.2291778" lon="9.3877266"><ele>112.0</ele><time>2026-04-19T09:43:55.084Z</time></trkpt><trkpt lat="41.2292967" lon="9.3876892"><ele>111.99999999999999</ele><time>2026-04-19T09:43:56.084Z</time></trkpt><trkpt lat="41.2294071" lon="9.3876645"><ele>111.99999999999999</ele><time>2026-04-19T09:43:57.084Z</time></trkpt><trkpt lat="41.2295015" lon="9.3876393"><ele>112.0</ele><time>2026-04-19T09:43:58.084Z</time></trkpt><trkpt lat="41.2295834" lon="9.3876169"><ele>112.0</ele><time>2026-04-19T09:43:59.084Z</time></trkpt><trkpt lat="41.2296531" lon="9.387598"><ele>112.0</ele><time>2026-04-19T09:44:00.084Z</time></trkpt><trkpt lat="41.2297623" lon="9.3875647"><ele>111.99999999999999</ele><time>2026-04-19T09:44:02.084Z</time></trkpt><trkpt lat="41.2298418" lon="9.3875266"><ele>111.99999999999999</ele><time>2026-04-19T09:44:04.084Z</time></trkpt><trkpt lat="41.2299261" lon="9.3874678"><ele>112.0</ele><time>2026-04-19T09:44:07.084Z</time></trkpt><trkpt lat="41.229987" lon="9.3874024"><ele>112.0</ele><time>2026-04-19T09:44:09.084Z</time></trkpt><trkpt lat="41.230053" lon="9.3873317"><ele>110.66666666666667</ele><time>2026-04-19T09:44:11.083Z</time></trkpt><trkpt lat="41.2301053" lon="9.3872822"><ele>109.33333333333334</ele><time>2026-04-19T09:44:13.084Z</time></trkpt><trkpt lat="41.2301624" lon="9.3872047"><ele>108.0</ele><time>2026-04-19T09:45:32.084Z</time></trkpt><trkpt lat="41.2301964" lon="9.3871176"><ele>106.66666666666666</ele><time>2026-04-19T09:45:33.084Z</time></trkpt><trkpt lat="41.2302187" lon="9.386998"><ele>105.33333333333333</ele><time>2026-04-19T09:45:34.084Z</time></trkpt><trkpt lat="41.2302395" lon="9.3868465"><ele>104.0</ele><time>2026-04-19T09:45:35.084Z</time></trkpt><trkpt lat="41.2302588" lon="9.3866798"><ele>103.75</ele><time>2026-04-19T09:45:36.084Z</time></trkpt><trkpt lat="41.2302624" lon="9.3865192"><ele>103.5</ele><time>2026-04-19T09:45:37.083Z</time></trkpt><trkpt lat="41.2302552" lon="9.3863623"><ele>103.25</ele><time>2026-04-19T09:45:38.084Z</time></trkpt><trkpt lat="41.2302358" lon="9.3862013"><ele>103.0</ele><time>2026-04-19T09:45:39.083Z</time></trkpt><trkpt lat="41.2302034" lon="9.3860369"><ele>102.25</ele><time>2026-04-19T09:45:40.084Z</time></trkpt><trkpt lat="41.2301635" lon="9.3858795"><ele>101.5</ele><time>2026-04-19T09:45:41.084Z</time></trkpt><trkpt lat="41.2301218" lon="9.385735"><ele>100.75</ele><time>2026-04-19T09:45:42.084Z</time></trkpt><trkpt lat="41.2300771" lon="9.3855985"><ele>100.0</ele><time>2026-04-19T09:45:43.084Z</time></trkpt><trkpt lat="41.230027" lon="9.3854779"><ele>97.6</ele><time>2026-04-19T09:45:44.083Z</time></trkpt><trkpt lat="41.2299641" lon="9.3853764"><ele>95.2</ele><time>2026-04-19T09:45:45.084Z</time></trkpt><trkpt lat="41.2298864" lon="9.3852972"><ele>92.80000000000001</ele><time>2026-04-19T09:45:46.084Z</time></trkpt><trkpt lat="41.2297962" lon="9.3852469"><ele>90.4</ele><time>2026-04-19T09:45:47.084Z</time></trkpt><trkpt lat="41.2296855" lon="9.3852119"><ele>88.0</ele><time>2026-04-19T09:45:48.084Z</time></trkpt><trkpt lat="41.2295612" lon="9.3851945"><ele>88.0</ele><time>2026-04-19T09:45:49.083Z</time></trkpt><trkpt lat="41.2294284" lon="9.3851917"><ele>88.0</ele><time>2026-04-19T09:45:50.084Z</time></trkpt><trkpt lat="41.2292995" lon="9.385196"><ele>88.0</ele><time>2026-04-19T09:45:51.084Z</time></trkpt><trkpt lat="41.2291727" lon="9.3851952"><ele>88.0</ele><time>2026-04-19T09:45:52.084Z</time></trkpt><trkpt lat="41.2290429" lon="9.3851969"><ele>87.0</ele><time>2026-04-19T09:45:53.084Z</time></trkpt><trkpt lat="41.2289069" lon="9.3851939"><ele>86.0</ele><time>2026-04-19T09:45:54.084Z</time></trkpt><trkpt lat="41.228754" lon="9.3851956"><ele>85.0</ele><time>2026-04-19T09:45:55.084Z</time></trkpt><trkpt lat="41.2286046" lon="9.3852012"><ele>84.0</ele><time>2026-04-19T09:45:56.084Z</time></trkpt><trkpt lat="41.2284638" lon="9.3852117"><ele>84.0</ele><time>2026-04-19T09:45:57.084Z</time></trkpt><trkpt lat="41.2283269" lon="9.3852413"><ele>84.0</ele><time>2026-04-19T09:45:58.084Z</time></trkpt><trkpt lat="41.2281964" lon="9.3852885"><ele>84.0</ele><time>2026-04-19T09:45:59.084Z</time></trkpt><trkpt lat="41.2280706" lon="9.3853448"><ele>84.0</ele><time>2026-04-19T09:46:00.083Z</time></trkpt><trkpt lat="41.227948" lon="9.3854036"><ele>82.25</ele><time>2026-04-19T09:46:01.083Z</time></trkpt><trkpt lat="41.2278287" lon="9.3854585"><ele>80.5</ele><time>2026-04-19T09:46:02.084Z</time></trkpt><trkpt lat="41.2277125" lon="9.3855018"><ele>78.75</ele><time>2026-04-19T09:46:03.084Z</time></trkpt><trkpt lat="41.227596" lon="9.3855277"><ele>77.0</ele><time>2026-04-19T09:46:04.084Z</time></trkpt><trkpt lat="41.227478" lon="9.3855256"><ele>77.0</ele><time>2026-04-19T09:46:05.084Z</time></trkpt><trkpt lat="41.2273652" lon="9.3854959"><ele>77.0</ele><time>2026-04-19T09:46:06.084Z</time></trkpt><trkpt lat="41.2272598" lon="9.3854471"><ele>77.0</ele><time>2026-04-19T09:46:07.084Z</time></trkpt><trkpt lat="41.2271605" lon="9.3853855"><ele>77.0</ele><time>2026-04-19T09:46:08.084Z</time></trkpt><trkpt lat="41.2270586" lon="9.3853356"><ele>77.0</ele><time>2026-04-19T09:46:09.084Z</time></trkpt><trkpt lat="41.2269534" lon="9.3853091"><ele>77.8</ele><time>2026-04-19T09:46:10.083Z</time></trkpt><trkpt lat="41.2268476" lon="9.3853021"><ele>78.6</ele><time>2026-04-19T09:46:11.083Z</time></trkpt><trkpt lat="41.2267457" lon="9.3852947"><ele>79.39999999999999</ele><time>2026-04-19T09:46:12.084Z</time></trkpt><trkpt lat="41.2266445" lon="9.3852728"><ele>80.2</ele><time>2026-04-19T09:46:13.084Z</time></trkpt><trkpt lat="41.2265545" lon="9.3852205"><ele>81.0</ele><time>2026-04-19T09:46:14.083Z</time></trkpt><trkpt lat="41.2264803" lon="9.3851325"><ele>80.39999999999999</ele><time>2026-04-19T09:46:15.083Z</time></trkpt><trkpt lat="41.2264244" lon="9.3850185"><ele>79.8</ele><time>2026-04-19T09:46:16.083Z</time></trkpt><trkpt lat="41.2263911" lon="9.3848979"><ele>79.19999999999999</ele><time>2026-04-19T09:46:17.082Z</time></trkpt><trkpt lat="41.2263775" lon="9.3847754"><ele>78.6</ele><time>2026-04-19T09:46:18.083Z</time></trkpt><trkpt lat="41.2263869" lon="9.3846554"><ele>78.0</ele><time>2026-04-19T09:46:19.083Z</time></trkpt><trkpt lat="41.2264062" lon="9.384542"><ele>76.83333333333333</ele><time>2026-04-19T09:46:20.083Z</time></trkpt><trkpt lat="41.2264486" lon="9.3844405"><ele>75.66666666666667</ele><time>2026-04-19T09:46:21.083Z</time></trkpt><trkpt lat="41.2265087" lon="9.3843622"><ele>74.5</ele><time>2026-04-19T09:46:22.083Z</time></trkpt><trkpt lat="41.2265808" lon="9.3843038"><ele>73.33333333333334</ele><time>2026-04-19T09:46:23.083Z</time></trkpt><trkpt lat="41.2266608" lon="9.3842587"><ele>72.16666666666667</ele><time>2026-04-19T09:46:24.082Z</time></trkpt><trkpt lat="41.2267524" lon="9.3842269"><ele>71.0</ele><time>2026-04-19T09:46:25.083Z</time></trkpt><trkpt lat="41.2268521" lon="9.3842071"><ele>71.0</ele><time>2026-04-19T09:46:26.083Z</time></trkpt><trkpt lat="41.2269548" lon="9.3842082"><ele>71.0</ele><time>2026-04-19T09:46:27.083Z</time></trkpt><trkpt lat="41.2270588" lon="9.3842198"><ele>71.0</ele><time>2026-04-19T09:46:28.083Z</time></trkpt><trkpt lat="41.2271588" lon="9.3842492"><ele>71.0</ele><time>2026-04-19T09:46:29.083Z</time></trkpt><trkpt lat="41.2272583" lon="9.3842974"><ele>71.0</ele><time>2026-04-19T09:46:30.083Z</time></trkpt><trkpt lat="41.2273512" lon="9.3843592"><ele>69.2</ele><time>2026-04-19T09:46:31.083Z</time></trkpt><trkpt lat="41.2274427" lon="9.3844104"><ele>67.39999999999999</ele><time>2026-04-19T09:46:32.083Z</time></trkpt><trkpt lat="41.2275321" lon="9.3844434"><ele>65.6</ele><time>2026-04-19T09:46:33.083Z</time></trkpt><trkpt lat="41.2276259" lon="9.3844588"><ele>63.8</ele><time>2026-04-19T09:46:34.083Z</time></trkpt><trkpt lat="41.2277175" lon="9.3844506"><ele>62.0</ele><time>2026-04-19T09:46:35.083Z</time></trkpt><trkpt lat="41.2278185" lon="9.3844062"><ele>62.0</ele><time>2026-04-19T09:46:36.083Z</time></trkpt><trkpt lat="41.2279359" lon="9.3843203"><ele>62.0</ele><time>2026-04-19T09:46:37.083Z</time></trkpt><trkpt lat="41.2280705" lon="9.3842473"><ele>62.0</ele><time>2026-04-19T09:46:38.083Z</time></trkpt><trkpt lat="41.228201" lon="9.3841943"><ele>62.0</ele><time>2026-04-19T09:46:39.082Z</time></trkpt><trkpt lat="41.2283285" lon="9.3841475"><ele>62.25</ele><time>2026-04-19T09:46:40.082Z</time></trkpt><trkpt lat="41.2284526" lon="9.3841061"><ele>62.5</ele><time>2026-04-19T09:46:41.083Z</time></trkpt><trkpt lat="41.2285685" lon="9.384058"><ele>62.75</ele><time>2026-04-19T09:46:42.083Z</time></trkpt><trkpt lat="41.2286686" lon="9.3839773"><ele>63.0</ele><time>2026-04-19T09:46:43.083Z</time></trkpt><trkpt lat="41.2287517" lon="9.3838653"><ele>60.0</ele><time>2026-04-19T09:46:44.082Z</time></trkpt><trkpt lat="41.2288039" lon="9.3837319"><ele>57.0</ele><time>2026-04-19T09:46:45.083Z</time></trkpt><trkpt lat="41.2288142" lon="9.3835823"><ele>54.0</ele><time>2026-04-19T09:46:46.083Z</time></trkpt><trkpt lat="41.2287806" lon="9.3834403"><ele>51.0</ele><time>2026-04-19T09:46:47.083Z</time></trkpt><trkpt lat="41.2287069" lon="9.3832965"><ele>51.0</ele><time>2026-04-19T09:46:48.082Z</time></trkpt><trkpt lat="41.2285987" lon="9.3831602"><ele>51.0</ele><time>2026-04-19T09:46:49.083Z</time></trkpt><trkpt lat="41.2284946" lon="9.3830333"><ele>51.0</ele><time>2026-04-19T09:46:50.083Z</time></trkpt><trkpt lat="41.2284071" lon="9.3828865"><ele>51.0</ele><time>2026-04-19T09:46:51.083Z</time></trkpt><trkpt lat="41.2283339" lon="9.3827284"><ele>50.5</ele><time>2026-04-19T09:46:52.083Z</time></trkpt><trkpt lat="41.2282756" lon="9.3825683"><ele>50.0</ele><time>2026-04-19T09:46:53.083Z</time></trkpt><trkpt lat="41.2281982" lon="9.3824071"><ele>49.5</ele><time>2026-04-19T09:46:54.083Z</time></trkpt><trkpt lat="41.2280803" lon="9.382277"><ele>49.0</ele><time>2026-04-19T09:46:55.083Z</time></trkpt><trkpt lat="41.2279575" lon="9.3821704"><ele>45.25</ele><time>2026-04-19T09:46:56.082Z</time></trkpt><trkpt lat="41.2278325" lon="9.3820737"><ele>41.5</ele><time>2026-04-19T09:46:57.082Z</time></trkpt><trkpt lat="41.2277059" lon="9.3819842"><ele>37.75</ele><time>2026-04-19T09:46:58.083Z</time></trkpt><trkpt lat="41.2275788" lon="9.3819016"><ele>34.0</ele><time>2026-04-19T09:46:59.083Z</time></trkpt><trkpt lat="41.2274481" lon="9.381821"><ele>34.0</ele><time>2026-04-19T09:47:00.083Z</time></trkpt><trkpt lat="41.2273218" lon="9.3817398"><ele>34.0</ele><time>2026-04-19T09:47:01.083Z</time></trkpt><trkpt lat="41.2271924" lon="9.3816601"><ele>34.0</ele><time>2026-04-19T09:47:02.083Z</time></trkpt><trkpt lat="41.2270633" lon="9.3815811"><ele>34.0</ele><time>2026-04-19T09:47:03.083Z</time></trkpt><trkpt lat="41.2269344" lon="9.3815041"><ele>32.0</ele><time>2026-04-19T09:47:04.083Z</time></trkpt><trkpt lat="41.226806" lon="9.3814278"><ele>30.0</ele><time>2026-04-19T09:47:05.083Z</time></trkpt><trkpt lat="41.2266746" lon="9.3813518"><ele>28.0</ele><time>2026-04-19T09:47:06.083Z</time></trkpt><trkpt lat="41.2265377" lon="9.3812726"><ele>26.0</ele><time>2026-04-19T09:47:07.083Z</time></trkpt><trkpt lat="41.2263961" lon="9.3811918"><ele>23.75</ele><time>2026-04-19T09:47:08.083Z</time></trkpt><trkpt lat="41.2262568" lon="9.3811173"><ele>21.5</ele><time>2026-04-19T09:47:09.083Z</time></trkpt><trkpt lat="41.2261187" lon="9.3810452"><ele>19.25</ele><time>2026-04-19T09:47:10.083Z</time></trkpt><trkpt lat="41.2259826" lon="9.3809696"><ele>17.0</ele><time>2026-04-19T09:47:11.083Z</time></trkpt><trkpt lat="41.2258497" lon="9.3808973"><ele>17.0</ele><time>2026-04-19T09:47:12.083Z</time></trkpt><trkpt lat="41.2257213" lon="9.3808242"><ele>17.0</ele><time>2026-04-19T09:47:13.083Z</time></trkpt><trkpt lat="41.2255981" lon="9.3807559"><ele>17.0</ele><time>2026-04-19T09:47:14.082Z</time></trkpt><trkpt lat="41.2254762" lon="9.3806878"><ele>17.0</ele><time>2026-04-19T09:47:15.083Z</time></trkpt><trkpt lat="41.2253597" lon="9.3806258"><ele>17.0</ele><time>2026-04-19T09:47:16.083Z</time></trkpt><trkpt lat="41.2252338" lon="9.3805612"><ele>17.0</ele><time>2026-04-19T09:47:17.083Z</time></trkpt><trkpt lat="41.2251047" lon="9.3804897"><ele>17.0</ele><time>2026-04-19T09:47:18.083Z</time></trkpt><trkpt lat="41.2249737" lon="9.3804285"><ele>17.0</ele><time>2026-04-19T09:47:19.083Z</time></trkpt><trkpt lat="41.2248484" lon="9.3803795"><ele>16.0</ele><time>2026-04-19T09:47:20.083Z</time></trkpt><trkpt lat="41.2247158" lon="9.3803506"><ele>15.0</ele><time>2026-04-19T09:47:21.083Z</time></trkpt><trkpt lat="41.2245838" lon="9.3803372"><ele>14.0</ele><time>2026-04-19T09:47:22.082Z</time></trkpt><trkpt lat="41.2244565" lon="9.3803324"><ele>13.0</ele><time>2026-04-19T09:47:23.083Z</time></trkpt><trkpt lat="41.2243403" lon="9.3803355"><ele>13.0</ele><time>2026-04-19T09:47:24.083Z</time></trkpt><trkpt lat="41.2242286" lon="9.3803468"><ele>13.0</ele><time>2026-04-19T09:47:25.083Z</time></trkpt><trkpt lat="41.2241232" lon="9.3803599"><ele>13.0</ele><time>2026-04-19T09:47:26.083Z</time></trkpt><trkpt lat="41.2240209" lon="9.3803732"><ele>13.0</ele><time>2026-04-19T09:47:27.083Z</time></trkpt><trkpt lat="41.2239159" lon="9.3803817"><ele>13.0</ele><time>2026-04-19T09:47:28.083Z</time></trkpt><trkpt lat="41.2238078" lon="9.3803886"><ele>13.0</ele><time>2026-04-19T09:47:29.083Z</time></trkpt><trkpt lat="41.2237104" lon="9.3803906"><ele>13.0</ele><time>2026-04-19T09:47:30.083Z</time></trkpt><trkpt lat="41.2236186" lon="9.3803899"><ele>13.0</ele><time>2026-04-19T09:47:31.083Z</time></trkpt><trkpt lat="41.2235328" lon="9.3803918"><ele>13.0</ele><time>2026-04-19T09:47:32.083Z</time></trkpt><trkpt lat="41.2234619" lon="9.3803853"><ele>13.0</ele><time>2026-04-19T09:47:33.083Z</time></trkpt><trkpt lat="41.2233496" lon="9.3803477"><ele>13.0</ele><time>2026-04-19T09:47:35.083Z</time></trkpt><trkpt lat="41.2233104" lon="9.3802567"><ele>13.0</ele><time>2026-04-19T09:47:37.083Z</time></trkpt><trkpt lat="41.2233339" lon="9.3801396"><ele>13.0</ele><time>2026-04-19T09:47:40.083Z</time></trkpt><trkpt lat="41.2234067" lon="9.3800878"><ele>13.0</ele><time>2026-04-19T09:47:42.083Z</time></trkpt><trkpt lat="41.2235027" lon="9.3800155"><ele>13.0</ele><time>2026-04-19T09:47:44.082Z</time></trkpt><trkpt lat="41.2235779" lon="9.3798964"><ele>13.0</ele><time>2026-04-19T09:47:46.083Z</time></trkpt><trkpt lat="41.2236541" lon="9.3797909"><ele>13.0</ele><time>2026-04-19T09:47:48.083Z</time></trkpt><trkpt lat="41.2237432" lon="9.3797408"><ele>13.0</ele><time>2026-04-19T09:47:50.083Z</time></trkpt><trkpt lat="41.2238529" lon="9.3797558"><ele>13.0</ele><time>2026-04-19T09:47:52.083Z</time></trkpt><trkpt lat="41.2239325" lon="9.3797826"><ele>13.0</ele><time>2026-04-19T09:47:53.083Z</time></trkpt><trkpt lat="41.2240211" lon="9.3798116"><ele>12.999999999999998</ele><time>2026-04-19T09:47:54.083Z</time></trkpt><trkpt lat="41.2240992" lon="9.3798267"><ele>13.0</ele><time>2026-04-19T09:47:55.083Z</time></trkpt><trkpt lat="41.2241787" lon="9.3798289"><ele>13.0</ele><time>2026-04-19T09:47:56.083Z</time></trkpt><trkpt lat="41.2242477" lon="9.3798381"><ele>13.0</ele><time>2026-04-19T09:47:57.082Z</time></trkpt><trkpt lat="41.2243333" lon="9.3798862"><ele>12.999999999999998</ele><time>2026-04-19T09:47:59.083Z</time></trkpt><trkpt lat="41.2244093" lon="9.3798759"><ele>13.0</ele><time>2026-04-19T09:48:01.083Z</time></trkpt><trkpt lat="41.224463" lon="9.3798261"><ele>13.0</ele><time>2026-04-19T09:48:03.083Z</time></trkpt><trkpt lat="41.2245584" lon="9.3797588"><ele>13.0</ele><time>2026-04-19T09:48:05.082Z</time></trkpt><trkpt lat="41.2246422" lon="9.3796669"><ele>13.0</ele><time>2026-04-19T09:48:07.083Z</time></trkpt><trkpt lat="41.2247022" lon="9.379532"><ele>13.0</ele><time>2026-04-19T09:48:09.082Z</time></trkpt><trkpt lat="41.2247349" lon="9.3794061"><ele>13.0</ele><time>2026-04-19T09:48:11.083Z</time></trkpt><trkpt lat="41.2247666" lon="9.3792827"><ele>12.200000000000001</ele><time>2026-04-19T09:48:13.083Z</time></trkpt><trkpt lat="41.224802" lon="9.3791551"><ele>11.4</ele><time>2026-04-19T09:48:15.083Z</time></trkpt><trkpt lat="41.2248579" lon="9.3790672"><ele>10.600000000000001</ele><time>2026-04-19T09:48:17.083Z</time></trkpt><trkpt lat="41.2249502" lon="9.378998"><ele>9.8</ele><time>2026-04-19T09:48:19.083Z</time></trkpt><trkpt lat="41.2250349" lon="9.3789052"><ele>9.0</ele><time>2026-04-19T09:48:21.083Z</time></trkpt><trkpt lat="41.2250867" lon="9.378773"><ele>8.6</ele><time>2026-04-19T09:48:23.083Z</time></trkpt><trkpt lat="41.2251435" lon="9.378669"><ele>8.2</ele><time>2026-04-19T09:48:25.083Z</time></trkpt><trkpt lat="41.2252363" lon="9.378608"><ele>7.799999999999999</ele><time>2026-04-19T09:48:27.083Z</time></trkpt><trkpt lat="41.2252977" lon="9.3785865"><ele>7.3999999999999995</ele><time>2026-04-19T09:48:28.083Z</time></trkpt><trkpt lat="41.2253612" lon="9.378566"><ele>7.0</ele><time>2026-04-19T09:48:29.083Z</time></trkpt><trkpt lat="41.2254826" lon="9.3785278"><ele>7.0</ele><time>2026-04-19T09:48:31.083Z</time></trkpt><trkpt lat="41.2255972" lon="9.3784934"><ele>6.999999999999999</ele><time>2026-04-19T09:48:33.083Z</time></trkpt><trkpt lat="41.2257219" lon="9.3784829"><ele>6.999999999999999</ele><time>2026-04-19T09:48:35.083Z</time></trkpt><trkpt lat="41.22584" lon="9.3784548"><ele>7.0</ele><time>2026-04-19T09:48:37.082Z</time></trkpt><trkpt lat="41.2259135" lon="9.3784209"><ele>7.0</ele><time>2026-04-19T09:48:38.083Z</time></trkpt><trkpt lat="41.2259967" lon="9.3783944"><ele>7.000000000000001</ele><time>2026-04-19T09:48:39.083Z</time></trkpt><trkpt lat="41.226075" lon="9.3783924"><ele>7.0</ele><time>2026-04-19T09:48:40.083Z</time></trkpt><trkpt lat="41.2261457" lon="9.3783995"><ele>7.0</ele><time>2026-04-19T09:48:41.083Z</time></trkpt><trkpt lat="41.2262116" lon="9.3783926"><ele>7.0</ele><time>2026-04-19T09:48:42.083Z</time></trkpt><trkpt lat="41.2263337" lon="9.378372"><ele>7.000000000000001</ele><time>2026-04-19T09:48:44.082Z</time></trkpt><trkpt lat="41.2264038" lon="9.3783785"><ele>7.0</ele><time>2026-04-19T09:48:45.082Z</time></trkpt><trkpt lat="41.2264756" lon="9.378367"><ele>6.833333333333334</ele><time>2026-04-19T09:48:46.082Z</time></trkpt><trkpt lat="41.2265521" lon="9.3783477"><ele>6.666666666666667</ele><time>2026-04-19T09:48:47.083Z</time></trkpt><trkpt lat="41.2266347" lon="9.3783344"><ele>6.5</ele><time>2026-04-19T09:48:48.083Z</time></trkpt><trkpt lat="41.2267092" lon="9.3783314"><ele>6.333333333333334</ele><time>2026-04-19T09:48:49.083Z</time></trkpt><trkpt lat="41.2267859" lon="9.3783322"><ele>6.166666666666667</ele><time>2026-04-19T09:48:50.083Z</time></trkpt><trkpt lat="41.2268747" lon="9.3783386"><ele>6.0</ele><time>2026-04-19T09:48:51.083Z</time></trkpt><trkpt lat="41.2269626" lon="9.3783461"><ele>6.0</ele><time>2026-04-19T09:48:52.083Z</time></trkpt><trkpt lat="41.2270333" lon="9.3783406"><ele>6.0</ele><time>2026-04-19T09:48:53.083Z</time></trkpt><trkpt lat="41.2270988" lon="9.3783134"><ele>6.0</ele><time>2026-04-19T09:48:54.083Z</time></trkpt><trkpt lat="41.2272044" lon="9.3782617"><ele>6.0</ele><time>2026-04-19T09:48:56.083Z</time></trkpt><trkpt lat="41.2273286" lon="9.3782791"><ele>6.0</ele><time>2026-04-19T09:48:58.083Z</time></trkpt><trkpt lat="41.2273939" lon="9.3782952"><ele>6.0</ele><time>2026-04-19T09:48:59.083Z</time></trkpt><trkpt lat="41.2274588" lon="9.3782994"><ele>5.833333333333333</ele><time>2026-04-19T09:49:00.083Z</time></trkpt><trkpt lat="41.2275762" lon="9.3783263"><ele>5.666666666666667</ele><time>2026-04-19T09:49:02.083Z</time></trkpt><trkpt lat="41.2276972" lon="9.3783306"><ele>5.5</ele><time>2026-04-19T09:49:04.083Z</time></trkpt><trkpt lat="41.2277642" lon="9.3783145"><ele>5.333333333333334</ele><time>2026-04-19T09:49:05.083Z</time></trkpt><trkpt lat="41.2278304" lon="9.3782894"><ele>5.166666666666667</ele><time>2026-04-19T09:49:06.083Z</time></trkpt><trkpt lat="41.2278974" lon="9.3782586"><ele>5.0</ele><time>2026-04-19T09:49:07.083Z</time></trkpt><trkpt lat="41.2280094" lon="9.3782263"><ele>5.0</ele><time>2026-04-19T09:49:09.082Z</time></trkpt><trkpt lat="41.2281429" lon="9.3782185"><ele>5.0</ele><time>2026-04-19T09:49:11.082Z</time></trkpt><trkpt lat="41.2282243" lon="9.3782043"><ele>5.0</ele><time>2026-04-19T09:49:12.083Z</time></trkpt><trkpt lat="41.2283348" lon="9.3781839"><ele>5.0</ele><time>2026-04-19T09:49:13.083Z</time></trkpt><trkpt lat="41.2284286" lon="9.3781745"><ele>5.0</ele><time>2026-04-19T09:49:14.083Z</time></trkpt><trkpt lat="41.2285192" lon="9.3781679"><ele>5.666666666666667</ele><time>2026-04-19T09:49:15.083Z</time></trkpt><trkpt lat="41.2286092" lon="9.3781622"><ele>6.333333333333334</ele><time>2026-04-19T09:49:16.083Z</time></trkpt><trkpt lat="41.2286863" lon="9.3781439"><ele>7.0</ele><time>2026-04-19T09:49:17.082Z</time></trkpt><trkpt lat="41.2287615" lon="9.378136"><ele>7.666666666666667</ele><time>2026-04-19T09:49:18.082Z</time></trkpt><trkpt lat="41.2288326" lon="9.3781225"><ele>8.333333333333334</ele><time>2026-04-19T09:49:19.083Z</time></trkpt><trkpt lat="41.2288987" lon="9.3780995"><ele>9.0</ele><time>2026-04-19T09:49:20.083Z</time></trkpt><trkpt lat="41.2289757" lon="9.3780948"><ele>8.666666666666666</ele><time>2026-04-19T09:49:21.082Z</time></trkpt><trkpt lat="41.229053" lon="9.3780994"><ele>8.333333333333334</ele><time>2026-04-19T09:49:22.082Z</time></trkpt><trkpt lat="41.2291219" lon="9.378101"><ele>8.0</ele><time>2026-04-19T09:49:23.082Z</time></trkpt><trkpt lat="41.229189" lon="9.3781013"><ele>7.666666666666667</ele><time>2026-04-19T09:49:24.082Z</time></trkpt><trkpt lat="41.2292556" lon="9.3780856"><ele>7.333333333333334</ele><time>2026-04-19T09:49:25.083Z</time></trkpt><trkpt lat="41.2293153" lon="9.3780587"><ele>7.0</ele><time>2026-04-19T09:49:26.083Z</time></trkpt><trkpt lat="41.2294" lon="9.3779593"><ele>6.8</ele><time>2026-04-19T09:49:28.082Z</time></trkpt><trkpt lat="41.2294465" lon="9.3778112"><ele>6.6</ele><time>2026-04-19T09:49:30.083Z</time></trkpt><trkpt lat="41.2294856" lon="9.3776757"><ele>6.3999999999999995</ele><time>2026-04-19T09:49:32.083Z</time></trkpt><trkpt lat="41.2295118" lon="9.3775682"><ele>6.199999999999999</ele><time>2026-04-19T09:49:34.083Z</time></trkpt><trkpt lat="41.2294857" lon="9.3774589"><ele>6.0</ele><time>2026-04-19T09:49:36.083Z</time></trkpt><trkpt lat="41.2294479" lon="9.3773212"><ele>6.0</ele><time>2026-04-19T09:49:38.083Z</time></trkpt><trkpt lat="41.2294381" lon="9.3771861"><ele>6.0</ele><time>2026-04-19T09:49:40.083Z</time></trkpt><trkpt lat="41.2294236" lon="9.3770673"><ele>6.0</ele><time>2026-04-19T09:49:42.082Z</time></trkpt><trkpt lat="41.2293802" lon="9.3769902"><ele>6.0</ele><time>2026-04-19T09:49:44.083Z</time></trkpt><trkpt lat="41.22929" lon="9.3769358"><ele>6.0</ele><time>2026-04-19T09:49:47.083Z</time></trkpt><trkpt lat="41.2292174" lon="9.3769114"><ele>6.0</ele><time>2026-04-19T09:49:49.083Z</time></trkpt><trkpt lat="41.2291366" lon="9.3768855"><ele>5.833333333333333</ele><time>2026-04-19T09:49:53.083Z</time></trkpt><trkpt lat="41.2290651" lon="9.3768493"><ele>5.666666666666667</ele><time>2026-04-19T09:49:55.083Z</time></trkpt><trkpt lat="41.2289731" lon="9.3768115"><ele>5.5</ele><time>2026-04-19T09:49:57.082Z</time></trkpt><trkpt lat="41.2289123" lon="9.3767696"><ele>5.333333333333334</ele><time>2026-04-19T09:49:59.083Z</time></trkpt><trkpt lat="41.2288838" lon="9.3766669"><ele>5.166666666666667</ele><time>2026-04-19T09:50:01.083Z</time></trkpt><trkpt lat="41.228851" lon="9.376538"><ele>5.0</ele><time>2026-04-19T09:50:03.083Z</time></trkpt><trkpt lat="41.2288019" lon="9.376428"><ele>4.833333333333334</ele><time>2026-04-19T09:50:05.082Z</time></trkpt><trkpt lat="41.2287464" lon="9.3763308"><ele>4.666666666666667</ele><time>2026-04-19T09:50:07.082Z</time></trkpt><trkpt lat="41.2287003" lon="9.3762264"><ele>4.5</ele><time>2026-04-19T09:50:09.083Z</time></trkpt><trkpt lat="41.2286577" lon="9.3761366"><ele>4.333333333333333</ele><time>2026-04-19T09:50:11.083Z</time></trkpt><trkpt lat="41.2286094" lon="9.3760745"><ele>4.166666666666666</ele><time>2026-04-19T09:50:13.083Z</time></trkpt><trkpt lat="41.2285849" lon="9.3759865"><ele>4.0</ele><time>2026-04-19T09:50:43.083Z</time></trkpt><trkpt lat="41.228629" lon="9.3759262"><ele>3.9999999999999996</ele><time>2026-04-19T09:50:48.083Z</time></trkpt><trkpt lat="41.2286923" lon="9.3759493"><ele>4.0</ele><time>2026-04-19T09:52:53.081Z</time></trkpt><trkpt lat="41.2287524" lon="9.376"><ele>4.0</ele><time>2026-04-19T09:52:55.082Z</time></trkpt><trkpt lat="41.2288008" lon="9.3760636"><ele>4.0</ele><time>2026-04-19T09:52:57.081Z</time></trkpt><trkpt lat="41.2287794" lon="9.3761754"><ele>3.9999999999999996</ele><time>2026-04-19T09:53:00.081Z</time></trkpt><trkpt lat="41.2287642" lon="9.3763171"><ele>4.0</ele><time>2026-04-19T09:53:02.082Z</time></trkpt><trkpt lat="41.2288029" lon="9.3764594"><ele>3.833333333333333</ele><time>2026-04-19T09:53:04.082Z</time></trkpt><trkpt lat="41.2288364" lon="9.3765342"><ele>3.6666666666666665</ele><time>2026-04-19T09:53:05.082Z</time></trkpt><trkpt lat="41.2288507" lon="9.3766173"><ele>3.5</ele><time>2026-04-19T09:53:06.082Z</time></trkpt><trkpt lat="41.2288837" lon="9.3767444"><ele>3.333333333333333</ele><time>2026-04-19T09:53:08.081Z</time></trkpt><trkpt lat="41.2289492" lon="9.3768095"><ele>3.1666666666666665</ele><time>2026-04-19T09:53:10.081Z</time></trkpt><trkpt lat="41.2290536" lon="9.3768508"><ele>3.0</ele><time>2026-04-19T09:53:12.082Z</time></trkpt><trkpt lat="41.2291338" lon="9.3768832"><ele>3.4</ele><time>2026-04-19T09:53:13.082Z</time></trkpt><trkpt lat="41.2292228" lon="9.3769195"><ele>3.8</ele><time>2026-04-19T09:53:14.082Z</time></trkpt><trkpt lat="41.2292887" lon="9.3769504"><ele>4.2</ele><time>2026-04-19T09:53:15.082Z</time></trkpt><trkpt lat="41.2293773" lon="9.3769938"><ele>4.6</ele><time>2026-04-19T09:53:17.082Z</time></trkpt><trkpt lat="41.2294273" lon="9.3770946"><ele>5.0</ele><time>2026-04-19T09:53:19.082Z</time></trkpt><trkpt lat="41.2294565" lon="9.377277"><ele>5.2</ele><time>2026-04-19T09:53:21.082Z</time></trkpt><trkpt lat="41.229482" lon="9.3774312"><ele>5.4</ele><time>2026-04-19T09:53:23.082Z</time></trkpt><trkpt lat="41.2295067" lon="9.3775764"><ele>5.6</ele><time>2026-04-19T09:53:25.082Z</time></trkpt><trkpt lat="41.2294849" lon="9.3776829"><ele>5.8</ele><time>2026-04-19T09:53:27.082Z</time></trkpt><trkpt lat="41.2294401" lon="9.3777805"><ele>6.0</ele><time>2026-04-19T09:53:29.082Z</time></trkpt><trkpt lat="41.2294114" lon="9.377866"><ele>5.999999999999999</ele><time>2026-04-19T09:53:30.082Z</time></trkpt><trkpt lat="41.2293734" lon="9.3779366"><ele>6.0</ele><time>2026-04-19T09:53:31.082Z</time></trkpt><trkpt lat="41.2293243" lon="9.3780005"><ele>6.0</ele><time>2026-04-19T09:53:32.082Z</time></trkpt><trkpt lat="41.229268" lon="9.3780555"><ele>6.0</ele><time>2026-04-19T09:53:33.082Z</time></trkpt><trkpt lat="41.229202" lon="9.3780799"><ele>6.0</ele><time>2026-04-19T09:53:34.082Z</time></trkpt><trkpt lat="41.2291242" lon="9.3780787"><ele>5.999999999999999</ele><time>2026-04-19T09:53:35.082Z</time></trkpt><trkpt lat="41.2290455" lon="9.3780716"><ele>6.0</ele><time>2026-04-19T09:53:36.082Z</time></trkpt><trkpt lat="41.2289601" lon="9.3780666"><ele>6.5</ele><time>2026-04-19T09:53:37.081Z</time></trkpt><trkpt lat="41.2288754" lon="9.3780804"><ele>7.0</ele><time>2026-04-19T09:53:38.081Z</time></trkpt><trkpt lat="41.2287989" lon="9.3780989"><ele>7.5</ele><time>2026-04-19T09:53:39.082Z</time></trkpt><trkpt lat="41.2287227" lon="9.3781177"><ele>8.0</ele><time>2026-04-19T09:53:40.082Z</time></trkpt><trkpt lat="41.2286463" lon="9.3781369"><ele>8.5</ele><time>2026-04-19T09:53:41.082Z</time></trkpt><trkpt lat="41.2285619" lon="9.3781468"><ele>9.0</ele><time>2026-04-19T09:53:42.082Z</time></trkpt><trkpt lat="41.2284773" lon="9.3781538"><ele>9.0</ele><time>2026-04-19T09:53:43.082Z</time></trkpt><trkpt lat="41.2283914" lon="9.3781576"><ele>9.0</ele><time>2026-04-19T09:53:44.082Z</time></trkpt><trkpt lat="41.2283145" lon="9.3781723"><ele>9.0</ele><time>2026-04-19T09:53:45.081Z</time></trkpt><trkpt lat="41.2282452" lon="9.3781846"><ele>9.0</ele><time>2026-04-19T09:53:46.081Z</time></trkpt><trkpt lat="41.228182" lon="9.3782041"><ele>9.0</ele><time>2026-04-19T09:53:47.081Z</time></trkpt><trkpt lat="41.228079" lon="9.3782152"><ele>9.0</ele><time>2026-04-19T09:53:49.082Z</time></trkpt><trkpt lat="41.2279733" lon="9.3782203"><ele>8.333333333333334</ele><time>2026-04-19T09:53:51.082Z</time></trkpt><trkpt lat="41.2279017" lon="9.3782521"><ele>7.666666666666667</ele><time>2026-04-19T09:53:52.082Z</time></trkpt><trkpt lat="41.2278267" lon="9.3782901"><ele>7.0</ele><time>2026-04-19T09:53:53.081Z</time></trkpt><trkpt lat="41.2277638" lon="9.3783103"><ele>6.333333333333334</ele><time>2026-04-19T09:53:54.082Z</time></trkpt><trkpt lat="41.2276305" lon="9.3783171"><ele>5.666666666666667</ele><time>2026-04-19T09:53:56.082Z</time></trkpt><trkpt lat="41.2275632" lon="9.3783037"><ele>5.0</ele><time>2026-04-19T09:53:57.082Z</time></trkpt><trkpt lat="41.2274862" lon="9.3782844"><ele>5.0</ele><time>2026-04-19T09:53:58.082Z</time></trkpt><trkpt lat="41.2274114" lon="9.3782738"><ele>5.0</ele><time>2026-04-19T09:53:59.082Z</time></trkpt><trkpt lat="41.2272984" lon="9.3782438"><ele>5.0</ele><time>2026-04-19T09:54:01.082Z</time></trkpt><trkpt lat="41.2272227" lon="9.378253"><ele>5.0</ele><time>2026-04-19T09:54:02.082Z</time></trkpt><trkpt lat="41.227148" lon="9.3782859"><ele>5.0</ele><time>2026-04-19T09:54:03.081Z</time></trkpt><trkpt lat="41.2270689" lon="9.3783197"><ele>5.0</ele><time>2026-04-19T09:54:04.082Z</time></trkpt><trkpt lat="41.2269931" lon="9.3783297"><ele>5.166666666666667</ele><time>2026-04-19T09:54:05.082Z</time></trkpt><trkpt lat="41.2269087" lon="9.3783326"><ele>5.333333333333334</ele><time>2026-04-19T09:54:06.081Z</time></trkpt><trkpt lat="41.2268288" lon="9.3783342"><ele>5.5</ele><time>2026-04-19T09:54:07.081Z</time></trkpt><trkpt lat="41.2267377" lon="9.3783334"><ele>5.666666666666667</ele><time>2026-04-19T09:54:08.082Z</time></trkpt><trkpt lat="41.2266424" lon="9.3783366"><ele>5.833333333333333</ele><time>2026-04-19T09:54:09.082Z</time></trkpt><trkpt lat="41.2265526" lon="9.3783508"><ele>6.0</ele><time>2026-04-19T09:54:10.082Z</time></trkpt><trkpt lat="41.226472" lon="9.3783704"><ele>6.166666666666667</ele><time>2026-04-19T09:54:11.082Z</time></trkpt><trkpt lat="41.2263888" lon="9.3783686"><ele>6.333333333333334</ele><time>2026-04-19T09:54:12.082Z</time></trkpt><trkpt lat="41.2263045" lon="9.3783613"><ele>6.5</ele><time>2026-04-19T09:54:13.082Z</time></trkpt><trkpt lat="41.2262097" lon="9.3783719"><ele>6.666666666666667</ele><time>2026-04-19T09:54:14.081Z</time></trkpt><trkpt lat="41.2261094" lon="9.378385"><ele>6.833333333333334</ele><time>2026-04-19T09:54:15.081Z</time></trkpt><trkpt lat="41.2260301" lon="9.3783969"><ele>7.0</ele><time>2026-04-19T09:54:16.081Z</time></trkpt><trkpt lat="41.2259565" lon="9.3784113"><ele>7.000000000000001</ele><time>2026-04-19T09:54:17.082Z</time></trkpt><trkpt lat="41.2258815" lon="9.3784359"><ele>7.0</ele><time>2026-04-19T09:54:18.082Z</time></trkpt><trkpt lat="41.2258157" lon="9.378463"><ele>7.0</ele><time>2026-04-19T09:54:19.082Z</time></trkpt><trkpt lat="41.2257453" lon="9.3784803"><ele>7.0</ele><time>2026-04-19T09:54:20.082Z</time></trkpt><trkpt lat="41.2256603" lon="9.3784924"><ele>7.000000000000001</ele><time>2026-04-19T09:54:21.082Z</time></trkpt><trkpt lat="41.225573" lon="9.3785096"><ele>7.0</ele><time>2026-04-19T09:54:22.081Z</time></trkpt><trkpt lat="41.2254793" lon="9.3785417"><ele>7.000000000000001</ele><time>2026-04-19T09:54:23.082Z</time></trkpt><trkpt lat="41.2253999" lon="9.3785621"><ele>7.0</ele><time>2026-04-19T09:54:24.082Z</time></trkpt><trkpt lat="41.2253295" lon="9.3785824"><ele>7.0</ele><time>2026-04-19T09:54:25.082Z</time></trkpt><trkpt lat="41.225266" lon="9.3786058"><ele>7.0</ele><time>2026-04-19T09:54:26.082Z</time></trkpt><trkpt lat="41.2251668" lon="9.3786461"><ele>7.000000000000001</ele><time>2026-04-19T09:54:28.082Z</time></trkpt><trkpt lat="41.2250939" lon="9.3787757"><ele>7.0</ele><time>2026-04-19T09:54:30.082Z</time></trkpt><trkpt lat="41.2250399" lon="9.3788916"><ele>7.166666666666667</ele><time>2026-04-19T09:54:32.081Z</time></trkpt><trkpt lat="41.2249557" lon="9.3789936"><ele>7.333333333333334</ele><time>2026-04-19T09:54:34.082Z</time></trkpt><trkpt lat="41.2248577" lon="9.3790766"><ele>7.5</ele><time>2026-04-19T09:54:36.082Z</time></trkpt><trkpt lat="41.2248209" lon="9.3791498"><ele>7.666666666666666</ele><time>2026-04-19T09:54:37.082Z</time></trkpt><trkpt lat="41.2247967" lon="9.3792418"><ele>7.833333333333333</ele><time>2026-04-19T09:54:38.082Z</time></trkpt><trkpt lat="41.2247793" lon="9.3793392"><ele>8.0</ele><time>2026-04-19T09:54:39.082Z</time></trkpt><trkpt lat="41.2247488" lon="9.3794262"><ele>7.999999999999999</ele><time>2026-04-19T09:54:40.082Z</time></trkpt><trkpt lat="41.224717" lon="9.3795176"><ele>8.0</ele><time>2026-04-19T09:54:41.082Z</time></trkpt><trkpt lat="41.2246863" lon="9.3796049"><ele>8.0</ele><time>2026-04-19T09:54:42.082Z</time></trkpt><trkpt lat="41.2246437" lon="9.3796801"><ele>8.0</ele><time>2026-04-19T09:54:43.082Z</time></trkpt><trkpt lat="41.2245847" lon="9.3797361"><ele>7.999999999999999</ele><time>2026-04-19T09:54:44.082Z</time></trkpt><trkpt lat="41.2245277" lon="9.3797831"><ele>8.0</ele><time>2026-04-19T09:54:45.081Z</time></trkpt><trkpt lat="41.2244354" lon="9.3798632"><ele>9.0</ele><time>2026-04-19T09:54:47.082Z</time></trkpt><trkpt lat="41.2243317" lon="9.3798512"><ele>10.0</ele><time>2026-04-19T09:54:49.082Z</time></trkpt><trkpt lat="41.2242624" lon="9.3798187"><ele>11.0</ele><time>2026-04-19T09:54:50.082Z</time></trkpt><trkpt lat="41.224179" lon="9.3798072"><ele>12.0</ele><time>2026-04-19T09:54:51.082Z</time></trkpt><trkpt lat="41.2240803" lon="9.3797927"><ele>13.0</ele><time>2026-04-19T09:54:52.082Z</time></trkpt><trkpt lat="41.2239915" lon="9.3797702"><ele>13.0</ele><time>2026-04-19T09:54:53.082Z</time></trkpt><trkpt lat="41.2239153" lon="9.3797444"><ele>13.0</ele><time>2026-04-19T09:54:54.081Z</time></trkpt><trkpt lat="41.2238487" lon="9.3797238"><ele>13.0</ele><time>2026-04-19T09:54:55.082Z</time></trkpt><trkpt lat="41.2237408" lon="9.3797235"><ele>13.0</ele><time>2026-04-19T09:54:57.082Z</time></trkpt><trkpt lat="41.2236286" lon="9.3798237"><ele>13.0</ele><time>2026-04-19T09:54:59.082Z</time></trkpt><trkpt lat="41.2235636" lon="9.3799031"><ele>12.999999999999998</ele><time>2026-04-19T09:55:00.082Z</time></trkpt><trkpt lat="41.2235069" lon="9.3799669"><ele>13.0</ele><time>2026-04-19T09:55:01.082Z</time></trkpt><trkpt lat="41.2234498" lon="9.380027"><ele>13.0</ele><time>2026-04-19T09:55:02.082Z</time></trkpt><trkpt lat="41.2233501" lon="9.3800918"><ele>13.0</ele><time>2026-04-19T09:55:04.082Z</time></trkpt><trkpt lat="41.2233099" lon="9.3801991"><ele>12.999999999999998</ele><time>2026-04-19T09:55:06.082Z</time></trkpt><trkpt lat="41.2232974" lon="9.3802884"><ele>13.0</ele><time>2026-04-19T09:55:08.082Z</time></trkpt><trkpt lat="41.2232479" lon="9.3803784"><ele>13.0</ele><time>2026-04-19T09:55:10.082Z</time></trkpt><trkpt lat="41.2231727" lon="9.3804379"><ele>13.0</ele><time>2026-04-19T09:55:11.082Z</time></trkpt><trkpt lat="41.2230729" lon="9.3804807"><ele>13.0</ele><time>2026-04-19T09:55:12.082Z</time></trkpt><trkpt lat="41.2229469" lon="9.3805088"><ele>13.0</ele><time>2026-04-19T09:55:13.082Z</time></trkpt><trkpt lat="41.2228177" lon="9.3805221"><ele>14.75</ele><time>2026-04-19T09:55:14.082Z</time></trkpt><trkpt lat="41.2226796" lon="9.3805419"><ele>16.5</ele><time>2026-04-19T09:55:15.081Z</time></trkpt><trkpt lat="41.2225415" lon="9.3805643"><ele>18.25</ele><time>2026-04-19T09:55:16.082Z</time></trkpt><trkpt lat="41.2223906" lon="9.3805868"><ele>20.0</ele><time>2026-04-19T09:55:17.082Z</time></trkpt><trkpt lat="41.2222345" lon="9.3806045"><ele>21.333333333333336</ele><time>2026-04-19T09:55:18.082Z</time></trkpt><trkpt lat="41.2220822" lon="9.3806279"><ele>22.666666666666668</ele><time>2026-04-19T09:55:19.081Z</time></trkpt><trkpt lat="41.2219263" lon="9.3806703"><ele>24.0</ele><time>2026-04-19T09:55:20.082Z</time></trkpt><trkpt lat="41.2217804" lon="9.3807468"><ele>24.0</ele><time>2026-04-19T09:55:21.082Z</time></trkpt><trkpt lat="41.2216471" lon="9.3808324"><ele>24.0</ele><time>2026-04-19T09:55:22.082Z</time></trkpt><trkpt lat="41.2215047" lon="9.3808965"><ele>24.0</ele><time>2026-04-19T09:55:23.082Z</time></trkpt><trkpt lat="41.2213486" lon="9.3809264"><ele>25.0</ele><time>2026-04-19T09:55:24.082Z</time></trkpt><trkpt lat="41.2211829" lon="9.3809409"><ele>26.0</ele><time>2026-04-19T09:55:25.082Z</time></trkpt><trkpt lat="41.2210127" lon="9.3809423"><ele>27.0</ele><time>2026-04-19T09:55:26.082Z</time></trkpt><trkpt lat="41.2208549" lon="9.3809369"><ele>27.0</ele><time>2026-04-19T09:55:27.082Z</time></trkpt><trkpt lat="41.2207015" lon="9.3809403"><ele>27.0</ele><time>2026-04-19T09:55:28.082Z</time></trkpt><trkpt lat="41.2205474" lon="9.3809648"><ele>27.0</ele><time>2026-04-19T09:55:29.082Z</time></trkpt><trkpt lat="41.2203917" lon="9.3810173"><ele>25.666666666666668</ele><time>2026-04-19T09:55:30.082Z</time></trkpt><trkpt lat="41.2202478" lon="9.381097"><ele>24.333333333333336</ele><time>2026-04-19T09:55:31.081Z</time></trkpt><trkpt lat="41.2201111" lon="9.3811778"><ele>23.0</ele><time>2026-04-19T09:55:32.081Z</time></trkpt><trkpt lat="41.2199703" lon="9.3812275"><ele>23.0</ele><time>2026-04-19T09:55:33.082Z</time></trkpt><trkpt lat="41.2198207" lon="9.3812534"><ele>23.0</ele><time>2026-04-19T09:55:34.081Z</time></trkpt><trkpt lat="41.219662" lon="9.3812681"><ele>23.0</ele><time>2026-04-19T09:55:35.082Z</time></trkpt><trkpt lat="41.219499" lon="9.3812766"><ele>21.0</ele><time>2026-04-19T09:55:36.082Z</time></trkpt><trkpt lat="41.2193339" lon="9.3812841"><ele>19.0</ele><time>2026-04-19T09:55:37.082Z</time></trkpt><trkpt lat="41.2191724" lon="9.3812853"><ele>17.0</ele><time>2026-04-19T09:55:38.082Z</time></trkpt><trkpt lat="41.2190121" lon="9.3812913"><ele>16.0</ele><time>2026-04-19T09:55:39.082Z</time></trkpt><trkpt lat="41.2188549" lon="9.3812974"><ele>15.0</ele><time>2026-04-19T09:55:40.082Z</time></trkpt><trkpt lat="41.2186998" lon="9.3812983"><ele>14.0</ele><time>2026-04-19T09:55:41.081Z</time></trkpt><trkpt lat="41.2185482" lon="9.381301"><ele>14.0</ele><time>2026-04-19T09:55:42.082Z</time></trkpt><trkpt lat="41.2184048" lon="9.3813091"><ele>14.0</ele><time>2026-04-19T09:55:43.082Z</time></trkpt><trkpt lat="41.2182575" lon="9.3813129"><ele>14.0</ele><time>2026-04-19T09:55:44.082Z</time></trkpt><trkpt lat="41.2181092" lon="9.3813178"><ele>14.0</ele><time>2026-04-19T09:55:45.082Z</time></trkpt><trkpt lat="41.2179652" lon="9.3813184"><ele>12.666666666666668</ele><time>2026-04-19T09:55:46.082Z</time></trkpt><trkpt lat="41.2178226" lon="9.3813122"><ele>11.333333333333334</ele><time>2026-04-19T09:55:47.082Z</time></trkpt><trkpt lat="41.2176771" lon="9.3812745"><ele>10.0</ele><time>2026-04-19T09:55:48.082Z</time></trkpt><trkpt lat="41.2175226" lon="9.3812106"><ele>10.0</ele><time>2026-04-19T09:55:49.082Z</time></trkpt><trkpt lat="41.2173734" lon="9.3811454"><ele>10.0</ele><time>2026-04-19T09:55:50.082Z</time></trkpt><trkpt lat="41.2172268" lon="9.3810799"><ele>10.0</ele><time>2026-04-19T09:55:51.082Z</time></trkpt><trkpt lat="41.2170885" lon="9.3810269"><ele>8.75</ele><time>2026-04-19T09:55:52.082Z</time></trkpt><trkpt lat="41.216951" lon="9.3810134"><ele>7.5</ele><time>2026-04-19T09:55:53.082Z</time></trkpt><trkpt lat="41.2168183" lon="9.3810264"><ele>6.25</ele><time>2026-04-19T09:55:54.082Z</time></trkpt><trkpt lat="41.2166876" lon="9.3810502"><ele>5.0</ele><time>2026-04-19T09:55:55.082Z</time></trkpt><trkpt lat="41.2165623" lon="9.3810786"><ele>4.6</ele><time>2026-04-19T09:55:56.082Z</time></trkpt><trkpt lat="41.2164562" lon="9.3811273"><ele>4.2</ele><time>2026-04-19T09:55:57.082Z</time></trkpt><trkpt lat="41.2163726" lon="9.3812035"><ele>3.8</ele><time>2026-04-19T09:55:58.082Z</time></trkpt><trkpt lat="41.2163123" lon="9.3813132"><ele>3.4</ele><time>2026-04-19T09:55:59.081Z</time></trkpt><trkpt lat="41.2162889" lon="9.3814374"><ele>3.0</ele><time>2026-04-19T09:56:00.082Z</time></trkpt><trkpt lat="41.2162993" lon="9.3815714"><ele>2.5</ele><time>2026-04-19T09:56:01.081Z</time></trkpt><trkpt lat="41.2163408" lon="9.3817071"><ele>2.0</ele><time>2026-04-19T09:56:02.082Z</time></trkpt><trkpt lat="41.216389" lon="9.3818572"><ele>1.5</ele><time>2026-04-19T09:56:03.082Z</time></trkpt><trkpt lat="41.2164302" lon="9.3820146"><ele>1.0</ele><time>2026-04-19T09:56:04.082Z</time></trkpt><trkpt lat="41.2164628" lon="9.3821809"><ele>0.75</ele><time>2026-04-19T09:56:05.082Z</time></trkpt><trkpt lat="41.2164766" lon="9.3823431"><ele>0.5</ele><time>2026-04-19T09:56:06.082Z</time></trkpt><trkpt lat="41.2164745" lon="9.3824976"><ele>0.25</ele><time>2026-04-19T09:56:07.082Z</time></trkpt><trkpt lat="41.2164509" lon="9.3826501"><ele>0.0</ele><time>2026-04-19T09:56:08.082Z</time></trkpt><trkpt lat="41.2164179" lon="9.3828037"><ele>0.0</ele><time>2026-04-19T09:56:09.082Z</time></trkpt><trkpt lat="41.2163808" lon="9.3829503"><ele>0.0</ele><time>2026-04-19T09:56:10.082Z</time></trkpt><trkpt lat="41.2163502" lon="9.3830869"><ele>0.0</ele><time>2026-04-19T09:56:11.082Z</time></trkpt><trkpt lat="41.2163171" lon="9.3832074"><ele>0.0</ele><time>2026-04-19T09:56:12.082Z</time></trkpt><trkpt lat="41.2162939" lon="9.383309"><ele>0.0</ele><time>2026-04-19T09:56:13.082Z</time></trkpt><trkpt lat="41.2162778" lon="9.383393"><ele>0.2</ele><time>2026-04-19T09:56:14.081Z</time></trkpt><trkpt lat="41.216236" lon="9.3835389"><ele>0.4</ele><time>2026-04-19T09:56:16.082Z</time></trkpt><trkpt lat="41.2161989" lon="9.383664"><ele>0.6000000000000001</ele><time>2026-04-19T09:56:18.081Z</time></trkpt><trkpt lat="41.2161754" lon="9.3837709"><ele>0.8</ele><time>2026-04-19T09:56:20.082Z</time></trkpt><trkpt lat="41.216147" lon="9.3838747"><ele>1.0</ele><time>2026-04-19T09:56:22.081Z</time></trkpt><trkpt lat="41.216121" lon="9.3839686"><ele>0.9999999999999999</ele><time>2026-04-19T09:56:24.082Z</time></trkpt><trkpt lat="41.2160944" lon="9.3840483"><ele>1.0</ele><time>2026-04-19T09:56:26.081Z</time></trkpt><trkpt lat="41.2160633" lon="9.3841631"><ele>1.0</ele><time>2026-04-19T09:56:29.082Z</time></trkpt><trkpt lat="41.2160336" lon="9.3842696"><ele>1.0</ele><time>2026-04-19T09:56:32.082Z</time></trkpt><trkpt lat="41.2160053" lon="9.3843639"><ele>0.9999999999999999</ele><time>2026-04-19T09:56:35.082Z</time></trkpt><trkpt lat="41.2159844" lon="9.3844537"><ele>1.0</ele><time>2026-04-19T09:56:38.082Z</time></trkpt><trkpt lat="41.2159592" lon="9.3845333"><ele>1.5</ele><time>2026-04-19T09:56:41.082Z</time></trkpt><trkpt lat="41.2159173" lon="9.3847085"><ele>2.0</ele><time>2026-04-19T09:56:43.081Z</time></trkpt><trkpt lat="41.2158789" lon="9.3848444"><ele>2.5</ele><time>2026-04-19T09:56:44.081Z</time></trkpt><trkpt lat="41.2158357" lon="9.3849875"><ele>3.0</ele><time>2026-04-19T09:56:45.081Z</time></trkpt><trkpt lat="41.2157655" lon="9.3851236"><ele>3.0</ele><time>2026-04-19T09:56:46.081Z</time></trkpt><trkpt lat="41.2156592" lon="9.3852389"><ele>3.0</ele><time>2026-04-19T09:56:47.081Z</time></trkpt><trkpt lat="41.2155292" lon="9.3853357"><ele>3.0</ele><time>2026-04-19T09:56:48.081Z</time></trkpt><trkpt lat="41.215398" lon="9.385415"><ele>3.0</ele><time>2026-04-19T09:56:49.081Z</time></trkpt><trkpt lat="41.2152701" lon="9.3854909"><ele>3.0</ele><time>2026-04-19T09:56:50.081Z</time></trkpt><trkpt lat="41.2151444" lon="9.3855699"><ele>3.0</ele><time>2026-04-19T09:56:51.081Z</time></trkpt><trkpt lat="41.2150234" lon="9.3856491"><ele>3.0</ele><time>2026-04-19T09:56:52.08Z</time></trkpt><trkpt lat="41.2149029" lon="9.385728"><ele>3.0</ele><time>2026-04-19T09:56:53.081Z</time></trkpt><trkpt lat="41.2147819" lon="9.3858027"><ele>3.75</ele><time>2026-04-19T09:56:54.081Z</time></trkpt><trkpt lat="41.2146627" lon="9.3858752"><ele>4.5</ele><time>2026-04-19T09:56:55.081Z</time></trkpt><trkpt lat="41.2145433" lon="9.3859551"><ele>5.25</ele><time>2026-04-19T09:56:56.081Z</time></trkpt><trkpt lat="41.2144127" lon="9.3860423"><ele>6.0</ele><time>2026-04-19T09:56:57.081Z</time></trkpt><trkpt lat="41.2142837" lon="9.3861273"><ele>6.0</ele><time>2026-04-19T09:56:58.081Z</time></trkpt><trkpt lat="41.2141627" lon="9.3861923"><ele>6.0</ele><time>2026-04-19T09:56:59.081Z</time></trkpt><trkpt lat="41.2140421" lon="9.3862355"><ele>6.0</ele><time>2026-04-19T09:57:00.08Z</time></trkpt><trkpt lat="41.213913" lon="9.3862627"><ele>6.0</ele><time>2026-04-19T09:57:01.081Z</time></trkpt><trkpt lat="41.2137747" lon="9.3862698"><ele>6.333333333333334</ele><time>2026-04-19T09:57:02.081Z</time></trkpt><trkpt lat="41.2136275" lon="9.3862463"><ele>6.666666666666667</ele><time>2026-04-19T09:57:03.081Z</time></trkpt><trkpt lat="41.2134689" lon="9.386215"><ele>7.0</ele><time>2026-04-19T09:57:04.081Z</time></trkpt><trkpt lat="41.2133061" lon="9.3861887"><ele>6.666666666666667</ele><time>2026-04-19T09:57:05.081Z</time></trkpt><trkpt lat="41.2131472" lon="9.3861552"><ele>6.333333333333334</ele><time>2026-04-19T09:57:06.081Z</time></trkpt><trkpt lat="41.2129957" lon="9.3861245"><ele>6.0</ele><time>2026-04-19T09:57:07.081Z</time></trkpt><trkpt lat="41.2128485" lon="9.3860959"><ele>6.0</ele><time>2026-04-19T09:57:08.081Z</time></trkpt><trkpt lat="41.2127026" lon="9.3860666"><ele>6.0</ele><time>2026-04-19T09:57:09.081Z</time></trkpt><trkpt lat="41.2125636" lon="9.3860348"><ele>6.0</ele><time>2026-04-19T09:57:10.081Z</time></trkpt><trkpt lat="41.2124263" lon="9.3860036"><ele>6.0</ele><time>2026-04-19T09:57:11.081Z</time></trkpt><trkpt lat="41.2122897" lon="9.385971"><ele>5.5</ele><time>2026-04-19T09:57:12.08Z</time></trkpt><trkpt lat="41.2121486" lon="9.3859447"><ele>5.0</ele><time>2026-04-19T09:57:13.081Z</time></trkpt><trkpt lat="41.2120099" lon="9.3859259"><ele>4.5</ele><time>2026-04-19T09:57:14.081Z</time></trkpt><trkpt lat="41.2118699" lon="9.3859211"><ele>4.0</ele><time>2026-04-19T09:57:15.081Z</time></trkpt><trkpt lat="41.2117267" lon="9.3859494"><ele>4.0</ele><time>2026-04-19T09:57:16.081Z</time></trkpt><trkpt lat="41.211585" lon="9.3860015"><ele>4.0</ele><time>2026-04-19T09:57:17.081Z</time></trkpt><trkpt lat="41.2114496" lon="9.386066"><ele>4.0</ele><time>2026-04-19T09:57:18.081Z</time></trkpt><trkpt lat="41.211316" lon="9.3861337"><ele>4.0</ele><time>2026-04-19T09:57:19.08Z</time></trkpt><trkpt lat="41.2111907" lon="9.3862001"><ele>4.5</ele><time>2026-04-19T09:57:20.08Z</time></trkpt><trkpt lat="41.2110781" lon="9.3862756"><ele>5.0</ele><time>2026-04-19T09:57:21.081Z</time></trkpt><trkpt lat="41.2109768" lon="9.3863663"><ele>5.5</ele><time>2026-04-19T09:57:22.081Z</time></trkpt><trkpt lat="41.2108948" lon="9.3864932"><ele>6.0</ele><time>2026-04-19T09:57:23.081Z</time></trkpt><trkpt lat="41.2108308" lon="9.3866419"><ele>6.0</ele><time>2026-04-19T09:57:24.081Z</time></trkpt><trkpt lat="41.210779" lon="9.3867832"><ele>6.0</ele><time>2026-04-19T09:57:25.081Z</time></trkpt><trkpt lat="41.2107308" lon="9.3869208"><ele>6.0</ele><time>2026-04-19T09:57:26.081Z</time></trkpt><trkpt lat="41.2106802" lon="9.3870548"><ele>6.0</ele><time>2026-04-19T09:57:27.081Z</time></trkpt><trkpt lat="41.2106294" lon="9.3871843"><ele>5.3999999999999995</ele><time>2026-04-19T09:57:28.081Z</time></trkpt><trkpt lat="41.2105831" lon="9.3873055"><ele>4.8</ele><time>2026-04-19T09:57:29.081Z</time></trkpt><trkpt lat="41.2105512" lon="9.387439"><ele>4.199999999999999</ele><time>2026-04-19T09:57:30.081Z</time></trkpt><trkpt lat="41.2105382" lon="9.3875775"><ele>3.5999999999999996</ele><time>2026-04-19T09:57:31.08Z</time></trkpt><trkpt lat="41.2105443" lon="9.3877236"><ele>3.0</ele><time>2026-04-19T09:57:32.081Z</time></trkpt><trkpt lat="41.2105651" lon="9.3878741"><ele>3.0</ele><time>2026-04-19T09:57:33.081Z</time></trkpt><trkpt lat="41.2106008" lon="9.3880091"><ele>3.0</ele><time>2026-04-19T09:57:34.081Z</time></trkpt><trkpt lat="41.2106352" lon="9.388133"><ele>3.0</ele><time>2026-04-19T09:57:35.081Z</time></trkpt><trkpt lat="41.2106812" lon="9.3882511"><ele>3.0</ele><time>2026-04-19T09:57:36.081Z</time></trkpt><trkpt lat="41.2107576" lon="9.3883697"><ele>3.0</ele><time>2026-04-19T09:57:37.081Z</time></trkpt><trkpt lat="41.2108629" lon="9.3884987"><ele>4.5</ele><time>2026-04-19T09:57:38.081Z</time></trkpt><trkpt lat="41.2109862" lon="9.3886271"><ele>6.0</ele><time>2026-04-19T09:57:39.081Z</time></trkpt><trkpt lat="41.2111114" lon="9.3887301"><ele>7.5</ele><time>2026-04-19T09:57:40.081Z</time></trkpt><trkpt lat="41.2112246" lon="9.3888355"><ele>9.0</ele><time>2026-04-19T09:57:41.081Z</time></trkpt><trkpt lat="41.2113252" lon="9.3889588"><ele>9.0</ele><time>2026-04-19T09:57:42.081Z</time></trkpt><trkpt lat="41.2114132" lon="9.3890936"><ele>9.0</ele><time>2026-04-19T09:57:43.081Z</time></trkpt><trkpt lat="41.2114897" lon="9.3892318"><ele>9.0</ele><time>2026-04-19T09:57:44.081Z</time></trkpt><trkpt lat="41.2115409" lon="9.3893828"><ele>9.0</ele><time>2026-04-19T09:57:45.081Z</time></trkpt><trkpt lat="41.2115607" lon="9.3895458"><ele>9.0</ele><time>2026-04-19T09:57:46.081Z</time></trkpt><trkpt lat="41.2115627" lon="9.3897212"><ele>9.0</ele><time>2026-04-19T09:57:47.081Z</time></trkpt><trkpt lat="41.2115399" lon="9.3899017"><ele>9.0</ele><time>2026-04-19T09:57:48.081Z</time></trkpt><trkpt lat="41.2114931" lon="9.3900794"><ele>9.0</ele><time>2026-04-19T09:57:49.08Z</time></trkpt><trkpt lat="41.2114502" lon="9.3902507"><ele>7.75</ele><time>2026-04-19T09:57:50.081Z</time></trkpt><trkpt lat="41.2114216" lon="9.3904248"><ele>6.5</ele><time>2026-04-19T09:57:51.081Z</time></trkpt><trkpt lat="41.2114105" lon="9.3906112"><ele>5.25</ele><time>2026-04-19T09:57:52.081Z</time></trkpt><trkpt lat="41.2114177" lon="9.3908034"><ele>4.0</ele><time>2026-04-19T09:57:53.081Z</time></trkpt><trkpt lat="41.211434" lon="9.3909951"><ele>3.25</ele><time>2026-04-19T09:57:54.081Z</time></trkpt><trkpt lat="41.2114565" lon="9.3911829"><ele>2.5</ele><time>2026-04-19T09:57:55.081Z</time></trkpt><trkpt lat="41.2114751" lon="9.3913621"><ele>1.75</ele><time>2026-04-19T09:57:56.081Z</time></trkpt><trkpt lat="41.211491" lon="9.3915377"><ele>1.0</ele><time>2026-04-19T09:57:57.081Z</time></trkpt><trkpt lat="41.2114979" lon="9.3917118"><ele>1.0</ele><time>2026-04-19T09:57:58.081Z</time></trkpt><trkpt lat="41.2114982" lon="9.3918895"><ele>1.0</ele><time>2026-04-19T09:57:59.081Z</time></trkpt><trkpt lat="41.2114843" lon="9.3920714"><ele>1.0</ele><time>2026-04-19T09:58:00.081Z</time></trkpt><trkpt lat="41.2114512" lon="9.3922525"><ele>1.0</ele><time>2026-04-19T09:58:01.081Z</time></trkpt><trkpt lat="41.2114047" lon="9.3924467"><ele>1.0</ele><time>2026-04-19T09:58:02.081Z</time></trkpt><trkpt lat="41.2113496" lon="9.3926538"><ele>1.0</ele><time>2026-04-19T09:58:03.081Z</time></trkpt><trkpt lat="41.2112955" lon="9.3928406"><ele>1.0</ele><time>2026-04-19T09:58:04.081Z</time></trkpt><trkpt lat="41.2112492" lon="9.3930225"><ele>1.0</ele><time>2026-04-19T09:58:05.081Z</time></trkpt><trkpt lat="41.2112052" lon="9.3931953"><ele>1.0</ele><time>2026-04-19T09:58:06.081Z</time></trkpt><trkpt lat="41.21116" lon="9.3933505"><ele>1.0</ele><time>2026-04-19T09:58:07.081Z</time></trkpt><trkpt lat="41.2111218" lon="9.3934926"><ele>1.0</ele><time>2026-04-19T09:58:08.081Z</time></trkpt><trkpt lat="41.2110899" lon="9.3936189"><ele>1.0</ele><time>2026-04-19T09:58:09.081Z</time></trkpt><trkpt lat="41.2110592" lon="9.3937319"><ele>1.0</ele><time>2026-04-19T09:58:10.081Z</time></trkpt><trkpt lat="41.2110309" lon="9.3938261"><ele>1.0</ele><time>2026-04-19T09:58:11.081Z</time></trkpt><trkpt lat="41.210994" lon="9.3939983"><ele>1.0</ele><time>2026-04-19T09:58:13.081Z</time></trkpt><trkpt lat="41.2109731" lon="9.3941054"><ele>1.0</ele><time>2026-04-19T09:58:14.081Z</time></trkpt><trkpt lat="41.2109404" lon="9.3942114"><ele>1.75</ele><time>2026-04-19T09:58:15.081Z</time></trkpt><trkpt lat="41.2109033" lon="9.3943476"><ele>2.5</ele><time>2026-04-19T09:58:16.081Z</time></trkpt><trkpt lat="41.2108635" lon="9.394519"><ele>3.25</ele><time>2026-04-19T09:58:17.081Z</time></trkpt><trkpt lat="41.21082" lon="9.3947181"><ele>4.0</ele><time>2026-04-19T09:58:18.081Z</time></trkpt><trkpt lat="41.2107731" lon="9.3949249"><ele>4.333333333333333</ele><time>2026-04-19T09:58:19.081Z</time></trkpt><trkpt lat="41.2107456" lon="9.3951284"><ele>4.666666666666667</ele><time>2026-04-19T09:58:20.081Z</time></trkpt><trkpt lat="41.2107263" lon="9.3953281"><ele>5.0</ele><time>2026-04-19T09:58:21.081Z</time></trkpt><trkpt lat="41.2107055" lon="9.3955191"><ele>6.0</ele><time>2026-04-19T09:58:22.081Z</time></trkpt><trkpt lat="41.2106883" lon="9.3957168"><ele>7.0</ele><time>2026-04-19T09:58:23.081Z</time></trkpt><trkpt lat="41.2106739" lon="9.3959077"><ele>8.0</ele><time>2026-04-19T09:58:24.081Z</time></trkpt><trkpt lat="41.2106673" lon="9.3961023"><ele>9.0</ele><time>2026-04-19T09:58:25.081Z</time></trkpt><trkpt lat="41.2106807" lon="9.396301"><ele>9.0</ele><time>2026-04-19T09:58:26.081Z</time></trkpt><trkpt lat="41.2107052" lon="9.396495"><ele>9.0</ele><time>2026-04-19T09:58:27.081Z</time></trkpt><trkpt lat="41.2107261" lon="9.3966831"><ele>9.0</ele><time>2026-04-19T09:58:28.081Z</time></trkpt><trkpt lat="41.2107512" lon="9.3968635"><ele>9.0</ele><time>2026-04-19T09:58:29.081Z</time></trkpt><trkpt lat="41.2107751" lon="9.3970383"><ele>8.25</ele><time>2026-04-19T09:58:30.081Z</time></trkpt><trkpt lat="41.2107965" lon="9.3972206"><ele>7.5</ele><time>2026-04-19T09:58:31.081Z</time></trkpt><trkpt lat="41.2108253" lon="9.397404"><ele>6.75</ele><time>2026-04-19T09:58:32.081Z</time></trkpt><trkpt lat="41.2108548" lon="9.3975867"><ele>6.0</ele><time>2026-04-19T09:58:33.081Z</time></trkpt><trkpt lat="41.2108803" lon="9.3977606"><ele>6.0</ele><time>2026-04-19T09:58:34.081Z</time></trkpt><trkpt lat="41.2108985" lon="9.3979167"><ele>6.0</ele><time>2026-04-19T09:58:35.081Z</time></trkpt><trkpt lat="41.2109018" lon="9.398052"><ele>6.0</ele><time>2026-04-19T09:58:36.081Z</time></trkpt><trkpt lat="41.2108696" lon="9.3981646"><ele>6.0</ele><time>2026-04-19T09:58:37.081Z</time></trkpt><trkpt lat="41.2108129" lon="9.3982454"><ele>6.0</ele><time>2026-04-19T09:58:38.081Z</time></trkpt><trkpt lat="41.210732" lon="9.3982927"><ele>5.2</ele><time>2026-04-19T09:58:39.08Z</time></trkpt><trkpt lat="41.2106324" lon="9.3983285"><ele>4.3999999999999995</ele><time>2026-04-19T09:58:40.081Z</time></trkpt><trkpt lat="41.2105258" lon="9.3983669"><ele>3.6</ele><time>2026-04-19T09:58:41.081Z</time></trkpt><trkpt lat="41.2104348" lon="9.3984016"><ele>2.8</ele><time>2026-04-19T09:58:42.08Z</time></trkpt><trkpt lat="41.2103562" lon="9.3984604"><ele>2.0</ele><time>2026-04-19T09:58:43.081Z</time></trkpt><trkpt lat="41.2102921" lon="9.3985183"><ele>2.0</ele><time>2026-04-19T09:58:44.081Z</time></trkpt><trkpt lat="41.2103238" lon="9.3986402"><ele>2.0</ele><time>2026-04-19T09:58:45.081Z</time></trkpt><trkpt lat="41.210358" lon="9.3987253"><ele>2.0</ele><time>2026-04-19T09:58:46.081Z</time></trkpt><trkpt lat="41.2104317" lon="9.3988152"><ele>2.0</ele><time>2026-04-19T09:58:47.08Z</time></trkpt><trkpt lat="41.2105311" lon="9.3989164"><ele>2.0</ele><time>2026-04-19T09:58:48.081Z</time></trkpt><trkpt lat="41.2106361" lon="9.3990251"><ele>4.75</ele><time>2026-04-19T09:58:49.081Z</time></trkpt><trkpt lat="41.2107435" lon="9.3991258"><ele>7.5</ele><time>2026-04-19T09:58:50.081Z</time></trkpt><trkpt lat="41.2108452" lon="9.3992267"><ele>10.25</ele><time>2026-04-19T09:58:51.081Z</time></trkpt><trkpt lat="41.2109391" lon="9.3993247"><ele>13.0</ele><time>2026-04-19T09:58:52.081Z</time></trkpt><trkpt lat="41.2110335" lon="9.3994102"><ele>13.0</ele><time>2026-04-19T09:58:53.081Z</time></trkpt><trkpt lat="41.2111187" lon="9.3994969"><ele>13.0</ele><time>2026-04-19T09:58:54.081Z</time></trkpt><trkpt lat="41.2112054" lon="9.3995818"><ele>13.0</ele><time>2026-04-19T09:58:55.081Z</time></trkpt><trkpt lat="41.2112852" lon="9.3996592"><ele>13.0</ele><time>2026-04-19T09:58:56.08Z</time></trkpt><trkpt lat="41.2113534" lon="9.3997365"><ele>13.0</ele><time>2026-04-19T09:58:57.08Z</time></trkpt><trkpt lat="41.2114177" lon="9.3997966"><ele>11.6</ele><time>2026-04-19T09:58:58.081Z</time></trkpt><trkpt lat="41.211474" lon="9.3999186"><ele>10.200000000000001</ele><time>2026-04-19T09:59:00.081Z</time></trkpt><trkpt lat="41.2113925" lon="9.4000165"><ele>8.8</ele><time>2026-04-19T09:59:02.081Z</time></trkpt><trkpt lat="41.211324" lon="9.4000113"><ele>7.4</ele><time>2026-04-19T09:59:03.081Z</time></trkpt><trkpt lat="41.2112417" lon="9.3999975"><ele>6.0</ele><time>2026-04-19T09:59:04.081Z</time></trkpt><trkpt lat="41.2111573" lon="9.3999824"><ele>6.0</ele><time>2026-04-19T09:59:05.081Z</time></trkpt><trkpt lat="41.2110825" lon="9.3999332"><ele>6.0</ele><time>2026-04-19T09:59:06.081Z</time></trkpt><trkpt lat="41.2110156" lon="9.3998606"><ele>6.0</ele><time>2026-04-19T09:59:07.081Z</time></trkpt><trkpt lat="41.2109521" lon="9.3997869"><ele>6.0</ele><time>2026-04-19T09:59:08.08Z</time></trkpt><trkpt lat="41.2108972" lon="9.3997224"><ele>6.0</ele><time>2026-04-19T09:59:09.081Z</time></trkpt><trkpt lat="41.2108536" lon="9.399661"><ele>6.0</ele><time>2026-04-19T09:59:10.081Z</time></trkpt><trkpt lat="41.2107579" lon="9.3996597"><ele>6.0</ele><time>2026-04-19T09:59:12.081Z</time></trkpt><trkpt lat="41.2107107" lon="9.3997619"><ele>6.0</ele><time>2026-04-19T09:59:14.081Z</time></trkpt><trkpt lat="41.2107547" lon="9.3999349"><ele>6.0</ele><time>2026-04-19T09:59:16.081Z</time></trkpt><trkpt lat="41.2107839" lon="9.4000414"><ele>6.0</ele><time>2026-04-19T09:59:17.081Z</time></trkpt><trkpt lat="41.2108136" lon="9.4001571"><ele>6.0</ele><time>2026-04-19T09:59:18.08Z</time></trkpt><trkpt lat="41.2108384" lon="9.4002818"><ele>6.0</ele><time>2026-04-19T09:59:19.081Z</time></trkpt><trkpt lat="41.2108548" lon="9.4004101"><ele>6.0</ele><time>2026-04-19T09:59:20.081Z</time></trkpt><trkpt lat="41.2108682" lon="9.4005456"><ele>6.0</ele><time>2026-04-19T09:59:21.081Z</time></trkpt><trkpt lat="41.2108784" lon="9.4006855"><ele>6.0</ele><time>2026-04-19T09:59:22.081Z</time></trkpt><trkpt lat="41.2108842" lon="9.4008418"><ele>6.0</ele><time>2026-04-19T09:59:23.081Z</time></trkpt><trkpt lat="41.2108972" lon="9.4010074"><ele>5.5</ele><time>2026-04-19T09:59:24.081Z</time></trkpt><trkpt lat="41.2109177" lon="9.4011826"><ele>5.0</ele><time>2026-04-19T09:59:25.081Z</time></trkpt><trkpt lat="41.2109275" lon="9.4013423"><ele>4.5</ele><time>2026-04-19T09:59:26.081Z</time></trkpt><trkpt lat="41.2109391" lon="9.4014899"><ele>4.0</ele><time>2026-04-19T09:59:27.08Z</time></trkpt><trkpt lat="41.2109515" lon="9.4016307"><ele>3.8000000000000003</ele><time>2026-04-19T09:59:28.08Z</time></trkpt><trkpt lat="41.2109624" lon="9.4017646"><ele>3.6000000000000005</ele><time>2026-04-19T09:59:29.081Z</time></trkpt><trkpt lat="41.2109697" lon="9.4018779"><ele>3.4</ele><time>2026-04-19T09:59:30.081Z</time></trkpt><trkpt lat="41.2109812" lon="9.4019983"><ele>3.2</ele><time>2026-04-19T09:59:31.081Z</time></trkpt><trkpt lat="41.2110826" lon="9.4020483"><ele>3.0</ele><time>2026-04-19T09:59:32.081Z</time></trkpt><trkpt lat="41.2111493" lon="9.4021112"><ele>3.0</ele><time>2026-04-19T09:59:33.081Z</time></trkpt><trkpt lat="41.2112167" lon="9.4021477"><ele>3.0</ele><time>2026-04-19T09:59:34.08Z</time></trkpt><trkpt lat="41.21129" lon="9.4021996"><ele>3.0</ele><time>2026-04-19T09:59:35.081Z</time></trkpt><trkpt lat="41.2113538" lon="9.4022705"><ele>3.0</ele><time>2026-04-19T09:59:36.081Z</time></trkpt><trkpt lat="41.2114105" lon="9.4023679"><ele>3.0</ele><time>2026-04-19T09:59:37.081Z</time></trkpt><trkpt lat="41.2114556" lon="9.4024901"><ele>3.0</ele><time>2026-04-19T09:59:38.081Z</time></trkpt><trkpt lat="41.2114939" lon="9.4026127"><ele>2.6</ele><time>2026-04-19T09:59:39.081Z</time></trkpt><trkpt lat="41.2115113" lon="9.4027409"><ele>2.1999999999999997</ele><time>2026-04-19T09:59:40.081Z</time></trkpt><trkpt lat="41.2115186" lon="9.4028642"><ele>1.8</ele><time>2026-04-19T09:59:41.081Z</time></trkpt><trkpt lat="41.2115245" lon="9.4029902"><ele>1.4</ele><time>2026-04-19T09:59:42.081Z</time></trkpt><trkpt lat="41.2115357" lon="9.4031215"><ele>1.0</ele><time>2026-04-19T09:59:43.081Z</time></trkpt><trkpt lat="41.211576" lon="9.4032374"><ele>1.0</ele><time>2026-04-19T09:59:44.081Z</time></trkpt><trkpt lat="41.2116349" lon="9.4033256"><ele>1.0</ele><time>2026-04-19T09:59:45.081Z</time></trkpt><trkpt lat="41.2117074" lon="9.4033838"><ele>1.0</ele><time>2026-04-19T09:59:46.081Z</time></trkpt><trkpt lat="41.2117923" lon="9.4034222"><ele>1.0</ele><time>2026-04-19T09:59:47.081Z</time></trkpt><trkpt lat="41.2118886" lon="9.4034357"><ele>1.0</ele><time>2026-04-19T09:59:48.081Z</time></trkpt><trkpt lat="41.2119862" lon="9.4034374"><ele>1.0</ele><time>2026-04-19T09:59:49.081Z</time></trkpt><trkpt lat="41.2120848" lon="9.4034297"><ele>1.0</ele><time>2026-04-19T09:59:50.081Z</time></trkpt><trkpt lat="41.2121843" lon="9.4034053"><ele>1.0</ele><time>2026-04-19T09:59:51.081Z</time></trkpt><trkpt lat="41.2122823" lon="9.4033784"><ele>1.0</ele><time>2026-04-19T09:59:52.081Z</time></trkpt><trkpt lat="41.2123802" lon="9.4033481"><ele>1.0</ele><time>2026-04-19T09:59:53.081Z</time></trkpt><trkpt lat="41.2124788" lon="9.4033075"><ele>1.2000000000000002</ele><time>2026-04-19T09:59:54.081Z</time></trkpt><trkpt lat="41.2125821" lon="9.403259"><ele>1.4000000000000001</ele><time>2026-04-19T09:59:55.081Z</time></trkpt><trkpt lat="41.2126813" lon="9.4032273"><ele>1.6</ele><time>2026-04-19T09:59:56.081Z</time></trkpt><trkpt lat="41.2127754" lon="9.4031945"><ele>1.8</ele><time>2026-04-19T09:59:57.081Z</time></trkpt><trkpt lat="41.2128677" lon="9.403172"><ele>2.0</ele><time>2026-04-19T09:59:58.081Z</time></trkpt><trkpt lat="41.2129461" lon="9.4031642"><ele>1.9999999999999998</ele><time>2026-04-19T09:59:59.081Z</time></trkpt><trkpt lat="41.2130599" lon="9.4032305"><ele>2.0</ele><time>2026-04-19T10:00:01.081Z</time></trkpt><trkpt lat="41.2131031" lon="9.4032917"><ele>2.0</ele><time>2026-04-19T10:00:02.081Z</time></trkpt><trkpt lat="41.2131408" lon="9.4033701"><ele>2.0</ele><time>2026-04-19T10:00:03.08Z</time></trkpt><trkpt lat="41.2131689" lon="9.4034495"><ele>1.9999999999999998</ele><time>2026-04-19T10:00:04.081Z</time></trkpt><trkpt lat="41.2131835" lon="9.4035337"><ele>2.0</ele><time>2026-04-19T10:00:05.081Z</time></trkpt><trkpt lat="41.2131686" lon="9.4036176"><ele>1.9999999999999998</ele><time>2026-04-19T10:00:06.081Z</time></trkpt><trkpt lat="41.2131322" lon="9.4036882"><ele>2.0</ele><time>2026-04-19T10:00:07.079Z</time></trkpt><trkpt lat="41.2130864" lon="9.4037587"><ele>2.0</ele><time>2026-04-19T10:00:08.081Z</time></trkpt><trkpt lat="41.2130364" lon="9.4038369"><ele>2.0</ele><time>2026-04-19T10:00:09.081Z</time></trkpt><trkpt lat="41.2129815" lon="9.4039172"><ele>1.9999999999999998</ele><time>2026-04-19T10:00:10.081Z</time></trkpt><trkpt lat="41.2129262" lon="9.4040049"><ele>2.0</ele><time>2026-04-19T10:00:11.081Z</time></trkpt><trkpt lat="41.2128731" lon="9.4040927"><ele>1.9999999999999998</ele><time>2026-04-19T10:00:12.08Z</time></trkpt><trkpt lat="41.2128163" lon="9.4041752"><ele>2.0</ele><time>2026-04-19T10:00:13.081Z</time></trkpt><trkpt lat="41.2127622" lon="9.4042477"><ele>2.0</ele><time>2026-04-19T10:00:14.081Z</time></trkpt><trkpt lat="41.2127023" lon="9.4043045"><ele>2.0</ele><time>2026-04-19T10:00:15.081Z</time></trkpt><trkpt lat="41.2126508" lon="9.4043656"><ele>1.9999999999999998</ele><time>2026-04-19T10:00:16.08Z</time></trkpt><trkpt lat="41.212571" lon="9.4044776"><ele>2.0</ele><time>2026-04-19T10:00:18.081Z</time></trkpt><trkpt lat="41.2124914" lon="9.4045825"><ele>2.5</ele><time>2026-04-19T10:00:20.081Z</time></trkpt><trkpt lat="41.2124109" lon="9.4047002"><ele>3.0</ele><time>2026-04-19T10:00:22.081Z</time></trkpt><trkpt lat="41.2123643" lon="9.4047604"><ele>3.5</ele><time>2026-04-19T10:00:23.081Z</time></trkpt><trkpt lat="41.212312" lon="9.4048233"><ele>4.0</ele><time>2026-04-19T10:00:24.081Z</time></trkpt><trkpt lat="41.2122645" lon="9.4048816"><ele>4.5</ele><time>2026-04-19T10:00:25.081Z</time></trkpt><trkpt lat="41.2121735" lon="9.4049772"><ele>5.0</ele><time>2026-04-19T10:00:27.081Z</time></trkpt><trkpt lat="41.2120979" lon="9.4050862"><ele>4.0</ele><time>2026-04-19T10:00:29.081Z</time></trkpt><trkpt lat="41.2120619" lon="9.4052348"><ele>3.0</ele><time>2026-04-19T10:00:31.081Z</time></trkpt><trkpt lat="41.2120594" lon="9.4053877"><ele>2.0</ele><time>2026-04-19T10:00:33.081Z</time></trkpt><trkpt lat="41.212078" lon="9.4054707"><ele>1.0</ele><time>2026-04-19T10:00:34.081Z</time></trkpt><trkpt lat="41.2121117" lon="9.4056175"><ele>0.0</ele><time>2026-04-19T10:00:35.081Z</time></trkpt><trkpt lat="41.2121355" lon="9.4057828"><ele>0.0</ele><time>2026-04-19T10:00:36.081Z</time></trkpt><trkpt lat="41.2121621" lon="9.4059379"><ele>0.0</ele><time>2026-04-19T10:00:37.081Z</time></trkpt><trkpt lat="41.2121843" lon="9.4061088"><ele>0.0</ele><time>2026-04-19T10:00:38.081Z</time></trkpt><trkpt lat="41.2122069" lon="9.4062687"><ele>0.0</ele><time>2026-04-19T10:00:39.08Z</time></trkpt><trkpt lat="41.2122329" lon="9.4064229"><ele>0.4</ele><time>2026-04-19T10:00:40.08Z</time></trkpt><trkpt lat="41.2122817" lon="9.4065402"><ele>0.8</ele><time>2026-04-19T10:00:41.081Z</time></trkpt><trkpt lat="41.2123206" lon="9.4066588"><ele>1.2000000000000002</ele><time>2026-04-19T10:00:42.08Z</time></trkpt><trkpt lat="41.2123766" lon="9.4067788"><ele>1.6</ele><time>2026-04-19T10:00:43.081Z</time></trkpt><trkpt lat="41.2124221" lon="9.406895"><ele>2.0</ele><time>2026-04-19T10:00:44.081Z</time></trkpt><trkpt lat="41.2124625" lon="9.4070031"><ele>1.8</ele><time>2026-04-19T10:00:45.081Z</time></trkpt><trkpt lat="41.2125086" lon="9.4071126"><ele>1.6</ele><time>2026-04-19T10:00:46.081Z</time></trkpt><trkpt lat="41.2125522" lon="9.4072074"><ele>1.4000000000000001</ele><time>2026-04-19T10:00:47.081Z</time></trkpt><trkpt lat="41.2125924" lon="9.4072733"><ele>1.2000000000000002</ele><time>2026-04-19T10:00:48.08Z</time></trkpt><trkpt lat="41.2126764" lon="9.4073613"><ele>1.0</ele><time>2026-04-19T10:00:50.081Z</time></trkpt><trkpt lat="41.2127863" lon="9.4074147"><ele>0.9999999999999999</ele><time>2026-04-19T10:00:52.081Z</time></trkpt><trkpt lat="41.2128533" lon="9.4074419"><ele>1.0</ele><time>2026-04-19T10:00:53.08Z</time></trkpt><trkpt lat="41.2129249" lon="9.4074637"><ele>1.0</ele><time>2026-04-19T10:00:54.081Z</time></trkpt><trkpt lat="41.212994" lon="9.407494"><ele>1.0</ele><time>2026-04-19T10:00:55.081Z</time></trkpt><trkpt lat="41.213065" lon="9.4075285"><ele>0.9999999999999999</ele><time>2026-04-19T10:00:56.081Z</time></trkpt><trkpt lat="41.2131432" lon="9.4075786"><ele>1.0</ele><time>2026-04-19T10:00:57.081Z</time></trkpt><trkpt lat="41.2132369" lon="9.4076302"><ele>1.75</ele><time>2026-04-19T10:00:58.081Z</time></trkpt><trkpt lat="41.213362" lon="9.4076995"><ele>2.5</ele><time>2026-04-19T10:00:59.081Z</time></trkpt><trkpt lat="41.2134908" lon="9.4078022"><ele>3.25</ele><time>2026-04-19T10:01:00.081Z</time></trkpt><trkpt lat="41.2136024" lon="9.4078961"><ele>4.0</ele><time>2026-04-19T10:01:01.081Z</time></trkpt><trkpt lat="41.2137121" lon="9.4079809"><ele>4.2</ele><time>2026-04-19T10:01:02.081Z</time></trkpt><trkpt lat="41.2138138" lon="9.408058"><ele>4.4</ele><time>2026-04-19T10:01:03.081Z</time></trkpt><trkpt lat="41.2138942" lon="9.4081338"><ele>4.6</ele><time>2026-04-19T10:01:04.08Z</time></trkpt><trkpt lat="41.2139618" lon="9.4082375"><ele>4.8</ele><time>2026-04-19T10:01:05.081Z</time></trkpt><trkpt lat="41.2140306" lon="9.408377"><ele>5.0</ele><time>2026-04-19T10:01:06.08Z</time></trkpt><trkpt lat="41.2140856" lon="9.408534"><ele>5.0</ele><time>2026-04-19T10:01:07.081Z</time></trkpt><trkpt lat="41.2141406" lon="9.4086993"><ele>5.0</ele><time>2026-04-19T10:01:08.081Z</time></trkpt><trkpt lat="41.2142028" lon="9.4088807"><ele>5.0</ele><time>2026-04-19T10:01:09.081Z</time></trkpt><trkpt lat="41.2142645" lon="9.409053"><ele>5.0</ele><time>2026-04-19T10:01:10.081Z</time></trkpt><trkpt lat="41.2143177" lon="9.4092113"><ele>3.75</ele><time>2026-04-19T10:01:11.08Z</time></trkpt><trkpt lat="41.2143731" lon="9.4093733"><ele>2.5</ele><time>2026-04-19T10:01:12.081Z</time></trkpt><trkpt lat="41.2144268" lon="9.4095309"><ele>1.25</ele><time>2026-04-19T10:01:13.081Z</time></trkpt><trkpt lat="41.214481" lon="9.4096785"><ele>0.0</ele><time>2026-04-19T10:01:14.081Z</time></trkpt><trkpt lat="41.2145314" lon="9.4098251"><ele>0.0</ele><time>2026-04-19T10:01:15.081Z</time></trkpt><trkpt lat="41.2145811" lon="9.4099769"><ele>0.0</ele><time>2026-04-19T10:01:16.081Z</time></trkpt><trkpt lat="41.214637" lon="9.4101162"><ele>0.0</ele><time>2026-04-19T10:01:17.081Z</time></trkpt><trkpt lat="41.2146913" lon="9.4102495"><ele>0.0</ele><time>2026-04-19T10:01:18.081Z</time></trkpt><trkpt lat="41.2147385" lon="9.4103749"><ele>0.2</ele><time>2026-04-19T10:01:19.081Z</time></trkpt><trkpt lat="41.2147805" lon="9.4104918"><ele>0.4</ele><time>2026-04-19T10:01:20.081Z</time></trkpt><trkpt lat="41.2148193" lon="9.4106063"><ele>0.6000000000000001</ele><time>2026-04-19T10:01:21.081Z</time></trkpt><trkpt lat="41.214834" lon="9.4107249"><ele>0.8</ele><time>2026-04-19T10:01:22.081Z</time></trkpt><trkpt lat="41.2148237" lon="9.410852"><ele>1.0</ele><time>2026-04-19T10:01:23.081Z</time></trkpt><trkpt lat="41.2147874" lon="9.4109992"><ele>1.0</ele><time>2026-04-19T10:01:24.081Z</time></trkpt><trkpt lat="41.2147286" lon="9.4111483"><ele>1.0</ele><time>2026-04-19T10:01:25.081Z</time></trkpt><trkpt lat="41.214662" lon="9.4112792"><ele>1.0</ele><time>2026-04-19T10:01:26.081Z</time></trkpt><trkpt lat="41.2146078" lon="9.4114139"><ele>1.0</ele><time>2026-04-19T10:01:27.081Z</time></trkpt><trkpt lat="41.2145704" lon="9.4115488"><ele>1.25</ele><time>2026-04-19T10:01:28.081Z</time></trkpt><trkpt lat="41.2145432" lon="9.4116929"><ele>1.5</ele><time>2026-04-19T10:01:29.08Z</time></trkpt><trkpt lat="41.2145363" lon="9.4118413"><ele>1.75</ele><time>2026-04-19T10:01:30.081Z</time></trkpt><trkpt lat="41.2145576" lon="9.4119984"><ele>2.0</ele><time>2026-04-19T10:01:31.081Z</time></trkpt><trkpt lat="41.2146009" lon="9.4121637"><ele>2.0</ele><time>2026-04-19T10:01:32.081Z</time></trkpt><trkpt lat="41.214655" lon="9.4123412"><ele>2.0</ele><time>2026-04-19T10:01:33.081Z</time></trkpt><trkpt lat="41.2147164" lon="9.4125313"><ele>2.0</ele><time>2026-04-19T10:01:34.081Z</time></trkpt><trkpt lat="41.2147684" lon="9.4127003"><ele>2.0</ele><time>2026-04-19T10:01:35.08Z</time></trkpt><trkpt lat="41.2148145" lon="9.4128519"><ele>2.25</ele><time>2026-04-19T10:01:36.081Z</time></trkpt><trkpt lat="41.214858" lon="9.4129934"><ele>2.5</ele><time>2026-04-19T10:01:37.08Z</time></trkpt><trkpt lat="41.2148988" lon="9.4131314"><ele>2.75</ele><time>2026-04-19T10:01:38.081Z</time></trkpt><trkpt lat="41.2149538" lon="9.4132917"><ele>3.0</ele><time>2026-04-19T10:01:39.081Z</time></trkpt><trkpt lat="41.2150166" lon="9.4134858"><ele>3.0</ele><time>2026-04-19T10:01:40.081Z</time></trkpt><trkpt lat="41.2150762" lon="9.4136802"><ele>3.0</ele><time>2026-04-19T10:01:41.081Z</time></trkpt><trkpt lat="41.2151662" lon="9.413861"><ele>3.0</ele><time>2026-04-19T10:01:42.08Z</time></trkpt><trkpt lat="41.2152827" lon="9.4140335"><ele>4.0</ele><time>2026-04-19T10:01:43.081Z</time></trkpt><trkpt lat="41.2153981" lon="9.4141984"><ele>5.0</ele><time>2026-04-19T10:01:44.081Z</time></trkpt><trkpt lat="41.2156129" lon="9.4143398"><ele>6.0</ele><time>2026-04-19T10:01:45.081Z</time></trkpt><trkpt lat="41.2157862" lon="9.4144773"><ele>6.0</ele><time>2026-04-19T10:01:46.081Z</time></trkpt><trkpt lat="41.2159527" lon="9.4146167"><ele>6.0</ele><time>2026-04-19T10:01:47.081Z</time></trkpt><trkpt lat="41.2161117" lon="9.414751"><ele>6.0</ele><time>2026-04-19T10:01:48.081Z</time></trkpt><trkpt lat="41.2162577" lon="9.4148836"><ele>6.333333333333334</ele><time>2026-04-19T10:01:49.081Z</time></trkpt><trkpt lat="41.216386" lon="9.4150374"><ele>6.666666666666667</ele><time>2026-04-19T10:01:50.08Z</time></trkpt><trkpt lat="41.2165021" lon="9.4152078"><ele>7.0</ele><time>2026-04-19T10:01:51.081Z</time></trkpt><trkpt lat="41.2165998" lon="9.4153901"><ele>6.0</ele><time>2026-04-19T10:01:52.081Z</time></trkpt><trkpt lat="41.2166827" lon="9.4155962"><ele>5.0</ele><time>2026-04-19T10:01:53.081Z</time></trkpt><trkpt lat="41.2167611" lon="9.4158112"><ele>4.0</ele><time>2026-04-19T10:01:54.081Z</time></trkpt><trkpt lat="41.2168327" lon="9.4160124"><ele>4.0</ele><time>2026-04-19T10:01:55.081Z</time></trkpt><trkpt lat="41.2168976" lon="9.4162092"><ele>4.0</ele><time>2026-04-19T10:01:56.08Z</time></trkpt><trkpt lat="41.2169525" lon="9.416395"><ele>4.0</ele><time>2026-04-19T10:01:57.081Z</time></trkpt><trkpt lat="41.2170078" lon="9.4165746"><ele>4.0</ele><time>2026-04-19T10:01:58.081Z</time></trkpt><trkpt lat="41.2170557" lon="9.4167473"><ele>4.0</ele><time>2026-04-19T10:01:59.081Z</time></trkpt><trkpt lat="41.2170905" lon="9.4169139"><ele>4.0</ele><time>2026-04-19T10:02:00.081Z</time></trkpt><trkpt lat="41.2171121" lon="9.4170755"><ele>4.0</ele><time>2026-04-19T10:02:01.081Z</time></trkpt><trkpt lat="41.2171298" lon="9.4172261"><ele>3.6</ele><time>2026-04-19T10:02:02.081Z</time></trkpt><trkpt lat="41.2171364" lon="9.4173665"><ele>3.2</ele><time>2026-04-19T10:02:03.081Z</time></trkpt><trkpt lat="41.2171312" lon="9.417506"><ele>2.8000000000000003</ele><time>2026-04-19T10:02:04.081Z</time></trkpt><trkpt lat="41.2171157" lon="9.4176469"><ele>2.4000000000000004</ele><time>2026-04-19T10:02:05.081Z</time></trkpt><trkpt lat="41.2170959" lon="9.4177864"><ele>2.0</ele><time>2026-04-19T10:02:06.081Z</time></trkpt><trkpt lat="41.2170638" lon="9.4179255"><ele>2.5</ele><time>2026-04-19T10:02:07.081Z</time></trkpt><trkpt lat="41.2170227" lon="9.4180684"><ele>3.0</ele><time>2026-04-19T10:02:08.081Z</time></trkpt><trkpt lat="41.2169748" lon="9.4182084"><ele>3.5</ele><time>2026-04-19T10:02:09.081Z</time></trkpt><trkpt lat="41.2169219" lon="9.4183451"><ele>4.0</ele><time>2026-04-19T10:02:10.081Z</time></trkpt><trkpt lat="41.2168623" lon="9.418476"><ele>4.0</ele><time>2026-04-19T10:02:11.081Z</time></trkpt><trkpt lat="41.216793" lon="9.4185961"><ele>4.0</ele><time>2026-04-19T10:02:12.081Z</time></trkpt><trkpt lat="41.2167117" lon="9.4187104"><ele>4.0</ele><time>2026-04-19T10:02:13.081Z</time></trkpt><trkpt lat="41.2166226" lon="9.4188254"><ele>4.0</ele><time>2026-04-19T10:02:14.081Z</time></trkpt><trkpt lat="41.2165235" lon="9.4189281"><ele>3.5</ele><time>2026-04-19T10:02:15.081Z</time></trkpt><trkpt lat="41.2164132" lon="9.419012"><ele>3.0</ele><time>2026-04-19T10:02:16.081Z</time></trkpt><trkpt lat="41.2162915" lon="9.4190745"><ele>2.5</ele><time>2026-04-19T10:02:17.081Z</time></trkpt><trkpt lat="41.2161622" lon="9.4191214"><ele>2.0</ele><time>2026-04-19T10:02:18.081Z</time></trkpt><trkpt lat="41.2160264" lon="9.4191614"><ele>2.0</ele><time>2026-04-19T10:02:19.081Z</time></trkpt><trkpt lat="41.21589" lon="9.4191942"><ele>2.0</ele><time>2026-04-19T10:02:20.081Z</time></trkpt><trkpt lat="41.2157513" lon="9.4192272"><ele>2.0</ele><time>2026-04-19T10:02:21.08Z</time></trkpt><trkpt lat="41.2156207" lon="9.4192585"><ele>2.0</ele><time>2026-04-19T10:02:22.08Z</time></trkpt><trkpt lat="41.2154905" lon="9.4192866"><ele>2.0</ele><time>2026-04-19T10:02:23.08Z</time></trkpt><trkpt lat="41.2153592" lon="9.4193103"><ele>2.0</ele><time>2026-04-19T10:02:24.08Z</time></trkpt><trkpt lat="41.215233" lon="9.4193375"><ele>2.0</ele><time>2026-04-19T10:02:25.08Z</time></trkpt><trkpt lat="41.2151104" lon="9.4193689"><ele>2.0</ele><time>2026-04-19T10:02:26.08Z</time></trkpt><trkpt lat="41.2149965" lon="9.4193956"><ele>2.0</ele><time>2026-04-19T10:02:27.08Z</time></trkpt><trkpt lat="41.2148875" lon="9.4194197"><ele>2.0</ele><time>2026-04-19T10:02:28.08Z</time></trkpt><trkpt lat="41.2147794" lon="9.4194423"><ele>2.0</ele><time>2026-04-19T10:02:29.08Z</time></trkpt><trkpt lat="41.2146703" lon="9.41946"><ele>2.0</ele><time>2026-04-19T10:02:30.08Z</time></trkpt><trkpt lat="41.2145663" lon="9.4194784"><ele>2.0</ele><time>2026-04-19T10:02:31.08Z</time></trkpt><trkpt lat="41.2144689" lon="9.4195011"><ele>2.0</ele><time>2026-04-19T10:02:32.08Z</time></trkpt><trkpt lat="41.2143819" lon="9.4195514"><ele>2.0</ele><time>2026-04-19T10:02:33.08Z</time></trkpt><trkpt lat="41.2143083" lon="9.4196366"><ele>2.0</ele><time>2026-04-19T10:02:34.079Z</time></trkpt><trkpt lat="41.2142439" lon="9.4197483"><ele>2.0</ele><time>2026-04-19T10:02:35.079Z</time></trkpt><trkpt lat="41.2141801" lon="9.4198677"><ele>2.0</ele><time>2026-04-19T10:02:36.08Z</time></trkpt><trkpt lat="41.2141188" lon="9.4199832"><ele>2.2</ele><time>2026-04-19T10:02:37.08Z</time></trkpt><trkpt lat="41.2140578" lon="9.4201028"><ele>2.4000000000000004</ele><time>2026-04-19T10:02:38.08Z</time></trkpt><trkpt lat="41.2139967" lon="9.4202155"><ele>2.5999999999999996</ele><time>2026-04-19T10:02:39.08Z</time></trkpt><trkpt lat="41.2139302" lon="9.4203317"><ele>2.8</ele><time>2026-04-19T10:02:40.08Z</time></trkpt><trkpt lat="41.2138632" lon="9.4204526"><ele>3.0</ele><time>2026-04-19T10:02:41.08Z</time></trkpt><trkpt lat="41.2137961" lon="9.4205705"><ele>2.5</ele><time>2026-04-19T10:02:42.08Z</time></trkpt><trkpt lat="41.2137369" lon="9.420686"><ele>2.0</ele><time>2026-04-19T10:02:43.08Z</time></trkpt><trkpt lat="41.2136875" lon="9.4208081"><ele>1.5</ele><time>2026-04-19T10:02:44.08Z</time></trkpt><trkpt lat="41.213665" lon="9.4209513"><ele>1.0</ele><time>2026-04-19T10:02:45.08Z</time></trkpt><trkpt lat="41.2136736" lon="9.4211337"><ele>1.0</ele><time>2026-04-19T10:02:46.08Z</time></trkpt><trkpt lat="41.2136962" lon="9.4213637"><ele>1.0</ele><time>2026-04-19T10:02:47.079Z</time></trkpt><trkpt lat="41.2136998" lon="9.4216039"><ele>1.0</ele><time>2026-04-19T10:02:48.08Z</time></trkpt><trkpt lat="41.2137017" lon="9.4218465"><ele>1.0</ele><time>2026-04-19T10:02:49.08Z</time></trkpt><trkpt lat="41.2137159" lon="9.4220855"><ele>1.0</ele><time>2026-04-19T10:02:50.08Z</time></trkpt><trkpt lat="41.2137272" lon="9.4223219"><ele>1.0</ele><time>2026-04-19T10:02:51.08Z</time></trkpt><trkpt lat="41.2137368" lon="9.4225603"><ele>1.0</ele><time>2026-04-19T10:02:52.08Z</time></trkpt><trkpt lat="41.2137511" lon="9.4227969"><ele>1.0</ele><time>2026-04-19T10:02:53.079Z</time></trkpt><trkpt lat="41.213764" lon="9.4230392"><ele>1.0</ele><time>2026-04-19T10:02:54.08Z</time></trkpt><trkpt lat="41.2137791" lon="9.4232813"><ele>1.0</ele><time>2026-04-19T10:02:55.08Z</time></trkpt><trkpt lat="41.2137953" lon="9.4235209"><ele>1.0</ele><time>2026-04-19T10:02:56.08Z</time></trkpt><trkpt lat="41.2138106" lon="9.4237631"><ele>1.0</ele><time>2026-04-19T10:02:57.08Z</time></trkpt><trkpt lat="41.2138273" lon="9.4240064"><ele>1.3333333333333333</ele><time>2026-04-19T10:02:58.079Z</time></trkpt><trkpt lat="41.2138412" lon="9.4242463"><ele>1.6666666666666665</ele><time>2026-04-19T10:02:59.08Z</time></trkpt><trkpt lat="41.2138544" lon="9.4244858"><ele>2.0</ele><time>2026-04-19T10:03:00.08Z</time></trkpt><trkpt lat="41.2138712" lon="9.4247162"><ele>1.3333333333333333</ele><time>2026-04-19T10:03:01.08Z</time></trkpt><trkpt lat="41.2138831" lon="9.4249471"><ele>0.6666666666666666</ele><time>2026-04-19T10:03:02.08Z</time></trkpt><trkpt lat="41.2138924" lon="9.4251639"><ele>0.0</ele><time>2026-04-19T10:03:03.079Z</time></trkpt><trkpt lat="41.2138998" lon="9.4253706"><ele>0.0</ele><time>2026-04-19T10:03:04.079Z</time></trkpt><trkpt lat="41.2139115" lon="9.4255721"><ele>0.0</ele><time>2026-04-19T10:03:05.08Z</time></trkpt><trkpt lat="41.213942" lon="9.425756"><ele>0.0</ele><time>2026-04-19T10:03:06.08Z</time></trkpt><trkpt lat="41.2140056" lon="9.4259381"><ele>0.0</ele><time>2026-04-19T10:03:07.08Z</time></trkpt><trkpt lat="41.2140956" lon="9.426099"><ele>0.6666666666666666</ele><time>2026-04-19T10:03:08.08Z</time></trkpt><trkpt lat="41.2142092" lon="9.4262364"><ele>1.3333333333333333</ele><time>2026-04-19T10:03:09.08Z</time></trkpt><trkpt lat="41.2143422" lon="9.4263477"><ele>2.0</ele><time>2026-04-19T10:03:10.079Z</time></trkpt><trkpt lat="41.2144805" lon="9.4264489"><ele>2.0</ele><time>2026-04-19T10:03:11.08Z</time></trkpt><trkpt lat="41.2146246" lon="9.4265352"><ele>2.0</ele><time>2026-04-19T10:03:12.08Z</time></trkpt><trkpt lat="41.214767" lon="9.4266213"><ele>2.0</ele><time>2026-04-19T10:03:13.08Z</time></trkpt><trkpt lat="41.2149008" lon="9.4267079"><ele>2.75</ele><time>2026-04-19T10:03:14.08Z</time></trkpt><trkpt lat="41.2150352" lon="9.4267778"><ele>3.5</ele><time>2026-04-19T10:03:15.079Z</time></trkpt><trkpt lat="41.2151743" lon="9.4268221"><ele>4.25</ele><time>2026-04-19T10:03:16.08Z</time></trkpt><trkpt lat="41.2153185" lon="9.4268495"><ele>5.0</ele><time>2026-04-19T10:03:17.08Z</time></trkpt><trkpt lat="41.2154602" lon="9.4268655"><ele>5.0</ele><time>2026-04-19T10:03:18.08Z</time></trkpt><trkpt lat="41.2155975" lon="9.4268657"><ele>5.0</ele><time>2026-04-19T10:03:19.079Z</time></trkpt><trkpt lat="41.2157287" lon="9.4268666"><ele>5.0</ele><time>2026-04-19T10:03:20.08Z</time></trkpt><trkpt lat="41.2158516" lon="9.4268618"><ele>5.0</ele><time>2026-04-19T10:03:21.08Z</time></trkpt><trkpt lat="41.2159707" lon="9.4268665"><ele>5.0</ele><time>2026-04-19T10:03:22.08Z</time></trkpt><trkpt lat="41.2160826" lon="9.4268988"><ele>5.0</ele><time>2026-04-19T10:03:23.08Z</time></trkpt><trkpt lat="41.2161964" lon="9.4269629"><ele>5.0</ele><time>2026-04-19T10:03:24.08Z</time></trkpt><trkpt lat="41.2162882" lon="9.4270591"><ele>5.0</ele><time>2026-04-19T10:03:25.08Z</time></trkpt><trkpt lat="41.2163635" lon="9.4271807"><ele>5.0</ele><time>2026-04-19T10:03:26.079Z</time></trkpt><trkpt lat="41.2164231" lon="9.4273199"><ele>5.0</ele><time>2026-04-19T10:03:27.08Z</time></trkpt><trkpt lat="41.2164603" lon="9.4274842"><ele>5.0</ele><time>2026-04-19T10:03:28.08Z</time></trkpt><trkpt lat="41.2164865" lon="9.4276544"><ele>5.0</ele><time>2026-04-19T10:03:29.08Z</time></trkpt><trkpt lat="41.2165053" lon="9.4278172"><ele>4.8</ele><time>2026-04-19T10:03:30.08Z</time></trkpt><trkpt lat="41.2165179" lon="9.4279793"><ele>4.6</ele><time>2026-04-19T10:03:31.08Z</time></trkpt><trkpt lat="41.2165232" lon="9.4281312"><ele>4.4</ele><time>2026-04-19T10:03:32.08Z</time></trkpt><trkpt lat="41.2165295" lon="9.4282721"><ele>4.2</ele><time>2026-04-19T10:03:33.08Z</time></trkpt><trkpt lat="41.21656" lon="9.428392"><ele>4.0</ele><time>2026-04-19T10:03:34.08Z</time></trkpt><trkpt lat="41.216616" lon="9.4284985"><ele>4.0</ele><time>2026-04-19T10:03:35.08Z</time></trkpt><trkpt lat="41.2166945" lon="9.4285673"><ele>4.0</ele><time>2026-04-19T10:03:36.079Z</time></trkpt><trkpt lat="41.2167855" lon="9.4286034"><ele>4.0</ele><time>2026-04-19T10:03:37.08Z</time></trkpt><trkpt lat="41.216882" lon="9.4286047"><ele>4.0</ele><time>2026-04-19T10:03:38.08Z</time></trkpt><trkpt lat="41.2169805" lon="9.4285953"><ele>4.0</ele><time>2026-04-19T10:03:39.08Z</time></trkpt><trkpt lat="41.2170818" lon="9.4285793"><ele>4.0</ele><time>2026-04-19T10:03:40.08Z</time></trkpt><trkpt lat="41.217186" lon="9.428569"><ele>4.0</ele><time>2026-04-19T10:03:41.08Z</time></trkpt><trkpt lat="41.2172962" lon="9.428554"><ele>4.0</ele><time>2026-04-19T10:03:42.08Z</time></trkpt><trkpt lat="41.2174098" lon="9.4285434"><ele>4.0</ele><time>2026-04-19T10:03:43.079Z</time></trkpt><trkpt lat="41.2175274" lon="9.4285347"><ele>4.0</ele><time>2026-04-19T10:03:44.08Z</time></trkpt><trkpt lat="41.2176501" lon="9.4285227"><ele>4.25</ele><time>2026-04-19T10:03:45.079Z</time></trkpt><trkpt lat="41.2177741" lon="9.428508"><ele>4.5</ele><time>2026-04-19T10:03:46.08Z</time></trkpt><trkpt lat="41.2179059" lon="9.4284899"><ele>4.75</ele><time>2026-04-19T10:03:47.079Z</time></trkpt><trkpt lat="41.2180419" lon="9.4284778"><ele>5.0</ele><time>2026-04-19T10:03:48.079Z</time></trkpt><trkpt lat="41.2181863" lon="9.4284622"><ele>6.0</ele><time>2026-04-19T10:03:49.079Z</time></trkpt><trkpt lat="41.2183354" lon="9.4284448"><ele>7.0</ele><time>2026-04-19T10:03:50.08Z</time></trkpt><trkpt lat="41.2184831" lon="9.4284301"><ele>8.0</ele><time>2026-04-19T10:03:51.08Z</time></trkpt><trkpt lat="41.2186298" lon="9.4284144"><ele>9.0</ele><time>2026-04-19T10:03:52.08Z</time></trkpt><trkpt lat="41.218765" lon="9.428398"><ele>9.0</ele><time>2026-04-19T10:03:53.08Z</time></trkpt><trkpt lat="41.218889" lon="9.4283843"><ele>9.0</ele><time>2026-04-19T10:03:54.08Z</time></trkpt><trkpt lat="41.2189968" lon="9.4283691"><ele>9.0</ele><time>2026-04-19T10:03:55.08Z</time></trkpt><trkpt lat="41.2190788" lon="9.4283612"><ele>9.0</ele><time>2026-04-19T10:03:56.08Z</time></trkpt><trkpt lat="41.2191391" lon="9.4283898"><ele>9.0</ele><time>2026-04-19T10:03:57.08Z</time></trkpt><trkpt lat="41.2191852" lon="9.4285159"><ele>9.0</ele><time>2026-04-19T10:03:59.08Z</time></trkpt><trkpt lat="41.2191975" lon="9.4286239"><ele>9.0</ele><time>2026-04-19T10:04:00.08Z</time></trkpt><trkpt lat="41.2192108" lon="9.4287596"><ele>9.0</ele><time>2026-04-19T10:04:01.08Z</time></trkpt><trkpt lat="41.2192215" lon="9.4289135"><ele>9.0</ele><time>2026-04-19T10:04:02.08Z</time></trkpt><trkpt lat="41.2192366" lon="9.4290861"><ele>9.0</ele><time>2026-04-19T10:04:03.08Z</time></trkpt><trkpt lat="41.2192575" lon="9.4292603"><ele>9.0</ele><time>2026-04-19T10:04:04.08Z</time></trkpt><trkpt lat="41.2192771" lon="9.4294442"><ele>9.0</ele><time>2026-04-19T10:04:05.08Z</time></trkpt><trkpt lat="41.2192963" lon="9.4296358"><ele>9.0</ele><time>2026-04-19T10:04:06.08Z</time></trkpt><trkpt lat="41.219317" lon="9.429833"><ele>9.0</ele><time>2026-04-19T10:04:07.08Z</time></trkpt><trkpt lat="41.2193362" lon="9.4300312"><ele>9.0</ele><time>2026-04-19T10:04:08.079Z</time></trkpt><trkpt lat="41.2193517" lon="9.4302339"><ele>9.0</ele><time>2026-04-19T10:04:09.08Z</time></trkpt><trkpt lat="41.2193701" lon="9.4304391"><ele>9.0</ele><time>2026-04-19T10:04:10.08Z</time></trkpt><trkpt lat="41.2193865" lon="9.4306436"><ele>9.0</ele><time>2026-04-19T10:04:11.08Z</time></trkpt><trkpt lat="41.2194029" lon="9.4308395"><ele>9.0</ele><time>2026-04-19T10:04:12.08Z</time></trkpt><trkpt lat="41.2194191" lon="9.4310234"><ele>9.0</ele><time>2026-04-19T10:04:13.08Z</time></trkpt><trkpt lat="41.2194334" lon="9.4312079"><ele>9.0</ele><time>2026-04-19T10:04:14.08Z</time></trkpt><trkpt lat="41.2194444" lon="9.4313949"><ele>8.4</ele><time>2026-04-19T10:04:15.08Z</time></trkpt><trkpt lat="41.2194549" lon="9.4315691"><ele>7.800000000000001</ele><time>2026-04-19T10:04:16.08Z</time></trkpt><trkpt lat="41.2194678" lon="9.4317224"><ele>7.199999999999999</ele><time>2026-04-19T10:04:17.08Z</time></trkpt><trkpt lat="41.2194889" lon="9.4318588"><ele>6.6</ele><time>2026-04-19T10:04:18.079Z</time></trkpt><trkpt lat="41.2195199" lon="9.4319774"><ele>6.0</ele><time>2026-04-19T10:04:19.08Z</time></trkpt><trkpt lat="41.2195315" lon="9.4320871"><ele>5.999999999999999</ele><time>2026-04-19T10:04:20.08Z</time></trkpt><trkpt lat="41.2195308" lon="9.4321909"><ele>6.0</ele><time>2026-04-19T10:04:21.08Z</time></trkpt><trkpt lat="41.2195535" lon="9.4322858"><ele>6.0</ele><time>2026-04-19T10:04:22.08Z</time></trkpt><trkpt lat="41.2196024" lon="9.4323525"><ele>6.0</ele><time>2026-04-19T10:04:23.079Z</time></trkpt><trkpt lat="41.2196699" lon="9.4323846"><ele>6.0</ele><time>2026-04-19T10:04:24.08Z</time></trkpt><trkpt lat="41.2197392" lon="9.4324223"><ele>5.999999999999999</ele><time>2026-04-19T10:04:25.079Z</time></trkpt><trkpt lat="41.2197885" lon="9.4324946"><ele>6.0</ele><time>2026-04-19T10:04:26.08Z</time></trkpt><trkpt lat="41.2198167" lon="9.4325979"><ele>6.25</ele><time>2026-04-19T10:04:27.08Z</time></trkpt><trkpt lat="41.2198302" lon="9.432735"><ele>6.5</ele><time>2026-04-19T10:04:28.08Z</time></trkpt><trkpt lat="41.2198323" lon="9.4328968"><ele>6.75</ele><time>2026-04-19T10:04:29.08Z</time></trkpt><trkpt lat="41.2198379" lon="9.4330687"><ele>7.0</ele><time>2026-04-19T10:04:30.08Z</time></trkpt><trkpt lat="41.2198383" lon="9.4332556"><ele>7.0</ele><time>2026-04-19T10:04:31.079Z</time></trkpt><trkpt lat="41.2198324" lon="9.433434"><ele>7.0</ele><time>2026-04-19T10:04:32.08Z</time></trkpt><trkpt lat="41.21982" lon="9.4336173"><ele>7.0</ele><time>2026-04-19T10:04:33.08Z</time></trkpt><trkpt lat="41.2198135" lon="9.4337945"><ele>7.0</ele><time>2026-04-19T10:04:34.079Z</time></trkpt><trkpt lat="41.2198179" lon="9.4339707"><ele>6.75</ele><time>2026-04-19T10:04:35.08Z</time></trkpt><trkpt lat="41.2198261" lon="9.4341511"><ele>6.5</ele><time>2026-04-19T10:04:36.08Z</time></trkpt><trkpt lat="41.2198352" lon="9.4343316"><ele>6.25</ele><time>2026-04-19T10:04:37.08Z</time></trkpt><trkpt lat="41.2198417" lon="9.4345201"><ele>6.0</ele><time>2026-04-19T10:04:38.08Z</time></trkpt><trkpt lat="41.2198469" lon="9.4346994"><ele>6.0</ele><time>2026-04-19T10:04:39.08Z</time></trkpt><trkpt lat="41.2198532" lon="9.4348657"><ele>6.0</ele><time>2026-04-19T10:04:40.08Z</time></trkpt><trkpt lat="41.2198567" lon="9.4350203"><ele>6.0</ele><time>2026-04-19T10:04:41.08Z</time></trkpt><trkpt lat="41.219861" lon="9.4351717"><ele>6.0</ele><time>2026-04-19T10:04:42.08Z</time></trkpt><trkpt lat="41.2198581" lon="9.4353256"><ele>6.75</ele><time>2026-04-19T10:04:43.08Z</time></trkpt><trkpt lat="41.2198573" lon="9.4354855"><ele>7.5</ele><time>2026-04-19T10:04:44.08Z</time></trkpt><trkpt lat="41.2198629" lon="9.4356732"><ele>8.25</ele><time>2026-04-19T10:04:45.08Z</time></trkpt><trkpt lat="41.2198756" lon="9.4358968"><ele>9.0</ele><time>2026-04-19T10:04:46.08Z</time></trkpt><trkpt lat="41.2198844" lon="9.4361134"><ele>8.75</ele><time>2026-04-19T10:04:47.08Z</time></trkpt><trkpt lat="41.2198893" lon="9.4363138"><ele>8.5</ele><time>2026-04-19T10:04:48.08Z</time></trkpt><trkpt lat="41.219897" lon="9.4364962"><ele>8.25</ele><time>2026-04-19T10:04:49.08Z</time></trkpt><trkpt lat="41.2199042" lon="9.4366489"><ele>8.0</ele><time>2026-04-19T10:04:50.08Z</time></trkpt><trkpt lat="41.219884" lon="9.436788"><ele>8.0</ele><time>2026-04-19T10:04:51.08Z</time></trkpt><trkpt lat="41.2198251" lon="9.4368952"><ele>8.0</ele><time>2026-04-19T10:04:52.08Z</time></trkpt><trkpt lat="41.219734" lon="9.4369751"><ele>8.0</ele><time>2026-04-19T10:04:53.08Z</time></trkpt><trkpt lat="41.2196284" lon="9.437046"><ele>8.0</ele><time>2026-04-19T10:04:54.079Z</time></trkpt><trkpt lat="41.2195124" lon="9.4371267"><ele>8.333333333333332</ele><time>2026-04-19T10:04:55.08Z</time></trkpt><trkpt lat="41.219384" lon="9.4372095"><ele>8.666666666666666</ele><time>2026-04-19T10:04:56.08Z</time></trkpt><trkpt lat="41.2192475" lon="9.4372959"><ele>9.0</ele><time>2026-04-19T10:04:57.08Z</time></trkpt><trkpt lat="41.2191035" lon="9.4373887"><ele>9.666666666666666</ele><time>2026-04-19T10:04:58.08Z</time></trkpt><trkpt lat="41.2189611" lon="9.4374804"><ele>10.333333333333332</ele><time>2026-04-19T10:04:59.08Z</time></trkpt><trkpt lat="41.2188198" lon="9.4375711"><ele>11.0</ele><time>2026-04-19T10:05:00.08Z</time></trkpt><trkpt lat="41.2186814" lon="9.4376587"><ele>11.0</ele><time>2026-04-19T10:05:01.08Z</time></trkpt><trkpt lat="41.2185499" lon="9.4377454"><ele>11.0</ele><time>2026-04-19T10:05:02.08Z</time></trkpt><trkpt lat="41.2184235" lon="9.4378293"><ele>11.0</ele><time>2026-04-19T10:05:03.08Z</time></trkpt><trkpt lat="41.2183104" lon="9.4379126"><ele>11.0</ele><time>2026-04-19T10:05:04.08Z</time></trkpt><trkpt lat="41.2181948" lon="9.43798"><ele>10.5</ele><time>2026-04-19T10:05:05.08Z</time></trkpt><trkpt lat="41.2180898" lon="9.4380466"><ele>10.0</ele><time>2026-04-19T10:05:06.08Z</time></trkpt><trkpt lat="41.2179894" lon="9.4381158"><ele>9.5</ele><time>2026-04-19T10:05:07.08Z</time></trkpt><trkpt lat="41.2178916" lon="9.4382013"><ele>9.0</ele><time>2026-04-19T10:05:08.08Z</time></trkpt><trkpt lat="41.2178103" lon="9.4383493"><ele>9.0</ele><time>2026-04-19T10:05:09.08Z</time></trkpt><trkpt lat="41.2177404" lon="9.4385092"><ele>9.0</ele><time>2026-04-19T10:05:10.079Z</time></trkpt><trkpt lat="41.2176812" lon="9.4386591"><ele>9.0</ele><time>2026-04-19T10:05:11.08Z</time></trkpt><trkpt lat="41.2176263" lon="9.4387946"><ele>9.0</ele><time>2026-04-19T10:05:12.08Z</time></trkpt><trkpt lat="41.2175761" lon="9.4389151"><ele>8.0</ele><time>2026-04-19T10:05:13.08Z</time></trkpt><trkpt lat="41.2175085" lon="9.4390176"><ele>7.0</ele><time>2026-04-19T10:05:14.08Z</time></trkpt><trkpt lat="41.2174277" lon="9.439092"><ele>6.0</ele><time>2026-04-19T10:05:15.08Z</time></trkpt><trkpt lat="41.2173302" lon="9.4391409"><ele>5.0</ele><time>2026-04-19T10:05:16.08Z</time></trkpt><trkpt lat="41.2172182" lon="9.4391687"><ele>4.0</ele><time>2026-04-19T10:05:17.08Z</time></trkpt><trkpt lat="41.2171072" lon="9.439191"><ele>4.0</ele><time>2026-04-19T10:05:18.079Z</time></trkpt><trkpt lat="41.2169943" lon="9.4392205"><ele>4.0</ele><time>2026-04-19T10:05:19.08Z</time></trkpt><trkpt lat="41.2168854" lon="9.4392458"><ele>4.0</ele><time>2026-04-19T10:05:20.08Z</time></trkpt><trkpt lat="41.216786" lon="9.4392703"><ele>4.0</ele><time>2026-04-19T10:05:21.08Z</time></trkpt><trkpt lat="41.2166936" lon="9.4393092"><ele>4.0</ele><time>2026-04-19T10:05:22.08Z</time></trkpt><trkpt lat="41.2166169" lon="9.439377"><ele>4.0</ele><time>2026-04-19T10:05:23.08Z</time></trkpt><trkpt lat="41.2165579" lon="9.4394856"><ele>4.0</ele><time>2026-04-19T10:05:24.08Z</time></trkpt><trkpt lat="41.2165169" lon="9.4396257"><ele>4.0</ele><time>2026-04-19T10:05:25.08Z</time></trkpt><trkpt lat="41.2164892" lon="9.4397893"><ele>4.0</ele><time>2026-04-19T10:05:26.08Z</time></trkpt><trkpt lat="41.2164616" lon="9.4399599"><ele>3.0</ele><time>2026-04-19T10:05:27.08Z</time></trkpt><trkpt lat="41.2164341" lon="9.4401394"><ele>2.0</ele><time>2026-04-19T10:05:28.08Z</time></trkpt><trkpt lat="41.216408" lon="9.4403268"><ele>1.0</ele><time>2026-04-19T10:05:29.08Z</time></trkpt><trkpt lat="41.2163792" lon="9.4405091"><ele>0.0</ele><time>2026-04-19T10:05:30.08Z</time></trkpt><trkpt lat="41.2163545" lon="9.4406907"><ele>0.0</ele><time>2026-04-19T10:05:31.08Z</time></trkpt><trkpt lat="41.2163232" lon="9.4408712"><ele>0.0</ele><time>2026-04-19T10:05:32.079Z</time></trkpt><trkpt lat="41.2162908" lon="9.4410583"><ele>0.0</ele><time>2026-04-19T10:05:33.08Z</time></trkpt><trkpt lat="41.2162616" lon="9.4412488"><ele>0.0</ele><time>2026-04-19T10:05:34.08Z</time></trkpt><trkpt lat="41.216232" lon="9.4414455"><ele>0.0</ele><time>2026-04-19T10:05:35.08Z</time></trkpt><trkpt lat="41.2162021" lon="9.4416453"><ele>0.0</ele><time>2026-04-19T10:05:36.08Z</time></trkpt><trkpt lat="41.2161713" lon="9.4418496"><ele>0.0</ele><time>2026-04-19T10:05:37.08Z</time></trkpt><trkpt lat="41.2161366" lon="9.4420579"><ele>0.0</ele><time>2026-04-19T10:05:38.08Z</time></trkpt><trkpt lat="41.2161045" lon="9.4422633"><ele>0.0</ele><time>2026-04-19T10:05:39.08Z</time></trkpt><trkpt lat="41.2160754" lon="9.4424604"><ele>0.0</ele><time>2026-04-19T10:05:40.08Z</time></trkpt><trkpt lat="41.2160449" lon="9.4426649"><ele>0.0</ele><time>2026-04-19T10:05:41.08Z</time></trkpt><trkpt lat="41.2160167" lon="9.4428672"><ele>0.0</ele><time>2026-04-19T10:05:42.08Z</time></trkpt><trkpt lat="41.2159905" lon="9.4430689"><ele>0.0</ele><time>2026-04-19T10:05:43.08Z</time></trkpt><trkpt lat="41.2159642" lon="9.443266"><ele>0.0</ele><time>2026-04-19T10:05:44.08Z</time></trkpt><trkpt lat="41.2159327" lon="9.4434658"><ele>0.0</ele><time>2026-04-19T10:05:45.08Z</time></trkpt><trkpt lat="41.2158988" lon="9.4436645"><ele>0.0</ele><time>2026-04-19T10:05:46.08Z</time></trkpt><trkpt lat="41.215867" lon="9.443866"><ele>0.0</ele><time>2026-04-19T10:05:47.079Z</time></trkpt><trkpt lat="41.215833" lon="9.4440707"><ele>0.0</ele><time>2026-04-19T10:05:48.08Z</time></trkpt><trkpt lat="41.2157983" lon="9.4442792"><ele>0.0</ele><time>2026-04-19T10:05:49.08Z</time></trkpt><trkpt lat="41.2157655" lon="9.4444915"><ele>0.0</ele><time>2026-04-19T10:05:50.08Z</time></trkpt><trkpt lat="41.2157313" lon="9.4447007"><ele>0.0</ele><time>2026-04-19T10:05:51.08Z</time></trkpt><trkpt lat="41.2156976" lon="9.4449099"><ele>0.0</ele><time>2026-04-19T10:05:52.08Z</time></trkpt><trkpt lat="41.2156637" lon="9.4451137"><ele>0.0</ele><time>2026-04-19T10:05:53.079Z</time></trkpt><trkpt lat="41.2156282" lon="9.4453153"><ele>0.0</ele><time>2026-04-19T10:05:54.08Z</time></trkpt><trkpt lat="41.2155994" lon="9.4455079"><ele>0.0</ele><time>2026-04-19T10:05:55.08Z</time></trkpt><trkpt lat="41.2155689" lon="9.445698"><ele>0.0</ele><time>2026-04-19T10:05:56.079Z</time></trkpt><trkpt lat="41.2155397" lon="9.4458865"><ele>0.0</ele><time>2026-04-19T10:05:57.079Z</time></trkpt><trkpt lat="41.2155111" lon="9.4460788"><ele>0.0</ele><time>2026-04-19T10:05:58.08Z</time></trkpt><trkpt lat="41.2154789" lon="9.4462697"><ele>0.0</ele><time>2026-04-19T10:05:59.08Z</time></trkpt><trkpt lat="41.2154506" lon="9.446456"><ele>0.0</ele><time>2026-04-19T10:06:00.08Z</time></trkpt><trkpt lat="41.2154224" lon="9.4466378"><ele>0.0</ele><time>2026-04-19T10:06:01.08Z</time></trkpt><trkpt lat="41.2153921" lon="9.4468231"><ele>0.0</ele><time>2026-04-19T10:06:02.08Z</time></trkpt><trkpt lat="41.2153636" lon="9.4470205"><ele>0.0</ele><time>2026-04-19T10:06:03.079Z</time></trkpt><trkpt lat="41.2153297" lon="9.447223"><ele>0.3333333333333333</ele><time>2026-04-19T10:06:04.08Z</time></trkpt><trkpt lat="41.2152962" lon="9.4474219"><ele>0.6666666666666666</ele><time>2026-04-19T10:06:05.079Z</time></trkpt><trkpt lat="41.2152648" lon="9.4476166"><ele>1.0</ele><time>2026-04-19T10:06:06.08Z</time></trkpt><trkpt lat="41.2152357" lon="9.4478117"><ele>1.75</ele><time>2026-04-19T10:06:07.08Z</time></trkpt><trkpt lat="41.2152064" lon="9.4480047"><ele>2.5</ele><time>2026-04-19T10:06:08.08Z</time></trkpt><trkpt lat="41.2151785" lon="9.4481934"><ele>3.25</ele><time>2026-04-19T10:06:09.08Z</time></trkpt><trkpt lat="41.2151434" lon="9.4483845"><ele>4.0</ele><time>2026-04-19T10:06:10.079Z</time></trkpt><trkpt lat="41.2151137" lon="9.4485652"><ele>4.0</ele><time>2026-04-19T10:06:11.08Z</time></trkpt><trkpt lat="41.2150851" lon="9.4487363"><ele>4.0</ele><time>2026-04-19T10:06:12.08Z</time></trkpt><trkpt lat="41.2150572" lon="9.4489023"><ele>4.0</ele><time>2026-04-19T10:06:13.079Z</time></trkpt><trkpt lat="41.2150315" lon="9.4490648"><ele>4.0</ele><time>2026-04-19T10:06:14.08Z</time></trkpt><trkpt lat="41.2150112" lon="9.4492341"><ele>4.0</ele><time>2026-04-19T10:06:15.079Z</time></trkpt><trkpt lat="41.2149828" lon="9.4494115"><ele>4.0</ele><time>2026-04-19T10:06:16.079Z</time></trkpt><trkpt lat="41.2149517" lon="9.4495886"><ele>4.0</ele><time>2026-04-19T10:06:17.079Z</time></trkpt><trkpt lat="41.2149272" lon="9.4497608"><ele>4.0</ele><time>2026-04-19T10:06:18.08Z</time></trkpt><trkpt lat="41.2149011" lon="9.4499291"><ele>4.0</ele><time>2026-04-19T10:06:19.08Z</time></trkpt><trkpt lat="41.2148811" lon="9.450086"><ele>4.0</ele><time>2026-04-19T10:06:20.08Z</time></trkpt><trkpt lat="41.2148776" lon="9.4502372"><ele>4.0</ele><time>2026-04-19T10:06:21.08Z</time></trkpt><trkpt lat="41.214879" lon="9.4503889"><ele>4.0</ele><time>2026-04-19T10:06:22.08Z</time></trkpt><trkpt lat="41.214884" lon="9.4505466"><ele>4.25</ele><time>2026-04-19T10:06:23.078Z</time></trkpt><trkpt lat="41.2148941" lon="9.4507083"><ele>4.5</ele><time>2026-04-19T10:06:24.079Z</time></trkpt><trkpt lat="41.2149128" lon="9.4508729"><ele>4.75</ele><time>2026-04-19T10:06:25.079Z</time></trkpt><trkpt lat="41.2149446" lon="9.4510396"><ele>5.0</ele><time>2026-04-19T10:06:26.079Z</time></trkpt><trkpt lat="41.2149856" lon="9.4512037"><ele>5.25</ele><time>2026-04-19T10:06:27.079Z</time></trkpt><trkpt lat="41.2150291" lon="9.4513584"><ele>5.5</ele><time>2026-04-19T10:06:28.08Z</time></trkpt><trkpt lat="41.2150732" lon="9.4515045"><ele>5.75</ele><time>2026-04-19T10:06:29.08Z</time></trkpt><trkpt lat="41.2151136" lon="9.451641"><ele>6.0</ele><time>2026-04-19T10:06:30.08Z</time></trkpt><trkpt lat="41.2151475" lon="9.4517869"><ele>6.0</ele><time>2026-04-19T10:06:31.08Z</time></trkpt><trkpt lat="41.2151681" lon="9.4519473"><ele>6.0</ele><time>2026-04-19T10:06:32.08Z</time></trkpt><trkpt lat="41.2151812" lon="9.4521162"><ele>6.0</ele><time>2026-04-19T10:06:33.078Z</time></trkpt><trkpt lat="41.2151898" lon="9.4522851"><ele>6.0</ele><time>2026-04-19T10:06:34.08Z</time></trkpt><trkpt lat="41.2151999" lon="9.4524512"><ele>6.0</ele><time>2026-04-19T10:06:35.08Z</time></trkpt><trkpt lat="41.2152245" lon="9.4526134"><ele>6.0</ele><time>2026-04-19T10:06:36.08Z</time></trkpt><trkpt lat="41.2152575" lon="9.4527738"><ele>6.0</ele><time>2026-04-19T10:06:37.08Z</time></trkpt><trkpt lat="41.2153079" lon="9.4529348"><ele>6.0</ele><time>2026-04-19T10:06:38.08Z</time></trkpt><trkpt lat="41.2153632" lon="9.4531023"><ele>6.25</ele><time>2026-04-19T10:06:39.079Z</time></trkpt><trkpt lat="41.215421" lon="9.4532628"><ele>6.5</ele><time>2026-04-19T10:06:40.079Z</time></trkpt><trkpt lat="41.2154771" lon="9.4534165"><ele>6.75</ele><time>2026-04-19T10:06:41.079Z</time></trkpt><trkpt lat="41.2155314" lon="9.4535617"><ele>7.0</ele><time>2026-04-19T10:06:42.079Z</time></trkpt><trkpt lat="41.215586" lon="9.453692"><ele>7.199999999999999</ele><time>2026-04-19T10:06:43.079Z</time></trkpt><trkpt lat="41.2156432" lon="9.453813"><ele>7.3999999999999995</ele><time>2026-04-19T10:06:44.08Z</time></trkpt><trkpt lat="41.2157066" lon="9.4539268"><ele>7.6000000000000005</ele><time>2026-04-19T10:06:45.079Z</time></trkpt><trkpt lat="41.2157722" lon="9.4540317"><ele>7.800000000000001</ele><time>2026-04-19T10:06:46.08Z</time></trkpt><trkpt lat="41.215837" lon="9.4541361"><ele>8.0</ele><time>2026-04-19T10:06:47.08Z</time></trkpt><trkpt lat="41.2158894" lon="9.4542521"><ele>7.333333333333333</ele><time>2026-04-19T10:06:48.08Z</time></trkpt><trkpt lat="41.2159361" lon="9.4543627"><ele>6.666666666666666</ele><time>2026-04-19T10:06:49.08Z</time></trkpt><trkpt lat="41.2159749" lon="9.4544746"><ele>6.0</ele><time>2026-04-19T10:06:50.08Z</time></trkpt><trkpt lat="41.2160026" lon="9.4545783"><ele>5.333333333333333</ele><time>2026-04-19T10:06:51.08Z</time></trkpt><trkpt lat="41.2160233" lon="9.454672"><ele>4.666666666666666</ele><time>2026-04-19T10:06:52.079Z</time></trkpt><trkpt lat="41.2160408" lon="9.4547557"><ele>4.0</ele><time>2026-04-19T10:06:53.08Z</time></trkpt><trkpt lat="41.2160708" lon="9.454835"><ele>4.0</ele><time>2026-04-19T10:06:54.08Z</time></trkpt><trkpt lat="41.2161162" lon="9.4549123"><ele>3.9999999999999996</ele><time>2026-04-19T10:06:55.08Z</time></trkpt><trkpt lat="41.2161652" lon="9.4549806"><ele>4.0</ele><time>2026-04-19T10:06:56.08Z</time></trkpt><trkpt lat="41.2162145" lon="9.4550416"><ele>4.0</ele><time>2026-04-19T10:06:57.079Z</time></trkpt><trkpt lat="41.2162703" lon="9.4551137"><ele>3.9999999999999996</ele><time>2026-04-19T10:06:58.08Z</time></trkpt><trkpt lat="41.2163309" lon="9.4551949"><ele>4.0</ele><time>2026-04-19T10:06:59.08Z</time></trkpt><trkpt lat="41.216379" lon="9.4552643"><ele>4.0</ele><time>2026-04-19T10:07:00.08Z</time></trkpt><trkpt lat="41.2164633" lon="9.4553651"><ele>3.9999999999999996</ele><time>2026-04-19T10:07:02.08Z</time></trkpt><trkpt lat="41.2165359" lon="9.4554386"><ele>4.0</ele><time>2026-04-19T10:07:04.08Z</time></trkpt><trkpt lat="41.2165688" lon="9.4555196"><ele>4.0</ele><time>2026-04-19T10:07:06.08Z</time></trkpt><trkpt lat="41.2165049" lon="9.4556076"><ele>4.0</ele><time>2026-04-19T10:07:09.08Z</time></trkpt><trkpt lat="41.2164406" lon="9.4556277"><ele>3.9999999999999996</ele><time>2026-04-19T10:07:10.079Z</time></trkpt><trkpt lat="41.2163311" lon="9.4556616"><ele>4.0</ele><time>2026-04-19T10:07:12.08Z</time></trkpt><trkpt lat="41.2162362" lon="9.4557134"><ele>4.0</ele><time>2026-04-19T10:07:14.08Z</time></trkpt><trkpt lat="41.2161523" lon="9.4557958"><ele>4.0</ele><time>2026-04-19T10:07:16.079Z</time></trkpt><trkpt lat="41.2160776" lon="9.455823"><ele>4.0</ele><time>2026-04-19T10:07:18.08Z</time></trkpt><trkpt lat="41.2160033" lon="9.4558448"><ele>4.0</ele><time>2026-04-19T10:07:21.08Z</time></trkpt><trkpt lat="41.2159673" lon="9.4559991"><ele>4.0</ele><time>2026-04-19T10:07:24.08Z</time></trkpt><trkpt lat="41.2159751" lon="9.4561398"><ele>4.0</ele><time>2026-04-19T10:07:25.079Z</time></trkpt><trkpt lat="41.2159874" lon="9.4562618"><ele>4.0</ele><time>2026-04-19T10:07:26.08Z</time></trkpt><trkpt lat="41.2160223" lon="9.456374"><ele>4.0</ele><time>2026-04-19T10:07:27.08Z</time></trkpt><trkpt lat="41.2160688" lon="9.4565035"><ele>4.0</ele><time>2026-04-19T10:07:28.08Z</time></trkpt><trkpt lat="41.2161173" lon="9.4566386"><ele>4.0</ele><time>2026-04-19T10:07:29.079Z</time></trkpt><trkpt lat="41.2161579" lon="9.4567574"><ele>4.166666666666666</ele><time>2026-04-19T10:07:30.08Z</time></trkpt><trkpt lat="41.2161976" lon="9.4568669"><ele>4.333333333333333</ele><time>2026-04-19T10:07:31.08Z</time></trkpt><trkpt lat="41.2162301" lon="9.4569715"><ele>4.5</ele><time>2026-04-19T10:07:32.079Z</time></trkpt><trkpt lat="41.2162465" lon="9.4570639"><ele>4.666666666666667</ele><time>2026-04-19T10:07:33.079Z</time></trkpt><trkpt lat="41.2162308" lon="9.457145"><ele>4.833333333333334</ele><time>2026-04-19T10:07:34.08Z</time></trkpt><trkpt lat="41.2161758" lon="9.4572221"><ele>5.0</ele><time>2026-04-19T10:07:35.079Z</time></trkpt><trkpt lat="41.2160958" lon="9.4573048"><ele>5.6</ele><time>2026-04-19T10:07:36.079Z</time></trkpt><trkpt lat="41.2159998" lon="9.4573991"><ele>6.2</ele><time>2026-04-19T10:07:37.08Z</time></trkpt><trkpt lat="41.2159077" lon="9.4574968"><ele>6.800000000000001</ele><time>2026-04-19T10:07:38.08Z</time></trkpt><trkpt lat="41.2158333" lon="9.4575845"><ele>7.4</ele><time>2026-04-19T10:07:39.08Z</time></trkpt><trkpt lat="41.2157604" lon="9.4576487"><ele>8.0</ele><time>2026-04-19T10:07:40.08Z</time></trkpt><trkpt lat="41.2156802" lon="9.4576831"><ele>7.999999999999999</ele><time>2026-04-19T10:07:41.08Z</time></trkpt><trkpt lat="41.2156102" lon="9.4577229"><ele>8.0</ele><time>2026-04-19T10:07:42.08Z</time></trkpt><trkpt lat="41.2155687" lon="9.4577956"><ele>8.0</ele><time>2026-04-19T10:07:43.08Z</time></trkpt><trkpt lat="41.2155532" lon="9.4578949"><ele>8.0</ele><time>2026-04-19T10:07:44.08Z</time></trkpt><trkpt lat="41.2155452" lon="9.458013"><ele>7.999999999999999</ele><time>2026-04-19T10:07:45.079Z</time></trkpt><trkpt lat="41.2155372" lon="9.4581512"><ele>8.0</ele><time>2026-04-19T10:07:46.08Z</time></trkpt><trkpt lat="41.2155374" lon="9.4582864"><ele>8.666666666666666</ele><time>2026-04-19T10:07:47.08Z</time></trkpt><trkpt lat="41.2155539" lon="9.4583967"><ele>9.333333333333332</ele><time>2026-04-19T10:07:48.08Z</time></trkpt><trkpt lat="41.2155883" lon="9.4584964"><ele>10.0</ele><time>2026-04-19T10:07:49.08Z</time></trkpt><trkpt lat="41.2156361" lon="9.4585913"><ele>10.666666666666666</ele><time>2026-04-19T10:07:50.08Z</time></trkpt><trkpt lat="41.215697" lon="9.4586792"><ele>11.333333333333334</ele><time>2026-04-19T10:07:51.079Z</time></trkpt><trkpt lat="41.2157619" lon="9.4587569"><ele>12.0</ele><time>2026-04-19T10:07:52.08Z</time></trkpt><trkpt lat="41.2158203" lon="9.4588239"><ele>13.0</ele><time>2026-04-19T10:07:53.08Z</time></trkpt><trkpt lat="41.2158702" lon="9.458887"><ele>14.0</ele><time>2026-04-19T10:07:54.08Z</time></trkpt><trkpt lat="41.2159602" lon="9.4589895"><ele>15.0</ele><time>2026-04-19T10:07:56.08Z</time></trkpt><trkpt lat="41.2160405" lon="9.4590376"><ele>16.0</ele><time>2026-04-19T10:07:58.079Z</time></trkpt><trkpt lat="41.2161571" lon="9.4590144"><ele>17.0</ele><time>2026-04-19T10:08:00.08Z</time></trkpt><trkpt lat="41.2162225" lon="9.4590201"><ele>17.0</ele><time>2026-04-19T10:08:01.08Z</time></trkpt><trkpt lat="41.2162852" lon="9.4590435"><ele>17.0</ele><time>2026-04-19T10:08:02.08Z</time></trkpt><trkpt lat="41.2164023" lon="9.4590756"><ele>17.0</ele><time>2026-04-19T10:08:04.08Z</time></trkpt><trkpt lat="41.2165222" lon="9.4590689"><ele>17.0</ele><time>2026-04-19T10:08:06.08Z</time></trkpt><trkpt lat="41.2166493" lon="9.4590472"><ele>17.0</ele><time>2026-04-19T10:08:08.079Z</time></trkpt><trkpt lat="41.2167235" lon="9.4590561"><ele>16.71428571428571</ele><time>2026-04-19T10:08:09.08Z</time></trkpt><trkpt lat="41.216797" lon="9.4590676"><ele>16.428571428571427</ele><time>2026-04-19T10:08:10.08Z</time></trkpt><trkpt lat="41.2168636" lon="9.4590902"><ele>16.142857142857142</ele><time>2026-04-19T10:08:11.08Z</time></trkpt><trkpt lat="41.216935" lon="9.4591241"><ele>15.857142857142856</ele><time>2026-04-19T10:08:12.08Z</time></trkpt><trkpt lat="41.2170102" lon="9.4591661"><ele>15.57142857142857</ele><time>2026-04-19T10:08:13.08Z</time></trkpt><trkpt lat="41.2170758" lon="9.4592076"><ele>15.285714285714286</ele><time>2026-04-19T10:08:14.079Z</time></trkpt><trkpt lat="41.2171376" lon="9.4592523"><ele>15.0</ele><time>2026-04-19T10:08:15.079Z</time></trkpt><trkpt lat="41.2172051" lon="9.4593014"><ele>15.0</ele><time>2026-04-19T10:08:16.079Z</time></trkpt><trkpt lat="41.2172671" lon="9.4593454"><ele>15.0</ele><time>2026-04-19T10:08:17.079Z</time></trkpt><trkpt lat="41.2173289" lon="9.4593793"><ele>15.0</ele><time>2026-04-19T10:08:18.079Z</time></trkpt><trkpt lat="41.2173917" lon="9.4594019"><ele>15.0</ele><time>2026-04-19T10:08:19.079Z</time></trkpt><trkpt lat="41.2174582" lon="9.4594127"><ele>15.0</ele><time>2026-04-19T10:08:20.079Z</time></trkpt><trkpt lat="41.2175731" lon="9.4594211"><ele>15.0</ele><time>2026-04-19T10:08:22.079Z</time></trkpt><trkpt lat="41.2176379" lon="9.4594195"><ele>15.0</ele><time>2026-04-19T10:08:24.079Z</time></trkpt><trkpt lat="41.2176982" lon="9.4593341"><ele>15.166666666666666</ele><time>2026-04-19T10:08:29.078Z</time></trkpt><trkpt lat="41.2177621" lon="9.4592727"><ele>15.333333333333332</ele><time>2026-04-19T10:08:31.079Z</time></trkpt><trkpt lat="41.217863" lon="9.4592069"><ele>15.5</ele><time>2026-04-19T10:08:33.079Z</time></trkpt><trkpt lat="41.2179243" lon="9.459159"><ele>15.666666666666666</ele><time>2026-04-19T10:08:34.079Z</time></trkpt><trkpt lat="41.2179935" lon="9.4591041"><ele>15.833333333333332</ele><time>2026-04-19T10:08:35.079Z</time></trkpt><trkpt lat="41.2180594" lon="9.459058"><ele>16.0</ele><time>2026-04-19T10:08:36.079Z</time></trkpt><trkpt lat="41.2181234" lon="9.459013"><ele>15.714285714285714</ele><time>2026-04-19T10:08:37.079Z</time></trkpt><trkpt lat="41.2181806" lon="9.4589599"><ele>15.428571428571427</ele><time>2026-04-19T10:08:38.078Z</time></trkpt><trkpt lat="41.2182418" lon="9.4589143"><ele>15.142857142857142</ele><time>2026-04-19T10:08:39.079Z</time></trkpt><trkpt lat="41.2182991" lon="9.4588659"><ele>14.857142857142858</ele><time>2026-04-19T10:08:40.079Z</time></trkpt><trkpt lat="41.2183592" lon="9.4588271"><ele>14.571428571428571</ele><time>2026-04-19T10:08:41.079Z</time></trkpt><trkpt lat="41.2184231" lon="9.4587992"><ele>14.285714285714285</ele><time>2026-04-19T10:08:42.078Z</time></trkpt><trkpt lat="41.2184864" lon="9.4587694"><ele>14.0</ele><time>2026-04-19T10:08:43.079Z</time></trkpt><trkpt lat="41.2185462" lon="9.458735"><ele>13.500000000000002</ele><time>2026-04-19T10:08:44.079Z</time></trkpt><trkpt lat="41.2186095" lon="9.4586941"><ele>13.0</ele><time>2026-04-19T10:08:45.079Z</time></trkpt><trkpt lat="41.2186722" lon="9.4586516"><ele>12.5</ele><time>2026-04-19T10:08:46.079Z</time></trkpt><trkpt lat="41.2187275" lon="9.4586055"><ele>12.0</ele><time>2026-04-19T10:08:47.079Z</time></trkpt><trkpt lat="41.2188149" lon="9.4584939"><ele>11.5</ele><time>2026-04-19T10:08:49.079Z</time></trkpt><trkpt lat="41.2188579" lon="9.4584242"><ele>11.0</ele><time>2026-04-19T10:08:50.079Z</time></trkpt><trkpt lat="41.2189165" lon="9.4583516"><ele>11.0</ele><time>2026-04-19T10:08:51.079Z</time></trkpt><trkpt lat="41.2189852" lon="9.4582746"><ele>11.0</ele><time>2026-04-19T10:08:52.079Z</time></trkpt><trkpt lat="41.2190488" lon="9.4582067"><ele>11.0</ele><time>2026-04-19T10:08:53.079Z</time></trkpt><trkpt lat="41.2191055" lon="9.4581459"><ele>11.0</ele><time>2026-04-19T10:08:54.079Z</time></trkpt><trkpt lat="41.2192036" lon="9.45807"><ele>11.0</ele><time>2026-04-19T10:08:56.079Z</time></trkpt><trkpt lat="41.2192857" lon="9.4580421"><ele>11.0</ele><time>2026-04-19T10:08:58.079Z</time></trkpt><trkpt lat="41.219398" lon="9.457991"><ele>11.333333333333332</ele><time>2026-04-19T10:09:00.079Z</time></trkpt><trkpt lat="41.2194744" lon="9.4579481"><ele>11.666666666666666</ele><time>2026-04-19T10:09:01.079Z</time></trkpt><trkpt lat="41.2195515" lon="9.4579046"><ele>12.0</ele><time>2026-04-19T10:09:02.078Z</time></trkpt><trkpt lat="41.2196135" lon="9.4578696"><ele>12.333333333333332</ele><time>2026-04-19T10:09:03.079Z</time></trkpt><trkpt lat="41.2197126" lon="9.4578504"><ele>12.666666666666666</ele><time>2026-04-19T10:09:05.079Z</time></trkpt><trkpt lat="41.2197958" lon="9.457857"><ele>13.0</ele><time>2026-04-19T10:09:08.079Z</time></trkpt><trkpt lat="41.2198673" lon="9.45786"><ele>12.999999999999998</ele><time>2026-04-19T10:10:25.079Z</time></trkpt><trkpt lat="41.21979" lon="9.4578232"><ele>13.0</ele><time>2026-04-19T10:10:30.079Z</time></trkpt><trkpt lat="41.2197128" lon="9.4578268"><ele>13.0</ele><time>2026-04-19T10:10:32.079Z</time></trkpt><trkpt lat="41.2196366" lon="9.4578324"><ele>13.0</ele><time>2026-04-19T10:10:34.079Z</time></trkpt><trkpt lat="41.2195589" lon="9.4578953"><ele>12.999999999999998</ele><time>2026-04-19T10:10:36.079Z</time></trkpt><trkpt lat="41.2194579" lon="9.4579621"><ele>13.0</ele><time>2026-04-19T10:10:38.078Z</time></trkpt><trkpt lat="41.2193571" lon="9.4580108"><ele>12.600000000000001</ele><time>2026-04-19T10:10:40.079Z</time></trkpt><trkpt lat="41.2192597" lon="9.4580544"><ele>12.200000000000001</ele><time>2026-04-19T10:10:42.079Z</time></trkpt><trkpt lat="41.2191541" lon="9.4581036"><ele>11.8</ele><time>2026-04-19T10:10:44.079Z</time></trkpt><trkpt lat="41.2190515" lon="9.4582174"><ele>11.4</ele><time>2026-04-19T10:10:46.078Z</time></trkpt><trkpt lat="41.2189917" lon="9.4582753"><ele>11.0</ele><time>2026-04-19T10:10:47.079Z</time></trkpt><trkpt lat="41.2189324" lon="9.4583315"><ele>11.0</ele><time>2026-04-19T10:10:48.079Z</time></trkpt><trkpt lat="41.2188798" lon="9.4583968"><ele>11.0</ele><time>2026-04-19T10:10:49.079Z</time></trkpt><trkpt lat="41.2188347" lon="9.4584633"><ele>11.0</ele><time>2026-04-19T10:10:50.078Z</time></trkpt><trkpt lat="41.218756" lon="9.4585781"><ele>11.0</ele><time>2026-04-19T10:10:52.078Z</time></trkpt><trkpt lat="41.2186414" lon="9.4586648"><ele>11.0</ele><time>2026-04-19T10:10:54.079Z</time></trkpt><trkpt lat="41.2185621" lon="9.4587141"><ele>11.0</ele><time>2026-04-19T10:10:55.079Z</time></trkpt><trkpt lat="41.2184799" lon="9.4587588"><ele>11.0</ele><time>2026-04-19T10:10:56.079Z</time></trkpt><trkpt lat="41.2184089" lon="9.4587873"><ele>11.0</ele><time>2026-04-19T10:10:57.079Z</time></trkpt><trkpt lat="41.2183097" lon="9.4588374"><ele>11.0</ele><time>2026-04-19T10:10:59.079Z</time></trkpt><trkpt lat="41.2182102" lon="9.4589164"><ele>11.0</ele><time>2026-04-19T10:11:01.079Z</time></trkpt><trkpt lat="41.2181523" lon="9.4589669"><ele>11.833333333333332</ele><time>2026-04-19T10:11:02.079Z</time></trkpt><trkpt lat="41.2180861" lon="9.4590225"><ele>12.666666666666666</ele><time>2026-04-19T10:11:03.079Z</time></trkpt><trkpt lat="41.218011" lon="9.4590879"><ele>13.5</ele><time>2026-04-19T10:11:04.079Z</time></trkpt><trkpt lat="41.2179379" lon="9.4591479"><ele>14.333333333333332</ele><time>2026-04-19T10:11:05.079Z</time></trkpt><trkpt lat="41.2178738" lon="9.4591973"><ele>15.166666666666666</ele><time>2026-04-19T10:11:06.079Z</time></trkpt><trkpt lat="41.2177677" lon="9.4592642"><ele>16.0</ele><time>2026-04-19T10:11:08.079Z</time></trkpt><trkpt lat="41.2176936" lon="9.4593268"><ele>15.999999999999998</ele><time>2026-04-19T10:11:10.078Z</time></trkpt><trkpt lat="41.2177093" lon="9.4594281"><ele>16.0</ele><time>2026-04-19T10:11:14.079Z</time></trkpt><trkpt lat="41.2177748" lon="9.4594696"><ele>16.0</ele><time>2026-04-19T10:11:47.078Z</time></trkpt><trkpt lat="41.2178438" lon="9.4595025"><ele>16.0</ele><time>2026-04-19T10:11:50.079Z</time></trkpt><trkpt lat="41.2179286" lon="9.4595537"><ele>15.999999999999998</ele><time>2026-04-19T10:11:52.079Z</time></trkpt><trkpt lat="41.2179814" lon="9.4596528"><ele>16.0</ele><time>2026-04-19T10:11:54.079Z</time></trkpt><trkpt lat="41.2180068" lon="9.4597299"><ele>16.166666666666664</ele><time>2026-04-19T10:11:55.079Z</time></trkpt><trkpt lat="41.2180469" lon="9.4598244"><ele>16.333333333333332</ele><time>2026-04-19T10:11:56.079Z</time></trkpt><trkpt lat="41.2180953" lon="9.4599074"><ele>16.5</ele><time>2026-04-19T10:11:57.079Z</time></trkpt><trkpt lat="41.2181555" lon="9.4599664"><ele>16.666666666666668</ele><time>2026-04-19T10:11:58.079Z</time></trkpt><trkpt lat="41.2182264" lon="9.4600122"><ele>16.833333333333336</ele><time>2026-04-19T10:11:59.079Z</time></trkpt><trkpt lat="41.2182997" lon="9.4600587"><ele>17.0</ele><time>2026-04-19T10:12:00.079Z</time></trkpt><trkpt lat="41.2183641" lon="9.4601118"><ele>17.0</ele><time>2026-04-19T10:12:01.079Z</time></trkpt><trkpt lat="41.2184163" lon="9.4601677"><ele>17.0</ele><time>2026-04-19T10:12:02.078Z</time></trkpt><trkpt lat="41.2184898" lon="9.4602595"><ele>17.0</ele><time>2026-04-19T10:12:04.079Z</time></trkpt><trkpt lat="41.218588" lon="9.4603048"><ele>17.0</ele><time>2026-04-19T10:12:06.078Z</time></trkpt><trkpt lat="41.2186856" lon="9.4603296"><ele>17.0</ele><time>2026-04-19T10:12:08.079Z</time></trkpt><trkpt lat="41.2187479" lon="9.4603162"><ele>17.0</ele><time>2026-04-19T10:12:09.079Z</time></trkpt><trkpt lat="41.2188209" lon="9.4602954"><ele>17.0</ele><time>2026-04-19T10:12:10.079Z</time></trkpt><trkpt lat="41.2189069" lon="9.4602745"><ele>17.0</ele><time>2026-04-19T10:12:11.079Z</time></trkpt><trkpt lat="41.2189952" lon="9.460243"><ele>17.0</ele><time>2026-04-19T10:12:12.079Z</time></trkpt><trkpt lat="41.2190775" lon="9.4602095"><ele>17.0</ele><time>2026-04-19T10:12:13.079Z</time></trkpt><trkpt lat="41.2191541" lon="9.4601788"><ele>17.0</ele><time>2026-04-19T10:12:14.079Z</time></trkpt><trkpt lat="41.2192298" lon="9.4601508"><ele>17.0</ele><time>2026-04-19T10:12:15.079Z</time></trkpt><trkpt lat="41.2193054" lon="9.4601293"><ele>16.666666666666668</ele><time>2026-04-19T10:12:16.079Z</time></trkpt><trkpt lat="41.2193802" lon="9.4601138"><ele>16.333333333333336</ele><time>2026-04-19T10:12:17.079Z</time></trkpt><trkpt lat="41.2194532" lon="9.4600945"><ele>16.0</ele><time>2026-04-19T10:12:18.079Z</time></trkpt><trkpt lat="41.2195261" lon="9.4600804"><ele>15.666666666666668</ele><time>2026-04-19T10:12:19.079Z</time></trkpt><trkpt lat="41.2195992" lon="9.4600639"><ele>15.333333333333334</ele><time>2026-04-19T10:12:20.079Z</time></trkpt><trkpt lat="41.2196768" lon="9.4600498"><ele>15.0</ele><time>2026-04-19T10:12:21.079Z</time></trkpt><trkpt lat="41.2197552" lon="9.4600313"><ele>14.833333333333334</ele><time>2026-04-19T10:12:22.079Z</time></trkpt><trkpt lat="41.2198339" lon="9.4600083"><ele>14.666666666666668</ele><time>2026-04-19T10:12:23.078Z</time></trkpt><trkpt lat="41.2199084" lon="9.459994"><ele>14.5</ele><time>2026-04-19T10:12:24.078Z</time></trkpt><trkpt lat="41.2199758" lon="9.4599821"><ele>14.333333333333334</ele><time>2026-04-19T10:12:25.079Z</time></trkpt><trkpt lat="41.2200401" lon="9.459976"><ele>14.166666666666668</ele><time>2026-04-19T10:12:26.078Z</time></trkpt><trkpt lat="41.2201609" lon="9.4599513"><ele>14.0</ele><time>2026-04-19T10:12:28.078Z</time></trkpt><trkpt lat="41.2202236" lon="9.4599282"><ele>14.0</ele><time>2026-04-19T10:12:29.078Z</time></trkpt><trkpt lat="41.2202895" lon="9.4598973"><ele>14.0</ele><time>2026-04-19T10:12:30.079Z</time></trkpt><trkpt lat="41.2203528" lon="9.459859"><ele>14.0</ele><time>2026-04-19T10:12:31.079Z</time></trkpt><trkpt lat="41.2204191" lon="9.4598261"><ele>14.0</ele><time>2026-04-19T10:12:32.078Z</time></trkpt><trkpt lat="41.220485" lon="9.4597946"><ele>14.0</ele><time>2026-04-19T10:12:33.078Z</time></trkpt><trkpt lat="41.2205546" lon="9.4597675"><ele>14.0</ele><time>2026-04-19T10:12:34.079Z</time></trkpt><trkpt lat="41.2206282" lon="9.4597384"><ele>14.0</ele><time>2026-04-19T10:12:35.079Z</time></trkpt><trkpt lat="41.2206987" lon="9.4597045"><ele>13.714285714285714</ele><time>2026-04-19T10:12:36.079Z</time></trkpt><trkpt lat="41.220768" lon="9.4596775"><ele>13.428571428571429</ele><time>2026-04-19T10:12:37.079Z</time></trkpt><trkpt lat="41.2208455" lon="9.4596479"><ele>13.142857142857142</ele><time>2026-04-19T10:12:38.079Z</time></trkpt><trkpt lat="41.2209252" lon="9.459623"><ele>12.857142857142858</ele><time>2026-04-19T10:12:39.078Z</time></trkpt><trkpt lat="41.221001" lon="9.4595939"><ele>12.571428571428571</ele><time>2026-04-19T10:12:40.078Z</time></trkpt><trkpt lat="41.221069" lon="9.4595675"><ele>12.285714285714285</ele><time>2026-04-19T10:12:41.078Z</time></trkpt><trkpt lat="41.22113" lon="9.4595437"><ele>12.0</ele><time>2026-04-19T10:12:42.079Z</time></trkpt><trkpt lat="41.2212387" lon="9.4594951"><ele>12.0</ele><time>2026-04-19T10:12:44.078Z</time></trkpt><trkpt lat="41.2213436" lon="9.4594581"><ele>12.0</ele><time>2026-04-19T10:12:46.079Z</time></trkpt><trkpt lat="41.2214305" lon="9.4594465"><ele>12.0</ele><time>2026-04-19T10:12:48.079Z</time></trkpt><trkpt lat="41.2215144" lon="9.4594252"><ele>12.0</ele><time>2026-04-19T10:12:50.079Z</time></trkpt><trkpt lat="41.2215924" lon="9.4593809"><ele>12.0</ele><time>2026-04-19T10:12:52.079Z</time></trkpt><trkpt lat="41.2216705" lon="9.4593498"><ele>12.0</ele><time>2026-04-19T10:12:54.079Z</time></trkpt><trkpt lat="41.2217527" lon="9.4593223"><ele>11.428571428571427</ele><time>2026-04-19T10:12:56.078Z</time></trkpt><trkpt lat="41.2218302" lon="9.4592965"><ele>10.857142857142858</ele><time>2026-04-19T10:12:58.079Z</time></trkpt><trkpt lat="41.2218982" lon="9.4592774"><ele>10.285714285714285</ele><time>2026-04-19T10:13:00.078Z</time></trkpt><trkpt lat="41.2219624" lon="9.459244"><ele>9.714285714285714</ele><time>2026-04-19T10:13:02.079Z</time></trkpt><trkpt lat="41.2220335" lon="9.4591978"><ele>9.142857142857142</ele><time>2026-04-19T10:13:04.079Z</time></trkpt><trkpt lat="41.2221034" lon="9.4591845"><ele>8.571428571428571</ele><time>2026-04-19T10:13:06.079Z</time></trkpt><trkpt lat="41.2221672" lon="9.4591895"><ele>8.0</ele><time>2026-04-19T10:13:08.079Z</time></trkpt><trkpt lat="41.2222333" lon="9.4591565"><ele>8.0</ele><time>2026-04-19T10:13:11.079Z</time></trkpt><trkpt lat="41.2223023" lon="9.4591443"><ele>7.999999999999999</ele><time>2026-04-19T10:13:16.079Z</time></trkpt><trkpt lat="41.2222909" lon="9.4590303"><ele>8.0</ele><time>2026-04-19T10:13:25.079Z</time></trkpt><trkpt lat="41.2223305" lon="9.4589276"><ele>8.0</ele><time>2026-04-19T10:13:34.079Z</time></trkpt><trkpt lat="41.2223726" lon="9.4588553"><ele>7.999999999999999</ele><time>2026-04-19T10:13:36.078Z</time></trkpt><trkpt lat="41.2223818" lon="9.4587626"><ele>8.0</ele><time>2026-04-19T10:13:39.078Z</time></trkpt><trkpt lat="41.222384" lon="9.4586767"><ele>8.0</ele><time>2026-04-19T10:13:41.078Z</time></trkpt><trkpt lat="41.2224304" lon="9.4585784"><ele>7.142857142857142</ele><time>2026-04-19T10:13:44.078Z</time></trkpt><trkpt lat="41.2224787" lon="9.4585233"><ele>6.285714285714285</ele><time>2026-04-19T10:13:47.092Z</time></trkpt><trkpt lat="41.2225539" lon="9.4585189"><ele>5.428571428571428</ele><time>2026-04-19T10:13:53.078Z</time></trkpt><trkpt lat="41.2226014" lon="9.4586192"><ele>4.571428571428571</ele><time>2026-04-19T10:15:32.078Z</time></trkpt><trkpt lat="41.2226212" lon="9.4587022"><ele>3.714285714285714</ele><time>2026-04-19T10:15:34.078Z</time></trkpt><trkpt lat="41.2225977" lon="9.4588147"><ele>2.8571428571428568</ele><time>2026-04-19T10:15:37.078Z</time></trkpt><trkpt lat="41.2225463" lon="9.4588672"><ele>2.0</ele><time>2026-04-19T10:15:39.077Z</time></trkpt><trkpt lat="41.2224685" lon="9.4588584"><ele>1.8333333333333333</ele><time>2026-04-19T10:15:41.078Z</time></trkpt><trkpt lat="41.2224035" lon="9.4588519"><ele>1.6666666666666665</ele><time>2026-04-19T10:15:44.078Z</time></trkpt><trkpt lat="41.2223273" lon="9.4589073"><ele>1.5</ele><time>2026-04-19T10:15:48.078Z</time></trkpt><trkpt lat="41.2222775" lon="9.4590043"><ele>1.3333333333333333</ele><time>2026-04-19T10:15:51.078Z</time></trkpt><trkpt lat="41.2222641" lon="9.4591081"><ele>1.1666666666666665</ele><time>2026-04-19T10:15:54.078Z</time></trkpt><trkpt lat="41.2222051" lon="9.4591782"><ele>1.0</ele><time>2026-04-19T10:15:57.078Z</time></trkpt><trkpt lat="41.2221199" lon="9.4591764"><ele>2.4000000000000004</ele><time>2026-04-19T10:15:59.077Z</time></trkpt><trkpt lat="41.2220046" lon="9.4592107"><ele>3.8000000000000003</ele><time>2026-04-19T10:16:01.076Z</time></trkpt><trkpt lat="41.2219378" lon="9.4592415"><ele>5.200000000000001</ele><time>2026-04-19T10:16:02.078Z</time></trkpt><trkpt lat="41.221867" lon="9.4592672"><ele>6.6000000000000005</ele><time>2026-04-19T10:16:03.078Z</time></trkpt><trkpt lat="41.2217519" lon="9.4593143"><ele>8.0</ele><time>2026-04-19T10:16:05.078Z</time></trkpt><trkpt lat="41.2216849" lon="9.4593324"><ele>7.999999999999999</ele><time>2026-04-19T10:16:06.078Z</time></trkpt><trkpt lat="41.2216222" lon="9.4593642"><ele>8.0</ele><time>2026-04-19T10:16:07.078Z</time></trkpt><trkpt lat="41.2215481" lon="9.4593944"><ele>8.0</ele><time>2026-04-19T10:16:08.078Z</time></trkpt><trkpt lat="41.2214707" lon="9.4594173"><ele>8.0</ele><time>2026-04-19T10:16:09.078Z</time></trkpt><trkpt lat="41.2213918" lon="9.4594389"><ele>7.999999999999999</ele><time>2026-04-19T10:16:10.077Z</time></trkpt><trkpt lat="41.2213181" lon="9.4594598"><ele>8.0</ele><time>2026-04-19T10:16:11.077Z</time></trkpt><trkpt lat="41.2212468" lon="9.4594847"><ele>8.666666666666666</ele><time>2026-04-19T10:16:12.077Z</time></trkpt><trkpt lat="41.2211771" lon="9.459507"><ele>9.333333333333332</ele><time>2026-04-19T10:16:13.078Z</time></trkpt><trkpt lat="41.2211034" lon="9.4595382"><ele>10.0</ele><time>2026-04-19T10:16:14.078Z</time></trkpt><trkpt lat="41.221027" lon="9.4595664"><ele>10.666666666666666</ele><time>2026-04-19T10:16:15.078Z</time></trkpt><trkpt lat="41.2209516" lon="9.4595982"><ele>11.333333333333334</ele><time>2026-04-19T10:16:16.077Z</time></trkpt><trkpt lat="41.2208797" lon="9.4596228"><ele>12.0</ele><time>2026-04-19T10:16:17.077Z</time></trkpt><trkpt lat="41.2208069" lon="9.4596609"><ele>12.0</ele><time>2026-04-19T10:16:18.078Z</time></trkpt><trkpt lat="41.2207349" lon="9.4596994"><ele>12.0</ele><time>2026-04-19T10:16:19.078Z</time></trkpt><trkpt lat="41.2206566" lon="9.4597298"><ele>12.0</ele><time>2026-04-19T10:16:20.077Z</time></trkpt><trkpt lat="41.2205743" lon="9.4597643"><ele>12.0</ele><time>2026-04-19T10:16:21.077Z</time></trkpt><trkpt lat="41.2205007" lon="9.4597986"><ele>12.0</ele><time>2026-04-19T10:16:22.078Z</time></trkpt><trkpt lat="41.2204327" lon="9.4598308"><ele>12.0</ele><time>2026-04-19T10:16:23.078Z</time></trkpt><trkpt lat="41.2203681" lon="9.459862"><ele>12.285714285714285</ele><time>2026-04-19T10:16:24.078Z</time></trkpt><trkpt lat="41.220304" lon="9.4598971"><ele>12.571428571428571</ele><time>2026-04-19T10:16:25.078Z</time></trkpt><trkpt lat="41.2202462" lon="9.4599322"><ele>12.857142857142858</ele><time>2026-04-19T10:16:26.078Z</time></trkpt><trkpt lat="41.2201775" lon="9.459956"><ele>13.142857142857142</ele><time>2026-04-19T10:16:27.078Z</time></trkpt><trkpt lat="41.2201008" lon="9.4599697"><ele>13.428571428571429</ele><time>2026-04-19T10:16:28.078Z</time></trkpt><trkpt lat="41.2200188" lon="9.4599884"><ele>13.714285714285714</ele><time>2026-04-19T10:16:29.078Z</time></trkpt><trkpt lat="41.2199375" lon="9.4599989"><ele>14.0</ele><time>2026-04-19T10:16:30.078Z</time></trkpt><trkpt lat="41.2198578" lon="9.460004"><ele>14.166666666666668</ele><time>2026-04-19T10:16:31.078Z</time></trkpt><trkpt lat="41.2197775" lon="9.4600091"><ele>14.333333333333334</ele><time>2026-04-19T10:16:32.078Z</time></trkpt><trkpt lat="41.2196851" lon="9.4600288"><ele>14.5</ele><time>2026-04-19T10:16:33.078Z</time></trkpt><trkpt lat="41.2195972" lon="9.4600532"><ele>14.666666666666668</ele><time>2026-04-19T10:16:34.078Z</time></trkpt><trkpt lat="41.2195099" lon="9.4600829"><ele>14.833333333333334</ele><time>2026-04-19T10:16:35.078Z</time></trkpt><trkpt lat="41.2194203" lon="9.4601016"><ele>15.0</ele><time>2026-04-19T10:16:36.078Z</time></trkpt><trkpt lat="41.2193314" lon="9.4601189"><ele>15.0</ele><time>2026-04-19T10:16:37.078Z</time></trkpt><trkpt lat="41.2192478" lon="9.4601486"><ele>15.0</ele><time>2026-04-19T10:16:38.077Z</time></trkpt><trkpt lat="41.2191683" lon="9.4601876"><ele>15.0</ele><time>2026-04-19T10:16:39.078Z</time></trkpt><trkpt lat="41.2190925" lon="9.4602238"><ele>15.0</ele><time>2026-04-19T10:16:40.078Z</time></trkpt><trkpt lat="41.2190141" lon="9.460251"><ele>15.0</ele><time>2026-04-19T10:16:41.078Z</time></trkpt><trkpt lat="41.2189339" lon="9.4602742"><ele>15.0</ele><time>2026-04-19T10:16:42.078Z</time></trkpt><trkpt lat="41.218861" lon="9.4602894"><ele>15.333333333333334</ele><time>2026-04-19T10:16:43.078Z</time></trkpt><trkpt lat="41.2187925" lon="9.4603006"><ele>15.666666666666668</ele><time>2026-04-19T10:16:44.078Z</time></trkpt><trkpt lat="41.2187282" lon="9.4602995"><ele>16.0</ele><time>2026-04-19T10:16:45.077Z</time></trkpt><trkpt lat="41.21866" lon="9.4602862"><ele>16.333333333333336</ele><time>2026-04-19T10:16:46.078Z</time></trkpt><trkpt lat="41.2185944" lon="9.4602755"><ele>16.666666666666668</ele><time>2026-04-19T10:16:47.078Z</time></trkpt><trkpt lat="41.2184799" lon="9.4602074"><ele>17.0</ele><time>2026-04-19T10:16:49.078Z</time></trkpt><trkpt lat="41.2184057" lon="9.4601343"><ele>17.0</ele><time>2026-04-19T10:16:50.078Z</time></trkpt><trkpt lat="41.2183272" lon="9.4600686"><ele>17.0</ele><time>2026-04-19T10:16:51.078Z</time></trkpt><trkpt lat="41.2182506" lon="9.4600282"><ele>17.0</ele><time>2026-04-19T10:16:52.077Z</time></trkpt><trkpt lat="41.2181844" lon="9.4599763"><ele>17.0</ele><time>2026-04-19T10:16:53.077Z</time></trkpt><trkpt lat="41.2181272" lon="9.4599033"><ele>17.0</ele><time>2026-04-19T10:16:54.078Z</time></trkpt><trkpt lat="41.2180771" lon="9.4598192"><ele>17.0</ele><time>2026-04-19T10:16:55.078Z</time></trkpt><trkpt lat="41.2180437" lon="9.4597297"><ele>16.833333333333336</ele><time>2026-04-19T10:16:56.077Z</time></trkpt><trkpt lat="41.2180186" lon="9.45965"><ele>16.666666666666668</ele><time>2026-04-19T10:16:57.077Z</time></trkpt><trkpt lat="41.2179463" lon="9.4595369"><ele>16.5</ele><time>2026-04-19T10:16:59.078Z</time></trkpt><trkpt lat="41.2178805" lon="9.4595054"><ele>16.333333333333332</ele><time>2026-04-19T10:17:00.078Z</time></trkpt><trkpt lat="41.217795" lon="9.4594673"><ele>16.166666666666664</ele><time>2026-04-19T10:17:01.078Z</time></trkpt><trkpt lat="41.2176975" lon="9.4594307"><ele>16.0</ele><time>2026-04-19T10:17:02.078Z</time></trkpt><trkpt lat="41.2175962" lon="9.4594141"><ele>16.0</ele><time>2026-04-19T10:17:03.078Z</time></trkpt><trkpt lat="41.2174995" lon="9.4594067"><ele>16.0</ele><time>2026-04-19T10:17:04.078Z</time></trkpt><trkpt lat="41.2174148" lon="9.459391"><ele>16.0</ele><time>2026-04-19T10:17:05.078Z</time></trkpt><trkpt lat="41.217337" lon="9.4593532"><ele>16.0</ele><time>2026-04-19T10:17:06.078Z</time></trkpt><trkpt lat="41.2172461" lon="9.4592903"><ele>16.0</ele><time>2026-04-19T10:17:07.077Z</time></trkpt><trkpt lat="41.2171426" lon="9.4592216"><ele>15.833333333333332</ele><time>2026-04-19T10:17:08.078Z</time></trkpt><trkpt lat="41.2170489" lon="9.4591627"><ele>15.666666666666666</ele><time>2026-04-19T10:17:09.078Z</time></trkpt><trkpt lat="41.2169714" lon="9.4591157"><ele>15.5</ele><time>2026-04-19T10:17:10.078Z</time></trkpt><trkpt lat="41.2168965" lon="9.4590751"><ele>15.333333333333332</ele><time>2026-04-19T10:17:11.078Z</time></trkpt><trkpt lat="41.2168197" lon="9.4590491"><ele>15.166666666666666</ele><time>2026-04-19T10:17:12.078Z</time></trkpt><trkpt lat="41.2167359" lon="9.4590372"><ele>15.0</ele><time>2026-04-19T10:17:13.078Z</time></trkpt><trkpt lat="41.2166497" lon="9.4590335"><ele>15.0</ele><time>2026-04-19T10:17:14.078Z</time></trkpt><trkpt lat="41.2165757" lon="9.4590358"><ele>15.0</ele><time>2026-04-19T10:17:15.078Z</time></trkpt><trkpt lat="41.2164513" lon="9.4590531"><ele>15.0</ele><time>2026-04-19T10:17:17.077Z</time></trkpt><trkpt lat="41.2163846" lon="9.459058"><ele>15.0</ele><time>2026-04-19T10:17:18.077Z</time></trkpt><trkpt lat="41.2163205" lon="9.4590409"><ele>15.0</ele><time>2026-04-19T10:17:19.078Z</time></trkpt><trkpt lat="41.2162501" lon="9.4590217"><ele>15.0</ele><time>2026-04-19T10:17:20.078Z</time></trkpt><trkpt lat="41.2161816" lon="9.4590167"><ele>15.4</ele><time>2026-04-19T10:17:21.078Z</time></trkpt><trkpt lat="41.216077" lon="9.4590327"><ele>15.8</ele><time>2026-04-19T10:17:23.078Z</time></trkpt><trkpt lat="41.2159574" lon="9.4589757"><ele>16.2</ele><time>2026-04-19T10:17:25.078Z</time></trkpt><trkpt lat="41.2158902" lon="9.4588969"><ele>16.6</ele><time>2026-04-19T10:17:26.078Z</time></trkpt><trkpt lat="41.2158166" lon="9.4588133"><ele>17.0</ele><time>2026-04-19T10:17:27.078Z</time></trkpt><trkpt lat="41.2157427" lon="9.4587386"><ele>16.2</ele><time>2026-04-19T10:17:28.078Z</time></trkpt><trkpt lat="41.2156765" lon="9.4586613"><ele>15.399999999999999</ele><time>2026-04-19T10:17:29.078Z</time></trkpt><trkpt lat="41.2156182" lon="9.4585689"><ele>14.600000000000001</ele><time>2026-04-19T10:17:30.078Z</time></trkpt><trkpt lat="41.2155736" lon="9.4584505"><ele>13.8</ele><time>2026-04-19T10:17:31.078Z</time></trkpt><trkpt lat="41.2155471" lon="9.4583167"><ele>13.0</ele><time>2026-04-19T10:17:32.078Z</time></trkpt><trkpt lat="41.2155368" lon="9.458192"><ele>12.999999999999998</ele><time>2026-04-19T10:17:33.078Z</time></trkpt><trkpt lat="41.2155384" lon="9.4580799"><ele>13.0</ele><time>2026-04-19T10:17:34.078Z</time></trkpt><trkpt lat="41.2155466" lon="9.4579809"><ele>13.0</ele><time>2026-04-19T10:17:35.077Z</time></trkpt><trkpt lat="41.2155583" lon="9.4578909"><ele>13.0</ele><time>2026-04-19T10:17:36.078Z</time></trkpt><trkpt lat="41.2155766" lon="9.4578091"><ele>12.999999999999998</ele><time>2026-04-19T10:17:37.078Z</time></trkpt><trkpt lat="41.2156904" lon="9.4576973"><ele>13.0</ele><time>2026-04-19T10:17:39.077Z</time></trkpt><trkpt lat="41.2157942" lon="9.4576301"><ele>11.75</ele><time>2026-04-19T10:17:40.077Z</time></trkpt><trkpt lat="41.2159142" lon="9.4575098"><ele>10.5</ele><time>2026-04-19T10:17:41.078Z</time></trkpt><trkpt lat="41.2160229" lon="9.4573911"><ele>9.25</ele><time>2026-04-19T10:17:42.078Z</time></trkpt><trkpt lat="41.2161149" lon="9.4573063"><ele>8.0</ele><time>2026-04-19T10:17:43.078Z</time></trkpt><trkpt lat="41.2161867" lon="9.4572396"><ele>7.999999999999999</ele><time>2026-04-19T10:17:44.078Z</time></trkpt><trkpt lat="41.2162322" lon="9.4571686"><ele>8.0</ele><time>2026-04-19T10:17:45.078Z</time></trkpt><trkpt lat="41.2162458" lon="9.4570823"><ele>8.0</ele><time>2026-04-19T10:17:46.078Z</time></trkpt><trkpt lat="41.2162268" lon="9.4569797"><ele>8.0</ele><time>2026-04-19T10:17:47.078Z</time></trkpt><trkpt lat="41.2161891" lon="9.456872"><ele>7.999999999999999</ele><time>2026-04-19T10:17:48.078Z</time></trkpt><trkpt lat="41.21615" lon="9.4567697"><ele>8.0</ele><time>2026-04-19T10:17:49.077Z</time></trkpt><trkpt lat="41.21612" lon="9.4566734"><ele>7.499999999999999</ele><time>2026-04-19T10:17:50.077Z</time></trkpt><trkpt lat="41.21609" lon="9.4565839"><ele>7.0</ele><time>2026-04-19T10:17:51.078Z</time></trkpt><trkpt lat="41.216058" lon="9.4565009"><ele>6.5</ele><time>2026-04-19T10:17:52.078Z</time></trkpt><trkpt lat="41.2160284" lon="9.4564208"><ele>6.0</ele><time>2026-04-19T10:17:53.076Z</time></trkpt><trkpt lat="41.2160019" lon="9.4563323"><ele>5.5</ele><time>2026-04-19T10:17:54.078Z</time></trkpt><trkpt lat="41.2159799" lon="9.4562322"><ele>5.0</ele><time>2026-04-19T10:17:55.078Z</time></trkpt><trkpt lat="41.2159727" lon="9.4561128"><ele>4.75</ele><time>2026-04-19T10:17:56.078Z</time></trkpt><trkpt lat="41.2159762" lon="9.4559633"><ele>4.5</ele><time>2026-04-19T10:17:57.078Z</time></trkpt><trkpt lat="41.2159819" lon="9.4557974"><ele>4.25</ele><time>2026-04-19T10:17:58.077Z</time></trkpt><trkpt lat="41.2159933" lon="9.4556361"><ele>4.0</ele><time>2026-04-19T10:17:59.077Z</time></trkpt><trkpt lat="41.2160096" lon="9.455491"><ele>4.0</ele><time>2026-04-19T10:18:00.077Z</time></trkpt><trkpt lat="41.2160215" lon="9.4553599"><ele>4.0</ele><time>2026-04-19T10:18:01.077Z</time></trkpt><trkpt lat="41.2160382" lon="9.4552376"><ele>4.0</ele><time>2026-04-19T10:18:02.078Z</time></trkpt><trkpt lat="41.2160558" lon="9.455122"><ele>4.0</ele><time>2026-04-19T10:18:03.078Z</time></trkpt><trkpt lat="41.216059" lon="9.4550008"><ele>4.0</ele><time>2026-04-19T10:18:04.078Z</time></trkpt><trkpt lat="41.2160613" lon="9.4548723"><ele>4.0</ele><time>2026-04-19T10:18:05.078Z</time></trkpt><trkpt lat="41.2160476" lon="9.4547453"><ele>4.0</ele><time>2026-04-19T10:18:06.078Z</time></trkpt><trkpt lat="41.2160285" lon="9.4546241"><ele>4.0</ele><time>2026-04-19T10:18:07.077Z</time></trkpt><trkpt lat="41.2159996" lon="9.4545008"><ele>4.0</ele><time>2026-04-19T10:18:08.078Z</time></trkpt><trkpt lat="41.2159584" lon="9.4543643"><ele>4.0</ele><time>2026-04-19T10:18:09.078Z</time></trkpt><trkpt lat="41.2158914" lon="9.4542186"><ele>4.0</ele><time>2026-04-19T10:18:10.078Z</time></trkpt><trkpt lat="41.2158053" lon="9.4540762"><ele>4.0</ele><time>2026-04-19T10:18:11.078Z</time></trkpt><trkpt lat="41.2157234" lon="9.4539594"><ele>4.0</ele><time>2026-04-19T10:18:12.078Z</time></trkpt><trkpt lat="41.2156592" lon="9.4538547"><ele>4.0</ele><time>2026-04-19T10:18:13.078Z</time></trkpt><trkpt lat="41.2156045" lon="9.4537516"><ele>4.6</ele><time>2026-04-19T10:18:14.078Z</time></trkpt><trkpt lat="41.2155503" lon="9.4536393"><ele>5.2</ele><time>2026-04-19T10:18:15.078Z</time></trkpt><trkpt lat="41.2155063" lon="9.4535074"><ele>5.799999999999999</ele><time>2026-04-19T10:18:16.078Z</time></trkpt><trkpt lat="41.2154592" lon="9.4533751"><ele>6.3999999999999995</ele><time>2026-04-19T10:18:17.078Z</time></trkpt><trkpt lat="41.215413" lon="9.4532367"><ele>7.0</ele><time>2026-04-19T10:18:18.078Z</time></trkpt><trkpt lat="41.215361" lon="9.4530943"><ele>6.75</ele><time>2026-04-19T10:18:19.078Z</time></trkpt><trkpt lat="41.2153173" lon="9.4529527"><ele>6.5</ele><time>2026-04-19T10:18:20.078Z</time></trkpt><trkpt lat="41.2152733" lon="9.4528165"><ele>6.25</ele><time>2026-04-19T10:18:21.078Z</time></trkpt><trkpt lat="41.2152413" lon="9.4526759"><ele>6.0</ele><time>2026-04-19T10:18:22.078Z</time></trkpt><trkpt lat="41.2152199" lon="9.4525263"><ele>6.0</ele><time>2026-04-19T10:18:23.078Z</time></trkpt><trkpt lat="41.2152035" lon="9.4523918"><ele>6.0</ele><time>2026-04-19T10:18:24.078Z</time></trkpt><trkpt lat="41.2151895" lon="9.4522644"><ele>6.0</ele><time>2026-04-19T10:18:25.078Z</time></trkpt><trkpt lat="41.2151842" lon="9.4521499"><ele>6.0</ele><time>2026-04-19T10:18:26.078Z</time></trkpt><trkpt lat="41.2151752" lon="9.4520424"><ele>6.0</ele><time>2026-04-19T10:18:27.078Z</time></trkpt><trkpt lat="41.215169" lon="9.4519437"><ele>6.0</ele><time>2026-04-19T10:18:28.078Z</time></trkpt><trkpt lat="41.215158" lon="9.4518523"><ele>6.0</ele><time>2026-04-19T10:18:29.078Z</time></trkpt><trkpt lat="41.2151469" lon="9.4517667"><ele>6.0</ele><time>2026-04-19T10:18:30.077Z</time></trkpt><trkpt lat="41.2151279" lon="9.4516796"><ele>6.0</ele><time>2026-04-19T10:18:31.078Z</time></trkpt><trkpt lat="41.2150987" lon="9.4515923"><ele>6.0</ele><time>2026-04-19T10:18:32.078Z</time></trkpt><trkpt lat="41.2150733" lon="9.4515101"><ele>6.0</ele><time>2026-04-19T10:18:33.078Z</time></trkpt><trkpt lat="41.2150216" lon="9.4513613"><ele>6.0</ele><time>2026-04-19T10:18:35.077Z</time></trkpt><trkpt lat="41.2149756" lon="9.4512006"><ele>6.0</ele><time>2026-04-19T10:18:37.078Z</time></trkpt><trkpt lat="41.2149541" lon="9.4511051"><ele>6.0</ele><time>2026-04-19T10:18:38.077Z</time></trkpt><trkpt lat="41.2149325" lon="9.4510086"><ele>6.0</ele><time>2026-04-19T10:18:39.076Z</time></trkpt><trkpt lat="41.2149177" lon="9.4509141"><ele>6.0</ele><time>2026-04-19T10:18:40.076Z</time></trkpt><trkpt lat="41.2149068" lon="9.4508274"><ele>6.0</ele><time>2026-04-19T10:18:41.077Z</time></trkpt><trkpt lat="41.2148805" lon="9.450695"><ele>6.0</ele><time>2026-04-19T10:18:43.077Z</time></trkpt><trkpt lat="41.2148177" lon="9.4506653"><ele>6.0</ele><time>2026-04-19T10:18:45.076Z</time></trkpt><trkpt lat="41.214776" lon="9.4507602"><ele>6.0</ele><time>2026-04-19T10:18:48.076Z</time></trkpt><trkpt lat="41.214759" lon="9.4508599"><ele>6.0</ele><time>2026-04-19T10:18:49.077Z</time></trkpt><trkpt lat="41.2147364" lon="9.4509762"><ele>6.0</ele><time>2026-04-19T10:18:50.077Z</time></trkpt><trkpt lat="41.2147163" lon="9.4511096"><ele>6.0</ele><time>2026-04-19T10:18:51.077Z</time></trkpt><trkpt lat="41.2146936" lon="9.4512574"><ele>6.5</ele><time>2026-04-19T10:18:52.077Z</time></trkpt><trkpt lat="41.214669" lon="9.451418"><ele>7.0</ele><time>2026-04-19T10:18:53.077Z</time></trkpt><trkpt lat="41.2146459" lon="9.4515863"><ele>7.5</ele><time>2026-04-19T10:18:54.077Z</time></trkpt><trkpt lat="41.2146227" lon="9.45175"><ele>8.0</ele><time>2026-04-19T10:18:55.077Z</time></trkpt><trkpt lat="41.2145966" lon="9.4519218"><ele>9.0</ele><time>2026-04-19T10:18:56.076Z</time></trkpt><trkpt lat="41.2145469" lon="9.4522663"><ele>10.0</ele><time>2026-04-19T10:18:58.077Z</time></trkpt><trkpt lat="41.2145188" lon="9.4524444"><ele>11.0</ele><time>2026-04-19T10:18:59.077Z</time></trkpt><trkpt lat="41.2144937" lon="9.4526139"><ele>11.0</ele><time>2026-04-19T10:19:00.077Z</time></trkpt><trkpt lat="41.2144656" lon="9.4527847"><ele>11.0</ele><time>2026-04-19T10:19:01.077Z</time></trkpt><trkpt lat="41.2144392" lon="9.452955"><ele>11.0</ele><time>2026-04-19T10:19:02.077Z</time></trkpt><trkpt lat="41.2144098" lon="9.4531263"><ele>11.0</ele><time>2026-04-19T10:19:03.077Z</time></trkpt><trkpt lat="41.2143717" lon="9.4533013"><ele>11.0</ele><time>2026-04-19T10:19:04.076Z</time></trkpt><trkpt lat="41.2143201" lon="9.453473"><ele>11.0</ele><time>2026-04-19T10:19:05.076Z</time></trkpt><trkpt lat="41.2142559" lon="9.4536366"><ele>11.0</ele><time>2026-04-19T10:19:06.077Z</time></trkpt><trkpt lat="41.2141884" lon="9.45379"><ele>11.0</ele><time>2026-04-19T10:19:07.077Z</time></trkpt><trkpt lat="41.2141134" lon="9.4539291"><ele>10.75</ele><time>2026-04-19T10:19:08.077Z</time></trkpt><trkpt lat="41.2140326" lon="9.4540556"><ele>10.5</ele><time>2026-04-19T10:19:09.077Z</time></trkpt><trkpt lat="41.2139359" lon="9.4541623"><ele>10.25</ele><time>2026-04-19T10:19:10.076Z</time></trkpt><trkpt lat="41.2138084" lon="9.4542573"><ele>10.0</ele><time>2026-04-19T10:19:11.076Z</time></trkpt><trkpt lat="41.2136858" lon="9.4543569"><ele>11.666666666666668</ele><time>2026-04-19T10:19:12.077Z</time></trkpt><trkpt lat="41.2135492" lon="9.4544301"><ele>13.333333333333334</ele><time>2026-04-19T10:19:13.076Z</time></trkpt><trkpt lat="41.2134109" lon="9.4545082"><ele>15.0</ele><time>2026-04-19T10:19:14.076Z</time></trkpt><trkpt lat="41.2132622" lon="9.454587"><ele>14.333333333333332</ele><time>2026-04-19T10:19:15.076Z</time></trkpt><trkpt lat="41.2131136" lon="9.454654"><ele>13.666666666666666</ele><time>2026-04-19T10:19:16.077Z</time></trkpt><trkpt lat="41.2129634" lon="9.4547221"><ele>13.0</ele><time>2026-04-19T10:19:17.076Z</time></trkpt><trkpt lat="41.2128126" lon="9.4547973"><ele>13.0</ele><time>2026-04-19T10:19:18.076Z</time></trkpt><trkpt lat="41.2126733" lon="9.4548671"><ele>13.0</ele><time>2026-04-19T10:19:19.077Z</time></trkpt><trkpt lat="41.2125417" lon="9.4549285"><ele>13.0</ele><time>2026-04-19T10:19:20.077Z</time></trkpt><trkpt lat="41.2124142" lon="9.4549941"><ele>13.0</ele><time>2026-04-19T10:19:21.077Z</time></trkpt><trkpt lat="41.2122905" lon="9.4550459"><ele>13.5</ele><time>2026-04-19T10:19:22.077Z</time></trkpt><trkpt lat="41.2121734" lon="9.455109"><ele>14.0</ele><time>2026-04-19T10:19:23.077Z</time></trkpt><trkpt lat="41.212053" lon="9.4551663"><ele>14.5</ele><time>2026-04-19T10:19:24.077Z</time></trkpt><trkpt lat="41.211922" lon="9.4552252"><ele>15.0</ele><time>2026-04-19T10:19:25.077Z</time></trkpt><trkpt lat="41.2118011" lon="9.4552856"><ele>15.0</ele><time>2026-04-19T10:19:26.076Z</time></trkpt><trkpt lat="41.2116805" lon="9.4553389"><ele>15.0</ele><time>2026-04-19T10:19:27.077Z</time></trkpt><trkpt lat="41.211544" lon="9.4554009"><ele>15.0</ele><time>2026-04-19T10:19:28.077Z</time></trkpt><trkpt lat="41.2114266" lon="9.4554574"><ele>15.0</ele><time>2026-04-19T10:19:29.077Z</time></trkpt><trkpt lat="41.2113127" lon="9.4555129"><ele>16.0</ele><time>2026-04-19T10:19:30.077Z</time></trkpt><trkpt lat="41.2112129" lon="9.4555699"><ele>17.0</ele><time>2026-04-19T10:19:31.077Z</time></trkpt><trkpt lat="41.2111139" lon="9.4556156"><ele>18.0</ele><time>2026-04-19T10:19:32.077Z</time></trkpt><trkpt lat="41.2110054" lon="9.4556699"><ele>19.0</ele><time>2026-04-19T10:19:33.077Z</time></trkpt><trkpt lat="41.2109026" lon="9.4557204"><ele>20.0</ele><time>2026-04-19T10:19:34.077Z</time></trkpt><trkpt lat="41.2108171" lon="9.4557814"><ele>20.0</ele><time>2026-04-19T10:19:35.077Z</time></trkpt><trkpt lat="41.2107352" lon="9.4558479"><ele>20.0</ele><time>2026-04-19T10:19:36.077Z</time></trkpt><trkpt lat="41.2106552" lon="9.4559349"><ele>20.0</ele><time>2026-04-19T10:19:37.077Z</time></trkpt><trkpt lat="41.2106112" lon="9.4560664"><ele>20.0</ele><time>2026-04-19T10:19:39.076Z</time></trkpt><trkpt lat="41.2105188" lon="9.4561657"><ele>20.0</ele><time>2026-04-19T10:19:41.076Z</time></trkpt><trkpt lat="41.2104427" lon="9.456184"><ele>20.666666666666668</ele><time>2026-04-19T10:19:42.076Z</time></trkpt><trkpt lat="41.2103568" lon="9.456186"><ele>21.333333333333336</ele><time>2026-04-19T10:19:43.076Z</time></trkpt><trkpt lat="41.2102628" lon="9.4562041"><ele>22.0</ele><time>2026-04-19T10:19:44.077Z</time></trkpt><trkpt lat="41.2101792" lon="9.4562142"><ele>22.666666666666668</ele><time>2026-04-19T10:19:45.077Z</time></trkpt><trkpt lat="41.2100911" lon="9.4562115"><ele>23.333333333333332</ele><time>2026-04-19T10:19:46.077Z</time></trkpt><trkpt lat="41.2099969" lon="9.4562204"><ele>24.0</ele><time>2026-04-19T10:19:47.077Z</time></trkpt><trkpt lat="41.2099283" lon="9.4562409"><ele>24.0</ele><time>2026-04-19T10:19:48.077Z</time></trkpt><trkpt lat="41.2098433" lon="9.4562707"><ele>24.0</ele><time>2026-04-19T10:19:50.077Z</time></trkpt><trkpt lat="41.2097678" lon="9.4562784"><ele>24.0</ele><time>2026-04-19T10:19:52.077Z</time></trkpt><trkpt lat="41.2096519" lon="9.4563033"><ele>24.0</ele><time>2026-04-19T10:19:54.076Z</time></trkpt><trkpt lat="41.2095484" lon="9.4563065"><ele>24.0</ele><time>2026-04-19T10:19:56.077Z</time></trkpt><trkpt lat="41.209432" lon="9.4562793"><ele>23.833333333333332</ele><time>2026-04-19T10:19:58.077Z</time></trkpt><trkpt lat="41.2093658" lon="9.4562638"><ele>23.666666666666668</ele><time>2026-04-19T10:19:59.076Z</time></trkpt><trkpt lat="41.2093019" lon="9.4562459"><ele>23.5</ele><time>2026-04-19T10:20:00.077Z</time></trkpt><trkpt lat="41.20924" lon="9.4562302"><ele>23.333333333333336</ele><time>2026-04-19T10:20:01.077Z</time></trkpt><trkpt lat="41.2091165" lon="9.456207"><ele>23.166666666666668</ele><time>2026-04-19T10:20:03.076Z</time></trkpt><trkpt lat="41.2090541" lon="9.4561638"><ele>23.0</ele><time>2026-04-19T10:20:04.076Z</time></trkpt><trkpt lat="41.2089605" lon="9.4560869"><ele>22.833333333333336</ele><time>2026-04-19T10:20:06.077Z</time></trkpt><trkpt lat="41.2088976" lon="9.4560469"><ele>22.666666666666668</ele><time>2026-04-19T10:20:07.077Z</time></trkpt><trkpt lat="41.2088375" lon="9.4559493"><ele>22.5</ele><time>2026-04-19T10:20:08.077Z</time></trkpt><trkpt lat="41.2087898" lon="9.4558661"><ele>22.333333333333332</ele><time>2026-04-19T10:20:09.077Z</time></trkpt><trkpt lat="41.2087439" lon="9.4557645"><ele>22.166666666666664</ele><time>2026-04-19T10:20:10.077Z</time></trkpt><trkpt lat="41.2086646" lon="9.4556914"><ele>22.0</ele><time>2026-04-19T10:20:11.077Z</time></trkpt><trkpt lat="41.2086027" lon="9.4556182"><ele>22.0</ele><time>2026-04-19T10:20:12.077Z</time></trkpt><trkpt lat="41.2085482" lon="9.4555277"><ele>22.0</ele><time>2026-04-19T10:20:13.077Z</time></trkpt><trkpt lat="41.2084945" lon="9.4554561"><ele>22.0</ele><time>2026-04-19T10:20:14.077Z</time></trkpt><trkpt lat="41.2084411" lon="9.4553746"><ele>22.0</ele><time>2026-04-19T10:20:15.077Z</time></trkpt><trkpt lat="41.2083718" lon="9.4553103"><ele>22.0</ele><time>2026-04-19T10:20:16.077Z</time></trkpt><trkpt lat="41.2083109" lon="9.4552178"><ele>22.0</ele><time>2026-04-19T10:20:17.077Z</time></trkpt><trkpt lat="41.2082599" lon="9.4551262"><ele>21.666666666666664</ele><time>2026-04-19T10:20:18.077Z</time></trkpt><trkpt lat="41.2081964" lon="9.4550405"><ele>21.333333333333332</ele><time>2026-04-19T10:20:19.077Z</time></trkpt><trkpt lat="41.2081549" lon="9.4549607"><ele>21.0</ele><time>2026-04-19T10:20:20.077Z</time></trkpt><trkpt lat="41.2081201" lon="9.454876"><ele>20.666666666666668</ele><time>2026-04-19T10:20:21.077Z</time></trkpt><trkpt lat="41.2080771" lon="9.454782"><ele>20.333333333333336</ele><time>2026-04-19T10:20:22.077Z</time></trkpt><trkpt lat="41.2080372" lon="9.4546973"><ele>20.0</ele><time>2026-04-19T10:20:23.076Z</time></trkpt><trkpt lat="41.2080093" lon="9.4546219"><ele>19.142857142857142</ele><time>2026-04-19T10:20:24.077Z</time></trkpt><trkpt lat="41.2079756" lon="9.4545477"><ele>18.285714285714285</ele><time>2026-04-19T10:20:25.076Z</time></trkpt><trkpt lat="41.2079331" lon="9.4544566"><ele>17.42857142857143</ele><time>2026-04-19T10:20:26.077Z</time></trkpt><trkpt lat="41.2078877" lon="9.4543909"><ele>16.57142857142857</ele><time>2026-04-19T10:20:27.077Z</time></trkpt><trkpt lat="41.2078304" lon="9.4543381"><ele>15.714285714285715</ele><time>2026-04-19T10:20:28.077Z</time></trkpt><trkpt lat="41.2077677" lon="9.4542897"><ele>14.857142857142858</ele><time>2026-04-19T10:20:29.077Z</time></trkpt><trkpt lat="41.207708" lon="9.4542552"><ele>14.0</ele><time>2026-04-19T10:20:30.077Z</time></trkpt><trkpt lat="41.2076413" lon="9.4541711"><ele>14.000000000000002</ele><time>2026-04-19T10:20:31.076Z</time></trkpt><trkpt lat="41.2075878" lon="9.4541159"><ele>14.0</ele><time>2026-04-19T10:20:32.076Z</time></trkpt><trkpt lat="41.2075342" lon="9.4540481"><ele>14.0</ele><time>2026-04-19T10:20:33.077Z</time></trkpt><trkpt lat="41.2074855" lon="9.4539841"><ele>14.0</ele><time>2026-04-19T10:20:34.077Z</time></trkpt><trkpt lat="41.2074389" lon="9.4539209"><ele>14.000000000000002</ele><time>2026-04-19T10:20:35.077Z</time></trkpt><trkpt lat="41.2073937" lon="9.4538618"><ele>14.0</ele><time>2026-04-19T10:20:36.077Z</time></trkpt><trkpt lat="41.207315" lon="9.4537578"><ele>13.833333333333334</ele><time>2026-04-19T10:20:38.077Z</time></trkpt><trkpt lat="41.2072493" lon="9.4536618"><ele>13.666666666666668</ele><time>2026-04-19T10:20:40.077Z</time></trkpt><trkpt lat="41.2072076" lon="9.4535828"><ele>13.5</ele><time>2026-04-19T10:20:42.077Z</time></trkpt><trkpt lat="41.2072084" lon="9.4534817"><ele>13.333333333333332</ele><time>2026-04-19T10:21:23.077Z</time></trkpt><trkpt lat="41.207212" lon="9.4533695"><ele>13.166666666666666</ele><time>2026-04-19T10:21:27.077Z</time></trkpt><trkpt lat="41.2072289" lon="9.453259"><ele>13.0</ele><time>2026-04-19T10:21:30.077Z</time></trkpt><trkpt lat="41.2072425" lon="9.4531733"><ele>13.0</ele><time>2026-04-19T10:21:32.077Z</time></trkpt><trkpt lat="41.2072563" lon="9.4530868"><ele>13.0</ele><time>2026-04-19T10:21:34.077Z</time></trkpt><trkpt lat="41.2072719" lon="9.4530017"><ele>13.0</ele><time>2026-04-19T10:21:36.077Z</time></trkpt><trkpt lat="41.2072788" lon="9.4529182"><ele>13.0</ele><time>2026-04-19T10:21:38.076Z</time></trkpt><trkpt lat="41.2073012" lon="9.4528243"><ele>13.0</ele><time>2026-04-19T10:21:41.076Z</time></trkpt><trkpt lat="41.2072712" lon="9.4527266"><ele>13.0</ele><time>2026-04-19T10:21:45.094Z</time></trkpt><trkpt lat="41.2071799" lon="9.4527033"><ele>13.0</ele><time>2026-04-19T10:21:47.093Z</time></trkpt><trkpt lat="41.2071003" lon="9.4526834"><ele>11.999999999999998</ele><time>2026-04-19T10:21:50.086Z</time></trkpt><trkpt lat="41.2070192" lon="9.4526356"><ele>11.0</ele><time>2026-04-19T10:21:52.077Z</time></trkpt><trkpt lat="41.2069412" lon="9.4525889"><ele>10.0</ele><time>2026-04-19T10:21:54.077Z</time></trkpt><trkpt lat="41.2068747" lon="9.4525244"><ele>9.0</ele><time>2026-04-19T10:21:56.076Z</time></trkpt><trkpt lat="41.2068116" lon="9.4524829"><ele>8.0</ele><time>2026-04-19T10:21:58.09Z</time></trkpt><trkpt lat="41.2067556" lon="9.4524339"><ele>7.0</ele><time>2026-04-19T10:22:00.077Z</time></trkpt><trkpt lat="41.2066287" lon="9.4524243"><ele>6.199999999999999</ele><time>2026-04-19T10:22:02.077Z</time></trkpt><trkpt lat="41.2064753" lon="9.4524637"><ele>5.3999999999999995</ele><time>2026-04-19T10:22:04.076Z</time></trkpt><trkpt lat="41.2064082" lon="9.4524953"><ele>4.6</ele><time>2026-04-19T10:22:05.076Z</time></trkpt><trkpt lat="41.2063488" lon="9.4525309"><ele>3.8</ele><time>2026-04-19T10:22:06.076Z</time></trkpt><trkpt lat="41.2062419" lon="9.4526126"><ele>3.0</ele><time>2026-04-19T10:22:08.077Z</time></trkpt><trkpt lat="41.2061357" lon="9.4526882"><ele>3.0</ele><time>2026-04-19T10:22:10.077Z</time></trkpt><trkpt lat="41.2060434" lon="9.4527606"><ele>3.0</ele><time>2026-04-19T10:22:12.077Z</time></trkpt><trkpt lat="41.2059713" lon="9.4528461"><ele>3.0</ele><time>2026-04-19T10:22:14.077Z</time></trkpt><trkpt lat="41.2059234" lon="9.4529457"><ele>3.0</ele><time>2026-04-19T10:22:16.076Z</time></trkpt><trkpt lat="41.2059008" lon="9.4530746"><ele>3.0</ele><time>2026-04-19T10:22:18.077Z</time></trkpt><trkpt lat="41.2059054" lon="9.4532141"><ele>3.0</ele><time>2026-04-19T10:22:20.077Z</time></trkpt><trkpt lat="41.2059417" lon="9.4533603"><ele>3.0</ele><time>2026-04-19T10:22:22.077Z</time></trkpt><trkpt lat="41.2059599" lon="9.4534456"><ele>3.0</ele><time>2026-04-19T10:22:23.077Z</time></trkpt><trkpt lat="41.2059829" lon="9.4535424"><ele>3.0</ele><time>2026-04-19T10:22:24.077Z</time></trkpt><trkpt lat="41.2060153" lon="9.4536497"><ele>3.0</ele><time>2026-04-19T10:22:25.077Z</time></trkpt><trkpt lat="41.2060498" lon="9.4537677"><ele>3.0</ele><time>2026-04-19T10:22:26.076Z</time></trkpt><trkpt lat="41.2060838" lon="9.4538967"><ele>3.0</ele><time>2026-04-19T10:22:27.076Z</time></trkpt><trkpt lat="41.2061136" lon="9.4540196"><ele>3.0</ele><time>2026-04-19T10:22:28.077Z</time></trkpt><trkpt lat="41.2061392" lon="9.4541331"><ele>3.0</ele><time>2026-04-19T10:22:29.077Z</time></trkpt><trkpt lat="41.2061636" lon="9.4542403"><ele>3.0</ele><time>2026-04-19T10:22:30.077Z</time></trkpt><trkpt lat="41.2061899" lon="9.4543622"><ele>3.0</ele><time>2026-04-19T10:22:31.076Z</time></trkpt><trkpt lat="41.2062152" lon="9.4544755"><ele>3.0</ele><time>2026-04-19T10:22:32.077Z</time></trkpt><trkpt lat="41.2062439" lon="9.4545637"><ele>3.0</ele><time>2026-04-19T10:22:34.077Z</time></trkpt><trkpt lat="41.2062623" lon="9.4546531"><ele>3.0</ele><time>2026-04-19T10:22:36.077Z</time></trkpt><trkpt lat="41.2062851" lon="9.4547668"><ele>3.0</ele><time>2026-04-19T10:22:38.077Z</time></trkpt><trkpt lat="41.2063242" lon="9.4548455"><ele>3.0</ele><time>2026-04-19T10:22:40.077Z</time></trkpt><trkpt lat="41.2063801" lon="9.4549713"><ele>3.0</ele><time>2026-04-19T10:22:42.077Z</time></trkpt><trkpt lat="41.2064075" lon="9.4550882"><ele>3.1666666666666665</ele><time>2026-04-19T10:22:44.077Z</time></trkpt><trkpt lat="41.2063631" lon="9.4551574"><ele>3.333333333333333</ele><time>2026-04-19T10:22:46.077Z</time></trkpt><trkpt lat="41.2062774" lon="9.4552225"><ele>3.5</ele><time>2026-04-19T10:22:48.077Z</time></trkpt><trkpt lat="41.2062192" lon="9.4552604"><ele>3.6666666666666665</ele><time>2026-04-19T10:22:49.077Z</time></trkpt><trkpt lat="41.2061524" lon="9.4552869"><ele>3.833333333333333</ele><time>2026-04-19T10:22:50.076Z</time></trkpt><trkpt lat="41.2060682" lon="9.4553042"><ele>4.0</ele><time>2026-04-19T10:22:51.077Z</time></trkpt><trkpt lat="41.2059898" lon="9.4553028"><ele>4.0</ele><time>2026-04-19T10:22:52.076Z</time></trkpt><trkpt lat="41.2059231" lon="9.4552968"><ele>4.0</ele><time>2026-04-19T10:22:53.077Z</time></trkpt><trkpt lat="41.2058181" lon="9.455307"><ele>4.0</ele><time>2026-04-19T10:22:55.077Z</time></trkpt><trkpt lat="41.2057188" lon="9.4553722"><ele>4.0</ele><time>2026-04-19T10:22:57.077Z</time></trkpt><trkpt lat="41.2056251" lon="9.4554743"><ele>4.0</ele><time>2026-04-19T10:22:59.077Z</time></trkpt><trkpt lat="41.2055549" lon="9.4555894"><ele>3.333333333333333</ele><time>2026-04-19T10:23:01.076Z</time></trkpt><trkpt lat="41.2054922" lon="9.4556807"><ele>2.6666666666666665</ele><time>2026-04-19T10:23:03.077Z</time></trkpt><trkpt lat="41.2054373" lon="9.4557342"><ele>2.0</ele><time>2026-04-19T10:23:05.077Z</time></trkpt><trkpt lat="41.2053606" lon="9.4557614"><ele>1.3333333333333333</ele><time>2026-04-19T10:23:07.077Z</time></trkpt><trkpt lat="41.205243" lon="9.4557515"><ele>0.6666666666666666</ele><time>2026-04-19T10:23:09.077Z</time></trkpt><trkpt lat="41.2051761" lon="9.4557422"><ele>0.0</ele><time>2026-04-19T10:23:10.077Z</time></trkpt><trkpt lat="41.2050617" lon="9.4557159"><ele>0.0</ele><time>2026-04-19T10:23:12.077Z</time></trkpt><trkpt lat="41.2049603" lon="9.455683"><ele>0.0</ele><time>2026-04-19T10:23:14.077Z</time></trkpt><trkpt lat="41.2048495" lon="9.4556246"><ele>0.0</ele><time>2026-04-19T10:23:16.077Z</time></trkpt><trkpt lat="41.2047813" lon="9.4555905"><ele>0.0</ele><time>2026-04-19T10:23:17.077Z</time></trkpt><trkpt lat="41.2047156" lon="9.4555578"><ele>0.0</ele><time>2026-04-19T10:23:18.076Z</time></trkpt><trkpt lat="41.2046524" lon="9.4555341"><ele>0.0</ele><time>2026-04-19T10:23:19.077Z</time></trkpt><trkpt lat="41.2045827" lon="9.4555266"><ele>0.16666666666666666</ele><time>2026-04-19T10:23:20.077Z</time></trkpt><trkpt lat="41.2045048" lon="9.4555301"><ele>0.3333333333333333</ele><time>2026-04-19T10:23:21.077Z</time></trkpt><trkpt lat="41.2044163" lon="9.4555505"><ele>0.5</ele><time>2026-04-19T10:23:22.077Z</time></trkpt><trkpt lat="41.2043212" lon="9.4555662"><ele>0.6666666666666666</ele><time>2026-04-19T10:23:23.076Z</time></trkpt><trkpt lat="41.2042318" lon="9.4555716"><ele>0.8333333333333333</ele><time>2026-04-19T10:23:24.077Z</time></trkpt><trkpt lat="41.2041445" lon="9.4555726"><ele>1.0</ele><time>2026-04-19T10:23:25.077Z</time></trkpt><trkpt lat="41.2040512" lon="9.455573"><ele>1.6666666666666665</ele><time>2026-04-19T10:23:26.077Z</time></trkpt><trkpt lat="41.203951" lon="9.4555729"><ele>2.3333333333333335</ele><time>2026-04-19T10:23:27.077Z</time></trkpt><trkpt lat="41.2038687" lon="9.4555723"><ele>3.0</ele><time>2026-04-19T10:23:28.077Z</time></trkpt><trkpt lat="41.2037864" lon="9.4555731"><ele>3.666666666666667</ele><time>2026-04-19T10:23:29.077Z</time></trkpt><trkpt lat="41.2037167" lon="9.4556006"><ele>4.333333333333334</ele><time>2026-04-19T10:23:30.077Z</time></trkpt><trkpt lat="41.2036467" lon="9.4556278"><ele>5.0</ele><time>2026-04-19T10:23:31.077Z</time></trkpt><trkpt lat="41.2035681" lon="9.4556617"><ele>5.0</ele><time>2026-04-19T10:23:32.077Z</time></trkpt><trkpt lat="41.2034899" lon="9.4557077"><ele>5.0</ele><time>2026-04-19T10:23:33.076Z</time></trkpt><trkpt lat="41.2034245" lon="9.4557482"><ele>5.0</ele><time>2026-04-19T10:23:34.077Z</time></trkpt><trkpt lat="41.203364" lon="9.4557948"><ele>5.0</ele><time>2026-04-19T10:23:35.077Z</time></trkpt><trkpt lat="41.2033089" lon="9.4558419"><ele>5.0</ele><time>2026-04-19T10:23:36.077Z</time></trkpt><trkpt lat="41.2032424" lon="9.4559609"><ele>5.0</ele><time>2026-04-19T10:23:38.077Z</time></trkpt><trkpt lat="41.2032023" lon="9.4560273"><ele>4.6</ele><time>2026-04-19T10:23:39.077Z</time></trkpt><trkpt lat="41.2031363" lon="9.4561611"><ele>4.2</ele><time>2026-04-19T10:23:41.077Z</time></trkpt><trkpt lat="41.2030885" lon="9.456239"><ele>3.8</ele><time>2026-04-19T10:23:42.077Z</time></trkpt><trkpt lat="41.2030425" lon="9.4562985"><ele>3.4</ele><time>2026-04-19T10:23:43.077Z</time></trkpt><trkpt lat="41.2029968" lon="9.4563562"><ele>3.0</ele><time>2026-04-19T10:23:44.077Z</time></trkpt><trkpt lat="41.2028753" lon="9.4564096"><ele>3.0</ele><time>2026-04-19T10:23:46.076Z</time></trkpt><trkpt lat="41.2028037" lon="9.4564177"><ele>3.0</ele><time>2026-04-19T10:23:47.076Z</time></trkpt><trkpt lat="41.2027383" lon="9.4564406"><ele>3.0</ele><time>2026-04-19T10:23:48.076Z</time></trkpt><trkpt lat="41.2026778" lon="9.456479"><ele>3.0</ele><time>2026-04-19T10:23:49.077Z</time></trkpt><trkpt lat="41.202607" lon="9.4565273"><ele>3.0</ele><time>2026-04-19T10:23:50.076Z</time></trkpt><trkpt lat="41.2025217" lon="9.456576"><ele>3.0</ele><time>2026-04-19T10:23:51.076Z</time></trkpt><trkpt lat="41.2024439" lon="9.4566302"><ele>3.0</ele><time>2026-04-19T10:23:52.077Z</time></trkpt><trkpt lat="41.2023841" lon="9.4566846"><ele>3.0</ele><time>2026-04-19T10:23:53.077Z</time></trkpt><trkpt lat="41.2023285" lon="9.456734"><ele>3.0</ele><time>2026-04-19T10:23:54.077Z</time></trkpt><trkpt lat="41.202274" lon="9.4567788"><ele>3.0</ele><time>2026-04-19T10:23:55.077Z</time></trkpt><trkpt lat="41.2021656" lon="9.4568204"><ele>3.0</ele><time>2026-04-19T10:23:57.076Z</time></trkpt><trkpt lat="41.2020591" lon="9.4568877"><ele>3.0</ele><time>2026-04-19T10:23:59.075Z</time></trkpt><trkpt lat="41.2019854" lon="9.4569672"><ele>3.0</ele><time>2026-04-19T10:24:00.075Z</time></trkpt><trkpt lat="41.2019048" lon="9.4570583"><ele>3.0</ele><time>2026-04-19T10:24:01.076Z</time></trkpt><trkpt lat="41.2018306" lon="9.4571436"><ele>3.0</ele><time>2026-04-19T10:24:02.076Z</time></trkpt><trkpt lat="41.2017602" lon="9.4572347"><ele>3.0</ele><time>2026-04-19T10:24:03.075Z</time></trkpt><trkpt lat="41.2016874" lon="9.4573307"><ele>3.0</ele><time>2026-04-19T10:24:04.075Z</time></trkpt><trkpt lat="41.2016142" lon="9.4574206"><ele>3.0</ele><time>2026-04-19T10:24:05.075Z</time></trkpt><trkpt lat="41.2015602" lon="9.4574921"><ele>3.0</ele><time>2026-04-19T10:24:06.076Z</time></trkpt><trkpt lat="41.2015057" lon="9.457557"><ele>3.0</ele><time>2026-04-19T10:24:07.076Z</time></trkpt><trkpt lat="41.2014489" lon="9.457614"><ele>3.0</ele><time>2026-04-19T10:24:08.076Z</time></trkpt><trkpt lat="41.2013713" lon="9.4577128"><ele>3.0</ele><time>2026-04-19T10:24:10.076Z</time></trkpt><trkpt lat="41.2013247" lon="9.4577792"><ele>3.0</ele><time>2026-04-19T10:24:12.076Z</time></trkpt><trkpt lat="41.2012705" lon="9.4578458"><ele>3.2</ele><time>2026-04-19T10:24:18.075Z</time></trkpt><trkpt lat="41.2012049" lon="9.4578592"><ele>3.4</ele><time>2026-04-19T10:24:20.076Z</time></trkpt><trkpt lat="41.2011321" lon="9.4578295"><ele>3.6000000000000005</ele><time>2026-04-19T10:24:21.076Z</time></trkpt><trkpt lat="41.2010358" lon="9.457773"><ele>3.8000000000000003</ele><time>2026-04-19T10:24:22.075Z</time></trkpt><trkpt lat="41.20092" lon="9.4577083"><ele>4.0</ele><time>2026-04-19T10:24:23.076Z</time></trkpt><trkpt lat="41.2007903" lon="9.4576528"><ele>4.0</ele><time>2026-04-19T10:24:24.076Z</time></trkpt><trkpt lat="41.2006643" lon="9.4576139"><ele>4.0</ele><time>2026-04-19T10:24:25.076Z</time></trkpt><trkpt lat="41.2005489" lon="9.4575957"><ele>4.0</ele><time>2026-04-19T10:24:26.075Z</time></trkpt><trkpt lat="41.2004436" lon="9.4575986"><ele>4.0</ele><time>2026-04-19T10:24:27.076Z</time></trkpt><trkpt lat="41.2003456" lon="9.4576201"><ele>4.0</ele><time>2026-04-19T10:24:28.075Z</time></trkpt><trkpt lat="41.2002466" lon="9.4576353"><ele>4.0</ele><time>2026-04-19T10:24:29.075Z</time></trkpt><trkpt lat="41.2001401" lon="9.4576463"><ele>4.0</ele><time>2026-04-19T10:24:30.076Z</time></trkpt><trkpt lat="41.2000415" lon="9.4576548"><ele>4.0</ele><time>2026-04-19T10:24:31.076Z</time></trkpt><trkpt lat="41.1999529" lon="9.4576622"><ele>4.0</ele><time>2026-04-19T10:24:32.076Z</time></trkpt><trkpt lat="41.1998724" lon="9.4576653"><ele>4.4</ele><time>2026-04-19T10:24:33.076Z</time></trkpt><trkpt lat="41.1997972" lon="9.4576668"><ele>4.800000000000001</ele><time>2026-04-19T10:24:34.075Z</time></trkpt><trkpt lat="41.199729" lon="9.4576647"><ele>5.199999999999999</ele><time>2026-04-19T10:24:35.075Z</time></trkpt><trkpt lat="41.1996098" lon="9.457653"><ele>5.6</ele><time>2026-04-19T10:24:37.076Z</time></trkpt><trkpt lat="41.1995161" lon="9.4576381"><ele>6.0</ele><time>2026-04-19T10:24:39.076Z</time></trkpt><trkpt lat="41.1994021" lon="9.4576113"><ele>6.0</ele><time>2026-04-19T10:24:41.076Z</time></trkpt><trkpt lat="41.1993042" lon="9.4575811"><ele>6.0</ele><time>2026-04-19T10:24:42.076Z</time></trkpt><trkpt lat="41.1992024" lon="9.4575538"><ele>6.0</ele><time>2026-04-19T10:24:43.076Z</time></trkpt><trkpt lat="41.1990956" lon="9.4575342"><ele>6.0</ele><time>2026-04-19T10:24:44.076Z</time></trkpt><trkpt lat="41.1989915" lon="9.4575"><ele>6.0</ele><time>2026-04-19T10:24:45.075Z</time></trkpt><trkpt lat="41.1988864" lon="9.4574436"><ele>5.6</ele><time>2026-04-19T10:24:46.076Z</time></trkpt><trkpt lat="41.1987974" lon="9.4573793"><ele>5.199999999999999</ele><time>2026-04-19T10:24:47.076Z</time></trkpt><trkpt lat="41.1987026" lon="9.457309"><ele>4.800000000000001</ele><time>2026-04-19T10:24:48.076Z</time></trkpt><trkpt lat="41.1986101" lon="9.4572261"><ele>4.4</ele><time>2026-04-19T10:24:49.075Z</time></trkpt><trkpt lat="41.1985194" lon="9.457127"><ele>4.0</ele><time>2026-04-19T10:24:50.076Z</time></trkpt><trkpt lat="41.1984385" lon="9.457013"><ele>3.5</ele><time>2026-04-19T10:24:51.076Z</time></trkpt><trkpt lat="41.198372" lon="9.4568823"><ele>3.0</ele><time>2026-04-19T10:24:52.076Z</time></trkpt><trkpt lat="41.198328" lon="9.4567287"><ele>2.5</ele><time>2026-04-19T10:24:53.076Z</time></trkpt><trkpt lat="41.198302" lon="9.4565535"><ele>2.0</ele><time>2026-04-19T10:24:54.076Z</time></trkpt><trkpt lat="41.1982841" lon="9.4563604"><ele>2.0</ele><time>2026-04-19T10:24:55.076Z</time></trkpt><trkpt lat="41.1982668" lon="9.4561615"><ele>2.0</ele><time>2026-04-19T10:24:56.076Z</time></trkpt><trkpt lat="41.1982455" lon="9.45597"><ele>2.0</ele><time>2026-04-19T10:24:57.076Z</time></trkpt><trkpt lat="41.1982223" lon="9.4557836"><ele>2.0</ele><time>2026-04-19T10:24:58.076Z</time></trkpt><trkpt lat="41.1982037" lon="9.4556027"><ele>2.0</ele><time>2026-04-19T10:24:59.076Z</time></trkpt><trkpt lat="41.198186" lon="9.4554322"><ele>2.0</ele><time>2026-04-19T10:25:00.075Z</time></trkpt><trkpt lat="41.1981709" lon="9.4552798"><ele>2.0</ele><time>2026-04-19T10:25:01.076Z</time></trkpt><trkpt lat="41.1981576" lon="9.4551612"><ele>2.0</ele><time>2026-04-19T10:25:02.075Z</time></trkpt><trkpt lat="41.1981489" lon="9.4550542"><ele>2.0</ele><time>2026-04-19T10:25:03.076Z</time></trkpt><trkpt lat="41.1981399" lon="9.4549588"><ele>2.0</ele><time>2026-04-19T10:25:04.076Z</time></trkpt><trkpt lat="41.1981307" lon="9.4548693"><ele>2.0</ele><time>2026-04-19T10:25:05.075Z</time></trkpt><trkpt lat="41.1981467" lon="9.4547076"><ele>2.0</ele><time>2026-04-19T10:25:07.076Z</time></trkpt><trkpt lat="41.1981968" lon="9.4545715"><ele>2.0</ele><time>2026-04-19T10:25:09.075Z</time></trkpt><trkpt lat="41.1982412" lon="9.4544482"><ele>2.0</ele><time>2026-04-19T10:25:11.076Z</time></trkpt><trkpt lat="41.1982846" lon="9.4543245"><ele>1.9999999999999998</ele><time>2026-04-19T10:25:13.076Z</time></trkpt><trkpt lat="41.1983232" lon="9.4542561"><ele>2.0</ele><time>2026-04-19T10:25:14.075Z</time></trkpt><trkpt lat="41.1983747" lon="9.454174"><ele>2.0</ele><time>2026-04-19T10:25:15.076Z</time></trkpt><trkpt lat="41.198427" lon="9.4540945"><ele>2.0</ele><time>2026-04-19T10:25:16.076Z</time></trkpt><trkpt lat="41.1984767" lon="9.4540145"><ele>1.9999999999999998</ele><time>2026-04-19T10:25:17.076Z</time></trkpt><trkpt lat="41.1985272" lon="9.453932"><ele>2.0</ele><time>2026-04-19T10:25:18.076Z</time></trkpt><trkpt lat="41.1985872" lon="9.4538516"><ele>2.1666666666666665</ele><time>2026-04-19T10:25:19.076Z</time></trkpt><trkpt lat="41.1986648" lon="9.4537699"><ele>2.333333333333333</ele><time>2026-04-19T10:25:20.076Z</time></trkpt><trkpt lat="41.1987413" lon="9.4537028"><ele>2.5</ele><time>2026-04-19T10:25:21.076Z</time></trkpt><trkpt lat="41.1988141" lon="9.4536457"><ele>2.6666666666666665</ele><time>2026-04-19T10:25:22.076Z</time></trkpt><trkpt lat="41.1988758" lon="9.453589"><ele>2.8333333333333335</ele><time>2026-04-19T10:25:23.076Z</time></trkpt><trkpt lat="41.19893" lon="9.4535322"><ele>3.0</ele><time>2026-04-19T10:25:24.075Z</time></trkpt><trkpt lat="41.198982" lon="9.4534721"><ele>2.6</ele><time>2026-04-19T10:25:25.076Z</time></trkpt><trkpt lat="41.1990288" lon="9.4534102"><ele>2.1999999999999997</ele><time>2026-04-19T10:25:26.076Z</time></trkpt><trkpt lat="41.1991027" lon="9.4532895"><ele>1.8</ele><time>2026-04-19T10:25:28.076Z</time></trkpt><trkpt lat="41.1991638" lon="9.453175"><ele>1.4</ele><time>2026-04-19T10:25:30.075Z</time></trkpt><trkpt lat="41.1992105" lon="9.4530713"><ele>1.0</ele><time>2026-04-19T10:25:32.076Z</time></trkpt><trkpt lat="41.1992499" lon="9.4529606"><ele>1.5</ele><time>2026-04-19T10:25:35.076Z</time></trkpt><trkpt lat="41.1992874" lon="9.4528784"><ele>2.0</ele><time>2026-04-19T10:25:37.075Z</time></trkpt><trkpt lat="41.1992888" lon="9.4527722"><ele>2.5</ele><time>2026-04-19T10:25:41.076Z</time></trkpt><trkpt lat="41.1992114" lon="9.4526957"><ele>3.0</ele><time>2026-04-19T10:25:43.076Z</time></trkpt><trkpt lat="41.1991072" lon="9.452593"><ele>3.4999999999999996</ele><time>2026-04-19T10:25:45.076Z</time></trkpt><trkpt lat="41.1990467" lon="9.4525459"><ele>4.0</ele><time>2026-04-19T10:25:46.075Z</time></trkpt><trkpt lat="41.1989863" lon="9.4525049"><ele>4.5</ele><time>2026-04-19T10:25:47.076Z</time></trkpt><trkpt lat="41.1989049" lon="9.4524538"><ele>5.0</ele><time>2026-04-19T10:25:49.076Z</time></trkpt><trkpt lat="41.1988289" lon="9.4524112"><ele>5.5</ele><time>2026-04-19T10:25:52.075Z</time></trkpt><trkpt lat="41.1987427" lon="9.4523576"><ele>6.0</ele><time>2026-04-19T10:25:55.076Z</time></trkpt><trkpt lat="41.1987012" lon="9.4522839"><ele>6.500000000000001</ele><time>2026-04-19T10:25:57.076Z</time></trkpt><trkpt lat="41.1987173" lon="9.4521874"><ele>7.0</ele><time>2026-04-19T10:26:01.075Z</time></trkpt><trkpt lat="41.1987414" lon="9.4520995"><ele>7.500000000000001</ele><time>2026-04-19T10:26:03.076Z</time></trkpt><trkpt lat="41.1987725" lon="9.452022"><ele>8.0</ele><time>2026-04-19T10:26:04.076Z</time></trkpt><trkpt lat="41.198828" lon="9.4519241"><ele>8.5</ele><time>2026-04-19T10:26:06.076Z</time></trkpt><trkpt lat="41.1988587" lon="9.4518264"><ele>9.0</ele><time>2026-04-19T10:26:09.076Z</time></trkpt><trkpt lat="41.1988085" lon="9.451725"><ele>9.5</ele><time>2026-04-19T10:26:12.076Z</time></trkpt><trkpt lat="41.1987046" lon="9.4516678"><ele>10.0</ele><time>2026-04-19T10:26:14.076Z</time></trkpt><trkpt lat="41.1986067" lon="9.4516705"><ele>10.0</ele><time>2026-04-19T10:26:16.076Z</time></trkpt><trkpt lat="41.1985019" lon="9.4517347"><ele>10.0</ele><time>2026-04-19T10:26:18.076Z</time></trkpt><trkpt lat="41.1984032" lon="9.4517593"><ele>10.0</ele><time>2026-04-19T10:26:20.076Z</time></trkpt><trkpt lat="41.1983027" lon="9.4517595"><ele>10.0</ele><time>2026-04-19T10:26:22.076Z</time></trkpt><trkpt lat="41.1981977" lon="9.4518151"><ele>10.0</ele><time>2026-04-19T10:26:24.076Z</time></trkpt><trkpt lat="41.1981322" lon="9.4518314"><ele>9.333333333333334</ele><time>2026-04-19T10:26:25.075Z</time></trkpt><trkpt lat="41.1980524" lon="9.4518354"><ele>8.666666666666668</ele><time>2026-04-19T10:26:26.075Z</time></trkpt><trkpt lat="41.1979656" lon="9.4518414"><ele>8.0</ele><time>2026-04-19T10:26:27.075Z</time></trkpt><trkpt lat="41.1978825" lon="9.4518614"><ele>7.333333333333334</ele><time>2026-04-19T10:26:28.076Z</time></trkpt><trkpt lat="41.1978101" lon="9.4518897"><ele>6.666666666666667</ele><time>2026-04-19T10:26:29.076Z</time></trkpt><trkpt lat="41.1977105" lon="9.4519526"><ele>6.0</ele><time>2026-04-19T10:26:31.075Z</time></trkpt><trkpt lat="41.1976375" lon="9.4520346"><ele>5.8</ele><time>2026-04-19T10:26:33.076Z</time></trkpt><trkpt lat="41.1975662" lon="9.4521446"><ele>5.6</ele><time>2026-04-19T10:26:35.076Z</time></trkpt><trkpt lat="41.1975017" lon="9.4522491"><ele>5.4</ele><time>2026-04-19T10:26:37.076Z</time></trkpt><trkpt lat="41.1974815" lon="9.4523654"><ele>5.2</ele><time>2026-04-19T10:26:39.076Z</time></trkpt><trkpt lat="41.1974459" lon="9.452463"><ele>5.0</ele><time>2026-04-19T10:26:42.075Z</time></trkpt><trkpt lat="41.1973713" lon="9.452477"><ele>5.0</ele><time>2026-04-19T10:26:44.076Z</time></trkpt><trkpt lat="41.197269" lon="9.4524587"><ele>5.0</ele><time>2026-04-19T10:26:46.076Z</time></trkpt><trkpt lat="41.1971833" lon="9.452409"><ele>5.0</ele><time>2026-04-19T10:26:48.076Z</time></trkpt><trkpt lat="41.1971335" lon="9.4522833"><ele>5.0</ele><time>2026-04-19T10:26:50.076Z</time></trkpt><trkpt lat="41.1970485" lon="9.4521719"><ele>5.0</ele><time>2026-04-19T10:26:52.076Z</time></trkpt><trkpt lat="41.1969862" lon="9.4521206"><ele>5.8</ele><time>2026-04-19T10:26:53.076Z</time></trkpt><trkpt lat="41.196922" lon="9.4520676"><ele>6.6</ele><time>2026-04-19T10:26:54.076Z</time></trkpt><trkpt lat="41.1968717" lon="9.4520139"><ele>7.4</ele><time>2026-04-19T10:26:55.075Z</time></trkpt><trkpt lat="41.1968121" lon="9.4518976"><ele>8.2</ele><time>2026-04-19T10:26:57.076Z</time></trkpt><trkpt lat="41.1967333" lon="9.4517823"><ele>9.0</ele><time>2026-04-19T10:26:59.076Z</time></trkpt><trkpt lat="41.1966092" lon="9.4517551"><ele>9.8</ele><time>2026-04-19T10:27:01.076Z</time></trkpt><trkpt lat="41.1964854" lon="9.4517631"><ele>10.600000000000001</ele><time>2026-04-19T10:27:03.076Z</time></trkpt><trkpt lat="41.196387" lon="9.4517551"><ele>11.4</ele><time>2026-04-19T10:27:04.076Z</time></trkpt><trkpt lat="41.1962917" lon="9.4517426"><ele>12.200000000000001</ele><time>2026-04-19T10:27:05.076Z</time></trkpt><trkpt lat="41.1961993" lon="9.4517375"><ele>13.0</ele><time>2026-04-19T10:27:06.076Z</time></trkpt><trkpt lat="41.1961171" lon="9.4517259"><ele>12.999999999999998</ele><time>2026-04-19T10:27:07.076Z</time></trkpt><trkpt lat="41.1960534" lon="9.4517013"><ele>13.0</ele><time>2026-04-19T10:27:08.076Z</time></trkpt><trkpt lat="41.1959358" lon="9.45168"><ele>13.0</ele><time>2026-04-19T10:27:10.076Z</time></trkpt><trkpt lat="41.1958687" lon="9.4516869"><ele>13.0</ele><time>2026-04-19T10:27:11.076Z</time></trkpt><trkpt lat="41.1957919" lon="9.4516868"><ele>12.999999999999998</ele><time>2026-04-19T10:27:12.076Z</time></trkpt><trkpt lat="41.195674" lon="9.4516865"><ele>13.0</ele><time>2026-04-19T10:27:13.076Z</time></trkpt><trkpt lat="41.1955647" lon="9.451681"><ele>12.833333333333332</ele><time>2026-04-19T10:27:14.076Z</time></trkpt><trkpt lat="41.1954684" lon="9.4516673"><ele>12.666666666666666</ele><time>2026-04-19T10:27:15.076Z</time></trkpt><trkpt lat="41.1953794" lon="9.4516544"><ele>12.5</ele><time>2026-04-19T10:27:16.076Z</time></trkpt><trkpt lat="41.1952907" lon="9.4516391"><ele>12.333333333333332</ele><time>2026-04-19T10:27:17.076Z</time></trkpt><trkpt lat="41.1952123" lon="9.4516231"><ele>12.166666666666666</ele><time>2026-04-19T10:27:18.076Z</time></trkpt><trkpt lat="41.1951393" lon="9.4516052"><ele>12.0</ele><time>2026-04-19T10:27:19.075Z</time></trkpt><trkpt lat="41.1950678" lon="9.4516038"><ele>12.0</ele><time>2026-04-19T10:27:20.076Z</time></trkpt><trkpt lat="41.1949871" lon="9.4516014"><ele>12.0</ele><time>2026-04-19T10:27:21.076Z</time></trkpt><trkpt lat="41.1948899" lon="9.4515787"><ele>12.0</ele><time>2026-04-19T10:27:22.076Z</time></trkpt><trkpt lat="41.1948002" lon="9.4515464"><ele>12.0</ele><time>2026-04-19T10:27:23.076Z</time></trkpt><trkpt lat="41.1947238" lon="9.4515129"><ele>12.0</ele><time>2026-04-19T10:27:24.076Z</time></trkpt><trkpt lat="41.1946536" lon="9.4514814"><ele>12.0</ele><time>2026-04-19T10:27:25.076Z</time></trkpt><trkpt lat="41.1945836" lon="9.4514413"><ele>12.0</ele><time>2026-04-19T10:27:26.075Z</time></trkpt><trkpt lat="41.194511" lon="9.4513927"><ele>12.0</ele><time>2026-04-19T10:27:27.076Z</time></trkpt><trkpt lat="41.1944342" lon="9.4513475"><ele>12.0</ele><time>2026-04-19T10:27:28.076Z</time></trkpt><trkpt lat="41.194352" lon="9.4512938"><ele>12.0</ele><time>2026-04-19T10:27:29.076Z</time></trkpt><trkpt lat="41.1942782" lon="9.4512221"><ele>12.0</ele><time>2026-04-19T10:27:30.075Z</time></trkpt><trkpt lat="41.1942277" lon="9.4511659"><ele>12.0</ele><time>2026-04-19T10:27:31.076Z</time></trkpt><trkpt lat="41.1941472" lon="9.4510713"><ele>11.999999999999998</ele><time>2026-04-19T10:27:33.076Z</time></trkpt><trkpt lat="41.1940913" lon="9.4510082"><ele>12.0</ele><time>2026-04-19T10:27:34.076Z</time></trkpt><trkpt lat="41.1940256" lon="9.4509403"><ele>12.0</ele><time>2026-04-19T10:27:35.076Z</time></trkpt><trkpt lat="41.1939601" lon="9.4508769"><ele>12.0</ele><time>2026-04-19T10:27:36.076Z</time></trkpt><trkpt lat="41.1939023" lon="9.4508186"><ele>12.0</ele><time>2026-04-19T10:27:37.076Z</time></trkpt><trkpt lat="41.1938479" lon="9.4507568"><ele>11.999999999999998</ele><time>2026-04-19T10:27:38.076Z</time></trkpt><trkpt lat="41.1937977" lon="9.4507046"><ele>12.0</ele><time>2026-04-19T10:27:39.076Z</time></trkpt><trkpt lat="41.1937097" lon="9.4506181"><ele>11.8</ele><time>2026-04-19T10:27:41.076Z</time></trkpt><trkpt lat="41.1936352" lon="9.4505043"><ele>11.6</ele><time>2026-04-19T10:27:43.076Z</time></trkpt><trkpt lat="41.1936088" lon="9.4504172"><ele>11.4</ele><time>2026-04-19T10:27:44.076Z</time></trkpt><trkpt lat="41.1935911" lon="9.4503323"><ele>11.200000000000001</ele><time>2026-04-19T10:27:45.075Z</time></trkpt><trkpt lat="41.1935683" lon="9.4501913"><ele>11.0</ele><time>2026-04-19T10:27:47.076Z</time></trkpt><trkpt lat="41.1934889" lon="9.4501112"><ele>11.0</ele><time>2026-04-19T10:27:49.075Z</time></trkpt><trkpt lat="41.1933678" lon="9.4500668"><ele>11.0</ele><time>2026-04-19T10:27:51.076Z</time></trkpt><trkpt lat="41.1933074" lon="9.4500432"><ele>11.0</ele><time>2026-04-19T10:27:52.076Z</time></trkpt><trkpt lat="41.1932206" lon="9.4500118"><ele>11.0</ele><time>2026-04-19T10:27:54.076Z</time></trkpt><trkpt lat="41.1931343" lon="9.4500434"><ele>11.0</ele><time>2026-04-19T10:27:57.076Z</time></trkpt><trkpt lat="41.1930788" lon="9.4500959"><ele>11.0</ele><time>2026-04-19T10:27:59.076Z</time></trkpt><trkpt lat="41.1930475" lon="9.4501949"><ele>9.8</ele><time>2026-04-19T10:28:01.076Z</time></trkpt><trkpt lat="41.1930304" lon="9.4503175"><ele>8.600000000000001</ele><time>2026-04-19T10:28:03.076Z</time></trkpt><trkpt lat="41.1929499" lon="9.4503844"><ele>7.4</ele><time>2026-04-19T10:28:05.076Z</time></trkpt><trkpt lat="41.1928205" lon="9.4503898"><ele>6.2</ele><time>2026-04-19T10:28:07.076Z</time></trkpt><trkpt lat="41.1927461" lon="9.4503785"><ele>5.0</ele><time>2026-04-19T10:28:08.076Z</time></trkpt><trkpt lat="41.1926736" lon="9.4503681"><ele>5.0</ele><time>2026-04-19T10:28:09.076Z</time></trkpt><trkpt lat="41.1926046" lon="9.4503512"><ele>5.0</ele><time>2026-04-19T10:28:10.076Z</time></trkpt><trkpt lat="41.1925391" lon="9.4503383"><ele>5.0</ele><time>2026-04-19T10:28:11.076Z</time></trkpt><trkpt lat="41.1924736" lon="9.4503287"><ele>5.0</ele><time>2026-04-19T10:28:12.076Z</time></trkpt><trkpt lat="41.1923656" lon="9.4503054"><ele>5.0</ele><time>2026-04-19T10:28:14.075Z</time></trkpt><trkpt lat="41.1922768" lon="9.4502976"><ele>5.0</ele><time>2026-04-19T10:28:16.075Z</time></trkpt><trkpt lat="41.1921963" lon="9.4502862"><ele>4.333333333333334</ele><time>2026-04-19T10:28:18.076Z</time></trkpt><trkpt lat="41.1921339" lon="9.4502749"><ele>3.666666666666667</ele><time>2026-04-19T10:28:20.076Z</time></trkpt><trkpt lat="41.1920554" lon="9.4502591"><ele>3.0</ele><time>2026-04-19T10:28:52.076Z</time></trkpt><trkpt lat="41.1920017" lon="9.4502118"><ele>2.3333333333333335</ele><time>2026-04-19T10:28:55.076Z</time></trkpt><trkpt lat="41.1919654" lon="9.4501087"><ele>1.6666666666666665</ele><time>2026-04-19T10:28:57.075Z</time></trkpt><trkpt lat="41.1919104" lon="9.4499607"><ele>1.0</ele><time>2026-04-19T10:28:59.075Z</time></trkpt><trkpt lat="41.1918909" lon="9.4498267"><ele>0.9999999999999999</ele><time>2026-04-19T10:29:01.076Z</time></trkpt><trkpt lat="41.1918974" lon="9.4497407"><ele>1.0</ele><time>2026-04-19T10:29:02.076Z</time></trkpt><trkpt lat="41.1919029" lon="9.4496472"><ele>1.0</ele><time>2026-04-19T10:29:03.075Z</time></trkpt><trkpt lat="41.1919128" lon="9.449491"><ele>1.0</ele><time>2026-04-19T10:29:05.076Z</time></trkpt><trkpt lat="41.1919008" lon="9.4493575"><ele>0.9999999999999999</ele><time>2026-04-19T10:29:07.076Z</time></trkpt><trkpt lat="41.1918728" lon="9.4492815"><ele>1.0</ele><time>2026-04-19T10:29:08.076Z</time></trkpt><trkpt lat="41.1918302" lon="9.4491854"><ele>1.8</ele><time>2026-04-19T10:29:09.076Z</time></trkpt><trkpt lat="41.191779" lon="9.4490935"><ele>2.6</ele><time>2026-04-19T10:29:10.076Z</time></trkpt><trkpt lat="41.1917261" lon="9.4490186"><ele>3.4</ele><time>2026-04-19T10:29:11.075Z</time></trkpt><trkpt lat="41.1916777" lon="9.4489516"><ele>4.2</ele><time>2026-04-19T10:29:12.075Z</time></trkpt><trkpt lat="41.1915957" lon="9.448834"><ele>5.0</ele><time>2026-04-19T10:29:14.076Z</time></trkpt><trkpt lat="41.1915215" lon="9.4487275"><ele>4.333333333333334</ele><time>2026-04-19T10:29:16.076Z</time></trkpt><trkpt lat="41.1914718" lon="9.4486761"><ele>3.666666666666667</ele><time>2026-04-19T10:29:17.076Z</time></trkpt><trkpt lat="41.1913771" lon="9.4485596"><ele>3.0</ele><time>2026-04-19T10:29:19.076Z</time></trkpt><trkpt lat="41.1913311" lon="9.4484987"><ele>2.3333333333333335</ele><time>2026-04-19T10:29:20.076Z</time></trkpt><trkpt lat="41.1912959" lon="9.4484208"><ele>1.6666666666666665</ele><time>2026-04-19T10:29:21.076Z</time></trkpt><trkpt lat="41.1912626" lon="9.4483384"><ele>1.0</ele><time>2026-04-19T10:29:22.076Z</time></trkpt><trkpt lat="41.1911894" lon="9.4482171"><ele>1.0</ele><time>2026-04-19T10:29:24.076Z</time></trkpt><trkpt lat="41.1911365" lon="9.4481032"><ele>1.0</ele><time>2026-04-19T10:29:26.076Z</time></trkpt><trkpt lat="41.1911126" lon="9.4479649"><ele>1.0</ele><time>2026-04-19T10:29:28.075Z</time></trkpt><trkpt lat="41.1911169" lon="9.4478228"><ele>1.0</ele><time>2026-04-19T10:29:30.075Z</time></trkpt><trkpt lat="41.1911362" lon="9.447685"><ele>1.0</ele><time>2026-04-19T10:29:32.074Z</time></trkpt><trkpt lat="41.1911245" lon="9.4475412"><ele>1.1666666666666665</ele><time>2026-04-19T10:29:34.075Z</time></trkpt><trkpt lat="41.1910454" lon="9.4474011"><ele>1.3333333333333333</ele><time>2026-04-19T10:29:36.075Z</time></trkpt><trkpt lat="41.1909938" lon="9.4473482"><ele>1.5</ele><time>2026-04-19T10:29:37.074Z</time></trkpt><trkpt lat="41.1909295" lon="9.4472936"><ele>1.6666666666666665</ele><time>2026-04-19T10:29:38.075Z</time></trkpt><trkpt lat="41.190861" lon="9.4472331"><ele>1.8333333333333333</ele><time>2026-04-19T10:29:39.075Z</time></trkpt><trkpt lat="41.1907924" lon="9.4471725"><ele>2.0</ele><time>2026-04-19T10:29:40.075Z</time></trkpt><trkpt lat="41.1907318" lon="9.4471181"><ele>2.142857142857143</ele><time>2026-04-19T10:29:41.075Z</time></trkpt><trkpt lat="41.1906694" lon="9.447069"><ele>2.2857142857142856</ele><time>2026-04-19T10:29:42.075Z</time></trkpt><trkpt lat="41.1906123" lon="9.4470199"><ele>2.4285714285714284</ele><time>2026-04-19T10:29:43.075Z</time></trkpt><trkpt lat="41.1905589" lon="9.4469657"><ele>2.571428571428571</ele><time>2026-04-19T10:29:44.075Z</time></trkpt><trkpt lat="41.1905012" lon="9.4469177"><ele>2.7142857142857144</ele><time>2026-04-19T10:29:45.074Z</time></trkpt><trkpt lat="41.1904429" lon="9.4468543"><ele>2.8571428571428568</ele><time>2026-04-19T10:29:46.075Z</time></trkpt><trkpt lat="41.190384" lon="9.446791"><ele>3.0</ele><time>2026-04-19T10:29:47.074Z</time></trkpt><trkpt lat="41.1903313" lon="9.4467306"><ele>3.0</ele><time>2026-04-19T10:29:48.074Z</time></trkpt><trkpt lat="41.1902794" lon="9.4466621"><ele>3.0</ele><time>2026-04-19T10:29:49.075Z</time></trkpt><trkpt lat="41.190218" lon="9.4465949"><ele>3.0</ele><time>2026-04-19T10:29:50.074Z</time></trkpt><trkpt lat="41.1901461" lon="9.4465329"><ele>3.0</ele><time>2026-04-19T10:29:51.075Z</time></trkpt><trkpt lat="41.1900725" lon="9.4464756"><ele>3.0</ele><time>2026-04-19T10:29:52.075Z</time></trkpt><trkpt lat="41.1900023" lon="9.4464348"><ele>3.0</ele><time>2026-04-19T10:29:53.075Z</time></trkpt><trkpt lat="41.1899322" lon="9.4464055"><ele>3.0</ele><time>2026-04-19T10:29:54.075Z</time></trkpt><trkpt lat="41.1898563" lon="9.4464074"><ele>3.0</ele><time>2026-04-19T10:29:55.075Z</time></trkpt><trkpt lat="41.1897827" lon="9.4464248"><ele>3.0</ele><time>2026-04-19T10:29:56.074Z</time></trkpt><trkpt lat="41.1897018" lon="9.4464652"><ele>3.0</ele><time>2026-04-19T10:29:57.075Z</time></trkpt><trkpt lat="41.189617" lon="9.4465179"><ele>3.0</ele><time>2026-04-19T10:29:58.075Z</time></trkpt><trkpt lat="41.1895382" lon="9.4465677"><ele>3.0</ele><time>2026-04-19T10:29:59.075Z</time></trkpt><trkpt lat="41.1894655" lon="9.4466058"><ele>3.5</ele><time>2026-04-19T10:30:00.075Z</time></trkpt><trkpt lat="41.1894038" lon="9.4466462"><ele>4.0</ele><time>2026-04-19T10:30:01.075Z</time></trkpt><trkpt lat="41.1893423" lon="9.4466883"><ele>4.5</ele><time>2026-04-19T10:30:02.074Z</time></trkpt><trkpt lat="41.1892783" lon="9.4467238"><ele>5.0</ele><time>2026-04-19T10:30:03.074Z</time></trkpt><trkpt lat="41.1892173" lon="9.4467644"><ele>5.5</ele><time>2026-04-19T10:30:04.075Z</time></trkpt><trkpt lat="41.1890855" lon="9.4467753"><ele>6.0</ele><time>2026-04-19T10:30:06.075Z</time></trkpt><trkpt lat="41.1890122" lon="9.4467665"><ele>5.666666666666667</ele><time>2026-04-19T10:30:07.075Z</time></trkpt><trkpt lat="41.1889314" lon="9.4467333"><ele>5.333333333333333</ele><time>2026-04-19T10:30:08.075Z</time></trkpt><trkpt lat="41.1888557" lon="9.4466946"><ele>5.0</ele><time>2026-04-19T10:30:09.075Z</time></trkpt><trkpt lat="41.1887808" lon="9.4466631"><ele>4.666666666666666</ele><time>2026-04-19T10:30:10.075Z</time></trkpt><trkpt lat="41.1887055" lon="9.4466372"><ele>4.333333333333333</ele><time>2026-04-19T10:30:11.074Z</time></trkpt><trkpt lat="41.1886223" lon="9.4466236"><ele>4.0</ele><time>2026-04-19T10:30:12.075Z</time></trkpt><trkpt lat="41.1885412" lon="9.4466293"><ele>4.0</ele><time>2026-04-19T10:30:13.074Z</time></trkpt><trkpt lat="41.1884639" lon="9.4466457"><ele>4.0</ele><time>2026-04-19T10:30:14.074Z</time></trkpt><trkpt lat="41.1883944" lon="9.4466511"><ele>4.0</ele><time>2026-04-19T10:30:15.075Z</time></trkpt><trkpt lat="41.1882795" lon="9.4466305"><ele>4.0</ele><time>2026-04-19T10:30:17.075Z</time></trkpt><trkpt lat="41.1881864" lon="9.4465441"><ele>4.0</ele><time>2026-04-19T10:30:19.075Z</time></trkpt><trkpt lat="41.1881384" lon="9.4464027"><ele>4.0</ele><time>2026-04-19T10:30:21.074Z</time></trkpt><trkpt lat="41.1881357" lon="9.4462578"><ele>4.0</ele><time>2026-04-19T10:30:23.075Z</time></trkpt><trkpt lat="41.1880767" lon="9.4461684"><ele>4.0</ele><time>2026-04-19T10:30:25.075Z</time></trkpt><trkpt lat="41.1879732" lon="9.4461577"><ele>4.0</ele><time>2026-04-19T10:30:27.075Z</time></trkpt><trkpt lat="41.187911" lon="9.4461845"><ele>4.0</ele><time>2026-04-19T10:30:28.075Z</time></trkpt><trkpt lat="41.1878152" lon="9.4461639"><ele>3.9999999999999996</ele><time>2026-04-19T10:30:30.074Z</time></trkpt><trkpt lat="41.1877405" lon="9.4460216"><ele>4.0</ele><time>2026-04-19T10:30:32.074Z</time></trkpt><trkpt lat="41.1877003" lon="9.4459351"><ele>4.0</ele><time>2026-04-19T10:30:33.075Z</time></trkpt><trkpt lat="41.1876585" lon="9.4458362"><ele>4.0</ele><time>2026-04-19T10:30:34.075Z</time></trkpt><trkpt lat="41.1876188" lon="9.4457492"><ele>3.9999999999999996</ele><time>2026-04-19T10:30:35.075Z</time></trkpt><trkpt lat="41.1875805" lon="9.445658"><ele>4.0</ele><time>2026-04-19T10:30:36.075Z</time></trkpt><trkpt lat="41.1875401" lon="9.4455734"><ele>3.9999999999999996</ele><time>2026-04-19T10:30:37.075Z</time></trkpt><trkpt lat="41.1875051" lon="9.4454946"><ele>4.0</ele><time>2026-04-19T10:30:38.075Z</time></trkpt><trkpt lat="41.1874161" lon="9.445389"><ele>4.0</ele><time>2026-04-19T10:30:40.075Z</time></trkpt><trkpt lat="41.1873313" lon="9.4452767"><ele>4.0</ele><time>2026-04-19T10:30:42.074Z</time></trkpt><trkpt lat="41.1872987" lon="9.4451905"><ele>3.9999999999999996</ele><time>2026-04-19T10:30:43.075Z</time></trkpt><trkpt lat="41.1872846" lon="9.445104"><ele>4.0</ele><time>2026-04-19T10:30:44.075Z</time></trkpt><trkpt lat="41.1872803" lon="9.4450178"><ele>3.9999999999999996</ele><time>2026-04-19T10:30:45.075Z</time></trkpt><trkpt lat="41.187272" lon="9.4449306"><ele>4.0</ele><time>2026-04-19T10:30:46.075Z</time></trkpt><trkpt lat="41.1872328" lon="9.444778"><ele>4.0</ele><time>2026-04-19T10:30:48.075Z</time></trkpt><trkpt lat="41.1871942" lon="9.444703"><ele>4.0</ele><time>2026-04-19T10:30:49.075Z</time></trkpt><trkpt lat="41.1871219" lon="9.4446195"><ele>3.9999999999999996</ele><time>2026-04-19T10:30:50.075Z</time></trkpt><trkpt lat="41.1870691" lon="9.4445458"><ele>4.0</ele><time>2026-04-19T10:30:51.074Z</time></trkpt><trkpt lat="41.1870191" lon="9.4444726"><ele>3.9999999999999996</ele><time>2026-04-19T10:30:52.074Z</time></trkpt><trkpt lat="41.1869818" lon="9.4443989"><ele>4.0</ele><time>2026-04-19T10:30:53.074Z</time></trkpt><trkpt lat="41.1869468" lon="9.4443206"><ele>4.0</ele><time>2026-04-19T10:30:54.074Z</time></trkpt><trkpt lat="41.1869044" lon="9.444254"><ele>4.0</ele><time>2026-04-19T10:30:55.074Z</time></trkpt><trkpt lat="41.1868138" lon="9.4441791"><ele>3.9999999999999996</ele><time>2026-04-19T10:30:57.075Z</time></trkpt><trkpt lat="41.1867433" lon="9.4441161"><ele>4.0</ele><time>2026-04-19T10:30:59.075Z</time></trkpt><trkpt lat="41.1867184" lon="9.4440261"><ele>4.0</ele><time>2026-04-19T10:31:01.075Z</time></trkpt><trkpt lat="41.1867653" lon="9.4438884"><ele>4.0</ele><time>2026-04-19T10:31:03.075Z</time></trkpt><trkpt lat="41.186803" lon="9.4438147"><ele>4.0</ele><time>2026-04-19T10:31:04.075Z</time></trkpt><trkpt lat="41.1868518" lon="9.4436763"><ele>4.0</ele><time>2026-04-19T10:31:06.075Z</time></trkpt><trkpt lat="41.1868248" lon="9.4435574"><ele>4.0</ele><time>2026-04-19T10:31:08.075Z</time></trkpt><trkpt lat="41.1867217" lon="9.4434758"><ele>4.2</ele><time>2026-04-19T10:31:10.075Z</time></trkpt><trkpt lat="41.1866134" lon="9.4434271"><ele>4.4</ele><time>2026-04-19T10:31:12.075Z</time></trkpt><trkpt lat="41.186533" lon="9.4433283"><ele>4.6</ele><time>2026-04-19T10:31:14.074Z</time></trkpt><trkpt lat="41.1864801" lon="9.4431619"><ele>4.8</ele><time>2026-04-19T10:31:16.075Z</time></trkpt><trkpt lat="41.1864641" lon="9.443074"><ele>5.0</ele><time>2026-04-19T10:31:17.075Z</time></trkpt><trkpt lat="41.1864723" lon="9.4429125"><ele>4.5</ele><time>2026-04-19T10:31:19.075Z</time></trkpt><trkpt lat="41.1864944" lon="9.4428283"><ele>4.0</ele><time>2026-04-19T10:31:20.074Z</time></trkpt><trkpt lat="41.1865477" lon="9.4426805"><ele>3.5</ele><time>2026-04-19T10:31:22.075Z</time></trkpt><trkpt lat="41.1865619" lon="9.4425966"><ele>3.0</ele><time>2026-04-19T10:31:23.074Z</time></trkpt><trkpt lat="41.1865542" lon="9.4424985"><ele>2.5</ele><time>2026-04-19T10:31:24.075Z</time></trkpt><trkpt lat="41.1865334" lon="9.4423838"><ele>2.0</ele><time>2026-04-19T10:31:25.075Z</time></trkpt><trkpt lat="41.1865132" lon="9.4422578"><ele>1.9999999999999998</ele><time>2026-04-19T10:31:26.075Z</time></trkpt><trkpt lat="41.1865055" lon="9.442146"><ele>2.0</ele><time>2026-04-19T10:31:27.075Z</time></trkpt><trkpt lat="41.1864915" lon="9.4420398"><ele>2.0</ele><time>2026-04-19T10:31:28.075Z</time></trkpt><trkpt lat="41.1864588" lon="9.4419371"><ele>2.0</ele><time>2026-04-19T10:31:29.075Z</time></trkpt><trkpt lat="41.1864143" lon="9.4418419"><ele>1.9999999999999998</ele><time>2026-04-19T10:31:30.075Z</time></trkpt><trkpt lat="41.1863769" lon="9.4417575"><ele>2.0</ele><time>2026-04-19T10:31:31.075Z</time></trkpt><trkpt lat="41.186344" lon="9.4416857"><ele>2.2</ele><time>2026-04-19T10:31:32.074Z</time></trkpt><trkpt lat="41.1862902" lon="9.4415738"><ele>2.4000000000000004</ele><time>2026-04-19T10:31:34.075Z</time></trkpt><trkpt lat="41.1862668" lon="9.4414406"><ele>2.5999999999999996</ele><time>2026-04-19T10:31:36.075Z</time></trkpt><trkpt lat="41.1862536" lon="9.4413531"><ele>2.8</ele><time>2026-04-19T10:31:37.074Z</time></trkpt><trkpt lat="41.1862297" lon="9.4412372"><ele>3.0</ele><time>2026-04-19T10:31:38.075Z</time></trkpt><trkpt lat="41.1861999" lon="9.4411241"><ele>3.666666666666667</ele><time>2026-04-19T10:31:39.075Z</time></trkpt><trkpt lat="41.1861729" lon="9.4410255"><ele>4.333333333333334</ele><time>2026-04-19T10:31:40.075Z</time></trkpt><trkpt lat="41.1861616" lon="9.4409056"><ele>5.0</ele><time>2026-04-19T10:31:41.075Z</time></trkpt><trkpt lat="41.1861449" lon="9.4407995"><ele>5.666666666666667</ele><time>2026-04-19T10:31:42.075Z</time></trkpt><trkpt lat="41.186128" lon="9.4407052"><ele>6.333333333333334</ele><time>2026-04-19T10:31:43.074Z</time></trkpt><trkpt lat="41.1861112" lon="9.4406124"><ele>7.0</ele><time>2026-04-19T10:31:44.075Z</time></trkpt><trkpt lat="41.1861053" lon="9.4405022"><ele>6.833333333333334</ele><time>2026-04-19T10:31:45.074Z</time></trkpt><trkpt lat="41.1861093" lon="9.4403919"><ele>6.666666666666667</ele><time>2026-04-19T10:31:46.075Z</time></trkpt><trkpt lat="41.1861114" lon="9.4402837"><ele>6.5</ele><time>2026-04-19T10:31:47.074Z</time></trkpt><trkpt lat="41.1861091" lon="9.440172"><ele>6.333333333333334</ele><time>2026-04-19T10:31:48.075Z</time></trkpt><trkpt lat="41.1860949" lon="9.4400434"><ele>6.166666666666667</ele><time>2026-04-19T10:31:49.075Z</time></trkpt><trkpt lat="41.1860825" lon="9.4399168"><ele>6.0</ele><time>2026-04-19T10:31:50.075Z</time></trkpt><trkpt lat="41.1860718" lon="9.4397978"><ele>5.999999999999999</ele><time>2026-04-19T10:31:51.075Z</time></trkpt><trkpt lat="41.1860589" lon="9.4396845"><ele>6.0</ele><time>2026-04-19T10:31:52.075Z</time></trkpt><trkpt lat="41.1860453" lon="9.4395804"><ele>6.0</ele><time>2026-04-19T10:31:53.075Z</time></trkpt><trkpt lat="41.1860325" lon="9.4394855"><ele>6.0</ele><time>2026-04-19T10:31:54.075Z</time></trkpt><trkpt lat="41.1860318" lon="9.4394014"><ele>6.0</ele><time>2026-04-19T10:31:55.075Z</time></trkpt><trkpt lat="41.1860514" lon="9.4393118"><ele>5.999999999999999</ele><time>2026-04-19T10:31:56.075Z</time></trkpt><trkpt lat="41.1860861" lon="9.4392373"><ele>6.0</ele><time>2026-04-19T10:31:57.075Z</time></trkpt><trkpt lat="41.1861283" lon="9.4391465"><ele>5.5</ele><time>2026-04-19T10:31:58.075Z</time></trkpt><trkpt lat="41.1861682" lon="9.4390554"><ele>5.0</ele><time>2026-04-19T10:31:59.075Z</time></trkpt><trkpt lat="41.1862026" lon="9.4389644"><ele>4.5</ele><time>2026-04-19T10:32:00.075Z</time></trkpt><trkpt lat="41.1862257" lon="9.4388796"><ele>4.0</ele><time>2026-04-19T10:32:01.075Z</time></trkpt><trkpt lat="41.186242" lon="9.4387987"><ele>3.5</ele><time>2026-04-19T10:32:02.075Z</time></trkpt><trkpt lat="41.1862908" lon="9.4386618"><ele>3.0</ele><time>2026-04-19T10:32:04.074Z</time></trkpt><trkpt lat="41.1863885" lon="9.4385871"><ele>2.6</ele><time>2026-04-19T10:32:06.075Z</time></trkpt><trkpt lat="41.1864721" lon="9.4384988"><ele>2.1999999999999997</ele><time>2026-04-19T10:32:08.075Z</time></trkpt><trkpt lat="41.1865067" lon="9.4383397"><ele>1.8</ele><time>2026-04-19T10:32:10.075Z</time></trkpt><trkpt lat="41.1865314" lon="9.4382298"><ele>1.4</ele><time>2026-04-19T10:32:11.074Z</time></trkpt><trkpt lat="41.1865552" lon="9.4380944"><ele>1.0</ele><time>2026-04-19T10:32:12.075Z</time></trkpt><trkpt lat="41.1865826" lon="9.4379881"><ele>1.6666666666666665</ele><time>2026-04-19T10:32:13.075Z</time></trkpt><trkpt lat="41.1866045" lon="9.437884"><ele>2.3333333333333335</ele><time>2026-04-19T10:32:14.075Z</time></trkpt><trkpt lat="41.186608" lon="9.4377785"><ele>3.0</ele><time>2026-04-19T10:32:15.075Z</time></trkpt><trkpt lat="41.1866045" lon="9.4376708"><ele>3.666666666666667</ele><time>2026-04-19T10:32:16.075Z</time></trkpt><trkpt lat="41.1866073" lon="9.4375832"><ele>4.333333333333334</ele><time>2026-04-19T10:32:17.074Z</time></trkpt><trkpt lat="41.186648" lon="9.4374295"><ele>5.0</ele><time>2026-04-19T10:32:19.075Z</time></trkpt><trkpt lat="41.1867103" lon="9.4372948"><ele>5.0</ele><time>2026-04-19T10:32:21.075Z</time></trkpt><trkpt lat="41.1867574" lon="9.4371582"><ele>5.0</ele><time>2026-04-19T10:32:23.075Z</time></trkpt><trkpt lat="41.1868244" lon="9.4370396"><ele>5.0</ele><time>2026-04-19T10:32:25.075Z</time></trkpt><trkpt lat="41.1868761" lon="9.436986"><ele>5.0</ele><time>2026-04-19T10:32:26.075Z</time></trkpt><trkpt lat="41.1869424" lon="9.4369376"><ele>5.0</ele><time>2026-04-19T10:32:27.074Z</time></trkpt><trkpt lat="41.1870032" lon="9.4368914"><ele>5.0</ele><time>2026-04-19T10:32:28.074Z</time></trkpt><trkpt lat="41.1870597" lon="9.4368518"><ele>5.5</ele><time>2026-04-19T10:32:29.075Z</time></trkpt><trkpt lat="41.1871201" lon="9.4368223"><ele>6.0</ele><time>2026-04-19T10:32:30.075Z</time></trkpt><trkpt lat="41.1872235" lon="9.4367792"><ele>6.5</ele><time>2026-04-19T10:32:32.074Z</time></trkpt><trkpt lat="41.1873135" lon="9.4367539"><ele>7.0</ele><time>2026-04-19T10:32:34.075Z</time></trkpt><trkpt lat="41.1873702" lon="9.4366416"><ele>7.499999999999999</ele><time>2026-04-19T10:32:36.075Z</time></trkpt><trkpt lat="41.1873737" lon="9.4365502"><ele>8.0</ele><time>2026-04-19T10:32:37.075Z</time></trkpt><trkpt lat="41.1873629" lon="9.4364347"><ele>7.999999999999999</ele><time>2026-04-19T10:32:38.075Z</time></trkpt><trkpt lat="41.1873578" lon="9.4363321"><ele>8.0</ele><time>2026-04-19T10:32:39.075Z</time></trkpt><trkpt lat="41.1873434" lon="9.4362332"><ele>8.0</ele><time>2026-04-19T10:32:40.075Z</time></trkpt><trkpt lat="41.1873232" lon="9.4360844"><ele>8.0</ele><time>2026-04-19T10:32:42.074Z</time></trkpt><trkpt lat="41.1873495" lon="9.4359746"><ele>7.999999999999999</ele><time>2026-04-19T10:32:44.075Z</time></trkpt><trkpt lat="41.18741" lon="9.4359085"><ele>8.0</ele><time>2026-04-19T10:32:46.075Z</time></trkpt><trkpt lat="41.1874977" lon="9.4358651"><ele>7.2</ele><time>2026-04-19T10:32:48.075Z</time></trkpt><trkpt lat="41.1875792" lon="9.4357969"><ele>6.4</ele><time>2026-04-19T10:32:50.074Z</time></trkpt><trkpt lat="41.1876209" lon="9.4356832"><ele>5.6000000000000005</ele><time>2026-04-19T10:32:52.075Z</time></trkpt><trkpt lat="41.1876767" lon="9.4355782"><ele>4.800000000000001</ele><time>2026-04-19T10:32:54.075Z</time></trkpt><trkpt lat="41.1877726" lon="9.4355131"><ele>4.0</ele><time>2026-04-19T10:32:56.075Z</time></trkpt><trkpt lat="41.1878507" lon="9.4354125"><ele>3.4000000000000004</ele><time>2026-04-19T10:32:58.075Z</time></trkpt><trkpt lat="41.1879235" lon="9.435294"><ele>2.8000000000000003</ele><time>2026-04-19T10:33:00.075Z</time></trkpt><trkpt lat="41.1879994" lon="9.4351741"><ele>2.2</ele><time>2026-04-19T10:33:02.075Z</time></trkpt><trkpt lat="41.1880327" lon="9.4351007"><ele>1.6</ele><time>2026-04-19T10:33:03.075Z</time></trkpt><trkpt lat="41.1880683" lon="9.435011"><ele>1.0</ele><time>2026-04-19T10:33:04.075Z</time></trkpt><trkpt lat="41.188097" lon="9.4349099"><ele>1.0</ele><time>2026-04-19T10:33:05.075Z</time></trkpt><trkpt lat="41.1881272" lon="9.4348201"><ele>0.9999999999999999</ele><time>2026-04-19T10:33:06.075Z</time></trkpt><trkpt lat="41.1881612" lon="9.4347387"><ele>1.0</ele><time>2026-04-19T10:33:07.075Z</time></trkpt><trkpt lat="41.1882015" lon="9.4346587"><ele>1.0</ele><time>2026-04-19T10:33:08.075Z</time></trkpt><trkpt lat="41.1882456" lon="9.4345981"><ele>0.9999999999999999</ele><time>2026-04-19T10:33:09.075Z</time></trkpt><trkpt lat="41.1882976" lon="9.4345495"><ele>1.0</ele><time>2026-04-19T10:33:10.075Z</time></trkpt><trkpt lat="41.1883983" lon="9.4345087"><ele>1.0</ele><time>2026-04-19T10:33:12.075Z</time></trkpt><trkpt lat="41.1884827" lon="9.4345051"><ele>1.5</ele><time>2026-04-19T10:33:14.075Z</time></trkpt><trkpt lat="41.1885771" lon="9.4344774"><ele>2.0</ele><time>2026-04-19T10:33:16.075Z</time></trkpt><trkpt lat="41.1886683" lon="9.434398"><ele>2.5</ele><time>2026-04-19T10:33:18.075Z</time></trkpt><trkpt lat="41.1887399" lon="9.4343485"><ele>3.0</ele><time>2026-04-19T10:33:20.075Z</time></trkpt><trkpt lat="41.1888033" lon="9.4343378"><ele>3.4999999999999996</ele><time>2026-04-19T10:33:22.075Z</time></trkpt><trkpt lat="41.1888942" lon="9.4343048"><ele>4.0</ele><time>2026-04-19T10:33:25.075Z</time></trkpt><trkpt lat="41.1889638" lon="9.4343086"><ele>3.9999999999999996</ele><time>2026-04-19T10:33:28.075Z</time></trkpt><trkpt lat="41.1890278" lon="9.4343267"><ele>4.0</ele><time>2026-04-19T10:33:32.075Z</time></trkpt><trkpt lat="41.188951" lon="9.4343029"><ele>4.0</ele><time>2026-04-19T10:34:20.075Z</time></trkpt><trkpt lat="41.1888793" lon="9.434317"><ele>4.0</ele><time>2026-04-19T10:34:22.075Z</time></trkpt><trkpt lat="41.1888029" lon="9.4343345"><ele>3.9999999999999996</ele><time>2026-04-19T10:34:24.074Z</time></trkpt><trkpt lat="41.1887237" lon="9.4343752"><ele>4.0</ele><time>2026-04-19T10:34:26.075Z</time></trkpt><trkpt lat="41.1886555" lon="9.4344323"><ele>3.9999999999999996</ele><time>2026-04-19T10:34:28.075Z</time></trkpt><trkpt lat="41.1885806" lon="9.4344664"><ele>4.0</ele><time>2026-04-19T10:34:30.075Z</time></trkpt><trkpt lat="41.1885031" lon="9.4344915"><ele>4.0</ele><time>2026-04-19T10:34:32.075Z</time></trkpt><trkpt lat="41.1884197" lon="9.4345046"><ele>4.0</ele><time>2026-04-19T10:34:34.074Z</time></trkpt><trkpt lat="41.1883417" lon="9.434533"><ele>3.9999999999999996</ele><time>2026-04-19T10:34:36.075Z</time></trkpt><trkpt lat="41.1882805" lon="9.4345737"><ele>4.0</ele><time>2026-04-19T10:34:38.075Z</time></trkpt><trkpt lat="41.1882121" lon="9.4346127"><ele>3.4000000000000004</ele><time>2026-04-19T10:34:41.075Z</time></trkpt><trkpt lat="41.1881482" lon="9.4345973"><ele>2.8000000000000003</ele><time>2026-04-19T10:35:29.074Z</time></trkpt><trkpt lat="41.1881778" lon="9.4346737"><ele>2.2</ele><time>2026-04-19T10:41:14.073Z</time></trkpt><trkpt lat="41.1881351" lon="9.4347868"><ele>1.6</ele><time>2026-04-19T10:41:16.073Z</time></trkpt><trkpt lat="41.1880887" lon="9.4349338"><ele>1.0</ele><time>2026-04-19T10:41:18.073Z</time></trkpt><trkpt lat="41.1880411" lon="9.4350704"><ele>1.0</ele><time>2026-04-19T10:41:20.073Z</time></trkpt><trkpt lat="41.1879829" lon="9.4352063"><ele>1.0</ele><time>2026-04-19T10:41:22.073Z</time></trkpt><trkpt lat="41.1879038" lon="9.4353293"><ele>1.0</ele><time>2026-04-19T10:41:24.073Z</time></trkpt><trkpt lat="41.1878401" lon="9.435449"><ele>1.0</ele><time>2026-04-19T10:41:26.072Z</time></trkpt><trkpt lat="41.1877685" lon="9.4355349"><ele>1.0</ele><time>2026-04-19T10:41:28.073Z</time></trkpt><trkpt lat="41.1876876" lon="9.4355962"><ele>1.6</ele><time>2026-04-19T10:41:30.072Z</time></trkpt><trkpt lat="41.1876334" lon="9.4356956"><ele>2.2</ele><time>2026-04-19T10:41:32.073Z</time></trkpt><trkpt lat="41.1875698" lon="9.4358078"><ele>2.8000000000000003</ele><time>2026-04-19T10:41:34.073Z</time></trkpt><trkpt lat="41.1874717" lon="9.4358713"><ele>3.4000000000000004</ele><time>2026-04-19T10:41:36.073Z</time></trkpt><trkpt lat="41.1873759" lon="9.4359515"><ele>4.0</ele><time>2026-04-19T10:41:38.073Z</time></trkpt><trkpt lat="41.1873447" lon="9.4360699"><ele>4.0</ele><time>2026-04-19T10:41:40.073Z</time></trkpt><trkpt lat="41.1873707" lon="9.4362627"><ele>4.0</ele><time>2026-04-19T10:41:42.073Z</time></trkpt><trkpt lat="41.1873787" lon="9.4363771"><ele>4.0</ele><time>2026-04-19T10:41:43.073Z</time></trkpt><trkpt lat="41.1873863" lon="9.436479"><ele>4.0</ele><time>2026-04-19T10:41:44.073Z</time></trkpt><trkpt lat="41.1873948" lon="9.4365649"><ele>4.0</ele><time>2026-04-19T10:41:45.073Z</time></trkpt><trkpt lat="41.1873798" lon="9.4366861"><ele>3.4999999999999996</ele><time>2026-04-19T10:41:47.073Z</time></trkpt><trkpt lat="41.1872987" lon="9.4367445"><ele>3.0</ele><time>2026-04-19T10:41:49.073Z</time></trkpt><trkpt lat="41.1872377" lon="9.4367703"><ele>2.5</ele><time>2026-04-19T10:41:50.073Z</time></trkpt><trkpt lat="41.1871648" lon="9.436805"><ele>2.0</ele><time>2026-04-19T10:41:51.073Z</time></trkpt><trkpt lat="41.1870832" lon="9.4368477"><ele>1.5</ele><time>2026-04-19T10:41:52.073Z</time></trkpt><trkpt lat="41.1870052" lon="9.436897"><ele>1.0</ele><time>2026-04-19T10:41:53.073Z</time></trkpt><trkpt lat="41.1869392" lon="9.4369511"><ele>1.0</ele><time>2026-04-19T10:41:54.073Z</time></trkpt><trkpt lat="41.1868815" lon="9.4369983"><ele>0.9999999999999999</ele><time>2026-04-19T10:41:55.073Z</time></trkpt><trkpt lat="41.1868327" lon="9.4370516"><ele>1.0</ele><time>2026-04-19T10:41:56.073Z</time></trkpt><trkpt lat="41.186789" lon="9.4371203"><ele>1.0</ele><time>2026-04-19T10:41:57.072Z</time></trkpt><trkpt lat="41.1867575" lon="9.4372"><ele>0.9999999999999999</ele><time>2026-04-19T10:41:58.073Z</time></trkpt><trkpt lat="41.1867235" lon="9.4372917"><ele>1.0</ele><time>2026-04-19T10:41:59.073Z</time></trkpt><trkpt lat="41.1866827" lon="9.4373734"><ele>1.0</ele><time>2026-04-19T10:42:00.073Z</time></trkpt><trkpt lat="41.1866497" lon="9.4374513"><ele>1.6666666666666665</ele><time>2026-04-19T10:42:01.073Z</time></trkpt><trkpt lat="41.1866181" lon="9.4376169"><ele>2.3333333333333335</ele><time>2026-04-19T10:42:03.073Z</time></trkpt><trkpt lat="41.1866244" lon="9.4377205"><ele>3.0</ele><time>2026-04-19T10:42:04.073Z</time></trkpt><trkpt lat="41.1866221" lon="9.4378212"><ele>3.666666666666667</ele><time>2026-04-19T10:42:05.073Z</time></trkpt><trkpt lat="41.1866062" lon="9.4379202"><ele>4.333333333333334</ele><time>2026-04-19T10:42:06.073Z</time></trkpt><trkpt lat="41.1865738" lon="9.4380265"><ele>5.0</ele><time>2026-04-19T10:42:07.073Z</time></trkpt><trkpt lat="41.1865444" lon="9.4381365"><ele>5.333333333333334</ele><time>2026-04-19T10:42:08.072Z</time></trkpt><trkpt lat="41.1865264" lon="9.4382337"><ele>5.666666666666667</ele><time>2026-04-19T10:42:09.073Z</time></trkpt><trkpt lat="41.1865087" lon="9.4383257"><ele>6.0</ele><time>2026-04-19T10:42:10.073Z</time></trkpt><trkpt lat="41.1864892" lon="9.4384745"><ele>6.333333333333334</ele><time>2026-04-19T10:42:12.073Z</time></trkpt><trkpt lat="41.1864271" lon="9.4385508"><ele>6.666666666666667</ele><time>2026-04-19T10:42:14.073Z</time></trkpt><trkpt lat="41.1863588" lon="9.4385889"><ele>7.0</ele><time>2026-04-19T10:42:24.072Z</time></trkpt><trkpt lat="41.186304" lon="9.4386367"><ele>6.333333333333334</ele><time>2026-04-19T10:42:26.073Z</time></trkpt><trkpt lat="41.1862752" lon="9.4387225"><ele>5.666666666666667</ele><time>2026-04-19T10:42:28.073Z</time></trkpt><trkpt lat="41.1862385" lon="9.4388726"><ele>5.0</ele><time>2026-04-19T10:42:30.073Z</time></trkpt><trkpt lat="41.1862113" lon="9.4389646"><ele>4.333333333333334</ele><time>2026-04-19T10:42:31.073Z</time></trkpt><trkpt lat="41.1861715" lon="9.4390598"><ele>3.666666666666667</ele><time>2026-04-19T10:42:32.073Z</time></trkpt><trkpt lat="41.1861256" lon="9.4391487"><ele>3.0</ele><time>2026-04-19T10:42:33.072Z</time></trkpt><trkpt lat="41.1860822" lon="9.4392262"><ele>3.0</ele><time>2026-04-19T10:42:34.073Z</time></trkpt><trkpt lat="41.186045" lon="9.4393743"><ele>3.0</ele><time>2026-04-19T10:42:36.073Z</time></trkpt><trkpt lat="41.1860468" lon="9.4394662"><ele>3.0</ele><time>2026-04-19T10:42:37.073Z</time></trkpt><trkpt lat="41.1860547" lon="9.4395715"><ele>3.0</ele><time>2026-04-19T10:42:38.073Z</time></trkpt><trkpt lat="41.1860657" lon="9.4396861"><ele>3.0</ele><time>2026-04-19T10:42:39.073Z</time></trkpt><trkpt lat="41.18608" lon="9.439801"><ele>3.0</ele><time>2026-04-19T10:42:40.073Z</time></trkpt><trkpt lat="41.1860957" lon="9.4399247"><ele>3.5999999999999996</ele><time>2026-04-19T10:42:41.073Z</time></trkpt><trkpt lat="41.1861124" lon="9.440061"><ele>4.199999999999999</ele><time>2026-04-19T10:42:42.073Z</time></trkpt><trkpt lat="41.1861216" lon="9.4401831"><ele>4.8</ele><time>2026-04-19T10:42:43.073Z</time></trkpt><trkpt lat="41.1861193" lon="9.4403059"><ele>5.3999999999999995</ele><time>2026-04-19T10:42:44.073Z</time></trkpt><trkpt lat="41.1861135" lon="9.440431"><ele>6.0</ele><time>2026-04-19T10:42:45.073Z</time></trkpt><trkpt lat="41.1861156" lon="9.4405436"><ele>6.166666666666667</ele><time>2026-04-19T10:42:46.073Z</time></trkpt><trkpt lat="41.1861192" lon="9.4406508"><ele>6.333333333333334</ele><time>2026-04-19T10:42:47.073Z</time></trkpt><trkpt lat="41.186134" lon="9.4407663"><ele>6.5</ele><time>2026-04-19T10:42:48.073Z</time></trkpt><trkpt lat="41.1861395" lon="9.4408626"><ele>6.666666666666667</ele><time>2026-04-19T10:42:49.073Z</time></trkpt><trkpt lat="41.1861559" lon="9.4409675"><ele>6.833333333333334</ele><time>2026-04-19T10:42:50.073Z</time></trkpt><trkpt lat="41.1861783" lon="9.441067"><ele>7.0</ele><time>2026-04-19T10:42:51.073Z</time></trkpt><trkpt lat="41.186206" lon="9.4411689"><ele>7.0</ele><time>2026-04-19T10:42:52.073Z</time></trkpt><trkpt lat="41.1862334" lon="9.4412661"><ele>6.999999999999999</ele><time>2026-04-19T10:42:53.073Z</time></trkpt><trkpt lat="41.1862499" lon="9.4413588"><ele>6.999999999999999</ele><time>2026-04-19T10:42:54.073Z</time></trkpt><trkpt lat="41.1862614" lon="9.4415049"><ele>7.0</ele><time>2026-04-19T10:42:56.073Z</time></trkpt><trkpt lat="41.1863337" lon="9.4416673"><ele>7.0</ele><time>2026-04-19T10:42:58.073Z</time></trkpt><trkpt lat="41.1863856" lon="9.441768"><ele>7.166666666666667</ele><time>2026-04-19T10:42:59.073Z</time></trkpt><trkpt lat="41.1864293" lon="9.4418712"><ele>7.333333333333334</ele><time>2026-04-19T10:43:00.073Z</time></trkpt><trkpt lat="41.1864698" lon="9.441976"><ele>7.5</ele><time>2026-04-19T10:43:01.072Z</time></trkpt><trkpt lat="41.1864882" lon="9.4420917"><ele>7.666666666666666</ele><time>2026-04-19T10:43:02.073Z</time></trkpt><trkpt lat="41.1865034" lon="9.4422029"><ele>7.833333333333333</ele><time>2026-04-19T10:43:03.073Z</time></trkpt><trkpt lat="41.1865221" lon="9.4423054"><ele>8.0</ele><time>2026-04-19T10:43:04.072Z</time></trkpt><trkpt lat="41.1865426" lon="9.4424042"><ele>7.999999999999999</ele><time>2026-04-19T10:43:05.073Z</time></trkpt><trkpt lat="41.1865632" lon="9.4424989"><ele>8.0</ele><time>2026-04-19T10:43:06.073Z</time></trkpt><trkpt lat="41.1865578" lon="9.4425919"><ele>8.0</ele><time>2026-04-19T10:43:07.072Z</time></trkpt><trkpt lat="41.1865313" lon="9.4426817"><ele>8.0</ele><time>2026-04-19T10:43:08.073Z</time></trkpt><trkpt lat="41.1864981" lon="9.4427738"><ele>7.999999999999999</ele><time>2026-04-19T10:43:09.073Z</time></trkpt><trkpt lat="41.1864687" lon="9.4429326"><ele>8.0</ele><time>2026-04-19T10:43:11.073Z</time></trkpt><trkpt lat="41.186466" lon="9.4431008"><ele>7.499999999999999</ele><time>2026-04-19T10:43:13.072Z</time></trkpt><trkpt lat="41.1864872" lon="9.4431887"><ele>7.0</ele><time>2026-04-19T10:43:14.073Z</time></trkpt><trkpt lat="41.1865287" lon="9.4433288"><ele>6.5</ele><time>2026-04-19T10:43:16.073Z</time></trkpt><trkpt lat="41.1866227" lon="9.4434295"><ele>6.0</ele><time>2026-04-19T10:43:18.073Z</time></trkpt><trkpt lat="41.1866899" lon="9.44346"><ele>5.5</ele><time>2026-04-19T10:43:19.073Z</time></trkpt><trkpt lat="41.1867527" lon="9.4434821"><ele>5.0</ele><time>2026-04-19T10:43:20.073Z</time></trkpt><trkpt lat="41.1868319" lon="9.443598"><ele>5.0</ele><time>2026-04-19T10:43:22.073Z</time></trkpt><trkpt lat="41.1868264" lon="9.4437454"><ele>5.0</ele><time>2026-04-19T10:43:24.073Z</time></trkpt><trkpt lat="41.1867943" lon="9.4438283"><ele>5.0</ele><time>2026-04-19T10:43:25.073Z</time></trkpt><trkpt lat="41.1867312" lon="9.4439584"><ele>5.0</ele><time>2026-04-19T10:43:27.072Z</time></trkpt><trkpt lat="41.1867102" lon="9.4440997"><ele>5.0</ele><time>2026-04-19T10:43:29.073Z</time></trkpt><trkpt lat="41.186788" lon="9.4441766"><ele>4.8</ele><time>2026-04-19T10:43:31.073Z</time></trkpt><trkpt lat="41.1868894" lon="9.4442646"><ele>4.6</ele><time>2026-04-19T10:43:33.073Z</time></trkpt><trkpt lat="41.1869477" lon="9.4443437"><ele>4.4</ele><time>2026-04-19T10:43:34.073Z</time></trkpt><trkpt lat="41.1870076" lon="9.4444588"><ele>4.2</ele><time>2026-04-19T10:43:35.072Z</time></trkpt><trkpt lat="41.1870589" lon="9.4445449"><ele>4.0</ele><time>2026-04-19T10:43:36.073Z</time></trkpt><trkpt lat="41.1871207" lon="9.4446243"><ele>3.6666666666666665</ele><time>2026-04-19T10:43:37.073Z</time></trkpt><trkpt lat="41.1871829" lon="9.4446964"><ele>3.333333333333333</ele><time>2026-04-19T10:43:38.073Z</time></trkpt><trkpt lat="41.1872287" lon="9.444779"><ele>3.0</ele><time>2026-04-19T10:43:39.073Z</time></trkpt><trkpt lat="41.1872561" lon="9.444867"><ele>2.6666666666666665</ele><time>2026-04-19T10:43:40.073Z</time></trkpt><trkpt lat="41.1872642" lon="9.4449558"><ele>2.333333333333333</ele><time>2026-04-19T10:43:41.073Z</time></trkpt><trkpt lat="41.1872594" lon="9.4450505"><ele>2.0</ele><time>2026-04-19T10:43:42.073Z</time></trkpt><trkpt lat="41.1872981" lon="9.4452025"><ele>2.0</ele><time>2026-04-19T10:43:44.072Z</time></trkpt><trkpt lat="41.1873355" lon="9.445287"><ele>2.0</ele><time>2026-04-19T10:43:45.073Z</time></trkpt><trkpt lat="41.187402" lon="9.4453711"><ele>2.0</ele><time>2026-04-19T10:43:46.072Z</time></trkpt><trkpt lat="41.1874717" lon="9.4454631"><ele>2.0</ele><time>2026-04-19T10:43:47.072Z</time></trkpt><trkpt lat="41.1875282" lon="9.4455674"><ele>2.0</ele><time>2026-04-19T10:43:48.073Z</time></trkpt><trkpt lat="41.1875857" lon="9.4456968"><ele>2.4000000000000004</ele><time>2026-04-19T10:43:49.072Z</time></trkpt><trkpt lat="41.1876386" lon="9.4458106"><ele>2.8000000000000003</ele><time>2026-04-19T10:43:50.072Z</time></trkpt><trkpt lat="41.1876856" lon="9.4459049"><ele>3.2</ele><time>2026-04-19T10:43:51.072Z</time></trkpt><trkpt lat="41.1877145" lon="9.4459918"><ele>3.6</ele><time>2026-04-19T10:43:52.072Z</time></trkpt><trkpt lat="41.1877645" lon="9.4461331"><ele>4.0</ele><time>2026-04-19T10:43:54.073Z</time></trkpt><trkpt lat="41.1878624" lon="9.4461985"><ele>3.9999999999999996</ele><time>2026-04-19T10:43:56.073Z</time></trkpt><trkpt lat="41.1879759" lon="9.4461708"><ele>4.0</ele><time>2026-04-19T10:43:58.073Z</time></trkpt><trkpt lat="41.1880443" lon="9.4461589"><ele>4.0</ele><time>2026-04-19T10:43:59.073Z</time></trkpt><trkpt lat="41.1881126" lon="9.4461931"><ele>4.0</ele><time>2026-04-19T10:44:01.073Z</time></trkpt><trkpt lat="41.1881286" lon="9.4463189"><ele>3.9999999999999996</ele><time>2026-04-19T10:44:03.073Z</time></trkpt><trkpt lat="41.1881232" lon="9.4464068"><ele>4.0</ele><time>2026-04-19T10:44:04.073Z</time></trkpt><trkpt lat="41.1881772" lon="9.4465568"><ele>3.9999999999999996</ele><time>2026-04-19T10:44:06.073Z</time></trkpt><trkpt lat="41.1882895" lon="9.4466375"><ele>4.0</ele><time>2026-04-19T10:44:08.073Z</time></trkpt><trkpt lat="41.1883638" lon="9.4466475"><ele>4.0</ele><time>2026-04-19T10:44:09.073Z</time></trkpt><trkpt lat="41.188444" lon="9.4466453"><ele>4.0</ele><time>2026-04-19T10:44:10.073Z</time></trkpt><trkpt lat="41.1885268" lon="9.4466319"><ele>3.9999999999999996</ele><time>2026-04-19T10:44:11.073Z</time></trkpt><trkpt lat="41.1886054" lon="9.4466321"><ele>4.0</ele><time>2026-04-19T10:44:12.073Z</time></trkpt><trkpt lat="41.1886821" lon="9.4466476"><ele>3.9999999999999996</ele><time>2026-04-19T10:44:13.073Z</time></trkpt><trkpt lat="41.1887647" lon="9.4466777"><ele>4.0</ele><time>2026-04-19T10:44:14.073Z</time></trkpt><trkpt lat="41.1888481" lon="9.4467133"><ele>4.0</ele><time>2026-04-19T10:44:15.073Z</time></trkpt><trkpt lat="41.188922" lon="9.4467482"><ele>4.0</ele><time>2026-04-19T10:44:16.073Z</time></trkpt><trkpt lat="41.1889972" lon="9.4467693"><ele>3.9999999999999996</ele><time>2026-04-19T10:44:17.073Z</time></trkpt><trkpt lat="41.189077" lon="9.4467727"><ele>4.0</ele><time>2026-04-19T10:44:18.073Z</time></trkpt><trkpt lat="41.1891564" lon="9.4467551"><ele>4.4</ele><time>2026-04-19T10:44:19.073Z</time></trkpt><trkpt lat="41.1892362" lon="9.4467316"><ele>4.800000000000001</ele><time>2026-04-19T10:44:20.073Z</time></trkpt><trkpt lat="41.1893199" lon="9.446691"><ele>5.199999999999999</ele><time>2026-04-19T10:44:21.073Z</time></trkpt><trkpt lat="41.1894121" lon="9.4466395"><ele>5.6</ele><time>2026-04-19T10:44:22.073Z</time></trkpt><trkpt lat="41.1895051" lon="9.4465822"><ele>6.0</ele><time>2026-04-19T10:44:23.073Z</time></trkpt><trkpt lat="41.1895898" lon="9.4465262"><ele>6.0</ele><time>2026-04-19T10:44:24.073Z</time></trkpt><trkpt lat="41.1896679" lon="9.4464698"><ele>6.0</ele><time>2026-04-19T10:44:25.072Z</time></trkpt><trkpt lat="41.1897516" lon="9.4464298"><ele>6.0</ele><time>2026-04-19T10:44:26.073Z</time></trkpt><trkpt lat="41.1898311" lon="9.4464107"><ele>6.0</ele><time>2026-04-19T10:44:27.073Z</time></trkpt><trkpt lat="41.1899083" lon="9.446413"><ele>6.0</ele><time>2026-04-19T10:44:28.073Z</time></trkpt><trkpt lat="41.189984" lon="9.4464368"><ele>6.0</ele><time>2026-04-19T10:44:29.072Z</time></trkpt><trkpt lat="41.1900665" lon="9.446488"><ele>5.3999999999999995</ele><time>2026-04-19T10:44:30.072Z</time></trkpt><trkpt lat="41.1901509" lon="9.4465558"><ele>4.8</ele><time>2026-04-19T10:44:31.072Z</time></trkpt><trkpt lat="41.1902362" lon="9.4466379"><ele>4.199999999999999</ele><time>2026-04-19T10:44:32.072Z</time></trkpt><trkpt lat="41.1903241" lon="9.4467303"><ele>3.5999999999999996</ele><time>2026-04-19T10:44:33.073Z</time></trkpt><trkpt lat="41.1904117" lon="9.4468287"><ele>3.0</ele><time>2026-04-19T10:44:34.073Z</time></trkpt><trkpt lat="41.1905063" lon="9.4469279"><ele>3.0</ele><time>2026-04-19T10:44:35.073Z</time></trkpt><trkpt lat="41.1906053" lon="9.4470158"><ele>3.0</ele><time>2026-04-19T10:44:36.073Z</time></trkpt><trkpt lat="41.1906881" lon="9.4470933"><ele>3.0</ele><time>2026-04-19T10:44:37.073Z</time></trkpt><trkpt lat="41.1907702" lon="9.4471637"><ele>3.0</ele><time>2026-04-19T10:44:38.073Z</time></trkpt><trkpt lat="41.1908473" lon="9.4472316"><ele>3.0</ele><time>2026-04-19T10:44:39.072Z</time></trkpt><trkpt lat="41.190923" lon="9.4472942"><ele>2.8571428571428568</ele><time>2026-04-19T10:44:40.073Z</time></trkpt><trkpt lat="41.1909891" lon="9.4473573"><ele>2.7142857142857144</ele><time>2026-04-19T10:44:41.073Z</time></trkpt><trkpt lat="41.1910399" lon="9.4474232"><ele>2.571428571428571</ele><time>2026-04-19T10:44:42.073Z</time></trkpt><trkpt lat="41.1910813" lon="9.4474997"><ele>2.4285714285714284</ele><time>2026-04-19T10:44:43.073Z</time></trkpt><trkpt lat="41.1911147" lon="9.4475759"><ele>2.2857142857142856</ele><time>2026-04-19T10:44:44.073Z</time></trkpt><trkpt lat="41.1911296" lon="9.4476702"><ele>2.142857142857143</ele><time>2026-04-19T10:44:45.073Z</time></trkpt><trkpt lat="41.1911278" lon="9.4477731"><ele>2.0</ele><time>2026-04-19T10:44:46.073Z</time></trkpt><trkpt lat="41.1911123" lon="9.4478611"><ele>1.8</ele><time>2026-04-19T10:44:47.073Z</time></trkpt><trkpt lat="41.1910959" lon="9.4480161"><ele>1.6</ele><time>2026-04-19T10:44:49.073Z</time></trkpt><trkpt lat="41.1911282" lon="9.4480891"><ele>1.4000000000000001</ele><time>2026-04-19T10:44:50.073Z</time></trkpt><trkpt lat="41.191188" lon="9.4481957"><ele>1.2000000000000002</ele><time>2026-04-19T10:44:52.073Z</time></trkpt><trkpt lat="41.1912465" lon="9.4483076"><ele>1.0</ele><time>2026-04-19T10:44:54.072Z</time></trkpt><trkpt lat="41.191288" lon="9.4484246"><ele>1.0</ele><time>2026-04-19T10:44:56.073Z</time></trkpt><trkpt lat="41.1913403" lon="9.448534"><ele>1.0</ele><time>2026-04-19T10:44:58.072Z</time></trkpt><trkpt lat="41.1913919" lon="9.4485883"><ele>1.0</ele><time>2026-04-19T10:44:59.073Z</time></trkpt><trkpt lat="41.1914669" lon="9.4486674"><ele>1.0</ele><time>2026-04-19T10:45:00.073Z</time></trkpt><trkpt lat="41.1915414" lon="9.4487554"><ele>1.0</ele><time>2026-04-19T10:45:01.073Z</time></trkpt><trkpt lat="41.1916119" lon="9.4488458"><ele>1.6666666666666665</ele><time>2026-04-19T10:45:02.073Z</time></trkpt><trkpt lat="41.1916703" lon="9.4489358"><ele>2.3333333333333335</ele><time>2026-04-19T10:45:03.073Z</time></trkpt><trkpt lat="41.1917254" lon="9.4490198"><ele>3.0</ele><time>2026-04-19T10:45:04.073Z</time></trkpt><trkpt lat="41.191778" lon="9.4491119"><ele>3.666666666666667</ele><time>2026-04-19T10:45:05.073Z</time></trkpt><trkpt lat="41.1918365" lon="9.4492133"><ele>4.333333333333334</ele><time>2026-04-19T10:45:06.073Z</time></trkpt><trkpt lat="41.1918771" lon="9.4493035"><ele>5.0</ele><time>2026-04-19T10:45:07.073Z</time></trkpt><trkpt lat="41.1919161" lon="9.4493717"><ele>5.0</ele><time>2026-04-19T10:45:08.073Z</time></trkpt><trkpt lat="41.1919713" lon="9.4494931"><ele>5.0</ele><time>2026-04-19T10:45:10.073Z</time></trkpt><trkpt lat="41.1920291" lon="9.4495708"><ele>5.0</ele><time>2026-04-19T10:45:12.073Z</time></trkpt><trkpt lat="41.1921211" lon="9.4495411"><ele>5.0</ele><time>2026-04-19T10:45:14.073Z</time></trkpt><trkpt lat="41.1922247" lon="9.4494697"><ele>5.0</ele><time>2026-04-19T10:45:16.073Z</time></trkpt><trkpt lat="41.1922867" lon="9.4494219"><ele>5.833333333333334</ele><time>2026-04-19T10:45:17.073Z</time></trkpt><trkpt lat="41.1923442" lon="9.4493756"><ele>6.666666666666667</ele><time>2026-04-19T10:45:18.073Z</time></trkpt><trkpt lat="41.192412" lon="9.4493394"><ele>7.5</ele><time>2026-04-19T10:45:19.073Z</time></trkpt><trkpt lat="41.192482" lon="9.4493214"><ele>8.333333333333334</ele><time>2026-04-19T10:45:20.073Z</time></trkpt><trkpt lat="41.1925651" lon="9.4493152"><ele>9.166666666666668</ele><time>2026-04-19T10:45:21.073Z</time></trkpt><trkpt lat="41.1926503" lon="9.4493136"><ele>10.0</ele><time>2026-04-19T10:45:22.073Z</time></trkpt><trkpt lat="41.1927357" lon="9.4493124"><ele>10.0</ele><time>2026-04-19T10:45:23.073Z</time></trkpt><trkpt lat="41.1928169" lon="9.4493109"><ele>10.0</ele><time>2026-04-19T10:45:24.073Z</time></trkpt><trkpt lat="41.1929043" lon="9.4493047"><ele>10.0</ele><time>2026-04-19T10:45:25.073Z</time></trkpt><trkpt lat="41.1929856" lon="9.4492909"><ele>10.0</ele><time>2026-04-19T10:45:26.073Z</time></trkpt><trkpt lat="41.1930584" lon="9.4492845"><ele>10.0</ele><time>2026-04-19T10:45:27.073Z</time></trkpt><trkpt lat="41.193138" lon="9.4492937"><ele>10.0</ele><time>2026-04-19T10:45:28.073Z</time></trkpt><trkpt lat="41.1932024" lon="9.4493079"><ele>10.833333333333334</ele><time>2026-04-19T10:45:29.073Z</time></trkpt><trkpt lat="41.1932706" lon="9.4493292"><ele>11.666666666666668</ele><time>2026-04-19T10:45:30.073Z</time></trkpt><trkpt lat="41.1933429" lon="9.4493674"><ele>12.5</ele><time>2026-04-19T10:45:31.073Z</time></trkpt><trkpt lat="41.1934232" lon="9.4494033"><ele>13.333333333333334</ele><time>2026-04-19T10:45:32.073Z</time></trkpt><trkpt lat="41.193502" lon="9.4494458"><ele>14.166666666666666</ele><time>2026-04-19T10:45:33.073Z</time></trkpt><trkpt lat="41.1935781" lon="9.4494832"><ele>15.0</ele><time>2026-04-19T10:45:34.073Z</time></trkpt><trkpt lat="41.193649" lon="9.4495325"><ele>15.0</ele><time>2026-04-19T10:45:35.072Z</time></trkpt><trkpt lat="41.1937124" lon="9.4495817"><ele>15.0</ele><time>2026-04-19T10:45:36.073Z</time></trkpt><trkpt lat="41.1937732" lon="9.4496515"><ele>15.0</ele><time>2026-04-19T10:45:37.073Z</time></trkpt><trkpt lat="41.1938291" lon="9.4497149"><ele>15.0</ele><time>2026-04-19T10:45:38.073Z</time></trkpt><trkpt lat="41.1938784" lon="9.4497914"><ele>15.0</ele><time>2026-04-19T10:45:39.073Z</time></trkpt><trkpt lat="41.1939228" lon="9.4498781"><ele>15.0</ele><time>2026-04-19T10:45:40.073Z</time></trkpt><trkpt lat="41.1939649" lon="9.4499859"><ele>14.6</ele><time>2026-04-19T10:45:41.072Z</time></trkpt><trkpt lat="41.193998" lon="9.4500961"><ele>14.2</ele><time>2026-04-19T10:45:42.072Z</time></trkpt><trkpt lat="41.194032" lon="9.4502203"><ele>13.8</ele><time>2026-04-19T10:45:43.072Z</time></trkpt><trkpt lat="41.1940648" lon="9.4503454"><ele>13.4</ele><time>2026-04-19T10:45:44.072Z</time></trkpt><trkpt lat="41.1940816" lon="9.4504718"><ele>13.0</ele><time>2026-04-19T10:45:45.072Z</time></trkpt><trkpt lat="41.1940872" lon="9.4505781"><ele>12.833333333333332</ele><time>2026-04-19T10:45:46.072Z</time></trkpt><trkpt lat="41.1940982" lon="9.4506796"><ele>12.666666666666666</ele><time>2026-04-19T10:45:47.072Z</time></trkpt><trkpt lat="41.1941168" lon="9.4507692"><ele>12.5</ele><time>2026-04-19T10:45:48.072Z</time></trkpt><trkpt lat="41.19413" lon="9.4508589"><ele>12.333333333333332</ele><time>2026-04-19T10:45:49.072Z</time></trkpt><trkpt lat="41.1941651" lon="9.4510173"><ele>12.166666666666666</ele><time>2026-04-19T10:45:51.072Z</time></trkpt><trkpt lat="41.1941999" lon="9.4510926"><ele>12.0</ele><time>2026-04-19T10:45:52.072Z</time></trkpt><trkpt lat="41.1942467" lon="9.4511654"><ele>12.0</ele><time>2026-04-19T10:45:53.072Z</time></trkpt><trkpt lat="41.1943037" lon="9.4512366"><ele>12.0</ele><time>2026-04-19T10:45:54.072Z</time></trkpt><trkpt lat="41.1943626" lon="9.451308"><ele>12.0</ele><time>2026-04-19T10:45:55.072Z</time></trkpt><trkpt lat="41.1944343" lon="9.45137"><ele>12.0</ele><time>2026-04-19T10:45:56.072Z</time></trkpt><trkpt lat="41.1945085" lon="9.4514171"><ele>12.0</ele><time>2026-04-19T10:45:57.072Z</time></trkpt><trkpt lat="41.1945921" lon="9.4514714"><ele>12.0</ele><time>2026-04-19T10:45:58.072Z</time></trkpt><trkpt lat="41.1946858" lon="9.4515151"><ele>12.0</ele><time>2026-04-19T10:45:59.072Z</time></trkpt><trkpt lat="41.1947843" lon="9.4515573"><ele>12.0</ele><time>2026-04-19T10:46:00.072Z</time></trkpt><trkpt lat="41.1948981" lon="9.4515873"><ele>12.0</ele><time>2026-04-19T10:46:01.071Z</time></trkpt><trkpt lat="41.1950031" lon="9.451598"><ele>12.0</ele><time>2026-04-19T10:46:02.072Z</time></trkpt><trkpt lat="41.1951177" lon="9.4516102"><ele>12.0</ele><time>2026-04-19T10:46:03.072Z</time></trkpt><trkpt lat="41.1952247" lon="9.4516267"><ele>12.0</ele><time>2026-04-19T10:46:04.072Z</time></trkpt><trkpt lat="41.1953219" lon="9.451646"><ele>12.0</ele><time>2026-04-19T10:46:05.071Z</time></trkpt><trkpt lat="41.1954484" lon="9.4516608"><ele>12.0</ele><time>2026-04-19T10:46:06.072Z</time></trkpt><trkpt lat="41.1955704" lon="9.4516733"><ele>12.0</ele><time>2026-04-19T10:46:07.072Z</time></trkpt><trkpt lat="41.1956764" lon="9.4516756"><ele>12.166666666666666</ele><time>2026-04-19T10:46:08.072Z</time></trkpt><trkpt lat="41.1957704" lon="9.4516823"><ele>12.333333333333332</ele><time>2026-04-19T10:46:09.072Z</time></trkpt><trkpt lat="41.195859" lon="9.45169"><ele>12.5</ele><time>2026-04-19T10:46:10.072Z</time></trkpt><trkpt lat="41.195948" lon="9.4516977"><ele>12.666666666666666</ele><time>2026-04-19T10:46:11.072Z</time></trkpt><trkpt lat="41.1960445" lon="9.4517155"><ele>12.833333333333332</ele><time>2026-04-19T10:46:12.071Z</time></trkpt><trkpt lat="41.196123" lon="9.4517252"><ele>13.0</ele><time>2026-04-19T10:46:13.071Z</time></trkpt><trkpt lat="41.1962042" lon="9.451738"><ele>12.999999999999998</ele><time>2026-04-19T10:46:14.072Z</time></trkpt><trkpt lat="41.1962852" lon="9.4517506"><ele>13.0</ele><time>2026-04-19T10:46:15.072Z</time></trkpt><trkpt lat="41.1963629" lon="9.4517598"><ele>13.0</ele><time>2026-04-19T10:46:16.072Z</time></trkpt><trkpt lat="41.1964406" lon="9.4517599"><ele>13.0</ele><time>2026-04-19T10:46:17.072Z</time></trkpt><trkpt lat="41.1965092" lon="9.4517576"><ele>12.999999999999998</ele><time>2026-04-19T10:46:18.072Z</time></trkpt><trkpt lat="41.1965743" lon="9.4517485"><ele>13.0</ele><time>2026-04-19T10:46:19.072Z</time></trkpt><trkpt lat="41.196687" lon="9.4517756"><ele>12.333333333333332</ele><time>2026-04-19T10:46:21.072Z</time></trkpt><trkpt lat="41.1967478" lon="9.4518212"><ele>11.666666666666666</ele><time>2026-04-19T10:46:22.072Z</time></trkpt><trkpt lat="41.1968025" lon="9.4518904"><ele>11.0</ele><time>2026-04-19T10:46:23.072Z</time></trkpt><trkpt lat="41.1968613" lon="9.451965"><ele>10.333333333333332</ele><time>2026-04-19T10:46:24.072Z</time></trkpt><trkpt lat="41.1969211" lon="9.4520473"><ele>9.666666666666666</ele><time>2026-04-19T10:46:25.072Z</time></trkpt><trkpt lat="41.196986" lon="9.4521046"><ele>9.0</ele><time>2026-04-19T10:46:26.072Z</time></trkpt><trkpt lat="41.1970526" lon="9.4521624"><ele>8.333333333333334</ele><time>2026-04-19T10:46:27.072Z</time></trkpt><trkpt lat="41.1970975" lon="9.4522239"><ele>7.666666666666667</ele><time>2026-04-19T10:46:28.072Z</time></trkpt><trkpt lat="41.1971366" lon="9.4523502"><ele>7.0</ele><time>2026-04-19T10:46:30.072Z</time></trkpt><trkpt lat="41.1971307" lon="9.4524349"><ele>6.333333333333334</ele><time>2026-04-19T10:46:31.072Z</time></trkpt><trkpt lat="41.1971007" lon="9.4525516"><ele>5.666666666666667</ele><time>2026-04-19T10:46:32.072Z</time></trkpt><trkpt lat="41.1970643" lon="9.4526756"><ele>5.0</ele><time>2026-04-19T10:46:33.072Z</time></trkpt><trkpt lat="41.1970186" lon="9.4527928"><ele>5.0</ele><time>2026-04-19T10:46:34.072Z</time></trkpt><trkpt lat="41.1969663" lon="9.4529088"><ele>5.0</ele><time>2026-04-19T10:46:35.072Z</time></trkpt><trkpt lat="41.1969227" lon="9.4530308"><ele>5.0</ele><time>2026-04-19T10:46:36.072Z</time></trkpt><trkpt lat="41.1968889" lon="9.4531619"><ele>5.0</ele><time>2026-04-19T10:46:37.072Z</time></trkpt><trkpt lat="41.1968465" lon="9.4532804"><ele>5.0</ele><time>2026-04-19T10:46:38.072Z</time></trkpt><trkpt lat="41.1967991" lon="9.4533829"><ele>4.8</ele><time>2026-04-19T10:46:39.072Z</time></trkpt><trkpt lat="41.1967545" lon="9.4534915"><ele>4.6</ele><time>2026-04-19T10:46:40.072Z</time></trkpt><trkpt lat="41.1967009" lon="9.4535989"><ele>4.4</ele><time>2026-04-19T10:46:41.072Z</time></trkpt><trkpt lat="41.1966423" lon="9.4537233"><ele>4.2</ele><time>2026-04-19T10:46:42.072Z</time></trkpt><trkpt lat="41.1965787" lon="9.4538561"><ele>4.0</ele><time>2026-04-19T10:46:43.072Z</time></trkpt><trkpt lat="41.196521" lon="9.4539789"><ele>4.800000000000001</ele><time>2026-04-19T10:46:44.072Z</time></trkpt><trkpt lat="41.1964588" lon="9.4541033"><ele>5.6000000000000005</ele><time>2026-04-19T10:46:45.072Z</time></trkpt><trkpt lat="41.1964031" lon="9.454218"><ele>6.4</ele><time>2026-04-19T10:46:46.072Z</time></trkpt><trkpt lat="41.1963308" lon="9.4543356"><ele>7.2</ele><time>2026-04-19T10:46:47.072Z</time></trkpt><trkpt lat="41.1962614" lon="9.4544644"><ele>8.0</ele><time>2026-04-19T10:46:48.072Z</time></trkpt><trkpt lat="41.1962228" lon="9.4545451"><ele>7.499999999999999</ele><time>2026-04-19T10:46:49.072Z</time></trkpt><trkpt lat="41.1961807" lon="9.4546321"><ele>7.0</ele><time>2026-04-19T10:46:50.072Z</time></trkpt><trkpt lat="41.1961377" lon="9.4547125"><ele>6.5</ele><time>2026-04-19T10:46:51.072Z</time></trkpt><trkpt lat="41.196089" lon="9.4547801"><ele>6.0</ele><time>2026-04-19T10:46:52.072Z</time></trkpt><trkpt lat="41.196022" lon="9.4548945"><ele>5.5</ele><time>2026-04-19T10:46:54.072Z</time></trkpt><trkpt lat="41.195968" lon="9.454947"><ele>5.0</ele><time>2026-04-19T10:46:55.071Z</time></trkpt><trkpt lat="41.1959332" lon="9.4550218"><ele>5.0</ele><time>2026-04-19T10:46:56.072Z</time></trkpt><trkpt lat="41.1959067" lon="9.4551626"><ele>5.0</ele><time>2026-04-19T10:46:58.072Z</time></trkpt><trkpt lat="41.1959228" lon="9.4552516"><ele>5.0</ele><time>2026-04-19T10:46:59.072Z</time></trkpt><trkpt lat="41.1959774" lon="9.4553737"><ele>5.0</ele><time>2026-04-19T10:47:00.072Z</time></trkpt><trkpt lat="41.1960309" lon="9.4555155"><ele>5.0</ele><time>2026-04-19T10:47:01.072Z</time></trkpt><trkpt lat="41.1960806" lon="9.455641"><ele>4.6</ele><time>2026-04-19T10:47:02.072Z</time></trkpt><trkpt lat="41.1961352" lon="9.455755"><ele>4.2</ele><time>2026-04-19T10:47:03.072Z</time></trkpt><trkpt lat="41.1961759" lon="9.4558651"><ele>3.8</ele><time>2026-04-19T10:47:04.072Z</time></trkpt><trkpt lat="41.1962111" lon="9.4559941"><ele>3.4</ele><time>2026-04-19T10:47:05.072Z</time></trkpt><trkpt lat="41.1962484" lon="9.4561442"><ele>3.0</ele><time>2026-04-19T10:47:06.072Z</time></trkpt><trkpt lat="41.1962811" lon="9.4562853"><ele>3.1666666666666665</ele><time>2026-04-19T10:47:07.072Z</time></trkpt><trkpt lat="41.1963077" lon="9.456413"><ele>3.333333333333333</ele><time>2026-04-19T10:47:08.072Z</time></trkpt><trkpt lat="41.1963267" lon="9.4565345"><ele>3.5</ele><time>2026-04-19T10:47:09.072Z</time></trkpt><trkpt lat="41.1963584" lon="9.456642"><ele>3.6666666666666665</ele><time>2026-04-19T10:47:10.072Z</time></trkpt><trkpt lat="41.1963814" lon="9.4567383"><ele>3.833333333333333</ele><time>2026-04-19T10:47:11.072Z</time></trkpt><trkpt lat="41.1964024" lon="9.4568201"><ele>4.0</ele><time>2026-04-19T10:47:12.072Z</time></trkpt><trkpt lat="41.1964274" lon="9.4569546"><ele>4.0</ele><time>2026-04-19T10:47:14.072Z</time></trkpt><trkpt lat="41.1964255" lon="9.4570687"><ele>4.0</ele><time>2026-04-19T10:47:16.072Z</time></trkpt><trkpt lat="41.1964027" lon="9.4571733"><ele>4.0</ele><time>2026-04-19T10:47:18.072Z</time></trkpt><trkpt lat="41.1963472" lon="9.457252"><ele>4.0</ele><time>2026-04-19T10:47:20.072Z</time></trkpt><trkpt lat="41.1962465" lon="9.4573281"><ele>4.0</ele><time>2026-04-19T10:47:22.072Z</time></trkpt><trkpt lat="41.1961637" lon="9.4573648"><ele>4.25</ele><time>2026-04-19T10:47:23.071Z</time></trkpt><trkpt lat="41.1960673" lon="9.4574074"><ele>4.5</ele><time>2026-04-19T10:47:24.072Z</time></trkpt><trkpt lat="41.1959593" lon="9.4574579"><ele>4.75</ele><time>2026-04-19T10:47:25.071Z</time></trkpt><trkpt lat="41.1958461" lon="9.457512"><ele>5.0</ele><time>2026-04-19T10:47:26.072Z</time></trkpt><trkpt lat="41.1957367" lon="9.4575558"><ele>5.6</ele><time>2026-04-19T10:47:27.072Z</time></trkpt><trkpt lat="41.1956342" lon="9.457593"><ele>6.2</ele><time>2026-04-19T10:47:28.072Z</time></trkpt><trkpt lat="41.195527" lon="9.4576266"><ele>6.800000000000001</ele><time>2026-04-19T10:47:29.072Z</time></trkpt><trkpt lat="41.1954139" lon="9.457644"><ele>7.4</ele><time>2026-04-19T10:47:30.072Z</time></trkpt><trkpt lat="41.1953033" lon="9.4576548"><ele>8.0</ele><time>2026-04-19T10:47:31.072Z</time></trkpt><trkpt lat="41.195189" lon="9.4576663"><ele>7.999999999999999</ele><time>2026-04-19T10:47:32.072Z</time></trkpt><trkpt lat="41.1950874" lon="9.4576776"><ele>8.0</ele><time>2026-04-19T10:47:33.072Z</time></trkpt><trkpt lat="41.1949921" lon="9.457691"><ele>8.0</ele><time>2026-04-19T10:47:34.072Z</time></trkpt><trkpt lat="41.194907" lon="9.4577006"><ele>8.0</ele><time>2026-04-19T10:47:35.072Z</time></trkpt><trkpt lat="41.1948332" lon="9.4577101"><ele>7.999999999999999</ele><time>2026-04-19T10:47:36.072Z</time></trkpt><trkpt lat="41.1947611" lon="9.4577212"><ele>8.0</ele><time>2026-04-19T10:47:37.072Z</time></trkpt><trkpt lat="41.1946883" lon="9.4577337"><ele>8.833333333333332</ele><time>2026-04-19T10:47:38.072Z</time></trkpt><trkpt lat="41.194613" lon="9.4577341"><ele>9.666666666666666</ele><time>2026-04-19T10:47:39.071Z</time></trkpt><trkpt lat="41.1945434" lon="9.4577076"><ele>10.5</ele><time>2026-04-19T10:47:40.072Z</time></trkpt><trkpt lat="41.1944819" lon="9.4576541"><ele>11.333333333333332</ele><time>2026-04-19T10:47:41.072Z</time></trkpt><trkpt lat="41.1944272" lon="9.4575657"><ele>12.166666666666666</ele><time>2026-04-19T10:47:42.072Z</time></trkpt><trkpt lat="41.1943762" lon="9.4574528"><ele>13.0</ele><time>2026-04-19T10:47:43.072Z</time></trkpt><trkpt lat="41.1943181" lon="9.457328"><ele>13.0</ele><time>2026-04-19T10:47:44.072Z</time></trkpt><trkpt lat="41.1942561" lon="9.4572047"><ele>13.0</ele><time>2026-04-19T10:47:45.072Z</time></trkpt><trkpt lat="41.1941927" lon="9.4570754"><ele>13.0</ele><time>2026-04-19T10:47:46.072Z</time></trkpt><trkpt lat="41.1941331" lon="9.4569388"><ele>13.0</ele><time>2026-04-19T10:47:47.072Z</time></trkpt><trkpt lat="41.1940729" lon="9.4568035"><ele>13.0</ele><time>2026-04-19T10:47:48.072Z</time></trkpt><trkpt lat="41.1940133" lon="9.4566725"><ele>13.0</ele><time>2026-04-19T10:47:49.071Z</time></trkpt><trkpt lat="41.1939604" lon="9.4565506"><ele>13.0</ele><time>2026-04-19T10:47:50.071Z</time></trkpt><trkpt lat="41.1939151" lon="9.4564381"><ele>13.0</ele><time>2026-04-19T10:47:51.072Z</time></trkpt><trkpt lat="41.1938728" lon="9.456327"><ele>13.0</ele><time>2026-04-19T10:47:52.072Z</time></trkpt><trkpt lat="41.1938313" lon="9.456216"><ele>12.8</ele><time>2026-04-19T10:47:53.072Z</time></trkpt><trkpt lat="41.1937768" lon="9.4561263"><ele>12.600000000000001</ele><time>2026-04-19T10:47:54.072Z</time></trkpt><trkpt lat="41.1937033" lon="9.4560597"><ele>12.399999999999999</ele><time>2026-04-19T10:47:55.072Z</time></trkpt><trkpt lat="41.1936107" lon="9.456016"><ele>12.2</ele><time>2026-04-19T10:47:56.072Z</time></trkpt><trkpt lat="41.193497" lon="9.4560011"><ele>12.0</ele><time>2026-04-19T10:47:57.072Z</time></trkpt><trkpt lat="41.1933827" lon="9.455993"><ele>12.0</ele><time>2026-04-19T10:47:58.072Z</time></trkpt><trkpt lat="41.1932583" lon="9.4559878"><ele>12.0</ele><time>2026-04-19T10:47:59.072Z</time></trkpt><trkpt lat="41.193127" lon="9.455988"><ele>12.0</ele><time>2026-04-19T10:48:00.072Z</time></trkpt><trkpt lat="41.1929857" lon="9.4559961"><ele>12.0</ele><time>2026-04-19T10:48:01.072Z</time></trkpt><trkpt lat="41.1928341" lon="9.4559973"><ele>10.666666666666666</ele><time>2026-04-19T10:48:02.072Z</time></trkpt><trkpt lat="41.1926739" lon="9.4559977"><ele>9.333333333333332</ele><time>2026-04-19T10:48:03.072Z</time></trkpt><trkpt lat="41.1925139" lon="9.4559985"><ele>8.0</ele><time>2026-04-19T10:48:04.072Z</time></trkpt><trkpt lat="41.192355" lon="9.4559993"><ele>8.666666666666666</ele><time>2026-04-19T10:48:05.072Z</time></trkpt><trkpt lat="41.1921981" lon="9.4559995"><ele>9.333333333333334</ele><time>2026-04-19T10:48:06.072Z</time></trkpt><trkpt lat="41.1920415" lon="9.4559971"><ele>10.0</ele><time>2026-04-19T10:48:07.072Z</time></trkpt><trkpt lat="41.1918912" lon="9.4559964"><ele>10.0</ele><time>2026-04-19T10:48:08.072Z</time></trkpt><trkpt lat="41.1917532" lon="9.4560003"><ele>10.0</ele><time>2026-04-19T10:48:09.072Z</time></trkpt><trkpt lat="41.1916188" lon="9.4560013"><ele>10.0</ele><time>2026-04-19T10:48:10.072Z</time></trkpt><trkpt lat="41.1914651" lon="9.4560085"><ele>10.0</ele><time>2026-04-19T10:48:11.072Z</time></trkpt><trkpt lat="41.1912815" lon="9.4560299"><ele>8.666666666666668</ele><time>2026-04-19T10:48:12.072Z</time></trkpt><trkpt lat="41.1910624" lon="9.4560501"><ele>7.333333333333334</ele><time>2026-04-19T10:48:13.072Z</time></trkpt><trkpt lat="41.1908558" lon="9.4560642"><ele>6.0</ele><time>2026-04-19T10:48:14.072Z</time></trkpt><trkpt lat="41.1906607" lon="9.4560877"><ele>4.333333333333333</ele><time>2026-04-19T10:48:15.072Z</time></trkpt><trkpt lat="41.1904691" lon="9.4561052"><ele>2.6666666666666665</ele><time>2026-04-19T10:48:16.072Z</time></trkpt><trkpt lat="41.190275" lon="9.4561189"><ele>1.0</ele><time>2026-04-19T10:48:17.072Z</time></trkpt><trkpt lat="41.1900836" lon="9.456133"><ele>1.0</ele><time>2026-04-19T10:48:18.072Z</time></trkpt><trkpt lat="41.1898909" lon="9.4561579"><ele>1.0</ele><time>2026-04-19T10:48:19.072Z</time></trkpt><trkpt lat="41.1897078" lon="9.4561866"><ele>1.0</ele><time>2026-04-19T10:48:20.072Z</time></trkpt><trkpt lat="41.1895215" lon="9.45621"><ele>1.0</ele><time>2026-04-19T10:48:21.072Z</time></trkpt><trkpt lat="41.1893348" lon="9.456228"><ele>1.0</ele><time>2026-04-19T10:48:22.072Z</time></trkpt><trkpt lat="41.189174" lon="9.4562228"><ele>1.0</ele><time>2026-04-19T10:48:23.072Z</time></trkpt><trkpt lat="41.1890135" lon="9.4561983"><ele>1.25</ele><time>2026-04-19T10:48:24.072Z</time></trkpt><trkpt lat="41.1888659" lon="9.4561776"><ele>1.5</ele><time>2026-04-19T10:48:25.072Z</time></trkpt><trkpt lat="41.1887229" lon="9.4561599"><ele>1.75</ele><time>2026-04-19T10:48:26.072Z</time></trkpt><trkpt lat="41.188583" lon="9.4561726"><ele>2.0</ele><time>2026-04-19T10:48:27.072Z</time></trkpt><trkpt lat="41.1884231" lon="9.4562186"><ele>2.0</ele><time>2026-04-19T10:48:28.071Z</time></trkpt><trkpt lat="41.1882401" lon="9.4562804"><ele>2.0</ele><time>2026-04-19T10:48:29.072Z</time></trkpt><trkpt lat="41.188077" lon="9.4563324"><ele>2.0</ele><time>2026-04-19T10:48:30.072Z</time></trkpt><trkpt lat="41.187921" lon="9.4563903"><ele>2.5</ele><time>2026-04-19T10:48:31.072Z</time></trkpt><trkpt lat="41.1877688" lon="9.4564329"><ele>3.0</ele><time>2026-04-19T10:48:32.072Z</time></trkpt><trkpt lat="41.1876217" lon="9.4564471"><ele>3.5</ele><time>2026-04-19T10:48:33.072Z</time></trkpt><trkpt lat="41.1874908" lon="9.4564268"><ele>4.0</ele><time>2026-04-19T10:48:34.072Z</time></trkpt><trkpt lat="41.1873652" lon="9.4563875"><ele>4.75</ele><time>2026-04-19T10:48:35.072Z</time></trkpt><trkpt lat="41.1872498" lon="9.4563534"><ele>5.5</ele><time>2026-04-19T10:48:36.072Z</time></trkpt><trkpt lat="41.1871377" lon="9.4563611"><ele>6.25</ele><time>2026-04-19T10:48:37.072Z</time></trkpt><trkpt lat="41.1870179" lon="9.4563797"><ele>7.0</ele><time>2026-04-19T10:48:38.072Z</time></trkpt><trkpt lat="41.186887" lon="9.4564193"><ele>7.0</ele><time>2026-04-19T10:48:39.072Z</time></trkpt><trkpt lat="41.1867493" lon="9.4564497"><ele>7.0</ele><time>2026-04-19T10:48:40.072Z</time></trkpt><trkpt lat="41.1866078" lon="9.4564916"><ele>7.0</ele><time>2026-04-19T10:48:41.072Z</time></trkpt><trkpt lat="41.1864649" lon="9.4565312"><ele>7.0</ele><time>2026-04-19T10:48:42.071Z</time></trkpt><trkpt lat="41.1863209" lon="9.4565693"><ele>8.0</ele><time>2026-04-19T10:48:43.072Z</time></trkpt><trkpt lat="41.186176" lon="9.4565882"><ele>9.0</ele><time>2026-04-19T10:48:44.072Z</time></trkpt><trkpt lat="41.1860344" lon="9.4565892"><ele>10.0</ele><time>2026-04-19T10:48:45.072Z</time></trkpt><trkpt lat="41.1859138" lon="9.4565766"><ele>11.0</ele><time>2026-04-19T10:48:46.072Z</time></trkpt><trkpt lat="41.185799" lon="9.4565605"><ele>11.0</ele><time>2026-04-19T10:48:47.072Z</time></trkpt><trkpt lat="41.1856972" lon="9.4565403"><ele>11.0</ele><time>2026-04-19T10:48:48.072Z</time></trkpt><trkpt lat="41.1856068" lon="9.4565244"><ele>11.0</ele><time>2026-04-19T10:48:49.072Z</time></trkpt><trkpt lat="41.1855292" lon="9.4565173"><ele>11.0</ele><time>2026-04-19T10:48:50.072Z</time></trkpt><trkpt lat="41.1854608" lon="9.456505"><ele>11.0</ele><time>2026-04-19T10:48:51.072Z</time></trkpt><trkpt lat="41.185366" lon="9.4564774"><ele>11.0</ele><time>2026-04-19T10:48:53.072Z</time></trkpt><trkpt lat="41.185296" lon="9.4564496"><ele>10.8</ele><time>2026-04-19T10:48:55.072Z</time></trkpt><trkpt lat="41.1852174" lon="9.4564252"><ele>10.600000000000001</ele><time>2026-04-19T10:48:57.072Z</time></trkpt><trkpt lat="41.1851191" lon="9.4564087"><ele>10.4</ele><time>2026-04-19T10:48:59.072Z</time></trkpt><trkpt lat="41.1850556" lon="9.456424"><ele>10.2</ele><time>2026-04-19T10:49:00.072Z</time></trkpt><trkpt lat="41.1849357" lon="9.4564517"><ele>10.0</ele><time>2026-04-19T10:49:02.072Z</time></trkpt><trkpt lat="41.184831" lon="9.4564978"><ele>8.25</ele><time>2026-04-19T10:49:04.072Z</time></trkpt><trkpt lat="41.1847356" lon="9.456533"><ele>6.5</ele><time>2026-04-19T10:49:06.072Z</time></trkpt><trkpt lat="41.1846292" lon="9.4565691"><ele>4.75</ele><time>2026-04-19T10:49:08.072Z</time></trkpt><trkpt lat="41.1845071" lon="9.4565909"><ele>3.0</ele><time>2026-04-19T10:49:10.071Z</time></trkpt><trkpt lat="41.1843861" lon="9.4566227"><ele>3.0</ele><time>2026-04-19T10:49:12.072Z</time></trkpt><trkpt lat="41.1842974" lon="9.4566471"><ele>3.0</ele><time>2026-04-19T10:49:13.072Z</time></trkpt><trkpt lat="41.1842165" lon="9.4566698"><ele>3.0</ele><time>2026-04-19T10:49:14.072Z</time></trkpt><trkpt lat="41.1841496" lon="9.4566775"><ele>3.0</ele><time>2026-04-19T10:49:15.071Z</time></trkpt><trkpt lat="41.1840339" lon="9.4566982"><ele>3.0</ele><time>2026-04-19T10:49:17.072Z</time></trkpt><trkpt lat="41.1839225" lon="9.4567242"><ele>2.8333333333333335</ele><time>2026-04-19T10:49:19.072Z</time></trkpt><trkpt lat="41.1838589" lon="9.4567334"><ele>2.6666666666666665</ele><time>2026-04-19T10:49:20.072Z</time></trkpt><trkpt lat="41.1837921" lon="9.4567359"><ele>2.5</ele><time>2026-04-19T10:49:21.072Z</time></trkpt><trkpt lat="41.1837294" lon="9.4567182"><ele>2.333333333333333</ele><time>2026-04-19T10:49:22.072Z</time></trkpt><trkpt lat="41.1836121" lon="9.4567234"><ele>2.1666666666666665</ele><time>2026-04-19T10:49:24.072Z</time></trkpt><trkpt lat="41.1835491" lon="9.4567503"><ele>2.0</ele><time>2026-04-19T10:49:25.072Z</time></trkpt><trkpt lat="41.1834703" lon="9.4567798"><ele>2.0</ele><time>2026-04-19T10:49:26.071Z</time></trkpt><trkpt lat="41.1833983" lon="9.4568069"><ele>2.0</ele><time>2026-04-19T10:49:27.071Z</time></trkpt><trkpt lat="41.1833335" lon="9.4568314"><ele>2.0</ele><time>2026-04-19T10:49:28.072Z</time></trkpt><trkpt lat="41.1832144" lon="9.4568807"><ele>2.0</ele><time>2026-04-19T10:49:30.072Z</time></trkpt><trkpt lat="41.1830985" lon="9.4569017"><ele>2.0</ele><time>2026-04-19T10:49:32.072Z</time></trkpt><trkpt lat="41.182981" lon="9.4568662"><ele>1.8333333333333333</ele><time>2026-04-19T10:49:34.072Z</time></trkpt><trkpt lat="41.182919" lon="9.4568407"><ele>1.6666666666666665</ele><time>2026-04-19T10:49:35.072Z</time></trkpt><trkpt lat="41.1828618" lon="9.4568048"><ele>1.5</ele><time>2026-04-19T10:49:36.072Z</time></trkpt><trkpt lat="41.1827673" lon="9.4567203"><ele>1.3333333333333333</ele><time>2026-04-19T10:49:38.072Z</time></trkpt><trkpt lat="41.182694" lon="9.4566212"><ele>1.1666666666666665</ele><time>2026-04-19T10:49:40.072Z</time></trkpt><trkpt lat="41.1826653" lon="9.4565306"><ele>1.0</ele><time>2026-04-19T10:49:42.072Z</time></trkpt><trkpt lat="41.1826111" lon="9.4564686"><ele>0.9999999999999999</ele><time>2026-04-19T10:49:45.071Z</time></trkpt><trkpt lat="41.1825975" lon="9.4565531"><ele>1.0</ele><time>2026-04-19T10:50:35.072Z</time></trkpt><trkpt lat="41.1826648" lon="9.456615"><ele>1.0</ele><time>2026-04-19T10:50:38.072Z</time></trkpt><trkpt lat="41.1827363" lon="9.4566728"><ele>1.0</ele><time>2026-04-19T10:50:40.072Z</time></trkpt><trkpt lat="41.1828002" lon="9.4567497"><ele>0.9999999999999999</ele><time>2026-04-19T10:50:42.072Z</time></trkpt><trkpt lat="41.1828662" lon="9.4568221"><ele>1.0</ele><time>2026-04-19T10:50:44.072Z</time></trkpt><trkpt lat="41.1829675" lon="9.4568767"><ele>0.9999999999999999</ele><time>2026-04-19T10:50:46.072Z</time></trkpt><trkpt lat="41.1830676" lon="9.4569002"><ele>1.0</ele><time>2026-04-19T10:50:48.072Z</time></trkpt><trkpt lat="41.1831826" lon="9.4568946"><ele>1.0</ele><time>2026-04-19T10:50:50.071Z</time></trkpt><trkpt lat="41.1832483" lon="9.4568657"><ele>1.0</ele><time>2026-04-19T10:50:51.071Z</time></trkpt><trkpt lat="41.1833198" lon="9.4568346"><ele>0.9999999999999999</ele><time>2026-04-19T10:50:52.07Z</time></trkpt><trkpt lat="41.1833898" lon="9.4568057"><ele>1.0</ele><time>2026-04-19T10:50:53.071Z</time></trkpt><trkpt lat="41.1834563" lon="9.4567826"><ele>1.2000000000000002</ele><time>2026-04-19T10:50:54.071Z</time></trkpt><trkpt lat="41.183569" lon="9.4567317"><ele>1.4000000000000001</ele><time>2026-04-19T10:50:56.071Z</time></trkpt><trkpt lat="41.1836826" lon="9.4567133"><ele>1.6</ele><time>2026-04-19T10:50:58.071Z</time></trkpt><trkpt lat="41.1837921" lon="9.4567271"><ele>1.8</ele><time>2026-04-19T10:51:00.07Z</time></trkpt><trkpt lat="41.183895" lon="9.4567332"><ele>2.0</ele><time>2026-04-19T10:51:02.071Z</time></trkpt><trkpt lat="41.184002" lon="9.4567012"><ele>2.2</ele><time>2026-04-19T10:51:04.071Z</time></trkpt><trkpt lat="41.1840982" lon="9.4566821"><ele>2.4000000000000004</ele><time>2026-04-19T10:51:06.071Z</time></trkpt><trkpt lat="41.1841944" lon="9.4566738"><ele>2.5999999999999996</ele><time>2026-04-19T10:51:08.071Z</time></trkpt><trkpt lat="41.184298" lon="9.4566439"><ele>2.8</ele><time>2026-04-19T10:51:10.071Z</time></trkpt><trkpt lat="41.1844243" lon="9.4566109"><ele>3.0</ele><time>2026-04-19T10:51:12.071Z</time></trkpt><trkpt lat="41.1844889" lon="9.4565987"><ele>2.9999999999999996</ele><time>2026-04-19T10:51:13.071Z</time></trkpt><trkpt lat="41.1845574" lon="9.4565855"><ele>3.0</ele><time>2026-04-19T10:51:14.071Z</time></trkpt><trkpt lat="41.184624" lon="9.4565706"><ele>3.0</ele><time>2026-04-19T10:51:15.07Z</time></trkpt><trkpt lat="41.1846898" lon="9.4565508"><ele>3.0</ele><time>2026-04-19T10:51:16.07Z</time></trkpt><trkpt lat="41.1847569" lon="9.4565251"><ele>3.0</ele><time>2026-04-19T10:51:17.07Z</time></trkpt><trkpt lat="41.1848263" lon="9.4565012"><ele>2.9999999999999996</ele><time>2026-04-19T10:51:18.071Z</time></trkpt><trkpt lat="41.1849036" lon="9.4564711"><ele>3.0</ele><time>2026-04-19T10:51:19.071Z</time></trkpt><trkpt lat="41.184985" lon="9.4564383"><ele>4.166666666666667</ele><time>2026-04-19T10:51:20.071Z</time></trkpt><trkpt lat="41.1850609" lon="9.4564215"><ele>5.333333333333334</ele><time>2026-04-19T10:51:21.071Z</time></trkpt><trkpt lat="41.1851736" lon="9.456405"><ele>6.5</ele><time>2026-04-19T10:51:23.071Z</time></trkpt><trkpt lat="41.1852715" lon="9.4564524"><ele>7.666666666666667</ele><time>2026-04-19T10:51:25.071Z</time></trkpt><trkpt lat="41.1853244" lon="9.45652"><ele>8.833333333333334</ele><time>2026-04-19T10:51:27.071Z</time></trkpt><trkpt lat="41.185295" lon="9.456595"><ele>10.0</ele><time>2026-04-19T10:51:30.071Z</time></trkpt><trkpt lat="41.1851836" lon="9.4566951"><ele>10.0</ele><time>2026-04-19T10:51:32.071Z</time></trkpt><trkpt lat="41.1851154" lon="9.4567633"><ele>10.0</ele><time>2026-04-19T10:51:33.071Z</time></trkpt><trkpt lat="41.18505" lon="9.4568533"><ele>10.0</ele><time>2026-04-19T10:51:34.071Z</time></trkpt><trkpt lat="41.1849928" lon="9.4569812"><ele>10.0</ele><time>2026-04-19T10:51:35.07Z</time></trkpt><trkpt lat="41.1849516" lon="9.4571343"><ele>10.0</ele><time>2026-04-19T10:51:36.071Z</time></trkpt><trkpt lat="41.1849154" lon="9.4572842"><ele>10.2</ele><time>2026-04-19T10:51:37.071Z</time></trkpt><trkpt lat="41.1848802" lon="9.4574205"><ele>10.4</ele><time>2026-04-19T10:51:38.071Z</time></trkpt><trkpt lat="41.1848421" lon="9.4575426"><ele>10.600000000000001</ele><time>2026-04-19T10:51:39.071Z</time></trkpt><trkpt lat="41.1847915" lon="9.4576302"><ele>10.8</ele><time>2026-04-19T10:51:40.071Z</time></trkpt><trkpt lat="41.1847213" lon="9.4576686"><ele>11.0</ele><time>2026-04-19T10:51:41.071Z</time></trkpt><trkpt lat="41.1846384" lon="9.4576576"><ele>11.0</ele><time>2026-04-19T10:51:42.071Z</time></trkpt><trkpt lat="41.1845375" lon="9.4576233"><ele>11.0</ele><time>2026-04-19T10:51:43.071Z</time></trkpt><trkpt lat="41.1844331" lon="9.4575998"><ele>11.0</ele><time>2026-04-19T10:51:44.071Z</time></trkpt><trkpt lat="41.1843392" lon="9.4576074"><ele>11.0</ele><time>2026-04-19T10:51:45.071Z</time></trkpt><trkpt lat="41.184245" lon="9.457655"><ele>11.0</ele><time>2026-04-19T10:51:46.071Z</time></trkpt><trkpt lat="41.1841471" lon="9.4577574"><ele>11.0</ele><time>2026-04-19T10:51:47.07Z</time></trkpt><trkpt lat="41.1840427" lon="9.4578842"><ele>11.0</ele><time>2026-04-19T10:51:48.07Z</time></trkpt><trkpt lat="41.1839163" lon="9.4579947"><ele>11.0</ele><time>2026-04-19T10:51:49.071Z</time></trkpt><trkpt lat="41.1837786" lon="9.4580758"><ele>11.0</ele><time>2026-04-19T10:51:50.071Z</time></trkpt><trkpt lat="41.1836577" lon="9.4581443"><ele>12.75</ele><time>2026-04-19T10:51:51.071Z</time></trkpt><trkpt lat="41.1835453" lon="9.4582147"><ele>14.5</ele><time>2026-04-19T10:51:52.071Z</time></trkpt><trkpt lat="41.1834314" lon="9.4582858"><ele>16.25</ele><time>2026-04-19T10:51:53.071Z</time></trkpt><trkpt lat="41.1833184" lon="9.4583621"><ele>18.0</ele><time>2026-04-19T10:51:54.07Z</time></trkpt><trkpt lat="41.1832212" lon="9.4584454"><ele>16.6</ele><time>2026-04-19T10:51:55.071Z</time></trkpt><trkpt lat="41.18314" lon="9.4585556"><ele>15.200000000000001</ele><time>2026-04-19T10:51:56.071Z</time></trkpt><trkpt lat="41.1830739" lon="9.4586832"><ele>13.8</ele><time>2026-04-19T10:51:57.071Z</time></trkpt><trkpt lat="41.1830159" lon="9.4588068"><ele>12.4</ele><time>2026-04-19T10:51:58.071Z</time></trkpt><trkpt lat="41.1829679" lon="9.4589244"><ele>11.0</ele><time>2026-04-19T10:51:59.071Z</time></trkpt><trkpt lat="41.1829382" lon="9.4590493"><ele>10.8</ele><time>2026-04-19T10:52:00.071Z</time></trkpt><trkpt lat="41.1829395" lon="9.4591843"><ele>10.600000000000001</ele><time>2026-04-19T10:52:01.071Z</time></trkpt><trkpt lat="41.1829606" lon="9.4593191"><ele>10.4</ele><time>2026-04-19T10:52:02.071Z</time></trkpt><trkpt lat="41.1830075" lon="9.4594196"><ele>10.2</ele><time>2026-04-19T10:52:03.071Z</time></trkpt><trkpt lat="41.1830832" lon="9.4594779"><ele>10.0</ele><time>2026-04-19T10:52:04.071Z</time></trkpt><trkpt lat="41.1831612" lon="9.4595245"><ele>10.166666666666668</ele><time>2026-04-19T10:52:05.07Z</time></trkpt><trkpt lat="41.1832133" lon="9.4596057"><ele>10.333333333333334</ele><time>2026-04-19T10:52:06.071Z</time></trkpt><trkpt lat="41.1832369" lon="9.4597068"><ele>10.5</ele><time>2026-04-19T10:52:07.071Z</time></trkpt><trkpt lat="41.1832299" lon="9.4598158"><ele>10.666666666666666</ele><time>2026-04-19T10:52:08.071Z</time></trkpt><trkpt lat="41.1831872" lon="9.4599035"><ele>10.833333333333332</ele><time>2026-04-19T10:52:09.071Z</time></trkpt><trkpt lat="41.1831205" lon="9.4599539"><ele>11.0</ele><time>2026-04-19T10:52:10.071Z</time></trkpt><trkpt lat="41.1830414" lon="9.4600083"><ele>11.0</ele><time>2026-04-19T10:52:11.07Z</time></trkpt><trkpt lat="41.1829772" lon="9.4600833"><ele>11.0</ele><time>2026-04-19T10:52:12.071Z</time></trkpt><trkpt lat="41.1829191" lon="9.4601749"><ele>11.0</ele><time>2026-04-19T10:52:13.071Z</time></trkpt><trkpt lat="41.1828721" lon="9.4602957"><ele>11.0</ele><time>2026-04-19T10:52:14.071Z</time></trkpt><trkpt lat="41.1828388" lon="9.4604262"><ele>11.0</ele><time>2026-04-19T10:52:15.071Z</time></trkpt><trkpt lat="41.1828119" lon="9.4605581"><ele>11.25</ele><time>2026-04-19T10:52:16.071Z</time></trkpt><trkpt lat="41.1827933" lon="9.4606958"><ele>11.5</ele><time>2026-04-19T10:52:17.071Z</time></trkpt><trkpt lat="41.182793" lon="9.4608343"><ele>11.75</ele><time>2026-04-19T10:52:18.071Z</time></trkpt><trkpt lat="41.1828194" lon="9.4609921"><ele>12.0</ele><time>2026-04-19T10:52:19.071Z</time></trkpt><trkpt lat="41.1828605" lon="9.4611597"><ele>9.75</ele><time>2026-04-19T10:52:20.071Z</time></trkpt><trkpt lat="41.1828993" lon="9.4613186"><ele>7.5</ele><time>2026-04-19T10:52:21.071Z</time></trkpt><trkpt lat="41.1829392" lon="9.4614796"><ele>5.25</ele><time>2026-04-19T10:52:22.071Z</time></trkpt><trkpt lat="41.1829803" lon="9.461641"><ele>3.0</ele><time>2026-04-19T10:52:23.071Z</time></trkpt><trkpt lat="41.1830198" lon="9.4617969"><ele>3.0</ele><time>2026-04-19T10:52:24.071Z</time></trkpt><trkpt lat="41.1830577" lon="9.4619537"><ele>3.0</ele><time>2026-04-19T10:52:25.071Z</time></trkpt><trkpt lat="41.1830962" lon="9.4621046"><ele>3.0</ele><time>2026-04-19T10:52:26.07Z</time></trkpt><trkpt lat="41.1831349" lon="9.4622475"><ele>3.0</ele><time>2026-04-19T10:52:27.07Z</time></trkpt><trkpt lat="41.183171" lon="9.4623866"><ele>2.6</ele><time>2026-04-19T10:52:28.071Z</time></trkpt><trkpt lat="41.1832088" lon="9.4625264"><ele>2.1999999999999997</ele><time>2026-04-19T10:52:29.071Z</time></trkpt><trkpt lat="41.183237" lon="9.4626506"><ele>1.8</ele><time>2026-04-19T10:52:30.071Z</time></trkpt><trkpt lat="41.1832534" lon="9.4627703"><ele>1.4</ele><time>2026-04-19T10:52:31.071Z</time></trkpt><trkpt lat="41.1832571" lon="9.4628739"><ele>1.0</ele><time>2026-04-19T10:52:32.071Z</time></trkpt><trkpt lat="41.1832478" lon="9.4629736"><ele>0.9999999999999999</ele><time>2026-04-19T10:52:33.071Z</time></trkpt><trkpt lat="41.18323" lon="9.4630799"><ele>1.0</ele><time>2026-04-19T10:52:34.071Z</time></trkpt><trkpt lat="41.1832036" lon="9.4631914"><ele>1.0</ele><time>2026-04-19T10:52:35.071Z</time></trkpt><trkpt lat="41.1831734" lon="9.4632987"><ele>1.0</ele><time>2026-04-19T10:52:36.071Z</time></trkpt><trkpt lat="41.1831421" lon="9.4634078"><ele>0.9999999999999999</ele><time>2026-04-19T10:52:37.071Z</time></trkpt><trkpt lat="41.1831129" lon="9.4635114"><ele>1.0</ele><time>2026-04-19T10:52:38.071Z</time></trkpt><trkpt lat="41.1830787" lon="9.4636063"><ele>0.8333333333333333</ele><time>2026-04-19T10:52:39.071Z</time></trkpt><trkpt lat="41.1830444" lon="9.46368"><ele>0.6666666666666666</ele><time>2026-04-19T10:52:40.071Z</time></trkpt><trkpt lat="41.1829719" lon="9.4638153"><ele>0.5</ele><time>2026-04-19T10:52:42.07Z</time></trkpt><trkpt lat="41.1829226" lon="9.4638717"><ele>0.3333333333333333</ele><time>2026-04-19T10:52:43.071Z</time></trkpt><trkpt lat="41.1828108" lon="9.4639099"><ele>0.16666666666666666</ele><time>2026-04-19T10:52:45.071Z</time></trkpt><trkpt lat="41.1827434" lon="9.4639008"><ele>0.0</ele><time>2026-04-19T10:52:46.071Z</time></trkpt><trkpt lat="41.182665" lon="9.4638678"><ele>0.3333333333333333</ele><time>2026-04-19T10:52:47.07Z</time></trkpt><trkpt lat="41.1825794" lon="9.4638444"><ele>0.6666666666666666</ele><time>2026-04-19T10:52:48.07Z</time></trkpt><trkpt lat="41.18249" lon="9.46383"><ele>1.0</ele><time>2026-04-19T10:52:49.071Z</time></trkpt><trkpt lat="41.1824043" lon="9.4638224"><ele>1.3333333333333333</ele><time>2026-04-19T10:52:50.071Z</time></trkpt><trkpt lat="41.1823249" lon="9.4638211"><ele>1.6666666666666665</ele><time>2026-04-19T10:52:51.071Z</time></trkpt><trkpt lat="41.1822411" lon="9.4638299"><ele>2.0</ele><time>2026-04-19T10:52:52.071Z</time></trkpt><trkpt lat="41.1821572" lon="9.4638563"><ele>1.9999999999999998</ele><time>2026-04-19T10:52:53.071Z</time></trkpt><trkpt lat="41.1820725" lon="9.4638952"><ele>2.0</ele><time>2026-04-19T10:52:54.071Z</time></trkpt><trkpt lat="41.1819959" lon="9.4639434"><ele>2.0</ele><time>2026-04-19T10:52:55.071Z</time></trkpt><trkpt lat="41.1819288" lon="9.4639904"><ele>2.0</ele><time>2026-04-19T10:52:56.07Z</time></trkpt><trkpt lat="41.1818695" lon="9.4640256"><ele>1.9999999999999998</ele><time>2026-04-19T10:52:57.07Z</time></trkpt><trkpt lat="41.1818076" lon="9.464057"><ele>2.0</ele><time>2026-04-19T10:52:58.071Z</time></trkpt><trkpt lat="41.1817127" lon="9.4640987"><ele>1.9999999999999998</ele><time>2026-04-19T10:53:00.071Z</time></trkpt><trkpt lat="41.1816742" lon="9.4642031"><ele>2.0</ele><time>2026-04-19T10:53:02.071Z</time></trkpt><trkpt lat="41.1817166" lon="9.4643335"><ele>2.0</ele><time>2026-04-19T10:53:04.07Z</time></trkpt><trkpt lat="41.1817461" lon="9.4644214"><ele>2.0</ele><time>2026-04-19T10:53:05.07Z</time></trkpt><trkpt lat="41.1817831" lon="9.4645235"><ele>1.9999999999999998</ele><time>2026-04-19T10:53:06.071Z</time></trkpt><trkpt lat="41.1818127" lon="9.4646353"><ele>2.0</ele><time>2026-04-19T10:53:07.071Z</time></trkpt><trkpt lat="41.1818362" lon="9.4647515"><ele>1.8333333333333333</ele><time>2026-04-19T10:53:08.071Z</time></trkpt><trkpt lat="41.1818554" lon="9.4648703"><ele>1.6666666666666665</ele><time>2026-04-19T10:53:09.071Z</time></trkpt><trkpt lat="41.1818652" lon="9.4649779"><ele>1.5</ele><time>2026-04-19T10:53:10.07Z</time></trkpt><trkpt lat="41.1818833" lon="9.4650785"><ele>1.3333333333333333</ele><time>2026-04-19T10:53:11.071Z</time></trkpt><trkpt lat="41.1819036" lon="9.4651817"><ele>1.1666666666666665</ele><time>2026-04-19T10:53:12.07Z</time></trkpt><trkpt lat="41.1819219" lon="9.4652961"><ele>1.0</ele><time>2026-04-19T10:53:13.071Z</time></trkpt><trkpt lat="41.1819368" lon="9.4654102"><ele>0.8</ele><time>2026-04-19T10:53:14.071Z</time></trkpt><trkpt lat="41.181952" lon="9.4655198"><ele>0.6000000000000001</ele><time>2026-04-19T10:53:15.071Z</time></trkpt><trkpt lat="41.1819547" lon="9.4656316"><ele>0.4</ele><time>2026-04-19T10:53:16.071Z</time></trkpt><trkpt lat="41.1819542" lon="9.4657607"><ele>0.2</ele><time>2026-04-19T10:53:17.071Z</time></trkpt><trkpt lat="41.1819604" lon="9.4658907"><ele>0.0</ele><time>2026-04-19T10:53:18.071Z</time></trkpt><trkpt lat="41.1819791" lon="9.4660084"><ele>0.0</ele><time>2026-04-19T10:53:19.071Z</time></trkpt><trkpt lat="41.1819889" lon="9.4661313"><ele>0.0</ele><time>2026-04-19T10:53:20.071Z</time></trkpt><trkpt lat="41.1819972" lon="9.4662517"><ele>0.0</ele><time>2026-04-19T10:53:21.071Z</time></trkpt><trkpt lat="41.1820063" lon="9.4663594"><ele>0.0</ele><time>2026-04-19T10:53:22.071Z</time></trkpt><trkpt lat="41.1820125" lon="9.4664695"><ele>0.0</ele><time>2026-04-19T10:53:23.071Z</time></trkpt><trkpt lat="41.1820079" lon="9.4665715"><ele>0.0</ele><time>2026-04-19T10:53:24.071Z</time></trkpt><trkpt lat="41.1819886" lon="9.466677"><ele>0.3333333333333333</ele><time>2026-04-19T10:53:25.071Z</time></trkpt><trkpt lat="41.1819525" lon="9.4667807"><ele>0.6666666666666666</ele><time>2026-04-19T10:53:26.071Z</time></trkpt><trkpt lat="41.1818985" lon="9.4668774"><ele>1.0</ele><time>2026-04-19T10:53:27.071Z</time></trkpt><trkpt lat="41.1818419" lon="9.4669734"><ele>1.3333333333333333</ele><time>2026-04-19T10:53:28.071Z</time></trkpt><trkpt lat="41.1817961" lon="9.4670812"><ele>1.6666666666666665</ele><time>2026-04-19T10:53:29.07Z</time></trkpt><trkpt lat="41.1817645" lon="9.4671861"><ele>2.0</ele><time>2026-04-19T10:53:30.071Z</time></trkpt><trkpt lat="41.181753" lon="9.4672911"><ele>2.833333333333333</ele><time>2026-04-19T10:53:31.071Z</time></trkpt><trkpt lat="41.1817639" lon="9.4674004"><ele>3.666666666666667</ele><time>2026-04-19T10:53:32.071Z</time></trkpt><trkpt lat="41.1817569" lon="9.4674965"><ele>4.5</ele><time>2026-04-19T10:53:33.071Z</time></trkpt><trkpt lat="41.1817404" lon="9.4675866"><ele>5.333333333333334</ele><time>2026-04-19T10:53:34.071Z</time></trkpt><trkpt lat="41.1817088" lon="9.4676667"><ele>6.166666666666667</ele><time>2026-04-19T10:53:35.071Z</time></trkpt><trkpt lat="41.1816594" lon="9.4677562"><ele>7.0</ele><time>2026-04-19T10:53:36.071Z</time></trkpt><trkpt lat="41.1815961" lon="9.4678484"><ele>7.0</ele><time>2026-04-19T10:53:37.071Z</time></trkpt><trkpt lat="41.1815456" lon="9.4679413"><ele>6.999999999999999</ele><time>2026-04-19T10:53:38.071Z</time></trkpt><trkpt lat="41.1814903" lon="9.4680429"><ele>6.999999999999999</ele><time>2026-04-19T10:53:39.071Z</time></trkpt><trkpt lat="41.1814512" lon="9.4681489"><ele>7.0</ele><time>2026-04-19T10:53:40.071Z</time></trkpt><trkpt lat="41.1814278" lon="9.4682573"><ele>7.0</ele><time>2026-04-19T10:53:41.07Z</time></trkpt><trkpt lat="41.1814032" lon="9.4683983"><ele>6.857142857142857</ele><time>2026-04-19T10:53:42.071Z</time></trkpt><trkpt lat="41.1813932" lon="9.4685068"><ele>6.714285714285714</ele><time>2026-04-19T10:53:43.07Z</time></trkpt><trkpt lat="41.1813879" lon="9.4685994"><ele>6.571428571428571</ele><time>2026-04-19T10:53:44.07Z</time></trkpt><trkpt lat="41.1813744" lon="9.4686883"><ele>6.428571428571429</ele><time>2026-04-19T10:53:45.071Z</time></trkpt><trkpt lat="41.1813435" lon="9.4687662"><ele>6.285714285714286</ele><time>2026-04-19T10:53:46.07Z</time></trkpt><trkpt lat="41.1812998" lon="9.4688349"><ele>6.142857142857142</ele><time>2026-04-19T10:53:47.071Z</time></trkpt><trkpt lat="41.1812378" lon="9.4688947"><ele>6.0</ele><time>2026-04-19T10:53:48.071Z</time></trkpt><trkpt lat="41.1811596" lon="9.4689583"><ele>5.8</ele><time>2026-04-19T10:53:49.07Z</time></trkpt><trkpt lat="41.1810749" lon="9.4690289"><ele>5.6</ele><time>2026-04-19T10:53:50.071Z</time></trkpt><trkpt lat="41.1809898" lon="9.4691042"><ele>5.4</ele><time>2026-04-19T10:53:51.071Z</time></trkpt><trkpt lat="41.1809378" lon="9.4691699"><ele>5.2</ele><time>2026-04-19T10:53:52.071Z</time></trkpt><trkpt lat="41.1808719" lon="9.4692546"><ele>5.0</ele><time>2026-04-19T10:53:53.071Z</time></trkpt><trkpt lat="41.1807992" lon="9.4693255"><ele>5.0</ele><time>2026-04-19T10:53:54.071Z</time></trkpt><trkpt lat="41.1807208" lon="9.4693892"><ele>5.0</ele><time>2026-04-19T10:53:55.071Z</time></trkpt><trkpt lat="41.1806322" lon="9.4694487"><ele>5.0</ele><time>2026-04-19T10:53:56.071Z</time></trkpt><trkpt lat="41.1805457" lon="9.4694999"><ele>5.0</ele><time>2026-04-19T10:53:57.071Z</time></trkpt><trkpt lat="41.1804715" lon="9.4695413"><ele>5.0</ele><time>2026-04-19T10:53:58.071Z</time></trkpt><trkpt lat="41.1803921" lon="9.4695608"><ele>5.0</ele><time>2026-04-19T10:53:59.071Z</time></trkpt><trkpt lat="41.1803111" lon="9.469567"><ele>4.5</ele><time>2026-04-19T10:54:00.071Z</time></trkpt><trkpt lat="41.1802388" lon="9.4695665"><ele>4.0</ele><time>2026-04-19T10:54:01.071Z</time></trkpt><trkpt lat="41.1801655" lon="9.4695571"><ele>3.5</ele><time>2026-04-19T10:54:02.07Z</time></trkpt><trkpt lat="41.1800818" lon="9.4695661"><ele>3.0</ele><time>2026-04-19T10:54:03.071Z</time></trkpt><trkpt lat="41.1800081" lon="9.4695709"><ele>2.5</ele><time>2026-04-19T10:54:04.07Z</time></trkpt><trkpt lat="41.1799318" lon="9.4695677"><ele>2.0</ele><time>2026-04-19T10:54:05.071Z</time></trkpt><trkpt lat="41.1798464" lon="9.469569"><ele>1.6666666666666665</ele><time>2026-04-19T10:54:06.071Z</time></trkpt><trkpt lat="41.1797642" lon="9.4695944"><ele>1.3333333333333333</ele><time>2026-04-19T10:54:07.071Z</time></trkpt><trkpt lat="41.1796844" lon="9.4696133"><ele>1.0</ele><time>2026-04-19T10:54:08.071Z</time></trkpt><trkpt lat="41.1796149" lon="9.4696404"><ele>0.6666666666666666</ele><time>2026-04-19T10:54:09.071Z</time></trkpt><trkpt lat="41.1795452" lon="9.4696695"><ele>0.3333333333333333</ele><time>2026-04-19T10:54:10.071Z</time></trkpt><trkpt lat="41.1794688" lon="9.469704"><ele>0.0</ele><time>2026-04-19T10:54:11.071Z</time></trkpt><trkpt lat="41.1793864" lon="9.469734"><ele>0.8</ele><time>2026-04-19T10:54:12.071Z</time></trkpt><trkpt lat="41.1792956" lon="9.4697536"><ele>1.6</ele><time>2026-04-19T10:54:13.071Z</time></trkpt><trkpt lat="41.1792046" lon="9.4697752"><ele>2.4000000000000004</ele><time>2026-04-19T10:54:14.071Z</time></trkpt><trkpt lat="41.1791127" lon="9.4697963"><ele>3.2</ele><time>2026-04-19T10:54:15.071Z</time></trkpt><trkpt lat="41.1790182" lon="9.4698013"><ele>4.0</ele><time>2026-04-19T10:54:16.071Z</time></trkpt><trkpt lat="41.1789228" lon="9.4698036"><ele>3.9999999999999996</ele><time>2026-04-19T10:54:17.071Z</time></trkpt><trkpt lat="41.1788289" lon="9.4698103"><ele>4.0</ele><time>2026-04-19T10:54:18.071Z</time></trkpt><trkpt lat="41.1787426" lon="9.46981"><ele>4.0</ele><time>2026-04-19T10:54:19.071Z</time></trkpt><trkpt lat="41.1786651" lon="9.4698137"><ele>4.0</ele><time>2026-04-19T10:54:20.071Z</time></trkpt><trkpt lat="41.1785796" lon="9.4698169"><ele>3.9999999999999996</ele><time>2026-04-19T10:54:21.071Z</time></trkpt><trkpt lat="41.1784888" lon="9.4698142"><ele>4.0</ele><time>2026-04-19T10:54:22.07Z</time></trkpt><trkpt lat="41.1783921" lon="9.4698168"><ele>3.9999999999999996</ele><time>2026-04-19T10:54:23.071Z</time></trkpt><trkpt lat="41.1783012" lon="9.4698098"><ele>4.0</ele><time>2026-04-19T10:54:24.071Z</time></trkpt><trkpt lat="41.1782166" lon="9.469812"><ele>4.0</ele><time>2026-04-19T10:54:25.071Z</time></trkpt><trkpt lat="41.1781368" lon="9.4698104"><ele>4.0</ele><time>2026-04-19T10:54:26.071Z</time></trkpt><trkpt lat="41.1780564" lon="9.4698108"><ele>3.9999999999999996</ele><time>2026-04-19T10:54:27.07Z</time></trkpt><trkpt lat="41.1779637" lon="9.4698135"><ele>4.0</ele><time>2026-04-19T10:54:28.07Z</time></trkpt><trkpt lat="41.1778542" lon="9.4698208"><ele>3.9999999999999996</ele><time>2026-04-19T10:54:29.07Z</time></trkpt><trkpt lat="41.1777519" lon="9.4698256"><ele>4.0</ele><time>2026-04-19T10:54:30.07Z</time></trkpt><trkpt lat="41.1776519" lon="9.469833"><ele>4.0</ele><time>2026-04-19T10:54:31.071Z</time></trkpt><trkpt lat="41.1775688" lon="9.4698389"><ele>4.0</ele><time>2026-04-19T10:54:32.071Z</time></trkpt><trkpt lat="41.1774854" lon="9.4698559"><ele>3.9999999999999996</ele><time>2026-04-19T10:54:33.071Z</time></trkpt><trkpt lat="41.1774102" lon="9.4698676"><ele>4.0</ele><time>2026-04-19T10:54:34.071Z</time></trkpt><trkpt lat="41.1773385" lon="9.4698629"><ele>4.0</ele><time>2026-04-19T10:54:35.071Z</time></trkpt><trkpt lat="41.1772659" lon="9.4698599"><ele>3.9999999999999996</ele><time>2026-04-19T10:54:36.071Z</time></trkpt><trkpt lat="41.1771957" lon="9.469866"><ele>4.0</ele><time>2026-04-19T10:54:37.071Z</time></trkpt><trkpt lat="41.1771295" lon="9.4698757"><ele>4.0</ele><time>2026-04-19T10:54:38.07Z</time></trkpt><trkpt lat="41.1770605" lon="9.469893"><ele>3.9999999999999996</ele><time>2026-04-19T10:54:39.07Z</time></trkpt><trkpt lat="41.1769932" lon="9.4698918"><ele>4.0</ele><time>2026-04-19T10:54:40.071Z</time></trkpt><trkpt lat="41.176921" lon="9.4698795"><ele>4.0</ele><time>2026-04-19T10:54:41.071Z</time></trkpt><trkpt lat="41.1768451" lon="9.4698483"><ele>4.0</ele><time>2026-04-19T10:54:42.07Z</time></trkpt><trkpt lat="41.1767605" lon="9.4698053"><ele>4.0</ele><time>2026-04-19T10:54:43.071Z</time></trkpt><trkpt lat="41.1766684" lon="9.4697505"><ele>4.0</ele><time>2026-04-19T10:54:44.071Z</time></trkpt><trkpt lat="41.1765743" lon="9.4696915"><ele>4.0</ele><time>2026-04-19T10:54:45.071Z</time></trkpt><trkpt lat="41.1764817" lon="9.4696329"><ele>4.0</ele><time>2026-04-19T10:54:46.071Z</time></trkpt><trkpt lat="41.1764119" lon="9.4695868"><ele>3.9999999999999996</ele><time>2026-04-19T10:54:47.07Z</time></trkpt><trkpt lat="41.1763505" lon="9.4695459"><ele>4.0</ele><time>2026-04-19T10:54:48.071Z</time></trkpt><trkpt lat="41.1762962" lon="9.4694843"><ele>4.0</ele><time>2026-04-19T10:54:49.071Z</time></trkpt><trkpt lat="41.1762454" lon="9.4693941"><ele>4.0</ele><time>2026-04-19T10:54:50.071Z</time></trkpt><trkpt lat="41.1761974" lon="9.4693066"><ele>3.9999999999999996</ele><time>2026-04-19T10:54:51.071Z</time></trkpt><trkpt lat="41.1761414" lon="9.4692377"><ele>4.0</ele><time>2026-04-19T10:54:52.071Z</time></trkpt><trkpt lat="41.1760843" lon="9.4691693"><ele>4.0</ele><time>2026-04-19T10:54:53.071Z</time></trkpt><trkpt lat="41.1760228" lon="9.4691097"><ele>4.0</ele><time>2026-04-19T10:54:54.071Z</time></trkpt><trkpt lat="41.1759666" lon="9.4690583"><ele>4.0</ele><time>2026-04-19T10:54:55.071Z</time></trkpt><trkpt lat="41.1758563" lon="9.4689911"><ele>4.0</ele><time>2026-04-19T10:54:57.071Z</time></trkpt><trkpt lat="41.1757391" lon="9.4689046"><ele>4.0</ele><time>2026-04-19T10:54:59.071Z</time></trkpt><trkpt lat="41.1756796" lon="9.4688649"><ele>3.6666666666666665</ele><time>2026-04-19T10:55:00.071Z</time></trkpt><trkpt lat="41.175566" lon="9.4687756"><ele>3.333333333333333</ele><time>2026-04-19T10:55:02.071Z</time></trkpt><trkpt lat="41.1755025" lon="9.4687314"><ele>3.0</ele><time>2026-04-19T10:55:03.071Z</time></trkpt><trkpt lat="41.17544" lon="9.4686809"><ele>2.6666666666666665</ele><time>2026-04-19T10:55:04.071Z</time></trkpt><trkpt lat="41.1753762" lon="9.4686304"><ele>2.333333333333333</ele><time>2026-04-19T10:55:05.07Z</time></trkpt><trkpt lat="41.1753119" lon="9.4685778"><ele>2.0</ele><time>2026-04-19T10:55:06.07Z</time></trkpt><trkpt lat="41.1752504" lon="9.4685376"><ele>1.9999999999999998</ele><time>2026-04-19T10:55:07.071Z</time></trkpt><trkpt lat="41.175195" lon="9.4684974"><ele>2.0</ele><time>2026-04-19T10:55:08.07Z</time></trkpt><trkpt lat="41.1751356" lon="9.4684555"><ele>2.0</ele><time>2026-04-19T10:55:09.071Z</time></trkpt><trkpt lat="41.1750751" lon="9.4684268"><ele>2.0</ele><time>2026-04-19T10:55:10.071Z</time></trkpt><trkpt lat="41.1749746" lon="9.468351"><ele>1.9999999999999998</ele><time>2026-04-19T10:55:12.071Z</time></trkpt><trkpt lat="41.1749177" lon="9.4682432"><ele>2.0</ele><time>2026-04-19T10:55:14.07Z</time></trkpt><trkpt lat="41.174882" lon="9.468151"><ele>1.6666666666666665</ele><time>2026-04-19T10:55:16.071Z</time></trkpt><trkpt lat="41.1748375" lon="9.4680869"><ele>1.3333333333333333</ele><time>2026-04-19T10:55:19.071Z</time></trkpt><trkpt lat="41.174773" lon="9.4680737"><ele>1.0</ele><time>2026-04-19T10:55:23.07Z</time></trkpt><trkpt lat="41.1747331" lon="9.4681527"><ele>0.6666666666666666</ele><time>2026-04-19T10:55:26.071Z</time></trkpt><trkpt lat="41.1747333" lon="9.4682503"><ele>0.3333333333333333</ele><time>2026-04-19T10:55:28.067Z</time></trkpt><trkpt lat="41.174772" lon="9.4683343"><ele>0.0</ele><time>2026-04-19T10:55:29.071Z</time></trkpt><trkpt lat="41.1747942" lon="9.4684655"><ele>0.0</ele><time>2026-04-19T10:55:31.07Z</time></trkpt><trkpt lat="41.1747946" lon="9.4686335"><ele>0.0</ele><time>2026-04-19T10:55:33.07Z</time></trkpt><trkpt lat="41.1747988" lon="9.4687622"><ele>0.0</ele><time>2026-04-19T10:55:35.07Z</time></trkpt><trkpt lat="41.1748208" lon="9.4688434"><ele>0.0</ele><time>2026-04-19T10:55:37.071Z</time></trkpt><trkpt lat="41.1748612" lon="9.4689161"><ele>0.0</ele><time>2026-04-19T10:55:40.071Z</time></trkpt><trkpt lat="41.1749143" lon="9.469021"><ele>0.16666666666666666</ele><time>2026-04-19T10:55:44.071Z</time></trkpt><trkpt lat="41.1749547" lon="9.4691023"><ele>0.3333333333333333</ele><time>2026-04-19T10:55:46.071Z</time></trkpt><trkpt lat="41.1749909" lon="9.4692025"><ele>0.5</ele><time>2026-04-19T10:55:48.07Z</time></trkpt><trkpt lat="41.1750129" lon="9.4692918"><ele>0.6666666666666666</ele><time>2026-04-19T10:55:50.077Z</time></trkpt><trkpt lat="41.1749871" lon="9.4693832"><ele>0.8333333333333333</ele><time>2026-04-19T10:55:53.095Z</time></trkpt><trkpt lat="41.1748816" lon="9.4693736"><ele>1.0</ele><time>2026-04-19T10:55:56.071Z</time></trkpt><trkpt lat="41.1747763" lon="9.4694062"><ele>1.0</ele><time>2026-04-19T10:55:58.071Z</time></trkpt><trkpt lat="41.1746768" lon="9.4694594"><ele>1.0</ele><time>2026-04-19T10:56:00.071Z</time></trkpt><trkpt lat="41.1746199" lon="9.4694977"><ele>1.0</ele><time>2026-04-19T10:56:01.071Z</time></trkpt><trkpt lat="41.1745051" lon="9.4695696"><ele>1.0</ele><time>2026-04-19T10:56:03.07Z</time></trkpt><trkpt lat="41.1744016" lon="9.4696237"><ele>1.0</ele><time>2026-04-19T10:56:05.07Z</time></trkpt><trkpt lat="41.1743074" lon="9.4696721"><ele>2.0</ele><time>2026-04-19T10:56:07.07Z</time></trkpt><trkpt lat="41.1742018" lon="9.4697151"><ele>3.0</ele><time>2026-04-19T10:56:09.07Z</time></trkpt><trkpt lat="41.1741388" lon="9.4697416"><ele>4.0</ele><time>2026-04-19T10:56:10.07Z</time></trkpt><trkpt lat="41.1740747" lon="9.4697755"><ele>5.0</ele><time>2026-04-19T10:56:11.069Z</time></trkpt><trkpt lat="41.1740126" lon="9.4698092"><ele>6.000000000000001</ele><time>2026-04-19T10:56:12.07Z</time></trkpt><trkpt lat="41.173932" lon="9.4698568"><ele>7.0</ele><time>2026-04-19T10:56:14.07Z</time></trkpt><trkpt lat="41.1738459" lon="9.4699012"><ele>7.000000000000001</ele><time>2026-04-19T10:56:25.07Z</time></trkpt><trkpt lat="41.1737245" lon="9.4699409"><ele>7.0</ele><time>2026-04-19T10:56:27.07Z</time></trkpt><trkpt lat="41.1736525" lon="9.4699432"><ele>7.0</ele><time>2026-04-19T10:56:28.07Z</time></trkpt><trkpt lat="41.1735816" lon="9.4699359"><ele>7.0</ele><time>2026-04-19T10:56:29.07Z</time></trkpt><trkpt lat="41.1735163" lon="9.4699228"><ele>7.000000000000001</ele><time>2026-04-19T10:56:30.07Z</time></trkpt><trkpt lat="41.1734492" lon="9.4698983"><ele>7.0</ele><time>2026-04-19T10:56:31.07Z</time></trkpt><trkpt lat="41.1733839" lon="9.469877"><ele>7.000000000000001</ele><time>2026-04-19T10:56:32.07Z</time></trkpt><trkpt lat="41.1733199" lon="9.4698593"><ele>7.0</ele><time>2026-04-19T10:56:33.07Z</time></trkpt><trkpt lat="41.1732526" lon="9.4698451"><ele>7.0</ele><time>2026-04-19T10:56:34.07Z</time></trkpt><trkpt lat="41.1731759" lon="9.4698391"><ele>7.0</ele><time>2026-04-19T10:56:35.07Z</time></trkpt><trkpt lat="41.1731005" lon="9.4698349"><ele>7.000000000000001</ele><time>2026-04-19T10:56:36.07Z</time></trkpt><trkpt lat="41.1729808" lon="9.4698389"><ele>7.0</ele><time>2026-04-19T10:56:38.07Z</time></trkpt><trkpt lat="41.1728692" lon="9.4699053"><ele>7.199999999999999</ele><time>2026-04-19T10:56:40.07Z</time></trkpt><trkpt lat="41.1728169" lon="9.4699551"><ele>7.3999999999999995</ele><time>2026-04-19T10:56:41.07Z</time></trkpt><trkpt lat="41.1727149" lon="9.4699903"><ele>7.6000000000000005</ele><time>2026-04-19T10:56:43.07Z</time></trkpt><trkpt lat="41.1726113" lon="9.4699907"><ele>7.800000000000001</ele><time>2026-04-19T10:56:45.07Z</time></trkpt><trkpt lat="41.1725193" lon="9.4699532"><ele>8.0</ele><time>2026-04-19T10:56:47.07Z</time></trkpt><trkpt lat="41.1724275" lon="9.4698586"><ele>8.4</ele><time>2026-04-19T10:56:49.07Z</time></trkpt><trkpt lat="41.1723259" lon="9.4697805"><ele>8.8</ele><time>2026-04-19T10:56:51.07Z</time></trkpt><trkpt lat="41.1722205" lon="9.4697555"><ele>9.2</ele><time>2026-04-19T10:56:53.07Z</time></trkpt><trkpt lat="41.1721469" lon="9.4697604"><ele>9.6</ele><time>2026-04-19T10:56:54.07Z</time></trkpt><trkpt lat="41.1720653" lon="9.469755"><ele>10.0</ele><time>2026-04-19T10:56:55.07Z</time></trkpt><trkpt lat="41.1719698" lon="9.4697413"><ele>10.0</ele><time>2026-04-19T10:56:56.07Z</time></trkpt><trkpt lat="41.1718738" lon="9.4697243"><ele>10.0</ele><time>2026-04-19T10:56:57.069Z</time></trkpt><trkpt lat="41.1717844" lon="9.4697145"><ele>10.0</ele><time>2026-04-19T10:56:58.07Z</time></trkpt><trkpt lat="41.1717097" lon="9.4697036"><ele>10.0</ele><time>2026-04-19T10:56:59.07Z</time></trkpt><trkpt lat="41.1716073" lon="9.4696975"><ele>10.0</ele><time>2026-04-19T10:57:01.069Z</time></trkpt><trkpt lat="41.1715232" lon="9.4697122"><ele>10.0</ele><time>2026-04-19T10:57:03.07Z</time></trkpt><trkpt lat="41.1714388" lon="9.4697066"><ele>9.166666666666668</ele><time>2026-04-19T10:57:05.07Z</time></trkpt><trkpt lat="41.1713558" lon="9.4696656"><ele>8.333333333333334</ele><time>2026-04-19T10:57:07.07Z</time></trkpt><trkpt lat="41.1712587" lon="9.4696651"><ele>7.5</ele><time>2026-04-19T10:57:09.07Z</time></trkpt><trkpt lat="41.1711717" lon="9.469677"><ele>6.666666666666667</ele><time>2026-04-19T10:57:11.07Z</time></trkpt><trkpt lat="41.1711" lon="9.469636"><ele>5.833333333333334</ele><time>2026-04-19T10:57:13.07Z</time></trkpt><trkpt lat="41.1710222" lon="9.4696271"><ele>5.0</ele><time>2026-04-19T10:57:15.07Z</time></trkpt><trkpt lat="41.1709558" lon="9.4696539"><ele>5.0</ele><time>2026-04-19T10:57:17.069Z</time></trkpt><trkpt lat="41.170882" lon="9.469639"><ele>5.0</ele><time>2026-04-19T10:57:19.07Z</time></trkpt><trkpt lat="41.170772" lon="9.4696226"><ele>5.0</ele><time>2026-04-19T10:57:21.07Z</time></trkpt><trkpt lat="41.1706554" lon="9.4695983"><ele>5.0</ele><time>2026-04-19T10:57:23.07Z</time></trkpt><trkpt lat="41.1705419" lon="9.4695772"><ele>5.0</ele><time>2026-04-19T10:57:25.07Z</time></trkpt><trkpt lat="41.1704326" lon="9.4695834"><ele>4.4</ele><time>2026-04-19T10:57:27.07Z</time></trkpt><trkpt lat="41.1703122" lon="9.469547"><ele>3.8</ele><time>2026-04-19T10:57:29.069Z</time></trkpt><trkpt lat="41.1702403" lon="9.4695239"><ele>3.2</ele><time>2026-04-19T10:57:30.069Z</time></trkpt><trkpt lat="41.1701209" lon="9.4694971"><ele>2.6</ele><time>2026-04-19T10:57:32.07Z</time></trkpt><trkpt lat="41.170013" lon="9.469512"><ele>2.0</ele><time>2026-04-19T10:57:34.069Z</time></trkpt><trkpt lat="41.1699159" lon="9.4695039"><ele>2.0</ele><time>2026-04-19T10:57:36.069Z</time></trkpt><trkpt lat="41.1698506" lon="9.4694999"><ele>2.0</ele><time>2026-04-19T10:57:37.07Z</time></trkpt><trkpt lat="41.169735" lon="9.469481"><ele>2.0</ele><time>2026-04-19T10:57:39.07Z</time></trkpt><trkpt lat="41.1696476" lon="9.4694559"><ele>2.0</ele><time>2026-04-19T10:57:41.07Z</time></trkpt><trkpt lat="41.1695261" lon="9.4694058"><ele>2.0</ele><time>2026-04-19T10:57:43.07Z</time></trkpt><trkpt lat="41.1694515" lon="9.4694028"><ele>1.9999999999999998</ele><time>2026-04-19T10:57:44.07Z</time></trkpt><trkpt lat="41.1693766" lon="9.4693926"><ele>2.0</ele><time>2026-04-19T10:57:45.07Z</time></trkpt><trkpt lat="41.1693057" lon="9.4693757"><ele>2.0</ele><time>2026-04-19T10:57:46.07Z</time></trkpt><trkpt lat="41.1692267" lon="9.4693493"><ele>2.0</ele><time>2026-04-19T10:57:47.07Z</time></trkpt><trkpt lat="41.1691426" lon="9.4693226"><ele>1.9999999999999998</ele><time>2026-04-19T10:57:48.07Z</time></trkpt><trkpt lat="41.1690764" lon="9.4693055"><ele>2.0</ele><time>2026-04-19T10:57:49.07Z</time></trkpt><trkpt lat="41.1689834" lon="9.4693037"><ele>0.0</ele><time>2026-04-19T10:57:51.07Z</time></trkpt><trkpt lat="41.1689171" lon="9.4692793"><ele>0.0</ele><time>2026-04-19T10:57:54.07Z</time></trkpt></trkseg><trkseg><trkpt lat="41.1688686" lon="9.4693007"><ele>0.0</ele><time>2026-04-19T11:21:18.066Z</time></trkpt><trkpt lat="41.1689506" lon="9.4693119"><ele>0.0</ele><time>2026-04-19T11:21:21.066Z</time></trkpt><trkpt lat="41.1690522" lon="9.4693062"><ele>0.0</ele><time>2026-04-19T11:21:23.066Z</time></trkpt><trkpt lat="41.1691502" lon="9.4693302"><ele>0.0</ele><time>2026-04-19T11:21:25.066Z</time></trkpt><trkpt lat="41.1692457" lon="9.4693705"><ele>0.0</ele><time>2026-04-19T11:21:27.066Z</time></trkpt><trkpt lat="41.1693475" lon="9.4693943"><ele>0.4</ele><time>2026-04-19T11:21:29.065Z</time></trkpt><trkpt lat="41.1694442" lon="9.4694098"><ele>0.8</ele><time>2026-04-19T11:21:31.066Z</time></trkpt><trkpt lat="41.1695276" lon="9.4694116"><ele>1.2000000000000002</ele><time>2026-04-19T11:21:33.066Z</time></trkpt><trkpt lat="41.1696059" lon="9.4694263"><ele>1.6</ele><time>2026-04-19T11:21:35.066Z</time></trkpt><trkpt lat="41.1696953" lon="9.4694483"><ele>2.0</ele><time>2026-04-19T11:21:37.066Z</time></trkpt><trkpt lat="41.1697996" lon="9.4694586"><ele>2.0</ele><time>2026-04-19T11:21:39.066Z</time></trkpt><trkpt lat="41.1698846" lon="9.4694842"><ele>2.0</ele><time>2026-04-19T11:21:41.066Z</time></trkpt><trkpt lat="41.1699659" lon="9.4694871"><ele>2.0</ele><time>2026-04-19T11:21:43.066Z</time></trkpt><trkpt lat="41.1700569" lon="9.4694899"><ele>2.0</ele><time>2026-04-19T11:21:45.066Z</time></trkpt><trkpt lat="41.1701572" lon="9.4695017"><ele>2.0</ele><time>2026-04-19T11:21:47.066Z</time></trkpt><trkpt lat="41.1702555" lon="9.4695227"><ele>2.0</ele><time>2026-04-19T11:21:49.065Z</time></trkpt><trkpt lat="41.1703654" lon="9.4695647"><ele>2.0</ele><time>2026-04-19T11:21:51.064Z</time></trkpt><trkpt lat="41.1704686" lon="9.4695802"><ele>2.0</ele><time>2026-04-19T11:21:53.065Z</time></trkpt><trkpt lat="41.1705907" lon="9.469616"><ele>2.0</ele><time>2026-04-19T11:21:55.064Z</time></trkpt><trkpt lat="41.1706637" lon="9.4696291"><ele>2.0</ele><time>2026-04-19T11:21:56.065Z</time></trkpt><trkpt lat="41.1707341" lon="9.4696363"><ele>2.5</ele><time>2026-04-19T11:21:57.065Z</time></trkpt><trkpt lat="41.1708009" lon="9.4696455"><ele>3.0</ele><time>2026-04-19T11:21:58.065Z</time></trkpt><trkpt lat="41.1709029" lon="9.4696686"><ele>3.5</ele><time>2026-04-19T11:22:00.064Z</time></trkpt><trkpt lat="41.1709809" lon="9.4697079"><ele>4.0</ele><time>2026-04-19T11:22:02.064Z</time></trkpt><trkpt lat="41.1710405" lon="9.4697531"><ele>4.5</ele><time>2026-04-19T11:22:04.065Z</time></trkpt><trkpt lat="41.1711078" lon="9.4697823"><ele>5.0</ele><time>2026-04-19T11:22:06.064Z</time></trkpt><trkpt lat="41.171172" lon="9.4698067"><ele>5.0</ele><time>2026-04-19T11:22:08.065Z</time></trkpt><trkpt lat="41.171278" lon="9.4698177"><ele>5.0</ele><time>2026-04-19T11:22:10.065Z</time></trkpt><trkpt lat="41.1713798" lon="9.4698551"><ele>5.0</ele><time>2026-04-19T11:22:12.065Z</time></trkpt><trkpt lat="41.1714901" lon="9.4698959"><ele>5.0</ele><time>2026-04-19T11:22:14.064Z</time></trkpt><trkpt lat="41.1716019" lon="9.4699347"><ele>5.0</ele><time>2026-04-19T11:22:16.065Z</time></trkpt><trkpt lat="41.1717115" lon="9.4699727"><ele>5.833333333333334</ele><time>2026-04-19T11:22:18.065Z</time></trkpt><trkpt lat="41.171816" lon="9.4700117"><ele>6.666666666666667</ele><time>2026-04-19T11:22:20.064Z</time></trkpt><trkpt lat="41.1718988" lon="9.4700418"><ele>7.5</ele><time>2026-04-19T11:22:22.065Z</time></trkpt><trkpt lat="41.1719877" lon="9.4700805"><ele>8.333333333333334</ele><time>2026-04-19T11:22:24.065Z</time></trkpt><trkpt lat="41.1720616" lon="9.4701035"><ele>9.166666666666668</ele><time>2026-04-19T11:22:27.065Z</time></trkpt><trkpt lat="41.1720922" lon="9.4702009"><ele>10.0</ele><time>2026-04-19T11:22:39.064Z</time></trkpt><trkpt lat="41.1720355" lon="9.4701623"><ele>10.0</ele><time>2026-04-19T11:22:44.065Z</time></trkpt><trkpt lat="41.1719749" lon="9.4700941"><ele>10.0</ele><time>2026-04-19T11:23:27.065Z</time></trkpt><trkpt lat="41.1718788" lon="9.4700685"><ele>10.0</ele><time>2026-04-19T11:23:30.065Z</time></trkpt><trkpt lat="41.1717989" lon="9.4700197"><ele>10.0</ele><time>2026-04-19T11:23:32.064Z</time></trkpt><trkpt lat="41.171705" lon="9.4699838"><ele>10.0</ele><time>2026-04-19T11:23:34.065Z</time></trkpt><trkpt lat="41.1716098" lon="9.4699565"><ele>9.166666666666668</ele><time>2026-04-19T11:23:36.065Z</time></trkpt><trkpt lat="41.171518" lon="9.4699313"><ele>8.333333333333334</ele><time>2026-04-19T11:23:38.065Z</time></trkpt><trkpt lat="41.1714296" lon="9.469902"><ele>7.5</ele><time>2026-04-19T11:23:40.065Z</time></trkpt><trkpt lat="41.1713507" lon="9.4698624"><ele>6.666666666666667</ele><time>2026-04-19T11:23:42.065Z</time></trkpt><trkpt lat="41.1712661" lon="9.4698345"><ele>5.833333333333334</ele><time>2026-04-19T11:23:44.065Z</time></trkpt><trkpt lat="41.1711823" lon="9.4698133"><ele>5.0</ele><time>2026-04-19T11:23:46.064Z</time></trkpt><trkpt lat="41.171104" lon="9.4697919"><ele>5.0</ele><time>2026-04-19T11:23:48.065Z</time></trkpt><trkpt lat="41.1710354" lon="9.4697559"><ele>5.0</ele><time>2026-04-19T11:23:50.065Z</time></trkpt><trkpt lat="41.1710084" lon="9.4696784"><ele>5.0</ele><time>2026-04-19T11:23:53.065Z</time></trkpt><trkpt lat="41.171094" lon="9.4696579"><ele>5.0</ele><time>2026-04-19T11:23:56.065Z</time></trkpt><trkpt lat="41.171211" lon="9.4696801"><ele>5.0</ele><time>2026-04-19T11:23:58.065Z</time></trkpt><trkpt lat="41.1713323" lon="9.4696715"><ele>5.0</ele><time>2026-04-19T11:24:00.064Z</time></trkpt><trkpt lat="41.1714585" lon="9.4697106"><ele>5.0</ele><time>2026-04-19T11:24:02.065Z</time></trkpt><trkpt lat="41.1715757" lon="9.4697216"><ele>5.0</ele><time>2026-04-19T11:24:04.065Z</time></trkpt><trkpt lat="41.1717001" lon="9.4697222"><ele>5.0</ele><time>2026-04-19T11:24:06.065Z</time></trkpt><trkpt lat="41.1717723" lon="9.4697296"><ele>5.0</ele><time>2026-04-19T11:24:07.065Z</time></trkpt><trkpt lat="41.1718464" lon="9.4697366"><ele>6.0</ele><time>2026-04-19T11:24:08.064Z</time></trkpt><trkpt lat="41.1719104" lon="9.4697439"><ele>7.0</ele><time>2026-04-19T11:24:09.064Z</time></trkpt><trkpt lat="41.171984" lon="9.4697561"><ele>8.0</ele><time>2026-04-19T11:24:10.064Z</time></trkpt><trkpt lat="41.1721048" lon="9.4697684"><ele>9.0</ele><time>2026-04-19T11:24:12.064Z</time></trkpt><trkpt lat="41.1722181" lon="9.4697716"><ele>10.0</ele><time>2026-04-19T11:24:14.065Z</time></trkpt><trkpt lat="41.1723238" lon="9.469803"><ele>9.6</ele><time>2026-04-19T11:24:16.064Z</time></trkpt><trkpt lat="41.1724268" lon="9.4698797"><ele>9.2</ele><time>2026-04-19T11:24:18.064Z</time></trkpt><trkpt lat="41.1725096" lon="9.4699589"><ele>8.8</ele><time>2026-04-19T11:24:20.065Z</time></trkpt><trkpt lat="41.1726049" lon="9.4700068"><ele>8.4</ele><time>2026-04-19T11:24:22.065Z</time></trkpt><trkpt lat="41.1726697" lon="9.4699998"><ele>8.0</ele><time>2026-04-19T11:24:23.065Z</time></trkpt><trkpt lat="41.1727916" lon="9.4699631"><ele>8.0</ele><time>2026-04-19T11:24:25.064Z</time></trkpt><trkpt lat="41.1728492" lon="9.4699235"><ele>7.999999999999999</ele><time>2026-04-19T11:24:26.065Z</time></trkpt><trkpt lat="41.1729064" lon="9.4698813"><ele>8.0</ele><time>2026-04-19T11:24:27.064Z</time></trkpt><trkpt lat="41.1729713" lon="9.4698612"><ele>8.0</ele><time>2026-04-19T11:24:28.064Z</time></trkpt><trkpt lat="41.1730435" lon="9.4698519"><ele>7.999999999999999</ele><time>2026-04-19T11:24:29.065Z</time></trkpt><trkpt lat="41.1731208" lon="9.4698532"><ele>8.0</ele><time>2026-04-19T11:24:30.065Z</time></trkpt><trkpt lat="41.1731996" lon="9.4698588"><ele>8.0</ele><time>2026-04-19T11:24:31.065Z</time></trkpt><trkpt lat="41.1732853" lon="9.4698728"><ele>7.833333333333333</ele><time>2026-04-19T11:24:32.065Z</time></trkpt><trkpt lat="41.1733649" lon="9.4698878"><ele>7.666666666666666</ele><time>2026-04-19T11:24:33.064Z</time></trkpt><trkpt lat="41.1734454" lon="9.4699117"><ele>7.5</ele><time>2026-04-19T11:24:34.064Z</time></trkpt><trkpt lat="41.173525" lon="9.469935"><ele>7.333333333333334</ele><time>2026-04-19T11:24:35.064Z</time></trkpt><trkpt lat="41.173598" lon="9.4699506"><ele>7.166666666666667</ele><time>2026-04-19T11:24:36.065Z</time></trkpt><trkpt lat="41.1736767" lon="9.4699535"><ele>7.0</ele><time>2026-04-19T11:24:37.065Z</time></trkpt><trkpt lat="41.1737597" lon="9.4699418"><ele>7.0</ele><time>2026-04-19T11:24:38.065Z</time></trkpt><trkpt lat="41.1738408" lon="9.469919"><ele>6.999999999999999</ele><time>2026-04-19T11:24:39.065Z</time></trkpt><trkpt lat="41.1739353" lon="9.4698716"><ele>6.999999999999999</ele><time>2026-04-19T11:24:40.065Z</time></trkpt><trkpt lat="41.1740519" lon="9.4698085"><ele>7.0</ele><time>2026-04-19T11:24:41.065Z</time></trkpt><trkpt lat="41.1741628" lon="9.4697515"><ele>7.0</ele><time>2026-04-19T11:24:42.065Z</time></trkpt><trkpt lat="41.1742585" lon="9.4697073"><ele>7.6</ele><time>2026-04-19T11:24:43.065Z</time></trkpt><trkpt lat="41.1743423" lon="9.4696652"><ele>8.2</ele><time>2026-04-19T11:24:44.065Z</time></trkpt><trkpt lat="41.1744256" lon="9.4696264"><ele>8.8</ele><time>2026-04-19T11:24:45.065Z</time></trkpt><trkpt lat="41.1745071" lon="9.4695796"><ele>9.4</ele><time>2026-04-19T11:24:46.065Z</time></trkpt><trkpt lat="41.1745942" lon="9.469528"><ele>10.0</ele><time>2026-04-19T11:24:47.065Z</time></trkpt><trkpt lat="41.1746935" lon="9.4694733"><ele>8.8</ele><time>2026-04-19T11:24:48.065Z</time></trkpt><trkpt lat="41.1747929" lon="9.4694263"><ele>7.6</ele><time>2026-04-19T11:24:49.065Z</time></trkpt><trkpt lat="41.174893" lon="9.4693853"><ele>6.4</ele><time>2026-04-19T11:24:50.065Z</time></trkpt><trkpt lat="41.1749942" lon="9.4693383"><ele>5.2</ele><time>2026-04-19T11:24:51.065Z</time></trkpt><trkpt lat="41.1751043" lon="9.4692757"><ele>4.0</ele><time>2026-04-19T11:24:52.065Z</time></trkpt><trkpt lat="41.1752188" lon="9.4692087"><ele>3.9999999999999996</ele><time>2026-04-19T11:24:53.065Z</time></trkpt><trkpt lat="41.1753176" lon="9.4691533"><ele>4.0</ele><time>2026-04-19T11:24:54.064Z</time></trkpt><trkpt lat="41.1753973" lon="9.4691073"><ele>4.0</ele><time>2026-04-19T11:24:55.065Z</time></trkpt><trkpt lat="41.1754728" lon="9.4690691"><ele>4.0</ele><time>2026-04-19T11:24:56.064Z</time></trkpt><trkpt lat="41.1755499" lon="9.4690336"><ele>3.9999999999999996</ele><time>2026-04-19T11:24:57.064Z</time></trkpt><trkpt lat="41.1756351" lon="9.4690093"><ele>4.0</ele><time>2026-04-19T11:24:58.065Z</time></trkpt><trkpt lat="41.1757149" lon="9.4690035"><ele>3.9999999999999996</ele><time>2026-04-19T11:24:59.063Z</time></trkpt><trkpt lat="41.1757959" lon="9.4690113"><ele>4.0</ele><time>2026-04-19T11:25:00.065Z</time></trkpt><trkpt lat="41.1758704" lon="9.469027"><ele>4.0</ele><time>2026-04-19T11:25:01.064Z</time></trkpt><trkpt lat="41.1759378" lon="9.469051"><ele>4.0</ele><time>2026-04-19T11:25:02.064Z</time></trkpt><trkpt lat="41.1759986" lon="9.4691"><ele>3.9999999999999996</ele><time>2026-04-19T11:25:03.065Z</time></trkpt><trkpt lat="41.1760572" lon="9.4691589"><ele>4.0</ele><time>2026-04-19T11:25:04.064Z</time></trkpt><trkpt lat="41.1761148" lon="9.469241"><ele>3.9999999999999996</ele><time>2026-04-19T11:25:05.065Z</time></trkpt><trkpt lat="41.1761643" lon="9.4693388"><ele>4.0</ele><time>2026-04-19T11:25:06.064Z</time></trkpt><trkpt lat="41.1762065" lon="9.469427"><ele>4.0</ele><time>2026-04-19T11:25:07.065Z</time></trkpt><trkpt lat="41.1762572" lon="9.4695047"><ele>4.0</ele><time>2026-04-19T11:25:08.065Z</time></trkpt><trkpt lat="41.1763267" lon="9.4695656"><ele>3.9999999999999996</ele><time>2026-04-19T11:25:09.065Z</time></trkpt><trkpt lat="41.1763976" lon="9.4696136"><ele>4.0</ele><time>2026-04-19T11:25:10.064Z</time></trkpt><trkpt lat="41.1764628" lon="9.469657"><ele>3.9999999999999996</ele><time>2026-04-19T11:25:11.065Z</time></trkpt><trkpt lat="41.1765298" lon="9.4696931"><ele>4.0</ele><time>2026-04-19T11:25:12.064Z</time></trkpt><trkpt lat="41.1766" lon="9.4697307"><ele>4.0</ele><time>2026-04-19T11:25:13.065Z</time></trkpt><trkpt lat="41.1766708" lon="9.4697739"><ele>4.0</ele><time>2026-04-19T11:25:14.065Z</time></trkpt><trkpt lat="41.1767383" lon="9.4698206"><ele>3.9999999999999996</ele><time>2026-04-19T11:25:15.065Z</time></trkpt><trkpt lat="41.1768061" lon="9.469866"><ele>4.0</ele><time>2026-04-19T11:25:16.065Z</time></trkpt><trkpt lat="41.1768845" lon="9.469894"><ele>4.0</ele><time>2026-04-19T11:25:17.065Z</time></trkpt><trkpt lat="41.1769581" lon="9.4699057"><ele>4.0</ele><time>2026-04-19T11:25:18.064Z</time></trkpt><trkpt lat="41.1770242" lon="9.469902"><ele>4.0</ele><time>2026-04-19T11:25:20.064Z</time></trkpt><trkpt lat="41.1771708" lon="9.469878"><ele>4.0</ele><time>2026-04-19T11:25:28.065Z</time></trkpt><trkpt lat="41.1772526" lon="9.4698547"><ele>4.0</ele><time>2026-04-19T11:25:29.065Z</time></trkpt><trkpt lat="41.1773458" lon="9.4698452"><ele>3.8000000000000003</ele><time>2026-04-19T11:25:30.065Z</time></trkpt><trkpt lat="41.1774406" lon="9.4698355"><ele>3.6000000000000005</ele><time>2026-04-19T11:25:31.065Z</time></trkpt><trkpt lat="41.1775299" lon="9.469834"><ele>3.4</ele><time>2026-04-19T11:25:32.064Z</time></trkpt><trkpt lat="41.1776222" lon="9.4698384"><ele>3.2</ele><time>2026-04-19T11:25:33.065Z</time></trkpt><trkpt lat="41.1777209" lon="9.469844"><ele>3.0</ele><time>2026-04-19T11:25:34.065Z</time></trkpt><trkpt lat="41.1778235" lon="9.4698462"><ele>3.0</ele><time>2026-04-19T11:25:35.065Z</time></trkpt><trkpt lat="41.1779188" lon="9.4698455"><ele>3.0</ele><time>2026-04-19T11:25:36.065Z</time></trkpt><trkpt lat="41.1780084" lon="9.4698469"><ele>3.0</ele><time>2026-04-19T11:25:37.065Z</time></trkpt><trkpt lat="41.1781005" lon="9.4698436"><ele>3.0</ele><time>2026-04-19T11:25:38.065Z</time></trkpt><trkpt lat="41.1781972" lon="9.4698439"><ele>3.0</ele><time>2026-04-19T11:25:39.065Z</time></trkpt><trkpt lat="41.1782836" lon="9.4698543"><ele>3.1666666666666665</ele><time>2026-04-19T11:25:40.065Z</time></trkpt><trkpt lat="41.1783636" lon="9.469858"><ele>3.333333333333333</ele><time>2026-04-19T11:25:41.064Z</time></trkpt><trkpt lat="41.1784518" lon="9.4698584"><ele>3.5</ele><time>2026-04-19T11:25:42.065Z</time></trkpt><trkpt lat="41.178542" lon="9.4698529"><ele>3.6666666666666665</ele><time>2026-04-19T11:25:43.063Z</time></trkpt><trkpt lat="41.178623" lon="9.4698486"><ele>3.833333333333333</ele><time>2026-04-19T11:25:44.065Z</time></trkpt><trkpt lat="41.178696" lon="9.4698399"><ele>4.0</ele><time>2026-04-19T11:25:45.064Z</time></trkpt><trkpt lat="41.1787649" lon="9.4698238"><ele>3.9999999999999996</ele><time>2026-04-19T11:25:46.065Z</time></trkpt><trkpt lat="41.178838" lon="9.4698102"><ele>4.0</ele><time>2026-04-19T11:25:47.065Z</time></trkpt><trkpt lat="41.1789233" lon="9.4698058"><ele>4.0</ele><time>2026-04-19T11:25:48.064Z</time></trkpt><trkpt lat="41.1790143" lon="9.4698056"><ele>4.0</ele><time>2026-04-19T11:25:49.065Z</time></trkpt><trkpt lat="41.1791035" lon="9.4697976"><ele>3.9999999999999996</ele><time>2026-04-19T11:25:50.065Z</time></trkpt><trkpt lat="41.1791798" lon="9.4697827"><ele>4.0</ele><time>2026-04-19T11:25:51.065Z</time></trkpt><trkpt lat="41.1792411" lon="9.4697583"><ele>4.0</ele><time>2026-04-19T11:25:52.065Z</time></trkpt><trkpt lat="41.1793524" lon="9.4697653"><ele>4.0</ele><time>2026-04-19T11:25:54.065Z</time></trkpt><trkpt lat="41.1794687" lon="9.4698427"><ele>4.0</ele><time>2026-04-19T11:25:56.065Z</time></trkpt><trkpt lat="41.1795336" lon="9.469872"><ele>4.0</ele><time>2026-04-19T11:25:57.064Z</time></trkpt><trkpt lat="41.1796037" lon="9.4698929"><ele>4.0</ele><time>2026-04-19T11:25:58.064Z</time></trkpt><trkpt lat="41.1796788" lon="9.4699134"><ele>3.9999999999999996</ele><time>2026-04-19T11:25:59.065Z</time></trkpt><trkpt lat="41.1797638" lon="9.4699474"><ele>4.0</ele><time>2026-04-19T11:26:00.065Z</time></trkpt><trkpt lat="41.1798508" lon="9.4699867"><ele>4.0</ele><time>2026-04-19T11:26:01.065Z</time></trkpt><trkpt lat="41.1799313" lon="9.4700274"><ele>4.0</ele><time>2026-04-19T11:26:02.065Z</time></trkpt><trkpt lat="41.1799986" lon="9.4700652"><ele>3.9999999999999996</ele><time>2026-04-19T11:26:03.065Z</time></trkpt><trkpt lat="41.1800542" lon="9.4701127"><ele>4.0</ele><time>2026-04-19T11:26:04.065Z</time></trkpt><trkpt lat="41.1801073" lon="9.4701794"><ele>4.428571428571429</ele><time>2026-04-19T11:26:05.065Z</time></trkpt><trkpt lat="41.1801594" lon="9.4702497"><ele>4.857142857142857</ele><time>2026-04-19T11:26:06.065Z</time></trkpt><trkpt lat="41.1801972" lon="9.4703235"><ele>5.285714285714286</ele><time>2026-04-19T11:26:07.064Z</time></trkpt><trkpt lat="41.1802215" lon="9.4704103"><ele>5.714285714285714</ele><time>2026-04-19T11:26:08.064Z</time></trkpt><trkpt lat="41.1802371" lon="9.4704991"><ele>6.142857142857142</ele><time>2026-04-19T11:26:09.065Z</time></trkpt><trkpt lat="41.1802647" lon="9.4705844"><ele>6.571428571428571</ele><time>2026-04-19T11:26:10.065Z</time></trkpt><trkpt lat="41.1802814" lon="9.4706732"><ele>7.0</ele><time>2026-04-19T11:26:11.064Z</time></trkpt><trkpt lat="41.1802899" lon="9.4707718"><ele>7.166666666666667</ele><time>2026-04-19T11:26:12.065Z</time></trkpt><trkpt lat="41.1803074" lon="9.4708681"><ele>7.333333333333334</ele><time>2026-04-19T11:26:13.065Z</time></trkpt><trkpt lat="41.1803332" lon="9.4709604"><ele>7.5</ele><time>2026-04-19T11:26:14.065Z</time></trkpt><trkpt lat="41.180361" lon="9.4710434"><ele>7.666666666666666</ele><time>2026-04-19T11:26:15.065Z</time></trkpt><trkpt lat="41.1804015" lon="9.471173"><ele>7.833333333333333</ele><time>2026-04-19T11:26:17.065Z</time></trkpt><trkpt lat="41.1803741" lon="9.4712918"><ele>8.0</ele><time>2026-04-19T11:26:19.064Z</time></trkpt><trkpt lat="41.1803732" lon="9.4714198"><ele>7.4</ele><time>2026-04-19T11:26:21.065Z</time></trkpt><trkpt lat="41.1804262" lon="9.4715637"><ele>6.800000000000001</ele><time>2026-04-19T11:26:23.065Z</time></trkpt><trkpt lat="41.1804737" lon="9.4716724"><ele>6.2</ele><time>2026-04-19T11:26:24.065Z</time></trkpt><trkpt lat="41.1805179" lon="9.4717774"><ele>5.6</ele><time>2026-04-19T11:26:25.065Z</time></trkpt><trkpt lat="41.1805652" lon="9.4719107"><ele>5.0</ele><time>2026-04-19T11:26:27.064Z</time></trkpt><trkpt lat="41.1806028" lon="9.4720396"><ele>5.0</ele><time>2026-04-19T11:26:29.065Z</time></trkpt><trkpt lat="41.1806329" lon="9.4721151"><ele>5.0</ele><time>2026-04-19T11:26:32.038Z</time></trkpt><trkpt lat="41.1806499" lon="9.4722186"><ele>5.0</ele><time>2026-04-19T11:26:35.094Z</time></trkpt><trkpt lat="41.1807132" lon="9.4721755"><ele>5.0</ele><time>2026-04-19T11:26:52.064Z</time></trkpt><trkpt lat="41.1806699" lon="9.4720689"><ele>5.0</ele><time>2026-04-19T11:26:56.064Z</time></trkpt><trkpt lat="41.1806191" lon="9.4719739"><ele>5.0</ele><time>2026-04-19T11:26:58.064Z</time></trkpt><trkpt lat="41.1805602" lon="9.4718224"><ele>5.0</ele><time>2026-04-19T11:27:00.064Z</time></trkpt><trkpt lat="41.1805245" lon="9.4717376"><ele>5.0</ele><time>2026-04-19T11:27:01.064Z</time></trkpt><trkpt lat="41.1804915" lon="9.4716579"><ele>5.0</ele><time>2026-04-19T11:27:02.064Z</time></trkpt><trkpt lat="41.1804561" lon="9.4715765"><ele>5.0</ele><time>2026-04-19T11:27:03.064Z</time></trkpt><trkpt lat="41.1804292" lon="9.471498"><ele>5.0</ele><time>2026-04-19T11:27:04.064Z</time></trkpt><trkpt lat="41.1804001" lon="9.4713671"><ele>5.0</ele><time>2026-04-19T11:27:06.064Z</time></trkpt><trkpt lat="41.1804094" lon="9.4712217"><ele>5.6</ele><time>2026-04-19T11:27:08.064Z</time></trkpt><trkpt lat="41.1803803" lon="9.4710491"><ele>6.2</ele><time>2026-04-19T11:27:10.064Z</time></trkpt><trkpt lat="41.1803479" lon="9.4709517"><ele>6.800000000000001</ele><time>2026-04-19T11:27:11.064Z</time></trkpt><trkpt lat="41.1803333" lon="9.4708424"><ele>7.4</ele><time>2026-04-19T11:27:12.064Z</time></trkpt><trkpt lat="41.1803169" lon="9.4707398"><ele>8.0</ele><time>2026-04-19T11:27:13.064Z</time></trkpt><trkpt lat="41.1802843" lon="9.4706318"><ele>8.0</ele><time>2026-04-19T11:27:14.064Z</time></trkpt><trkpt lat="41.1802522" lon="9.47054"><ele>8.0</ele><time>2026-04-19T11:27:15.064Z</time></trkpt><trkpt lat="41.1802337" lon="9.4704562"><ele>8.0</ele><time>2026-04-19T11:27:16.064Z</time></trkpt><trkpt lat="41.1802058" lon="9.4703215"><ele>8.0</ele><time>2026-04-19T11:27:18.064Z</time></trkpt><trkpt lat="41.1801071" lon="9.4701775"><ele>8.0</ele><time>2026-04-19T11:27:20.063Z</time></trkpt><trkpt lat="41.1800598" lon="9.470115"><ele>7.800000000000001</ele><time>2026-04-19T11:27:21.064Z</time></trkpt><trkpt lat="41.1800067" lon="9.4700688"><ele>7.6000000000000005</ele><time>2026-04-19T11:27:22.064Z</time></trkpt><trkpt lat="41.1798716" lon="9.4700041"><ele>7.3999999999999995</ele><time>2026-04-19T11:27:24.064Z</time></trkpt><trkpt lat="41.1797927" lon="9.4699656"><ele>7.199999999999999</ele><time>2026-04-19T11:27:25.064Z</time></trkpt><trkpt lat="41.1797248" lon="9.4699488"><ele>7.0</ele><time>2026-04-19T11:27:26.064Z</time></trkpt><trkpt lat="41.1796117" lon="9.4699111"><ele>6.500000000000001</ele><time>2026-04-19T11:27:28.064Z</time></trkpt><trkpt lat="41.1795298" lon="9.4698911"><ele>6.0</ele><time>2026-04-19T11:27:30.064Z</time></trkpt><trkpt lat="41.1794657" lon="9.4698859"><ele>5.5</ele><time>2026-04-19T11:27:32.064Z</time></trkpt><trkpt lat="41.1794283" lon="9.4697982"><ele>5.0</ele><time>2026-04-19T11:27:35.063Z</time></trkpt><trkpt lat="41.1795411" lon="9.4696932"><ele>4.5</ele><time>2026-04-19T11:27:38.064Z</time></trkpt><trkpt lat="41.1796179" lon="9.4696469"><ele>4.0</ele><time>2026-04-19T11:27:39.064Z</time></trkpt><trkpt lat="41.1796901" lon="9.4696183"><ele>3.6666666666666665</ele><time>2026-04-19T11:27:40.064Z</time></trkpt><trkpt lat="41.1797677" lon="9.4695973"><ele>3.333333333333333</ele><time>2026-04-19T11:27:41.064Z</time></trkpt><trkpt lat="41.1798508" lon="9.4695895"><ele>3.0</ele><time>2026-04-19T11:27:42.063Z</time></trkpt><trkpt lat="41.1799401" lon="9.4695942"><ele>2.6666666666666665</ele><time>2026-04-19T11:27:43.063Z</time></trkpt><trkpt lat="41.180029" lon="9.4695954"><ele>2.333333333333333</ele><time>2026-04-19T11:27:44.064Z</time></trkpt><trkpt lat="41.180121" lon="9.4695937"><ele>2.0</ele><time>2026-04-19T11:27:45.064Z</time></trkpt><trkpt lat="41.1802098" lon="9.4695942"><ele>1.9999999999999998</ele><time>2026-04-19T11:27:46.064Z</time></trkpt><trkpt lat="41.1802883" lon="9.4695968"><ele>2.0</ele><time>2026-04-19T11:27:47.064Z</time></trkpt><trkpt lat="41.1803615" lon="9.4695913"><ele>2.0</ele><time>2026-04-19T11:27:48.063Z</time></trkpt><trkpt lat="41.1804362" lon="9.4695684"><ele>2.0</ele><time>2026-04-19T11:27:49.064Z</time></trkpt><trkpt lat="41.1805165" lon="9.4695297"><ele>1.9999999999999998</ele><time>2026-04-19T11:27:50.064Z</time></trkpt><trkpt lat="41.1805989" lon="9.4694812"><ele>2.0</ele><time>2026-04-19T11:27:51.064Z</time></trkpt><trkpt lat="41.1806746" lon="9.4694289"><ele>2.5</ele><time>2026-04-19T11:27:52.064Z</time></trkpt><trkpt lat="41.1807471" lon="9.4693681"><ele>3.0</ele><time>2026-04-19T11:27:53.064Z</time></trkpt><trkpt lat="41.1808124" lon="9.4693044"><ele>3.5</ele><time>2026-04-19T11:27:54.064Z</time></trkpt><trkpt lat="41.1808745" lon="9.4692249"><ele>4.0</ele><time>2026-04-19T11:27:55.064Z</time></trkpt><trkpt lat="41.1809347" lon="9.4691456"><ele>4.5</ele><time>2026-04-19T11:27:56.064Z</time></trkpt><trkpt lat="41.1809893" lon="9.4690871"><ele>5.0</ele><time>2026-04-19T11:27:57.064Z</time></trkpt><trkpt lat="41.1810956" lon="9.469018"><ele>5.0</ele><time>2026-04-19T11:27:59.064Z</time></trkpt><trkpt lat="41.1811633" lon="9.4689839"><ele>5.0</ele><time>2026-04-19T11:28:00.064Z</time></trkpt><trkpt lat="41.1812316" lon="9.4689322"><ele>5.0</ele><time>2026-04-19T11:28:01.064Z</time></trkpt><trkpt lat="41.1812928" lon="9.4688637"><ele>5.0</ele><time>2026-04-19T11:28:02.064Z</time></trkpt><trkpt lat="41.1813444" lon="9.4687826"><ele>5.0</ele><time>2026-04-19T11:28:03.063Z</time></trkpt><trkpt lat="41.1813781" lon="9.4686947"><ele>5.0</ele><time>2026-04-19T11:28:04.063Z</time></trkpt><trkpt lat="41.1814054" lon="9.4686148"><ele>5.166666666666667</ele><time>2026-04-19T11:28:05.064Z</time></trkpt><trkpt lat="41.1814369" lon="9.4685292"><ele>5.333333333333334</ele><time>2026-04-19T11:28:06.064Z</time></trkpt><trkpt lat="41.1814387" lon="9.4683811"><ele>5.5</ele><time>2026-04-19T11:28:07.063Z</time></trkpt><trkpt lat="41.181445" lon="9.4682482"><ele>5.666666666666667</ele><time>2026-04-19T11:28:08.064Z</time></trkpt><trkpt lat="41.1814626" lon="9.468149"><ele>5.833333333333333</ele><time>2026-04-19T11:28:09.064Z</time></trkpt><trkpt lat="41.1814864" lon="9.4680531"><ele>6.0</ele><time>2026-04-19T11:28:10.064Z</time></trkpt><trkpt lat="41.1815298" lon="9.467964"><ele>6.166666666666667</ele><time>2026-04-19T11:28:11.064Z</time></trkpt><trkpt lat="41.1815945" lon="9.4678844"><ele>6.333333333333334</ele><time>2026-04-19T11:28:12.064Z</time></trkpt><trkpt lat="41.1816564" lon="9.4678025"><ele>6.5</ele><time>2026-04-19T11:28:13.064Z</time></trkpt><trkpt lat="41.181704" lon="9.4677147"><ele>6.666666666666667</ele><time>2026-04-19T11:28:14.064Z</time></trkpt><trkpt lat="41.1817354" lon="9.4676117"><ele>6.833333333333334</ele><time>2026-04-19T11:28:15.064Z</time></trkpt><trkpt lat="41.1817474" lon="9.4674949"><ele>7.0</ele><time>2026-04-19T11:28:16.064Z</time></trkpt><trkpt lat="41.1817422" lon="9.4673857"><ele>7.000000000000001</ele><time>2026-04-19T11:28:17.064Z</time></trkpt><trkpt lat="41.1817387" lon="9.4672828"><ele>7.0</ele><time>2026-04-19T11:28:18.063Z</time></trkpt><trkpt lat="41.1817555" lon="9.4671875"><ele>7.0</ele><time>2026-04-19T11:28:19.064Z</time></trkpt><trkpt lat="41.1817919" lon="9.4670905"><ele>7.0</ele><time>2026-04-19T11:28:20.064Z</time></trkpt><trkpt lat="41.1818406" lon="9.4669908"><ele>7.000000000000001</ele><time>2026-04-19T11:28:21.064Z</time></trkpt><trkpt lat="41.1818965" lon="9.4668864"><ele>7.0</ele><time>2026-04-19T11:28:22.064Z</time></trkpt><trkpt lat="41.1819459" lon="9.4667783"><ele>6.0</ele><time>2026-04-19T11:28:23.064Z</time></trkpt><trkpt lat="41.1819796" lon="9.4666693"><ele>4.999999999999999</ele><time>2026-04-19T11:28:24.064Z</time></trkpt><trkpt lat="41.1820038" lon="9.4665523"><ele>4.0</ele><time>2026-04-19T11:28:25.062Z</time></trkpt><trkpt lat="41.182005" lon="9.4664272"><ele>3.0</ele><time>2026-04-19T11:28:26.064Z</time></trkpt><trkpt lat="41.1819913" lon="9.4662969"><ele>2.0</ele><time>2026-04-19T11:28:27.063Z</time></trkpt><trkpt lat="41.1819746" lon="9.4661583"><ele>1.6</ele><time>2026-04-19T11:28:28.064Z</time></trkpt><trkpt lat="41.1819618" lon="9.4660208"><ele>1.2000000000000002</ele><time>2026-04-19T11:28:29.064Z</time></trkpt><trkpt lat="41.1819485" lon="9.4658854"><ele>0.8</ele><time>2026-04-19T11:28:30.064Z</time></trkpt><trkpt lat="41.1819347" lon="9.4657583"><ele>0.4</ele><time>2026-04-19T11:28:31.064Z</time></trkpt><trkpt lat="41.1819214" lon="9.4656379"><ele>0.0</ele><time>2026-04-19T11:28:32.064Z</time></trkpt><trkpt lat="41.1819091" lon="9.4655181"><ele>0.16666666666666666</ele><time>2026-04-19T11:28:33.064Z</time></trkpt><trkpt lat="41.1819008" lon="9.4654072"><ele>0.3333333333333333</ele><time>2026-04-19T11:28:34.064Z</time></trkpt><trkpt lat="41.1818891" lon="9.4653044"><ele>0.5</ele><time>2026-04-19T11:28:35.064Z</time></trkpt><trkpt lat="41.1818771" lon="9.4651955"><ele>0.6666666666666666</ele><time>2026-04-19T11:28:36.064Z</time></trkpt><trkpt lat="41.1818669" lon="9.4650979"><ele>0.8333333333333333</ele><time>2026-04-19T11:28:37.064Z</time></trkpt><trkpt lat="41.181849" lon="9.4650025"><ele>1.0</ele><time>2026-04-19T11:28:38.064Z</time></trkpt><trkpt lat="41.1818319" lon="9.4648993"><ele>1.0</ele><time>2026-04-19T11:28:39.064Z</time></trkpt><trkpt lat="41.1817951" lon="9.4647629"><ele>1.0</ele><time>2026-04-19T11:28:40.063Z</time></trkpt><trkpt lat="41.1817667" lon="9.4646255"><ele>1.0</ele><time>2026-04-19T11:28:41.064Z</time></trkpt><trkpt lat="41.181735" lon="9.4645103"><ele>1.0</ele><time>2026-04-19T11:28:42.064Z</time></trkpt><trkpt lat="41.1817046" lon="9.4644186"><ele>1.0</ele><time>2026-04-19T11:28:43.064Z</time></trkpt><trkpt lat="41.1816642" lon="9.4643431"><ele>1.2000000000000002</ele><time>2026-04-19T11:28:44.063Z</time></trkpt><trkpt lat="41.1816395" lon="9.4642053"><ele>1.4000000000000001</ele><time>2026-04-19T11:28:46.063Z</time></trkpt><trkpt lat="41.1817108" lon="9.464096"><ele>1.6</ele><time>2026-04-19T11:28:48.064Z</time></trkpt><trkpt lat="41.1817744" lon="9.4640553"><ele>1.8</ele><time>2026-04-19T11:28:49.064Z</time></trkpt><trkpt lat="41.1818488" lon="9.464019"><ele>2.0</ele><time>2026-04-19T11:28:50.064Z</time></trkpt><trkpt lat="41.1819305" lon="9.463979"><ele>2.0</ele><time>2026-04-19T11:28:51.064Z</time></trkpt><trkpt lat="41.1820201" lon="9.4639295"><ele>2.0</ele><time>2026-04-19T11:28:52.064Z</time></trkpt><trkpt lat="41.1821026" lon="9.46388"><ele>2.0</ele><time>2026-04-19T11:28:53.064Z</time></trkpt><trkpt lat="41.1821792" lon="9.4638473"><ele>2.0</ele><time>2026-04-19T11:28:54.064Z</time></trkpt><trkpt lat="41.1822663" lon="9.4638354"><ele>2.0</ele><time>2026-04-19T11:28:55.064Z</time></trkpt><trkpt lat="41.1823608" lon="9.4638401"><ele>2.142857142857143</ele><time>2026-04-19T11:28:56.063Z</time></trkpt><trkpt lat="41.1824445" lon="9.4638542"><ele>2.2857142857142856</ele><time>2026-04-19T11:28:57.064Z</time></trkpt><trkpt lat="41.1825179" lon="9.4638672"><ele>2.4285714285714284</ele><time>2026-04-19T11:28:58.063Z</time></trkpt><trkpt lat="41.182589" lon="9.4638805"><ele>2.571428571428571</ele><time>2026-04-19T11:28:59.064Z</time></trkpt><trkpt lat="41.1826596" lon="9.4638997"><ele>2.7142857142857144</ele><time>2026-04-19T11:29:00.064Z</time></trkpt><trkpt lat="41.1827311" lon="9.4639256"><ele>2.8571428571428568</ele><time>2026-04-19T11:29:01.064Z</time></trkpt><trkpt lat="41.1827986" lon="9.4639407"><ele>3.0</ele><time>2026-04-19T11:29:02.063Z</time></trkpt><trkpt lat="41.1829174" lon="9.4639002"><ele>3.0</ele><time>2026-04-19T11:29:04.064Z</time></trkpt><trkpt lat="41.1829983" lon="9.4638034"><ele>3.0</ele><time>2026-04-19T11:29:06.064Z</time></trkpt><trkpt lat="41.1830419" lon="9.4637003"><ele>3.0</ele><time>2026-04-19T11:29:08.064Z</time></trkpt><trkpt lat="41.1830669" lon="9.4636129"><ele>3.0</ele><time>2026-04-19T11:29:11.064Z</time></trkpt><trkpt lat="41.1830895" lon="9.4635289"><ele>3.0</ele><time>2026-04-19T11:29:17.08Z</time></trkpt><trkpt lat="41.1831159" lon="9.4634366"><ele>3.0</ele><time>2026-04-19T11:29:20.064Z</time></trkpt><trkpt lat="41.1831462" lon="9.4633614"><ele>2.6666666666666665</ele><time>2026-04-19T11:29:24.063Z</time></trkpt><trkpt lat="41.1831678" lon="9.4632713"><ele>2.3333333333333335</ele><time>2026-04-19T11:29:27.064Z</time></trkpt><trkpt lat="41.1831944" lon="9.463171"><ele>2.0</ele><time>2026-04-19T11:29:31.064Z</time></trkpt><trkpt lat="41.183223" lon="9.4630738"><ele>1.6666666666666665</ele><time>2026-04-19T11:29:34.064Z</time></trkpt><trkpt lat="41.1832396" lon="9.4629582"><ele>1.3333333333333333</ele><time>2026-04-19T11:29:36.064Z</time></trkpt><trkpt lat="41.1832378" lon="9.4628033"><ele>1.0</ele><time>2026-04-19T11:29:38.064Z</time></trkpt><trkpt lat="41.1832256" lon="9.4627038"><ele>0.9999999999999999</ele><time>2026-04-19T11:29:39.064Z</time></trkpt><trkpt lat="41.1831943" lon="9.4625989"><ele>1.0</ele><time>2026-04-19T11:29:40.064Z</time></trkpt><trkpt lat="41.1831638" lon="9.4624974"><ele>1.0</ele><time>2026-04-19T11:29:41.064Z</time></trkpt><trkpt lat="41.1831368" lon="9.4623947"><ele>1.0</ele><time>2026-04-19T11:29:42.064Z</time></trkpt><trkpt lat="41.1831084" lon="9.4622828"><ele>0.9999999999999999</ele><time>2026-04-19T11:29:43.064Z</time></trkpt><trkpt lat="41.1830808" lon="9.4621659"><ele>1.0</ele><time>2026-04-19T11:29:44.064Z</time></trkpt><trkpt lat="41.1830505" lon="9.4620369"><ele>1.4</ele><time>2026-04-19T11:29:45.063Z</time></trkpt><trkpt lat="41.1830146" lon="9.461907"><ele>1.8</ele><time>2026-04-19T11:29:46.064Z</time></trkpt><trkpt lat="41.1829851" lon="9.4617806"><ele>2.1999999999999997</ele><time>2026-04-19T11:29:47.064Z</time></trkpt><trkpt lat="41.1829585" lon="9.461668"><ele>2.6</ele><time>2026-04-19T11:29:48.064Z</time></trkpt><trkpt lat="41.1829326" lon="9.4615558"><ele>3.0</ele><time>2026-04-19T11:29:49.064Z</time></trkpt><trkpt lat="41.182902" lon="9.4614431"><ele>3.0</ele><time>2026-04-19T11:29:50.064Z</time></trkpt><trkpt lat="41.1828772" lon="9.4613402"><ele>3.0</ele><time>2026-04-19T11:29:51.063Z</time></trkpt><trkpt lat="41.1828492" lon="9.4612411"><ele>3.0</ele><time>2026-04-19T11:29:52.064Z</time></trkpt><trkpt lat="41.1828207" lon="9.4611415"><ele>3.0</ele><time>2026-04-19T11:29:53.064Z</time></trkpt><trkpt lat="41.1827981" lon="9.4610446"><ele>3.0</ele><time>2026-04-19T11:29:54.063Z</time></trkpt><trkpt lat="41.1827826" lon="9.460938"><ele>3.0</ele><time>2026-04-19T11:29:55.064Z</time></trkpt><trkpt lat="41.1827771" lon="9.4608334"><ele>4.333333333333333</ele><time>2026-04-19T11:29:56.064Z</time></trkpt><trkpt lat="41.1827805" lon="9.4607214"><ele>5.666666666666666</ele><time>2026-04-19T11:29:57.063Z</time></trkpt><trkpt lat="41.1827959" lon="9.4606056"><ele>7.0</ele><time>2026-04-19T11:29:58.064Z</time></trkpt><trkpt lat="41.1828068" lon="9.4604955"><ele>8.333333333333332</ele><time>2026-04-19T11:29:59.064Z</time></trkpt><trkpt lat="41.1828272" lon="9.4603811"><ele>9.666666666666666</ele><time>2026-04-19T11:30:00.063Z</time></trkpt><trkpt lat="41.1828555" lon="9.4602726"><ele>11.0</ele><time>2026-04-19T11:30:01.064Z</time></trkpt><trkpt lat="41.182892" lon="9.4601799"><ele>11.0</ele><time>2026-04-19T11:30:02.064Z</time></trkpt><trkpt lat="41.1829433" lon="9.4601056"><ele>11.0</ele><time>2026-04-19T11:30:03.064Z</time></trkpt><trkpt lat="41.1829992" lon="9.4600546"><ele>11.0</ele><time>2026-04-19T11:30:04.063Z</time></trkpt><trkpt lat="41.1830986" lon="9.4599904"><ele>11.0</ele><time>2026-04-19T11:30:06.064Z</time></trkpt><trkpt lat="41.1831729" lon="9.4599407"><ele>11.0</ele><time>2026-04-19T11:30:08.064Z</time></trkpt><trkpt lat="41.1832201" lon="9.4598542"><ele>11.0</ele><time>2026-04-19T11:30:10.063Z</time></trkpt><trkpt lat="41.183221" lon="9.4596921"><ele>10.8</ele><time>2026-04-19T11:30:12.064Z</time></trkpt><trkpt lat="41.1831554" lon="9.4595657"><ele>10.600000000000001</ele><time>2026-04-19T11:30:14.064Z</time></trkpt><trkpt lat="41.1830452" lon="9.4594968"><ele>10.4</ele><time>2026-04-19T11:30:16.064Z</time></trkpt><trkpt lat="41.1829607" lon="9.4593911"><ele>10.2</ele><time>2026-04-19T11:30:18.064Z</time></trkpt><trkpt lat="41.1829319" lon="9.4593125"><ele>10.0</ele><time>2026-04-19T11:30:19.064Z</time></trkpt><trkpt lat="41.1829112" lon="9.4592329"><ele>10.0</ele><time>2026-04-19T11:30:20.064Z</time></trkpt><trkpt lat="41.1829056" lon="9.4591373"><ele>10.0</ele><time>2026-04-19T11:30:21.064Z</time></trkpt><trkpt lat="41.18291" lon="9.4590423"><ele>10.0</ele><time>2026-04-19T11:30:22.064Z</time></trkpt><trkpt lat="41.1829321" lon="9.4589526"><ele>10.0</ele><time>2026-04-19T11:30:23.063Z</time></trkpt><trkpt lat="41.1829688" lon="9.4588618"><ele>10.0</ele><time>2026-04-19T11:30:24.064Z</time></trkpt><trkpt lat="41.1830088" lon="9.4587737"><ele>10.0</ele><time>2026-04-19T11:30:25.063Z</time></trkpt><trkpt lat="41.183056" lon="9.4586736"><ele>10.166666666666668</ele><time>2026-04-19T11:30:26.063Z</time></trkpt><trkpt lat="41.1831057" lon="9.4585838"><ele>10.333333333333334</ele><time>2026-04-19T11:30:27.064Z</time></trkpt><trkpt lat="41.1831626" lon="9.4585071"><ele>10.5</ele><time>2026-04-19T11:30:28.064Z</time></trkpt><trkpt lat="41.1832326" lon="9.458438"><ele>10.666666666666666</ele><time>2026-04-19T11:30:29.064Z</time></trkpt><trkpt lat="41.183309" lon="9.4583777"><ele>10.833333333333332</ele><time>2026-04-19T11:30:30.064Z</time></trkpt><trkpt lat="41.1833864" lon="9.4583221"><ele>11.0</ele><time>2026-04-19T11:30:31.064Z</time></trkpt><trkpt lat="41.1834623" lon="9.4582749"><ele>12.166666666666666</ele><time>2026-04-19T11:30:32.064Z</time></trkpt><trkpt lat="41.1835336" lon="9.4582293"><ele>13.333333333333332</ele><time>2026-04-19T11:30:33.064Z</time></trkpt><trkpt lat="41.1836128" lon="9.458175"><ele>14.5</ele><time>2026-04-19T11:30:34.063Z</time></trkpt><trkpt lat="41.183694" lon="9.4581259"><ele>15.666666666666666</ele><time>2026-04-19T11:30:35.063Z</time></trkpt><trkpt lat="41.1837724" lon="9.458077"><ele>16.833333333333332</ele><time>2026-04-19T11:30:36.064Z</time></trkpt><trkpt lat="41.1838485" lon="9.458028"><ele>18.0</ele><time>2026-04-19T11:30:37.064Z</time></trkpt><trkpt lat="41.1839294" lon="9.4579724"><ele>16.833333333333332</ele><time>2026-04-19T11:30:38.064Z</time></trkpt><trkpt lat="41.1840053" lon="9.4579044"><ele>15.666666666666666</ele><time>2026-04-19T11:30:39.064Z</time></trkpt><trkpt lat="41.1840703" lon="9.4578303"><ele>14.5</ele><time>2026-04-19T11:30:40.064Z</time></trkpt><trkpt lat="41.1841305" lon="9.4577517"><ele>13.333333333333332</ele><time>2026-04-19T11:30:41.064Z</time></trkpt><trkpt lat="41.1841909" lon="9.4576854"><ele>12.166666666666666</ele><time>2026-04-19T11:30:42.064Z</time></trkpt><trkpt lat="41.1842564" lon="9.4576438"><ele>11.0</ele><time>2026-04-19T11:30:43.064Z</time></trkpt><trkpt lat="41.184328" lon="9.4576228"><ele>11.0</ele><time>2026-04-19T11:30:44.064Z</time></trkpt><trkpt lat="41.1844003" lon="9.4576259"><ele>11.0</ele><time>2026-04-19T11:30:45.064Z</time></trkpt><trkpt lat="41.184476" lon="9.4576399"><ele>11.0</ele><time>2026-04-19T11:30:46.063Z</time></trkpt><trkpt lat="41.1845538" lon="9.4576641"><ele>11.0</ele><time>2026-04-19T11:30:47.064Z</time></trkpt><trkpt lat="41.1846233" lon="9.4576882"><ele>11.0</ele><time>2026-04-19T11:30:48.064Z</time></trkpt><trkpt lat="41.1846918" lon="9.4576966"><ele>11.0</ele><time>2026-04-19T11:30:49.064Z</time></trkpt><trkpt lat="41.1847502" lon="9.4576615"><ele>11.0</ele><time>2026-04-19T11:30:50.063Z</time></trkpt><trkpt lat="41.1848249" lon="9.4575507"><ele>10.75</ele><time>2026-04-19T11:30:52.064Z</time></trkpt><trkpt lat="41.184861" lon="9.4574045"><ele>10.5</ele><time>2026-04-19T11:30:53.064Z</time></trkpt><trkpt lat="41.184906" lon="9.4572341"><ele>10.25</ele><time>2026-04-19T11:30:54.064Z</time></trkpt><trkpt lat="41.1849506" lon="9.4570783"><ele>10.0</ele><time>2026-04-19T11:30:55.063Z</time></trkpt><trkpt lat="41.1850073" lon="9.4569558"><ele>10.0</ele><time>2026-04-19T11:30:56.064Z</time></trkpt><trkpt lat="41.1850831" lon="9.4568435"><ele>10.0</ele><time>2026-04-19T11:30:57.064Z</time></trkpt><trkpt lat="41.1851867" lon="9.4567334"><ele>10.0</ele><time>2026-04-19T11:30:58.064Z</time></trkpt><trkpt lat="41.1852811" lon="9.4566468"><ele>10.0</ele><time>2026-04-19T11:30:59.064Z</time></trkpt><trkpt lat="41.1853755" lon="9.456585"><ele>10.0</ele><time>2026-04-19T11:31:00.064Z</time></trkpt><trkpt lat="41.1854819" lon="9.4565673"><ele>10.0</ele><time>2026-04-19T11:31:01.064Z</time></trkpt><trkpt lat="41.1856282" lon="9.4565817"><ele>10.0</ele><time>2026-04-19T11:31:02.064Z</time></trkpt><trkpt lat="41.1857882" lon="9.4566044"><ele>10.0</ele><time>2026-04-19T11:31:03.064Z</time></trkpt><trkpt lat="41.1859347" lon="9.4566182"><ele>10.333333333333334</ele><time>2026-04-19T11:31:04.064Z</time></trkpt><trkpt lat="41.1860779" lon="9.4566182"><ele>10.666666666666666</ele><time>2026-04-19T11:31:05.064Z</time></trkpt><trkpt lat="41.1862276" lon="9.456595"><ele>11.0</ele><time>2026-04-19T11:31:06.064Z</time></trkpt><trkpt lat="41.1863837" lon="9.4565621"><ele>9.666666666666666</ele><time>2026-04-19T11:31:07.064Z</time></trkpt><trkpt lat="41.1865349" lon="9.4565152"><ele>8.333333333333334</ele><time>2026-04-19T11:31:08.064Z</time></trkpt><trkpt lat="41.1866817" lon="9.4564754"><ele>7.0</ele><time>2026-04-19T11:31:09.064Z</time></trkpt><trkpt lat="41.1868262" lon="9.4564418"><ele>7.0</ele><time>2026-04-19T11:31:10.064Z</time></trkpt><trkpt lat="41.1869613" lon="9.4564061"><ele>7.0</ele><time>2026-04-19T11:31:11.064Z</time></trkpt><trkpt lat="41.1870826" lon="9.456378"><ele>7.0</ele><time>2026-04-19T11:31:12.064Z</time></trkpt><trkpt lat="41.1872002" lon="9.4563714"><ele>7.0</ele><time>2026-04-19T11:31:13.064Z</time></trkpt><trkpt lat="41.1873183" lon="9.4563957"><ele>6.25</ele><time>2026-04-19T11:31:14.064Z</time></trkpt><trkpt lat="41.187447" lon="9.4564334"><ele>5.5</ele><time>2026-04-19T11:31:15.063Z</time></trkpt><trkpt lat="41.1875753" lon="9.4564472"><ele>4.75</ele><time>2026-04-19T11:31:16.064Z</time></trkpt><trkpt lat="41.1877098" lon="9.4564333"><ele>4.0</ele><time>2026-04-19T11:31:17.064Z</time></trkpt><trkpt lat="41.187841" lon="9.4564"><ele>4.0</ele><time>2026-04-19T11:31:18.064Z</time></trkpt><trkpt lat="41.1879753" lon="9.4563636"><ele>4.0</ele><time>2026-04-19T11:31:19.064Z</time></trkpt><trkpt lat="41.1881073" lon="9.4563254"><ele>4.0</ele><time>2026-04-19T11:31:20.064Z</time></trkpt><trkpt lat="41.1882356" lon="9.4562857"><ele>4.0</ele><time>2026-04-19T11:31:21.064Z</time></trkpt><trkpt lat="41.1883679" lon="9.4562407"><ele>3.5</ele><time>2026-04-19T11:31:22.064Z</time></trkpt><trkpt lat="41.1884993" lon="9.4562036"><ele>3.0</ele><time>2026-04-19T11:31:23.063Z</time></trkpt><trkpt lat="41.1886253" lon="9.4561822"><ele>2.5</ele><time>2026-04-19T11:31:24.064Z</time></trkpt><trkpt lat="41.188759" lon="9.4561962"><ele>2.0</ele><time>2026-04-19T11:31:25.064Z</time></trkpt><trkpt lat="41.18891" lon="9.456218"><ele>1.6666666666666665</ele><time>2026-04-19T11:31:26.064Z</time></trkpt><trkpt lat="41.1890549" lon="9.4562457"><ele>1.3333333333333333</ele><time>2026-04-19T11:31:27.064Z</time></trkpt><trkpt lat="41.1892032" lon="9.4562558"><ele>1.0</ele><time>2026-04-19T11:31:28.064Z</time></trkpt><trkpt lat="41.1893585" lon="9.4562368"><ele>1.0</ele><time>2026-04-19T11:31:29.064Z</time></trkpt><trkpt lat="41.1895154" lon="9.456224"><ele>1.0</ele><time>2026-04-19T11:31:30.064Z</time></trkpt><trkpt lat="41.189671" lon="9.4562089"><ele>1.0</ele><time>2026-04-19T11:31:31.064Z</time></trkpt><trkpt lat="41.1898315" lon="9.4561843"><ele>1.0</ele><time>2026-04-19T11:31:32.064Z</time></trkpt><trkpt lat="41.1899939" lon="9.4561586"><ele>1.0</ele><time>2026-04-19T11:31:33.064Z</time></trkpt><trkpt lat="41.1901534" lon="9.4561406"><ele>1.0</ele><time>2026-04-19T11:31:34.064Z</time></trkpt><trkpt lat="41.1903121" lon="9.4561371"><ele>1.0</ele><time>2026-04-19T11:31:35.064Z</time></trkpt><trkpt lat="41.1904815" lon="9.4561285"><ele>1.0</ele><time>2026-04-19T11:31:36.063Z</time></trkpt><trkpt lat="41.1906397" lon="9.4561056"><ele>1.0</ele><time>2026-04-19T11:31:37.062Z</time></trkpt><trkpt lat="41.1907884" lon="9.4560834"><ele>2.25</ele><time>2026-04-19T11:31:38.063Z</time></trkpt><trkpt lat="41.1909352" lon="9.4560643"><ele>3.5</ele><time>2026-04-19T11:31:39.062Z</time></trkpt><trkpt lat="41.1910839" lon="9.4560469"><ele>4.75</ele><time>2026-04-19T11:31:40.063Z</time></trkpt><trkpt lat="41.1912347" lon="9.4560301"><ele>6.0</ele><time>2026-04-19T11:31:41.063Z</time></trkpt><trkpt lat="41.191381" lon="9.4560209"><ele>7.0</ele><time>2026-04-19T11:31:42.063Z</time></trkpt><trkpt lat="41.1915299" lon="9.4560133"><ele>8.0</ele><time>2026-04-19T11:31:43.063Z</time></trkpt><trkpt lat="41.1916672" lon="9.4560064"><ele>9.0</ele><time>2026-04-19T11:31:44.063Z</time></trkpt><trkpt lat="41.1917953" lon="9.4559995"><ele>10.0</ele><time>2026-04-19T11:31:45.063Z</time></trkpt><trkpt lat="41.1919237" lon="9.455992"><ele>10.0</ele><time>2026-04-19T11:31:46.063Z</time></trkpt><trkpt lat="41.1920398" lon="9.4559925"><ele>10.0</ele><time>2026-04-19T11:31:47.063Z</time></trkpt><trkpt lat="41.1921468" lon="9.4559902"><ele>10.0</ele><time>2026-04-19T11:31:48.063Z</time></trkpt><trkpt lat="41.1922492" lon="9.4559903"><ele>10.0</ele><time>2026-04-19T11:31:49.063Z</time></trkpt><trkpt lat="41.1923431" lon="9.4559934"><ele>10.0</ele><time>2026-04-19T11:31:50.063Z</time></trkpt><trkpt lat="41.1924314" lon="9.4559935"><ele>9.666666666666668</ele><time>2026-04-19T11:31:51.063Z</time></trkpt><trkpt lat="41.1925155" lon="9.4559915"><ele>9.333333333333334</ele><time>2026-04-19T11:31:52.062Z</time></trkpt><trkpt lat="41.1925939" lon="9.4559898"><ele>9.0</ele><time>2026-04-19T11:31:53.063Z</time></trkpt><trkpt lat="41.1926712" lon="9.4559834"><ele>8.666666666666666</ele><time>2026-04-19T11:31:54.063Z</time></trkpt><trkpt lat="41.1927411" lon="9.4559832"><ele>8.333333333333332</ele><time>2026-04-19T11:31:55.063Z</time></trkpt><trkpt lat="41.1928049" lon="9.4559789"><ele>8.0</ele><time>2026-04-19T11:31:56.063Z</time></trkpt><trkpt lat="41.1929172" lon="9.4559839"><ele>8.0</ele><time>2026-04-19T11:31:58.063Z</time></trkpt><trkpt lat="41.1930071" lon="9.455992"><ele>8.0</ele><time>2026-04-19T11:32:00.063Z</time></trkpt><trkpt lat="41.1930796" lon="9.4559888"><ele>8.0</ele><time>2026-04-19T11:32:02.063Z</time></trkpt><trkpt lat="41.1931559" lon="9.4559854"><ele>8.0</ele><time>2026-04-19T11:32:05.063Z</time></trkpt><trkpt lat="41.193246" lon="9.4559946"><ele>8.0</ele><time>2026-04-19T11:32:09.063Z</time></trkpt><trkpt lat="41.1933865" lon="9.455977"><ele>8.666666666666666</ele><time>2026-04-19T11:32:11.063Z</time></trkpt><trkpt lat="41.1934731" lon="9.4559742"><ele>9.333333333333332</ele><time>2026-04-19T11:32:12.063Z</time></trkpt><trkpt lat="41.1935531" lon="9.4559883"><ele>10.0</ele><time>2026-04-19T11:32:13.063Z</time></trkpt><trkpt lat="41.1936249" lon="9.456016"><ele>10.666666666666666</ele><time>2026-04-19T11:32:14.063Z</time></trkpt><trkpt lat="41.1936939" lon="9.456067"><ele>11.333333333333334</ele><time>2026-04-19T11:32:15.063Z</time></trkpt><trkpt lat="41.193761" lon="9.4561586"><ele>12.0</ele><time>2026-04-19T11:32:16.063Z</time></trkpt><trkpt lat="41.1938222" lon="9.4562905"><ele>12.25</ele><time>2026-04-19T11:32:17.063Z</time></trkpt><trkpt lat="41.1938811" lon="9.4564459"><ele>12.5</ele><time>2026-04-19T11:32:18.063Z</time></trkpt><trkpt lat="41.1939436" lon="9.4565902"><ele>12.75</ele><time>2026-04-19T11:32:19.063Z</time></trkpt><trkpt lat="41.19401" lon="9.4567315"><ele>13.0</ele><time>2026-04-19T11:32:20.063Z</time></trkpt><trkpt lat="41.1940719" lon="9.4568703"><ele>13.0</ele><time>2026-04-19T11:32:21.063Z</time></trkpt><trkpt lat="41.1941313" lon="9.4570006"><ele>13.0</ele><time>2026-04-19T11:32:22.063Z</time></trkpt><trkpt lat="41.1941865" lon="9.4571282"><ele>13.0</ele><time>2026-04-19T11:32:23.063Z</time></trkpt><trkpt lat="41.1942426" lon="9.4572454"><ele>13.0</ele><time>2026-04-19T11:32:24.063Z</time></trkpt><trkpt lat="41.1942992" lon="9.4573658"><ele>13.0</ele><time>2026-04-19T11:32:25.063Z</time></trkpt><trkpt lat="41.19435" lon="9.4574802"><ele>13.0</ele><time>2026-04-19T11:32:26.063Z</time></trkpt><trkpt lat="41.1943981" lon="9.4575854"><ele>13.0</ele><time>2026-04-19T11:32:27.063Z</time></trkpt><trkpt lat="41.1944691" lon="9.4576696"><ele>13.0</ele><time>2026-04-19T11:32:28.062Z</time></trkpt><trkpt lat="41.1945552" lon="9.4577197"><ele>13.0</ele><time>2026-04-19T11:32:29.062Z</time></trkpt><trkpt lat="41.1946431" lon="9.4577301"><ele>13.0</ele><time>2026-04-19T11:32:30.063Z</time></trkpt><trkpt lat="41.1947327" lon="9.4577227"><ele>13.0</ele><time>2026-04-19T11:32:31.063Z</time></trkpt><trkpt lat="41.1948334" lon="9.4577127"><ele>13.0</ele><time>2026-04-19T11:32:32.063Z</time></trkpt><trkpt lat="41.1949377" lon="9.4576989"><ele>13.0</ele><time>2026-04-19T11:32:33.063Z</time></trkpt><trkpt lat="41.1950443" lon="9.457687"><ele>13.0</ele><time>2026-04-19T11:32:34.063Z</time></trkpt><trkpt lat="41.1951536" lon="9.4576776"><ele>13.0</ele><time>2026-04-19T11:32:35.063Z</time></trkpt><trkpt lat="41.195267" lon="9.457662"><ele>12.0</ele><time>2026-04-19T11:32:36.063Z</time></trkpt><trkpt lat="41.195384" lon="9.4576455"><ele>11.0</ele><time>2026-04-19T11:32:37.063Z</time></trkpt><trkpt lat="41.1954996" lon="9.4576246"><ele>10.0</ele><time>2026-04-19T11:32:38.063Z</time></trkpt><trkpt lat="41.1956043" lon="9.4575946"><ele>9.0</ele><time>2026-04-19T11:32:39.063Z</time></trkpt><trkpt lat="41.1957031" lon="9.4575608"><ele>8.0</ele><time>2026-04-19T11:32:40.063Z</time></trkpt><trkpt lat="41.1957931" lon="9.4575305"><ele>7.499999999999999</ele><time>2026-04-19T11:32:41.063Z</time></trkpt><trkpt lat="41.1958742" lon="9.4574937"><ele>7.0</ele><time>2026-04-19T11:32:42.063Z</time></trkpt><trkpt lat="41.1959514" lon="9.4574622"><ele>6.5</ele><time>2026-04-19T11:32:43.063Z</time></trkpt><trkpt lat="41.1960219" lon="9.4574337"><ele>6.0</ele><time>2026-04-19T11:32:44.063Z</time></trkpt><trkpt lat="41.1960821" lon="9.4574035"><ele>5.5</ele><time>2026-04-19T11:32:45.063Z</time></trkpt><trkpt lat="41.1961801" lon="9.4573594"><ele>5.0</ele><time>2026-04-19T11:32:47.062Z</time></trkpt><trkpt lat="41.1962728" lon="9.457346"><ele>5.0</ele><time>2026-04-19T11:32:49.063Z</time></trkpt><trkpt lat="41.1963423" lon="9.4573366"><ele>5.0</ele><time>2026-04-19T11:32:52.063Z</time></trkpt><trkpt lat="41.1964141" lon="9.4573481"><ele>5.0</ele><time>2026-04-19T11:32:56.063Z</time></trkpt><trkpt lat="41.1965273" lon="9.4573303"><ele>5.0</ele><time>2026-04-19T11:32:58.063Z</time></trkpt><trkpt lat="41.1966033" lon="9.4573312"><ele>5.0</ele><time>2026-04-19T11:32:59.063Z</time></trkpt><trkpt lat="41.1966996" lon="9.4573328"><ele>5.0</ele><time>2026-04-19T11:33:00.063Z</time></trkpt><trkpt lat="41.1968277" lon="9.457339"><ele>4.75</ele><time>2026-04-19T11:33:01.062Z</time></trkpt><trkpt lat="41.1969638" lon="9.4573465"><ele>4.5</ele><time>2026-04-19T11:33:02.063Z</time></trkpt><trkpt lat="41.1971051" lon="9.4573558"><ele>4.25</ele><time>2026-04-19T11:33:03.062Z</time></trkpt><trkpt lat="41.1972455" lon="9.4573617"><ele>4.0</ele><time>2026-04-19T11:33:04.063Z</time></trkpt><trkpt lat="41.1973855" lon="9.4573703"><ele>4.0</ele><time>2026-04-19T11:33:05.063Z</time></trkpt><trkpt lat="41.197519" lon="9.457376"><ele>4.0</ele><time>2026-04-19T11:33:06.063Z</time></trkpt><trkpt lat="41.1976574" lon="9.4573842"><ele>4.0</ele><time>2026-04-19T11:33:07.063Z</time></trkpt><trkpt lat="41.1977913" lon="9.457393"><ele>4.0</ele><time>2026-04-19T11:33:08.062Z</time></trkpt><trkpt lat="41.1979246" lon="9.4573995"><ele>4.0</ele><time>2026-04-19T11:33:09.063Z</time></trkpt><trkpt lat="41.19805" lon="9.457404"><ele>4.0</ele><time>2026-04-19T11:33:10.063Z</time></trkpt><trkpt lat="41.1981748" lon="9.4574111"><ele>4.0</ele><time>2026-04-19T11:33:11.063Z</time></trkpt><trkpt lat="41.1983021" lon="9.4574205"><ele>4.0</ele><time>2026-04-19T11:33:12.062Z</time></trkpt><trkpt lat="41.1984291" lon="9.4574256"><ele>4.0</ele><time>2026-04-19T11:33:13.063Z</time></trkpt><trkpt lat="41.1985601" lon="9.4574384"><ele>4.0</ele><time>2026-04-19T11:33:14.063Z</time></trkpt><trkpt lat="41.1986979" lon="9.4574647"><ele>4.0</ele><time>2026-04-19T11:33:15.063Z</time></trkpt><trkpt lat="41.1988391" lon="9.4574895"><ele>4.0</ele><time>2026-04-19T11:33:16.063Z</time></trkpt><trkpt lat="41.1989772" lon="9.4575255"><ele>4.5</ele><time>2026-04-19T11:33:17.062Z</time></trkpt><trkpt lat="41.1991185" lon="9.4575625"><ele>5.0</ele><time>2026-04-19T11:33:18.063Z</time></trkpt><trkpt lat="41.1992527" lon="9.4575984"><ele>5.5</ele><time>2026-04-19T11:33:19.062Z</time></trkpt><trkpt lat="41.1993866" lon="9.4576334"><ele>6.0</ele><time>2026-04-19T11:33:20.063Z</time></trkpt><trkpt lat="41.1995172" lon="9.4576502"><ele>6.0</ele><time>2026-04-19T11:33:21.062Z</time></trkpt><trkpt lat="41.1996469" lon="9.4576619"><ele>6.0</ele><time>2026-04-19T11:33:22.063Z</time></trkpt><trkpt lat="41.1997812" lon="9.4576589"><ele>6.0</ele><time>2026-04-19T11:33:23.063Z</time></trkpt><trkpt lat="41.1999118" lon="9.4576509"><ele>6.0</ele><time>2026-04-19T11:33:24.063Z</time></trkpt><trkpt lat="41.2000372" lon="9.4576431"><ele>5.5</ele><time>2026-04-19T11:33:25.062Z</time></trkpt><trkpt lat="41.2001558" lon="9.4576327"><ele>5.0</ele><time>2026-04-19T11:33:26.063Z</time></trkpt><trkpt lat="41.2002779" lon="9.4576209"><ele>4.5</ele><time>2026-04-19T11:33:27.063Z</time></trkpt><trkpt lat="41.2004014" lon="9.4576142"><ele>4.0</ele><time>2026-04-19T11:33:28.063Z</time></trkpt><trkpt lat="41.200528" lon="9.4576208"><ele>4.0</ele><time>2026-04-19T11:33:29.062Z</time></trkpt><trkpt lat="41.2006523" lon="9.4576451"><ele>4.0</ele><time>2026-04-19T11:33:30.063Z</time></trkpt><trkpt lat="41.2007669" lon="9.4576686"><ele>4.0</ele><time>2026-04-19T11:33:31.063Z</time></trkpt><trkpt lat="41.2008694" lon="9.4577005"><ele>4.0</ele><time>2026-04-19T11:33:32.063Z</time></trkpt><trkpt lat="41.2009556" lon="9.4577343"><ele>4.0</ele><time>2026-04-19T11:33:33.063Z</time></trkpt><trkpt lat="41.2010215" lon="9.4577679"><ele>4.0</ele><time>2026-04-19T11:33:34.063Z</time></trkpt><trkpt lat="41.2011071" lon="9.4578212"><ele>4.0</ele><time>2026-04-19T11:33:36.063Z</time></trkpt><trkpt lat="41.2011749" lon="9.4578548"><ele>4.0</ele><time>2026-04-19T11:33:39.063Z</time></trkpt><trkpt lat="41.2012638" lon="9.4578014"><ele>4.0</ele><time>2026-04-19T11:33:48.063Z</time></trkpt><trkpt lat="41.2013451" lon="9.4577284"><ele>4.0</ele><time>2026-04-19T11:33:50.062Z</time></trkpt><trkpt lat="41.2014437" lon="9.4576166"><ele>3.8000000000000003</ele><time>2026-04-19T11:33:52.063Z</time></trkpt><trkpt lat="41.2015025" lon="9.4575502"><ele>3.6000000000000005</ele><time>2026-04-19T11:33:53.062Z</time></trkpt><trkpt lat="41.2015634" lon="9.4574768"><ele>3.4</ele><time>2026-04-19T11:33:54.062Z</time></trkpt><trkpt lat="41.2016248" lon="9.4574013"><ele>3.2</ele><time>2026-04-19T11:33:55.063Z</time></trkpt><trkpt lat="41.2016809" lon="9.4573363"><ele>3.0</ele><time>2026-04-19T11:33:56.063Z</time></trkpt><trkpt lat="41.2017797" lon="9.4572108"><ele>3.0</ele><time>2026-04-19T11:33:58.063Z</time></trkpt><trkpt lat="41.2018395" lon="9.4571418"><ele>3.0</ele><time>2026-04-19T11:33:59.063Z</time></trkpt><trkpt lat="41.2018965" lon="9.4570741"><ele>3.0</ele><time>2026-04-19T11:34:00.063Z</time></trkpt><trkpt lat="41.2019474" lon="9.4570194"><ele>3.0</ele><time>2026-04-19T11:34:01.062Z</time></trkpt><trkpt lat="41.2020287" lon="9.4569227"><ele>3.0</ele><time>2026-04-19T11:34:03.063Z</time></trkpt><trkpt lat="41.2021248" lon="9.4568407"><ele>3.0</ele><time>2026-04-19T11:34:05.063Z</time></trkpt><trkpt lat="41.2021894" lon="9.4568199"><ele>3.0</ele><time>2026-04-19T11:34:06.063Z</time></trkpt><trkpt lat="41.202254" lon="9.456787"><ele>3.0</ele><time>2026-04-19T11:34:07.063Z</time></trkpt><trkpt lat="41.2023192" lon="9.456737"><ele>3.0</ele><time>2026-04-19T11:34:08.063Z</time></trkpt><trkpt lat="41.2023858" lon="9.4566854"><ele>3.0</ele><time>2026-04-19T11:34:09.062Z</time></trkpt><trkpt lat="41.202455" lon="9.4566361"><ele>3.0</ele><time>2026-04-19T11:34:10.063Z</time></trkpt><trkpt lat="41.2025276" lon="9.4566026"><ele>3.0</ele><time>2026-04-19T11:34:11.063Z</time></trkpt><trkpt lat="41.2025979" lon="9.4565642"><ele>3.0</ele><time>2026-04-19T11:34:12.063Z</time></trkpt><trkpt lat="41.2026583" lon="9.4565117"><ele>3.0</ele><time>2026-04-19T11:34:13.063Z</time></trkpt><trkpt lat="41.2027213" lon="9.4564661"><ele>3.0</ele><time>2026-04-19T11:34:14.062Z</time></trkpt><trkpt lat="41.2027855" lon="9.4564427"><ele>3.0</ele><time>2026-04-19T11:34:15.063Z</time></trkpt><trkpt lat="41.2028503" lon="9.4564364"><ele>3.0</ele><time>2026-04-19T11:34:16.063Z</time></trkpt><trkpt lat="41.2029608" lon="9.4563975"><ele>3.0</ele><time>2026-04-19T11:34:18.063Z</time></trkpt><trkpt lat="41.2030321" lon="9.4563025"><ele>2.6</ele><time>2026-04-19T11:34:20.063Z</time></trkpt><trkpt lat="41.2031096" lon="9.4562102"><ele>2.1999999999999997</ele><time>2026-04-19T11:34:22.063Z</time></trkpt><trkpt lat="41.2031796" lon="9.4560634"><ele>1.8</ele><time>2026-04-19T11:34:24.063Z</time></trkpt><trkpt lat="41.2032139" lon="9.4559725"><ele>1.4</ele><time>2026-04-19T11:34:25.062Z</time></trkpt><trkpt lat="41.203244" lon="9.4558974"><ele>1.0</ele><time>2026-04-19T11:34:26.063Z</time></trkpt><trkpt lat="41.2033429" lon="9.4557851"><ele>1.6666666666666665</ele><time>2026-04-19T11:34:28.063Z</time></trkpt><trkpt lat="41.2034079" lon="9.4557425"><ele>2.3333333333333335</ele><time>2026-04-19T11:34:29.063Z</time></trkpt><trkpt lat="41.2034803" lon="9.4556951"><ele>3.0</ele><time>2026-04-19T11:34:30.063Z</time></trkpt><trkpt lat="41.2035552" lon="9.455662"><ele>3.666666666666667</ele><time>2026-04-19T11:34:31.063Z</time></trkpt><trkpt lat="41.2036376" lon="9.4556275"><ele>4.333333333333334</ele><time>2026-04-19T11:34:32.063Z</time></trkpt><trkpt lat="41.2037076" lon="9.4556045"><ele>5.0</ele><time>2026-04-19T11:34:33.063Z</time></trkpt><trkpt lat="41.2037875" lon="9.4555804"><ele>5.0</ele><time>2026-04-19T11:34:34.063Z</time></trkpt><trkpt lat="41.2038689" lon="9.4555785"><ele>5.0</ele><time>2026-04-19T11:34:35.062Z</time></trkpt><trkpt lat="41.2039578" lon="9.4555865"><ele>5.0</ele><time>2026-04-19T11:34:36.063Z</time></trkpt><trkpt lat="41.2040394" lon="9.4555836"><ele>5.0</ele><time>2026-04-19T11:34:37.063Z</time></trkpt><trkpt lat="41.2041279" lon="9.4555887"><ele>5.0</ele><time>2026-04-19T11:34:38.063Z</time></trkpt><trkpt lat="41.2042104" lon="9.4555852"><ele>5.0</ele><time>2026-04-19T11:34:39.063Z</time></trkpt><trkpt lat="41.2042922" lon="9.4555814"><ele>4.333333333333334</ele><time>2026-04-19T11:34:40.063Z</time></trkpt><trkpt lat="41.2043792" lon="9.4555743"><ele>3.666666666666667</ele><time>2026-04-19T11:34:41.063Z</time></trkpt><trkpt lat="41.2044423" lon="9.4555416"><ele>3.0</ele><time>2026-04-19T11:34:42.062Z</time></trkpt><trkpt lat="41.2045133" lon="9.4555305"><ele>2.3333333333333335</ele><time>2026-04-19T11:34:43.062Z</time></trkpt><trkpt lat="41.2045948" lon="9.4555366"><ele>1.6666666666666665</ele><time>2026-04-19T11:34:44.063Z</time></trkpt><trkpt lat="41.204666" lon="9.4555497"><ele>1.0</ele><time>2026-04-19T11:34:45.062Z</time></trkpt><trkpt lat="41.2047374" lon="9.4555734"><ele>0.9999999999999999</ele><time>2026-04-19T11:34:46.063Z</time></trkpt><trkpt lat="41.2047997" lon="9.455594"><ele>1.0</ele><time>2026-04-19T11:34:47.063Z</time></trkpt><trkpt lat="41.204923" lon="9.4556512"><ele>1.0</ele><time>2026-04-19T11:34:49.063Z</time></trkpt><trkpt lat="41.2049834" lon="9.455676"><ele>1.0</ele><time>2026-04-19T11:34:50.063Z</time></trkpt><trkpt lat="41.205042" lon="9.4557067"><ele>0.9999999999999999</ele><time>2026-04-19T11:34:51.063Z</time></trkpt><trkpt lat="41.2051391" lon="9.4557358"><ele>1.0</ele><time>2026-04-19T11:34:53.063Z</time></trkpt><trkpt lat="41.2052209" lon="9.4557821"><ele>0.8333333333333333</ele><time>2026-04-19T11:35:11.063Z</time></trkpt><trkpt lat="41.2052775" lon="9.4558203"><ele>0.6666666666666666</ele><time>2026-04-19T11:35:13.062Z</time></trkpt><trkpt lat="41.20535" lon="9.4558252"><ele>0.5</ele><time>2026-04-19T11:35:15.063Z</time></trkpt><trkpt lat="41.2054448" lon="9.4558409"><ele>0.3333333333333333</ele><time>2026-04-19T11:35:17.063Z</time></trkpt><trkpt lat="41.2055398" lon="9.4558436"><ele>0.16666666666666666</ele><time>2026-04-19T11:35:19.063Z</time></trkpt><trkpt lat="41.2056535" lon="9.4558394"><ele>0.0</ele><time>2026-04-19T11:35:21.063Z</time></trkpt><trkpt lat="41.2057734" lon="9.4558537"><ele>1.2</ele><time>2026-04-19T11:35:23.063Z</time></trkpt><trkpt lat="41.2058895" lon="9.4558574"><ele>2.4</ele><time>2026-04-19T11:35:25.061Z</time></trkpt><trkpt lat="41.2060138" lon="9.4558555"><ele>3.5999999999999996</ele><time>2026-04-19T11:35:27.063Z</time></trkpt><trkpt lat="41.2061052" lon="9.4558559"><ele>4.8</ele><time>2026-04-19T11:35:29.063Z</time></trkpt><trkpt lat="41.2061731" lon="9.4558637"><ele>6.0</ele><time>2026-04-19T11:35:31.063Z</time></trkpt><trkpt lat="41.2062383" lon="9.4558507"><ele>5.999999999999999</ele><time>2026-04-19T11:35:34.062Z</time></trkpt><trkpt lat="41.2062512" lon="9.4557397"><ele>6.0</ele><time>2026-04-19T11:35:37.063Z</time></trkpt><trkpt lat="41.20624" lon="9.4556478"><ele>6.0</ele><time>2026-04-19T11:35:39.063Z</time></trkpt><trkpt lat="41.2062278" lon="9.4555586"><ele>6.0</ele><time>2026-04-19T11:35:41.063Z</time></trkpt><trkpt lat="41.2062194" lon="9.4554724"><ele>6.0</ele><time>2026-04-19T11:35:43.063Z</time></trkpt><trkpt lat="41.2062096" lon="9.4553512"><ele>5.999999999999999</ele><time>2026-04-19T11:35:46.062Z</time></trkpt><trkpt lat="41.206212" lon="9.4552618"><ele>6.0</ele><time>2026-04-19T11:35:50.063Z</time></trkpt><trkpt lat="41.2062665" lon="9.4551868"><ele>5.6</ele><time>2026-04-19T11:36:21.063Z</time></trkpt><trkpt lat="41.206283" lon="9.4550897"><ele>5.199999999999999</ele><time>2026-04-19T11:36:24.062Z</time></trkpt><trkpt lat="41.2062779" lon="9.4549871"><ele>4.800000000000001</ele><time>2026-04-19T11:36:26.062Z</time></trkpt><trkpt lat="41.2062358" lon="9.4548595"><ele>4.4</ele><time>2026-04-19T11:36:28.062Z</time></trkpt><trkpt lat="41.2062074" lon="9.454724"><ele>4.0</ele><time>2026-04-19T11:36:30.061Z</time></trkpt><trkpt lat="41.2061759" lon="9.454581"><ele>3.833333333333333</ele><time>2026-04-19T11:36:32.062Z</time></trkpt><trkpt lat="41.2061574" lon="9.4544954"><ele>3.6666666666666665</ele><time>2026-04-19T11:36:33.062Z</time></trkpt><trkpt lat="41.2061382" lon="9.4544029"><ele>3.5</ele><time>2026-04-19T11:36:34.062Z</time></trkpt><trkpt lat="41.206137" lon="9.4542877"><ele>3.333333333333333</ele><time>2026-04-19T11:36:35.062Z</time></trkpt><trkpt lat="41.2061091" lon="9.4541776"><ele>3.1666666666666665</ele><time>2026-04-19T11:36:36.062Z</time></trkpt><trkpt lat="41.2060827" lon="9.4540858"><ele>3.0</ele><time>2026-04-19T11:36:37.061Z</time></trkpt><trkpt lat="41.2060456" lon="9.4539155"><ele>2.9999999999999996</ele><time>2026-04-19T11:36:39.062Z</time></trkpt><trkpt lat="41.2060209" lon="9.4538172"><ele>3.0</ele><time>2026-04-19T11:36:40.062Z</time></trkpt><trkpt lat="41.2059974" lon="9.4537165"><ele>3.0</ele><time>2026-04-19T11:36:41.061Z</time></trkpt><trkpt lat="41.2059744" lon="9.453623"><ele>3.0</ele><time>2026-04-19T11:36:42.061Z</time></trkpt><trkpt lat="41.205951" lon="9.4535339"><ele>3.0</ele><time>2026-04-19T11:36:43.062Z</time></trkpt><trkpt lat="41.2059295" lon="9.4534501"><ele>2.9999999999999996</ele><time>2026-04-19T11:36:44.062Z</time></trkpt><trkpt lat="41.2059059" lon="9.4533636"><ele>3.0</ele><time>2026-04-19T11:36:45.062Z</time></trkpt><trkpt lat="41.2058686" lon="9.4532153"><ele>3.0</ele><time>2026-04-19T11:36:47.062Z</time></trkpt><trkpt lat="41.2058656" lon="9.4531258"><ele>3.0</ele><time>2026-04-19T11:36:48.062Z</time></trkpt><trkpt lat="41.205871" lon="9.453041"><ele>3.0</ele><time>2026-04-19T11:36:49.062Z</time></trkpt><trkpt lat="41.2059311" lon="9.4528952"><ele>3.0</ele><time>2026-04-19T11:36:51.061Z</time></trkpt><trkpt lat="41.2060245" lon="9.4527828"><ele>3.0</ele><time>2026-04-19T11:36:53.062Z</time></trkpt><trkpt lat="41.2060765" lon="9.4527282"><ele>3.0</ele><time>2026-04-19T11:36:54.062Z</time></trkpt><trkpt lat="41.2061341" lon="9.4526842"><ele>3.0</ele><time>2026-04-19T11:36:55.062Z</time></trkpt><trkpt lat="41.2061942" lon="9.4526404"><ele>3.0</ele><time>2026-04-19T11:36:56.062Z</time></trkpt><trkpt lat="41.2062498" lon="9.4525887"><ele>3.0</ele><time>2026-04-19T11:36:57.062Z</time></trkpt><trkpt lat="41.2063234" lon="9.452536"><ele>3.0</ele><time>2026-04-19T11:36:58.062Z</time></trkpt><trkpt lat="41.2064027" lon="9.4524883"><ele>3.0</ele><time>2026-04-19T11:36:59.062Z</time></trkpt><trkpt lat="41.206476" lon="9.4524558"><ele>3.0</ele><time>2026-04-19T11:37:00.062Z</time></trkpt><trkpt lat="41.2065413" lon="9.4524322"><ele>3.8</ele><time>2026-04-19T11:37:01.062Z</time></trkpt><trkpt lat="41.2066518" lon="9.4523944"><ele>4.6</ele><time>2026-04-19T11:37:03.061Z</time></trkpt><trkpt lat="41.2067541" lon="9.4523324"><ele>5.3999999999999995</ele><time>2026-04-19T11:37:05.062Z</time></trkpt><trkpt lat="41.2068526" lon="9.4522453"><ele>6.199999999999999</ele><time>2026-04-19T11:37:07.062Z</time></trkpt><trkpt lat="41.2069177" lon="9.4522134"><ele>7.0</ele><time>2026-04-19T11:37:08.061Z</time></trkpt><trkpt lat="41.2069803" lon="9.4521842"><ele>7.000000000000001</ele><time>2026-04-19T11:37:09.062Z</time></trkpt><trkpt lat="41.2071008" lon="9.4521236"><ele>7.0</ele><time>2026-04-19T11:37:11.062Z</time></trkpt><trkpt lat="41.2071639" lon="9.4521052"><ele>7.0</ele><time>2026-04-19T11:37:12.062Z</time></trkpt><trkpt lat="41.207224" lon="9.4520787"><ele>7.0</ele><time>2026-04-19T11:37:13.062Z</time></trkpt><trkpt lat="41.2073385" lon="9.4520232"><ele>7.000000000000001</ele><time>2026-04-19T11:37:15.062Z</time></trkpt><trkpt lat="41.2073918" lon="9.451973"><ele>7.0</ele><time>2026-04-19T11:37:16.062Z</time></trkpt><trkpt lat="41.2074449" lon="9.4518951"><ele>5.8</ele><time>2026-04-19T11:37:17.062Z</time></trkpt><trkpt lat="41.2074998" lon="9.4518099"><ele>4.6</ele><time>2026-04-19T11:37:18.062Z</time></trkpt><trkpt lat="41.2075513" lon="9.4517393"><ele>3.4</ele><time>2026-04-19T11:37:19.062Z</time></trkpt><trkpt lat="41.2076442" lon="9.4516563"><ele>2.2</ele><time>2026-04-19T11:37:21.062Z</time></trkpt><trkpt lat="41.2077357" lon="9.4515912"><ele>1.0</ele><time>2026-04-19T11:37:23.062Z</time></trkpt><trkpt lat="41.2078514" lon="9.4515672"><ele>0.9999999999999999</ele><time>2026-04-19T11:37:25.062Z</time></trkpt><trkpt lat="41.2079234" lon="9.4515738"><ele>1.0</ele><time>2026-04-19T11:37:26.062Z</time></trkpt><trkpt lat="41.2079872" lon="9.4515809"><ele>1.0</ele><time>2026-04-19T11:37:27.062Z</time></trkpt><trkpt lat="41.2080503" lon="9.4515737"><ele>1.0</ele><time>2026-04-19T11:37:28.062Z</time></trkpt><trkpt lat="41.2081227" lon="9.4515607"><ele>0.9999999999999999</ele><time>2026-04-19T11:37:29.061Z</time></trkpt><trkpt lat="41.2081924" lon="9.4515477"><ele>1.0</ele><time>2026-04-19T11:37:30.062Z</time></trkpt><trkpt lat="41.2083095" lon="9.4515324"><ele>0.9999999999999999</ele><time>2026-04-19T11:37:32.062Z</time></trkpt><trkpt lat="41.2084099" lon="9.4514543"><ele>1.0</ele><time>2026-04-19T11:37:34.062Z</time></trkpt><trkpt lat="41.2084623" lon="9.4513875"><ele>1.0</ele><time>2026-04-19T11:37:35.062Z</time></trkpt><trkpt lat="41.2085147" lon="9.4513123"><ele>1.0</ele><time>2026-04-19T11:37:36.062Z</time></trkpt><trkpt lat="41.2085732" lon="9.4512457"><ele>0.9999999999999999</ele><time>2026-04-19T11:37:37.062Z</time></trkpt><trkpt lat="41.2086328" lon="9.4511997"><ele>1.0</ele><time>2026-04-19T11:37:38.061Z</time></trkpt><trkpt lat="41.2087529" lon="9.4511367"><ele>1.0</ele><time>2026-04-19T11:37:40.062Z</time></trkpt><trkpt lat="41.208824" lon="9.4511099"><ele>0.9999999999999999</ele><time>2026-04-19T11:37:41.062Z</time></trkpt><trkpt lat="41.2088957" lon="9.4510858"><ele>1.0</ele><time>2026-04-19T11:37:42.061Z</time></trkpt><trkpt lat="41.2089693" lon="9.4510614"><ele>1.0</ele><time>2026-04-19T11:37:43.062Z</time></trkpt><trkpt lat="41.2090416" lon="9.4510387"><ele>0.9999999999999999</ele><time>2026-04-19T11:37:44.062Z</time></trkpt><trkpt lat="41.2091108" lon="9.4510237"><ele>1.0</ele><time>2026-04-19T11:37:45.062Z</time></trkpt><trkpt lat="41.2091763" lon="9.451017"><ele>1.0</ele><time>2026-04-19T11:37:46.062Z</time></trkpt><trkpt lat="41.2092702" lon="9.4509763"><ele>1.1666666666666665</ele><time>2026-04-19T11:37:48.062Z</time></trkpt><trkpt lat="41.209326" lon="9.4508653"><ele>1.3333333333333333</ele><time>2026-04-19T11:37:50.061Z</time></trkpt><trkpt lat="41.2093684" lon="9.4507177"><ele>1.5</ele><time>2026-04-19T11:37:52.062Z</time></trkpt><trkpt lat="41.2094142" lon="9.4506574"><ele>1.6666666666666665</ele><time>2026-04-19T11:37:53.062Z</time></trkpt><trkpt lat="41.2094753" lon="9.4506131"><ele>1.8333333333333333</ele><time>2026-04-19T11:37:54.062Z</time></trkpt><trkpt lat="41.2095443" lon="9.4505782"><ele>2.0</ele><time>2026-04-19T11:37:55.062Z</time></trkpt><trkpt lat="41.2096114" lon="9.4505433"><ele>1.9999999999999998</ele><time>2026-04-19T11:37:56.062Z</time></trkpt><trkpt lat="41.2096804" lon="9.4505028"><ele>2.0</ele><time>2026-04-19T11:37:57.061Z</time></trkpt><trkpt lat="41.2097488" lon="9.4504617"><ele>2.0</ele><time>2026-04-19T11:37:58.062Z</time></trkpt><trkpt lat="41.20982" lon="9.4504051"><ele>2.0</ele><time>2026-04-19T11:37:59.061Z</time></trkpt><trkpt lat="41.2098925" lon="9.4503404"><ele>1.9999999999999998</ele><time>2026-04-19T11:38:00.062Z</time></trkpt><trkpt lat="41.2099576" lon="9.4502854"><ele>2.0</ele><time>2026-04-19T11:38:01.062Z</time></trkpt><trkpt lat="41.2100255" lon="9.4502414"><ele>2.333333333333333</ele><time>2026-04-19T11:38:02.062Z</time></trkpt><trkpt lat="41.2101034" lon="9.4502062"><ele>2.6666666666666665</ele><time>2026-04-19T11:38:03.062Z</time></trkpt><trkpt lat="41.2101862" lon="9.4501736"><ele>3.0</ele><time>2026-04-19T11:38:04.062Z</time></trkpt><trkpt lat="41.2102725" lon="9.45015"><ele>3.333333333333333</ele><time>2026-04-19T11:38:05.062Z</time></trkpt><trkpt lat="41.2103604" lon="9.4501368"><ele>3.6666666666666665</ele><time>2026-04-19T11:38:06.062Z</time></trkpt><trkpt lat="41.210439" lon="9.4501344"><ele>4.0</ele><time>2026-04-19T11:38:07.062Z</time></trkpt><trkpt lat="41.210507" lon="9.4501433"><ele>3.9999999999999996</ele><time>2026-04-19T11:38:08.062Z</time></trkpt><trkpt lat="41.2106255" lon="9.4501596"><ele>4.0</ele><time>2026-04-19T11:38:10.061Z</time></trkpt><trkpt lat="41.2106894" lon="9.450144"><ele>4.0</ele><time>2026-04-19T11:38:11.061Z</time></trkpt><trkpt lat="41.2107584" lon="9.4501188"><ele>4.0</ele><time>2026-04-19T11:38:12.062Z</time></trkpt><trkpt lat="41.2108429" lon="9.450101"><ele>3.9999999999999996</ele><time>2026-04-19T11:38:13.062Z</time></trkpt><trkpt lat="41.2109401" lon="9.4500783"><ele>4.0</ele><time>2026-04-19T11:38:14.062Z</time></trkpt><trkpt lat="41.2110438" lon="9.4500524"><ele>3.9999999999999996</ele><time>2026-04-19T11:38:15.062Z</time></trkpt><trkpt lat="41.2111432" lon="9.4500353"><ele>4.0</ele><time>2026-04-19T11:38:16.062Z</time></trkpt><trkpt lat="41.2112334" lon="9.4500247"><ele>4.0</ele><time>2026-04-19T11:38:17.062Z</time></trkpt><trkpt lat="41.2113155" lon="9.450018"><ele>4.0</ele><time>2026-04-19T11:38:18.062Z</time></trkpt><trkpt lat="41.211393" lon="9.4500166"><ele>3.9999999999999996</ele><time>2026-04-19T11:38:19.062Z</time></trkpt><trkpt lat="41.2114632" lon="9.4500246"><ele>4.0</ele><time>2026-04-19T11:38:20.062Z</time></trkpt><trkpt lat="41.2115251" lon="9.4500417"><ele>3.6</ele><time>2026-04-19T11:38:21.061Z</time></trkpt><trkpt lat="41.2116474" lon="9.4500719"><ele>3.2</ele><time>2026-04-19T11:38:23.062Z</time></trkpt><trkpt lat="41.2117111" lon="9.4500944"><ele>2.8000000000000003</ele><time>2026-04-19T11:38:24.061Z</time></trkpt><trkpt lat="41.2118317" lon="9.4500589"><ele>2.4000000000000004</ele><time>2026-04-19T11:38:26.062Z</time></trkpt><trkpt lat="41.2118929" lon="9.4500004"><ele>2.0</ele><time>2026-04-19T11:38:27.062Z</time></trkpt><trkpt lat="41.211955" lon="9.4499273"><ele>1.9999999999999998</ele><time>2026-04-19T11:38:28.062Z</time></trkpt><trkpt lat="41.2120175" lon="9.4498707"><ele>2.0</ele><time>2026-04-19T11:38:29.062Z</time></trkpt><trkpt lat="41.2120727" lon="9.4498234"><ele>2.0</ele><time>2026-04-19T11:38:30.062Z</time></trkpt><trkpt lat="41.2121287" lon="9.4497842"><ele>2.0</ele><time>2026-04-19T11:38:31.062Z</time></trkpt><trkpt lat="41.21224" lon="9.4497633"><ele>1.9999999999999998</ele><time>2026-04-19T11:38:33.062Z</time></trkpt><trkpt lat="41.2123452" lon="9.4497862"><ele>2.0</ele><time>2026-04-19T11:38:35.062Z</time></trkpt><trkpt lat="41.2124096" lon="9.4498219"><ele>2.5</ele><time>2026-04-19T11:38:36.061Z</time></trkpt><trkpt lat="41.2124813" lon="9.449851"><ele>3.0</ele><time>2026-04-19T11:38:37.061Z</time></trkpt><trkpt lat="41.2125523" lon="9.449861"><ele>3.5</ele><time>2026-04-19T11:38:38.062Z</time></trkpt><trkpt lat="41.2126234" lon="9.4498607"><ele>4.0</ele><time>2026-04-19T11:38:39.062Z</time></trkpt><trkpt lat="41.2126929" lon="9.4498572"><ele>4.5</ele><time>2026-04-19T11:38:40.062Z</time></trkpt><trkpt lat="41.2127712" lon="9.4498799"><ele>5.0</ele><time>2026-04-19T11:38:41.062Z</time></trkpt><trkpt lat="41.2128673" lon="9.4499222"><ele>5.0</ele><time>2026-04-19T11:38:42.061Z</time></trkpt><trkpt lat="41.212976" lon="9.4499564"><ele>5.0</ele><time>2026-04-19T11:38:43.061Z</time></trkpt><trkpt lat="41.2130926" lon="9.4499702"><ele>5.0</ele><time>2026-04-19T11:38:44.062Z</time></trkpt><trkpt lat="41.213209" lon="9.4499741"><ele>5.0</ele><time>2026-04-19T11:38:45.062Z</time></trkpt><trkpt lat="41.2133215" lon="9.4499768"><ele>5.0</ele><time>2026-04-19T11:38:46.062Z</time></trkpt><trkpt lat="41.2134343" lon="9.4499756"><ele>5.0</ele><time>2026-04-19T11:38:47.062Z</time></trkpt><trkpt lat="41.213546" lon="9.4499698"><ele>5.0</ele><time>2026-04-19T11:38:48.062Z</time></trkpt><trkpt lat="41.2136547" lon="9.4499632"><ele>5.0</ele><time>2026-04-19T11:38:49.062Z</time></trkpt><trkpt lat="41.2137547" lon="9.4499606"><ele>5.0</ele><time>2026-04-19T11:38:50.062Z</time></trkpt><trkpt lat="41.2138509" lon="9.4499671"><ele>5.0</ele><time>2026-04-19T11:38:51.062Z</time></trkpt><trkpt lat="41.2139458" lon="9.4499844"><ele>5.0</ele><time>2026-04-19T11:38:52.061Z</time></trkpt><trkpt lat="41.2140349" lon="9.4499892"><ele>5.0</ele><time>2026-04-19T11:38:53.062Z</time></trkpt><trkpt lat="41.2141123" lon="9.449986"><ele>5.0</ele><time>2026-04-19T11:38:54.062Z</time></trkpt><trkpt lat="41.2141883" lon="9.4499919"><ele>5.0</ele><time>2026-04-19T11:38:55.062Z</time></trkpt><trkpt lat="41.2142711" lon="9.4500043"><ele>5.0</ele><time>2026-04-19T11:38:56.061Z</time></trkpt><trkpt lat="41.2143707" lon="9.4500191"><ele>5.0</ele><time>2026-04-19T11:38:57.062Z</time></trkpt><trkpt lat="41.2144731" lon="9.450047"><ele>5.0</ele><time>2026-04-19T11:38:58.061Z</time></trkpt><trkpt lat="41.2145546" lon="9.4500741"><ele>5.0</ele><time>2026-04-19T11:38:59.061Z</time></trkpt><trkpt lat="41.2146197" lon="9.4500807"><ele>5.0</ele><time>2026-04-19T11:39:00.062Z</time></trkpt><trkpt lat="41.2147136" lon="9.4500991"><ele>5.0</ele><time>2026-04-19T11:39:02.062Z</time></trkpt><trkpt lat="41.2147758" lon="9.4501141"><ele>5.0</ele><time>2026-04-19T11:39:04.062Z</time></trkpt><trkpt lat="41.2148504" lon="9.4501109"><ele>4.8</ele><time>2026-04-19T11:39:25.062Z</time></trkpt><trkpt lat="41.2148915" lon="9.4500091"><ele>4.6</ele><time>2026-04-19T11:39:27.062Z</time></trkpt><trkpt lat="41.2149166" lon="9.4498211"><ele>4.4</ele><time>2026-04-19T11:39:29.062Z</time></trkpt><trkpt lat="41.2149368" lon="9.449691"><ele>4.2</ele><time>2026-04-19T11:39:30.062Z</time></trkpt><trkpt lat="41.2149597" lon="9.4495636"><ele>4.0</ele><time>2026-04-19T11:39:31.062Z</time></trkpt><trkpt lat="41.2149799" lon="9.4494273"><ele>3.75</ele><time>2026-04-19T11:39:32.062Z</time></trkpt><trkpt lat="41.2150001" lon="9.4492815"><ele>3.5</ele><time>2026-04-19T11:39:33.062Z</time></trkpt><trkpt lat="41.215016" lon="9.4491337"><ele>3.25</ele><time>2026-04-19T11:39:34.061Z</time></trkpt><trkpt lat="41.2150406" lon="9.4489867"><ele>3.0</ele><time>2026-04-19T11:39:35.062Z</time></trkpt><trkpt lat="41.2150635" lon="9.4488361"><ele>3.25</ele><time>2026-04-19T11:39:36.062Z</time></trkpt><trkpt lat="41.2150884" lon="9.4486914"><ele>3.5</ele><time>2026-04-19T11:39:37.062Z</time></trkpt><trkpt lat="41.2151113" lon="9.448533"><ele>3.75</ele><time>2026-04-19T11:39:38.062Z</time></trkpt><trkpt lat="41.2151371" lon="9.4483739"><ele>4.0</ele><time>2026-04-19T11:39:39.062Z</time></trkpt><trkpt lat="41.2151591" lon="9.4482149"><ele>4.0</ele><time>2026-04-19T11:39:40.062Z</time></trkpt><trkpt lat="41.2151845" lon="9.448065"><ele>4.0</ele><time>2026-04-19T11:39:41.062Z</time></trkpt><trkpt lat="41.2152125" lon="9.4479189"><ele>4.0</ele><time>2026-04-19T11:39:42.062Z</time></trkpt><trkpt lat="41.2152323" lon="9.4477674"><ele>4.0</ele><time>2026-04-19T11:39:43.062Z</time></trkpt><trkpt lat="41.2152578" lon="9.4476101"><ele>3.25</ele><time>2026-04-19T11:39:44.062Z</time></trkpt><trkpt lat="41.21528" lon="9.4474478"><ele>2.5</ele><time>2026-04-19T11:39:45.062Z</time></trkpt><trkpt lat="41.2153036" lon="9.447295"><ele>1.75</ele><time>2026-04-19T11:39:46.062Z</time></trkpt><trkpt lat="41.215325" lon="9.447146"><ele>1.0</ele><time>2026-04-19T11:39:47.062Z</time></trkpt><trkpt lat="41.2153428" lon="9.4470058"><ele>0.75</ele><time>2026-04-19T11:39:48.062Z</time></trkpt><trkpt lat="41.215364" lon="9.4468623"><ele>0.5</ele><time>2026-04-19T11:39:49.062Z</time></trkpt><trkpt lat="41.2153876" lon="9.4467111"><ele>0.25</ele><time>2026-04-19T11:39:50.062Z</time></trkpt><trkpt lat="41.2154107" lon="9.4465559"><ele>0.0</ele><time>2026-04-19T11:39:51.062Z</time></trkpt><trkpt lat="41.2154308" lon="9.4463983"><ele>0.0</ele><time>2026-04-19T11:39:52.062Z</time></trkpt><trkpt lat="41.2154531" lon="9.446241"><ele>0.0</ele><time>2026-04-19T11:39:53.062Z</time></trkpt><trkpt lat="41.2154752" lon="9.4460868"><ele>0.0</ele><time>2026-04-19T11:39:54.062Z</time></trkpt><trkpt lat="41.2154995" lon="9.4459345"><ele>0.0</ele><time>2026-04-19T11:39:55.062Z</time></trkpt><trkpt lat="41.2155259" lon="9.4457796"><ele>0.0</ele><time>2026-04-19T11:39:56.062Z</time></trkpt><trkpt lat="41.2155548" lon="9.4456169"><ele>0.0</ele><time>2026-04-19T11:39:57.062Z</time></trkpt><trkpt lat="41.2155862" lon="9.445453"><ele>0.0</ele><time>2026-04-19T11:39:58.062Z</time></trkpt><trkpt lat="41.2156129" lon="9.4452968"><ele>0.0</ele><time>2026-04-19T11:39:59.061Z</time></trkpt><trkpt lat="41.2156355" lon="9.4451471"><ele>0.0</ele><time>2026-04-19T11:40:00.061Z</time></trkpt><trkpt lat="41.2156577" lon="9.4449939"><ele>0.0</ele><time>2026-04-19T11:40:01.062Z</time></trkpt><trkpt lat="41.215685" lon="9.4448328"><ele>0.0</ele><time>2026-04-19T11:40:02.062Z</time></trkpt><trkpt lat="41.215718" lon="9.4446696"><ele>0.0</ele><time>2026-04-19T11:40:03.062Z</time></trkpt><trkpt lat="41.2157415" lon="9.4445061"><ele>0.0</ele><time>2026-04-19T11:40:04.062Z</time></trkpt><trkpt lat="41.2157623" lon="9.4443479"><ele>0.0</ele><time>2026-04-19T11:40:05.062Z</time></trkpt><trkpt lat="41.215788" lon="9.4441897"><ele>0.0</ele><time>2026-04-19T11:40:06.062Z</time></trkpt><trkpt lat="41.2158175" lon="9.4440374"><ele>0.0</ele><time>2026-04-19T11:40:07.061Z</time></trkpt><trkpt lat="41.2158394" lon="9.4438797"><ele>0.0</ele><time>2026-04-19T11:40:08.061Z</time></trkpt><trkpt lat="41.2158654" lon="9.4437227"><ele>0.0</ele><time>2026-04-19T11:40:09.062Z</time></trkpt><trkpt lat="41.2158886" lon="9.4435661"><ele>0.0</ele><time>2026-04-19T11:40:10.062Z</time></trkpt><trkpt lat="41.2159113" lon="9.4434153"><ele>0.0</ele><time>2026-04-19T11:40:11.062Z</time></trkpt><trkpt lat="41.2159348" lon="9.4432694"><ele>0.0</ele><time>2026-04-19T11:40:12.062Z</time></trkpt><trkpt lat="41.2159576" lon="9.4431131"><ele>0.0</ele><time>2026-04-19T11:40:13.062Z</time></trkpt><trkpt lat="41.215985" lon="9.442956"><ele>0.0</ele><time>2026-04-19T11:40:14.062Z</time></trkpt><trkpt lat="41.2160084" lon="9.4428096"><ele>0.0</ele><time>2026-04-19T11:40:15.061Z</time></trkpt><trkpt lat="41.216032" lon="9.4426616"><ele>0.0</ele><time>2026-04-19T11:40:16.062Z</time></trkpt><trkpt lat="41.216053" lon="9.4425148"><ele>0.0</ele><time>2026-04-19T11:40:17.062Z</time></trkpt><trkpt lat="41.2160754" lon="9.4423708"><ele>0.0</ele><time>2026-04-19T11:40:18.062Z</time></trkpt><trkpt lat="41.2160973" lon="9.4422204"><ele>0.0</ele><time>2026-04-19T11:40:19.062Z</time></trkpt><trkpt lat="41.2161242" lon="9.4420496"><ele>0.0</ele><time>2026-04-19T11:40:20.062Z</time></trkpt><trkpt lat="41.2161456" lon="9.4418644"><ele>0.0</ele><time>2026-04-19T11:40:21.062Z</time></trkpt><trkpt lat="41.2161766" lon="9.4416611"><ele>0.0</ele><time>2026-04-19T11:40:22.062Z</time></trkpt><trkpt lat="41.2162013" lon="9.44148"><ele>0.0</ele><time>2026-04-19T11:40:23.061Z</time></trkpt><trkpt lat="41.2162264" lon="9.4413112"><ele>0.0</ele><time>2026-04-19T11:40:24.062Z</time></trkpt><trkpt lat="41.2162564" lon="9.4411426"><ele>0.0</ele><time>2026-04-19T11:40:25.062Z</time></trkpt><trkpt lat="41.216282" lon="9.4409718"><ele>0.0</ele><time>2026-04-19T11:40:26.061Z</time></trkpt><trkpt lat="41.2163055" lon="9.4407835"><ele>0.0</ele><time>2026-04-19T11:40:27.061Z</time></trkpt><trkpt lat="41.2163401" lon="9.4405832"><ele>0.0</ele><time>2026-04-19T11:40:28.061Z</time></trkpt><trkpt lat="41.2163678" lon="9.4404028"><ele>0.0</ele><time>2026-04-19T11:40:29.062Z</time></trkpt><trkpt lat="41.2163929" lon="9.4402264"><ele>0.0</ele><time>2026-04-19T11:40:30.061Z</time></trkpt><trkpt lat="41.2164171" lon="9.440053"><ele>0.0</ele><time>2026-04-19T11:40:31.062Z</time></trkpt><trkpt lat="41.2164457" lon="9.4398902"><ele>0.0</ele><time>2026-04-19T11:40:32.062Z</time></trkpt><trkpt lat="41.2164712" lon="9.4397411"><ele>0.0</ele><time>2026-04-19T11:40:33.062Z</time></trkpt><trkpt lat="41.2164898" lon="9.439613"><ele>0.0</ele><time>2026-04-19T11:40:34.062Z</time></trkpt><trkpt lat="41.2165153" lon="9.4394999"><ele>0.0</ele><time>2026-04-19T11:40:35.061Z</time></trkpt><trkpt lat="41.2165638" lon="9.4394121"><ele>0.0</ele><time>2026-04-19T11:40:36.061Z</time></trkpt><trkpt lat="41.2166357" lon="9.4393605"><ele>1.0</ele><time>2026-04-19T11:40:37.062Z</time></trkpt><trkpt lat="41.2167323" lon="9.4393286"><ele>2.0</ele><time>2026-04-19T11:40:38.062Z</time></trkpt><trkpt lat="41.2168546" lon="9.4392958"><ele>3.0</ele><time>2026-04-19T11:40:39.062Z</time></trkpt><trkpt lat="41.2169877" lon="9.4392687"><ele>4.0</ele><time>2026-04-19T11:40:40.062Z</time></trkpt><trkpt lat="41.2171195" lon="9.4392459"><ele>4.0</ele><time>2026-04-19T11:40:41.062Z</time></trkpt><trkpt lat="41.2172353" lon="9.4392159"><ele>4.0</ele><time>2026-04-19T11:40:42.062Z</time></trkpt><trkpt lat="41.2173381" lon="9.4391777"><ele>4.0</ele><time>2026-04-19T11:40:43.062Z</time></trkpt><trkpt lat="41.2174303" lon="9.4391077"><ele>4.0</ele><time>2026-04-19T11:40:44.062Z</time></trkpt><trkpt lat="41.2175202" lon="9.4390288"><ele>4.0</ele><time>2026-04-19T11:40:45.062Z</time></trkpt><trkpt lat="41.2175872" lon="9.4388319"><ele>5.25</ele><time>2026-04-19T11:40:46.062Z</time></trkpt><trkpt lat="41.2176468" lon="9.4386781"><ele>6.5</ele><time>2026-04-19T11:40:47.062Z</time></trkpt><trkpt lat="41.2177102" lon="9.4385328"><ele>7.75</ele><time>2026-04-19T11:40:48.062Z</time></trkpt><trkpt lat="41.2177849" lon="9.43839"><ele>9.0</ele><time>2026-04-19T11:40:49.062Z</time></trkpt><trkpt lat="41.2178808" lon="9.4382619"><ele>9.0</ele><time>2026-04-19T11:40:50.062Z</time></trkpt><trkpt lat="41.2179893" lon="9.4381662"><ele>9.0</ele><time>2026-04-19T11:40:51.062Z</time></trkpt><trkpt lat="41.2181296" lon="9.4380727"><ele>9.0</ele><time>2026-04-19T11:40:52.061Z</time></trkpt><trkpt lat="41.2182874" lon="9.4379648"><ele>9.666666666666666</ele><time>2026-04-19T11:40:53.061Z</time></trkpt><trkpt lat="41.2184366" lon="9.4378605"><ele>10.333333333333332</ele><time>2026-04-19T11:40:54.062Z</time></trkpt><trkpt lat="41.2185897" lon="9.4377643"><ele>11.0</ele><time>2026-04-19T11:40:55.062Z</time></trkpt><trkpt lat="41.2187443" lon="9.4376706"><ele>11.0</ele><time>2026-04-19T11:40:56.062Z</time></trkpt><trkpt lat="41.2188897" lon="9.4375712"><ele>11.0</ele><time>2026-04-19T11:40:57.062Z</time></trkpt><trkpt lat="41.21904" lon="9.4374737"><ele>11.0</ele><time>2026-04-19T11:40:58.062Z</time></trkpt><trkpt lat="41.2191895" lon="9.4373811"><ele>10.5</ele><time>2026-04-19T11:40:59.062Z</time></trkpt><trkpt lat="41.219336" lon="9.4372919"><ele>10.0</ele><time>2026-04-19T11:41:00.062Z</time></trkpt><trkpt lat="41.2194658" lon="9.4372117"><ele>9.5</ele><time>2026-04-19T11:41:01.062Z</time></trkpt><trkpt lat="41.2195918" lon="9.4371361"><ele>9.0</ele><time>2026-04-19T11:41:02.062Z</time></trkpt><trkpt lat="41.2197034" lon="9.437063"><ele>8.8</ele><time>2026-04-19T11:41:03.062Z</time></trkpt><trkpt lat="41.2197912" lon="9.4369848"><ele>8.600000000000001</ele><time>2026-04-19T11:41:04.061Z</time></trkpt><trkpt lat="41.2198513" lon="9.4368734"><ele>8.4</ele><time>2026-04-19T11:41:05.06Z</time></trkpt><trkpt lat="41.2198827" lon="9.4367427"><ele>8.200000000000001</ele><time>2026-04-19T11:41:06.061Z</time></trkpt><trkpt lat="41.2198819" lon="9.4365892"><ele>8.0</ele><time>2026-04-19T11:41:07.061Z</time></trkpt><trkpt lat="41.2198773" lon="9.4364336"><ele>8.25</ele><time>2026-04-19T11:41:08.061Z</time></trkpt><trkpt lat="41.2198742" lon="9.4362722"><ele>8.5</ele><time>2026-04-19T11:41:09.061Z</time></trkpt><trkpt lat="41.2198732" lon="9.4361058"><ele>8.75</ele><time>2026-04-19T11:41:10.061Z</time></trkpt><trkpt lat="41.2198741" lon="9.4359362"><ele>9.0</ele><time>2026-04-19T11:41:11.061Z</time></trkpt><trkpt lat="41.2198742" lon="9.4357632"><ele>9.0</ele><time>2026-04-19T11:41:12.061Z</time></trkpt><trkpt lat="41.2198708" lon="9.4355906"><ele>9.0</ele><time>2026-04-19T11:41:13.061Z</time></trkpt><trkpt lat="41.2198621" lon="9.4354116"><ele>9.0</ele><time>2026-04-19T11:41:14.061Z</time></trkpt><trkpt lat="41.2198534" lon="9.4352331"><ele>9.0</ele><time>2026-04-19T11:41:15.061Z</time></trkpt><trkpt lat="41.2198466" lon="9.4350614"><ele>8.8</ele><time>2026-04-19T11:41:16.061Z</time></trkpt><trkpt lat="41.2198386" lon="9.434908"><ele>8.600000000000001</ele><time>2026-04-19T11:41:17.061Z</time></trkpt><trkpt lat="41.2198295" lon="9.4347694"><ele>8.4</ele><time>2026-04-19T11:41:18.061Z</time></trkpt><trkpt lat="41.2198246" lon="9.4346416"><ele>8.200000000000001</ele><time>2026-04-19T11:41:19.061Z</time></trkpt><trkpt lat="41.2198171" lon="9.4345273"><ele>8.0</ele><time>2026-04-19T11:41:20.061Z</time></trkpt><trkpt lat="41.2198157" lon="9.4344186"><ele>7.999999999999999</ele><time>2026-04-19T11:41:21.061Z</time></trkpt><trkpt lat="41.2198083" lon="9.434324"><ele>8.0</ele><time>2026-04-19T11:41:22.061Z</time></trkpt><trkpt lat="41.219801" lon="9.434234"><ele>8.0</ele><time>2026-04-19T11:41:23.061Z</time></trkpt><trkpt lat="41.2198014" lon="9.4341443"><ele>8.0</ele><time>2026-04-19T11:41:24.061Z</time></trkpt><trkpt lat="41.2197901" lon="9.4339893"><ele>7.999999999999999</ele><time>2026-04-19T11:41:26.061Z</time></trkpt><trkpt lat="41.2197858" lon="9.4338584"><ele>8.0</ele><time>2026-04-19T11:41:28.061Z</time></trkpt><trkpt lat="41.2197932" lon="9.4336988"><ele>8.0</ele><time>2026-04-19T11:41:30.06Z</time></trkpt><trkpt lat="41.2198109" lon="9.4335608"><ele>8.0</ele><time>2026-04-19T11:41:31.06Z</time></trkpt><trkpt lat="41.2198316" lon="9.4333865"><ele>8.0</ele><time>2026-04-19T11:41:32.06Z</time></trkpt><trkpt lat="41.2198351" lon="9.4332299"><ele>8.0</ele><time>2026-04-19T11:41:33.061Z</time></trkpt><trkpt lat="41.2198319" lon="9.4330791"><ele>7.800000000000001</ele><time>2026-04-19T11:41:34.061Z</time></trkpt><trkpt lat="41.2198272" lon="9.4329259"><ele>7.6000000000000005</ele><time>2026-04-19T11:41:35.061Z</time></trkpt><trkpt lat="41.219823" lon="9.4327927"><ele>7.3999999999999995</ele><time>2026-04-19T11:41:36.061Z</time></trkpt><trkpt lat="41.2198166" lon="9.4326752"><ele>7.199999999999999</ele><time>2026-04-19T11:41:37.061Z</time></trkpt><trkpt lat="41.2198152" lon="9.432572"><ele>7.0</ele><time>2026-04-19T11:41:38.061Z</time></trkpt><trkpt lat="41.21983" lon="9.432477"><ele>7.000000000000001</ele><time>2026-04-19T11:41:39.061Z</time></trkpt><trkpt lat="41.2198312" lon="9.432384"><ele>7.0</ele><time>2026-04-19T11:41:40.061Z</time></trkpt><trkpt lat="41.2198111" lon="9.4323"><ele>7.0</ele><time>2026-04-19T11:41:41.061Z</time></trkpt><trkpt lat="41.2197567" lon="9.4322237"><ele>7.0</ele><time>2026-04-19T11:41:42.061Z</time></trkpt><trkpt lat="41.2196768" lon="9.4321569"><ele>7.000000000000001</ele><time>2026-04-19T11:41:43.061Z</time></trkpt><trkpt lat="41.2196004" lon="9.4320742"><ele>7.0</ele><time>2026-04-19T11:41:44.061Z</time></trkpt><trkpt lat="41.2195296" lon="9.4319477"><ele>6.75</ele><time>2026-04-19T11:41:45.061Z</time></trkpt><trkpt lat="41.2194817" lon="9.4317864"><ele>6.5</ele><time>2026-04-19T11:41:46.061Z</time></trkpt><trkpt lat="41.2194517" lon="9.4315997"><ele>6.25</ele><time>2026-04-19T11:41:47.061Z</time></trkpt><trkpt lat="41.2194369" lon="9.4314208"><ele>6.0</ele><time>2026-04-19T11:41:48.061Z</time></trkpt><trkpt lat="41.2194225" lon="9.4312343"><ele>7.0</ele><time>2026-04-19T11:41:49.061Z</time></trkpt><trkpt lat="41.219404" lon="9.4310442"><ele>8.0</ele><time>2026-04-19T11:41:50.061Z</time></trkpt><trkpt lat="41.2193874" lon="9.4308489"><ele>9.0</ele><time>2026-04-19T11:41:51.061Z</time></trkpt><trkpt lat="41.2193684" lon="9.4306399"><ele>9.0</ele><time>2026-04-19T11:41:52.06Z</time></trkpt><trkpt lat="41.2193513" lon="9.4304117"><ele>9.0</ele><time>2026-04-19T11:41:53.06Z</time></trkpt><trkpt lat="41.2193413" lon="9.4301847"><ele>9.0</ele><time>2026-04-19T11:41:54.06Z</time></trkpt><trkpt lat="41.2193241" lon="9.4299725"><ele>9.0</ele><time>2026-04-19T11:41:55.061Z</time></trkpt><trkpt lat="41.2193032" lon="9.4297752"><ele>9.0</ele><time>2026-04-19T11:41:56.061Z</time></trkpt><trkpt lat="41.2192886" lon="9.4295894"><ele>9.0</ele><time>2026-04-19T11:41:57.061Z</time></trkpt><trkpt lat="41.219271" lon="9.4294075"><ele>9.0</ele><time>2026-04-19T11:41:58.061Z</time></trkpt><trkpt lat="41.2192506" lon="9.4292265"><ele>9.0</ele><time>2026-04-19T11:41:59.061Z</time></trkpt><trkpt lat="41.219243" lon="9.4290436"><ele>9.0</ele><time>2026-04-19T11:42:00.061Z</time></trkpt><trkpt lat="41.2192452" lon="9.4288776"><ele>9.0</ele><time>2026-04-19T11:42:01.061Z</time></trkpt><trkpt lat="41.2192548" lon="9.4287252"><ele>9.0</ele><time>2026-04-19T11:42:02.061Z</time></trkpt><trkpt lat="41.2192581" lon="9.4285879"><ele>9.0</ele><time>2026-04-19T11:42:03.061Z</time></trkpt><trkpt lat="41.2192443" lon="9.4284751"><ele>9.0</ele><time>2026-04-19T11:42:04.061Z</time></trkpt><trkpt lat="41.219196" lon="9.4283962"><ele>9.0</ele><time>2026-04-19T11:42:05.06Z</time></trkpt><trkpt lat="41.2191217" lon="9.4283535"><ele>9.0</ele><time>2026-04-19T11:42:06.061Z</time></trkpt><trkpt lat="41.2190262" lon="9.428344"><ele>9.0</ele><time>2026-04-19T11:42:07.061Z</time></trkpt><trkpt lat="41.2189165" lon="9.4283465"><ele>9.0</ele><time>2026-04-19T11:42:08.06Z</time></trkpt><trkpt lat="41.2188047" lon="9.4283578"><ele>9.0</ele><time>2026-04-19T11:42:09.061Z</time></trkpt><trkpt lat="41.218688" lon="9.4283673"><ele>9.0</ele><time>2026-04-19T11:42:10.061Z</time></trkpt><trkpt lat="41.2185632" lon="9.4283824"><ele>9.0</ele><time>2026-04-19T11:42:11.061Z</time></trkpt><trkpt lat="41.2184343" lon="9.4284014"><ele>9.0</ele><time>2026-04-19T11:42:12.061Z</time></trkpt><trkpt lat="41.2183044" lon="9.4284155"><ele>9.0</ele><time>2026-04-19T11:42:13.061Z</time></trkpt><trkpt lat="41.218174" lon="9.4284284"><ele>9.0</ele><time>2026-04-19T11:42:14.061Z</time></trkpt><trkpt lat="41.2180357" lon="9.428442"><ele>9.0</ele><time>2026-04-19T11:42:15.06Z</time></trkpt><trkpt lat="41.2178927" lon="9.4284536"><ele>9.0</ele><time>2026-04-19T11:42:16.06Z</time></trkpt><trkpt lat="41.2177572" lon="9.42847"><ele>8.2</ele><time>2026-04-19T11:42:17.061Z</time></trkpt><trkpt lat="41.2176395" lon="9.4284843"><ele>7.4</ele><time>2026-04-19T11:42:18.061Z</time></trkpt><trkpt lat="41.2175292" lon="9.4284969"><ele>6.6</ele><time>2026-04-19T11:42:19.061Z</time></trkpt><trkpt lat="41.2174331" lon="9.42851"><ele>5.8</ele><time>2026-04-19T11:42:20.061Z</time></trkpt><trkpt lat="41.2173501" lon="9.4285129"><ele>5.0</ele><time>2026-04-19T11:42:21.06Z</time></trkpt><trkpt lat="41.2172815" lon="9.4284925"><ele>4.833333333333334</ele><time>2026-04-19T11:42:23.061Z</time></trkpt><trkpt lat="41.2172216" lon="9.4284295"><ele>4.666666666666667</ele><time>2026-04-19T11:42:26.061Z</time></trkpt><trkpt lat="41.2171726" lon="9.4283542"><ele>4.5</ele><time>2026-04-19T11:42:32.06Z</time></trkpt><trkpt lat="41.2171001" lon="9.4283471"><ele>4.333333333333333</ele><time>2026-04-19T11:44:57.061Z</time></trkpt><trkpt lat="41.2170003" lon="9.4283951"><ele>4.166666666666666</ele><time>2026-04-19T11:44:59.061Z</time></trkpt><trkpt lat="41.2169335" lon="9.4284183"><ele>4.0</ele><time>2026-04-19T11:45:00.061Z</time></trkpt><trkpt lat="41.2168662" lon="9.4284408"><ele>3.9999999999999996</ele><time>2026-04-19T11:45:01.061Z</time></trkpt><trkpt lat="41.2167651" lon="9.4284612"><ele>4.0</ele><time>2026-04-19T11:45:03.06Z</time></trkpt><trkpt lat="41.2166865" lon="9.4284568"><ele>4.0</ele><time>2026-04-19T11:45:06.061Z</time></trkpt><trkpt lat="41.2166236" lon="9.4284164"><ele>4.0</ele><time>2026-04-19T11:45:08.06Z</time></trkpt><trkpt lat="41.2165854" lon="9.4283427"><ele>3.9999999999999996</ele><time>2026-04-19T11:45:09.061Z</time></trkpt><trkpt lat="41.216553" lon="9.4282483"><ele>4.0</ele><time>2026-04-19T11:45:10.06Z</time></trkpt><trkpt lat="41.2165355" lon="9.4281364"><ele>4.0</ele><time>2026-04-19T11:45:11.061Z</time></trkpt><trkpt lat="41.2165242" lon="9.4279809"><ele>4.0</ele><time>2026-04-19T11:45:12.061Z</time></trkpt><trkpt lat="41.216512" lon="9.4278256"><ele>4.0</ele><time>2026-04-19T11:45:13.061Z</time></trkpt><trkpt lat="41.2164936" lon="9.42767"><ele>4.0</ele><time>2026-04-19T11:45:14.061Z</time></trkpt><trkpt lat="41.2164729" lon="9.4275051"><ele>3.75</ele><time>2026-04-19T11:45:15.061Z</time></trkpt><trkpt lat="41.2164434" lon="9.4273539"><ele>3.5</ele><time>2026-04-19T11:45:16.061Z</time></trkpt><trkpt lat="41.2163949" lon="9.4272194"><ele>3.25</ele><time>2026-04-19T11:45:17.061Z</time></trkpt><trkpt lat="41.2163289" lon="9.4271017"><ele>3.0</ele><time>2026-04-19T11:45:18.061Z</time></trkpt><trkpt lat="41.2162423" lon="9.4269976"><ele>3.5</ele><time>2026-04-19T11:45:19.061Z</time></trkpt><trkpt lat="41.2161353" lon="9.426917"><ele>4.0</ele><time>2026-04-19T11:45:20.06Z</time></trkpt><trkpt lat="41.2160155" lon="9.4268662"><ele>4.5</ele><time>2026-04-19T11:45:21.061Z</time></trkpt><trkpt lat="41.2158908" lon="9.4268448"><ele>5.0</ele><time>2026-04-19T11:45:22.06Z</time></trkpt><trkpt lat="41.2157747" lon="9.4268417"><ele>5.0</ele><time>2026-04-19T11:45:23.06Z</time></trkpt><trkpt lat="41.2156603" lon="9.4268499"><ele>5.0</ele><time>2026-04-19T11:45:24.06Z</time></trkpt><trkpt lat="41.2155455" lon="9.4268578"><ele>5.0</ele><time>2026-04-19T11:45:25.061Z</time></trkpt><trkpt lat="41.2154313" lon="9.426861"><ele>5.0</ele><time>2026-04-19T11:45:26.061Z</time></trkpt><trkpt lat="41.2153169" lon="9.4268516"><ele>5.0</ele><time>2026-04-19T11:45:27.061Z</time></trkpt><trkpt lat="41.2151997" lon="9.4268218"><ele>5.0</ele><time>2026-04-19T11:45:28.061Z</time></trkpt><trkpt lat="41.2150842" lon="9.426777"><ele>5.0</ele><time>2026-04-19T11:45:29.061Z</time></trkpt><trkpt lat="41.2149631" lon="9.4267237"><ele>5.0</ele><time>2026-04-19T11:45:30.06Z</time></trkpt><trkpt lat="41.2148424" lon="9.4266608"><ele>4.25</ele><time>2026-04-19T11:45:31.06Z</time></trkpt><trkpt lat="41.2147221" lon="9.4265935"><ele>3.5</ele><time>2026-04-19T11:45:32.06Z</time></trkpt><trkpt lat="41.214608" lon="9.4265266"><ele>2.75</ele><time>2026-04-19T11:45:33.061Z</time></trkpt><trkpt lat="41.2144911" lon="9.4264582"><ele>2.0</ele><time>2026-04-19T11:45:34.061Z</time></trkpt><trkpt lat="41.2143782" lon="9.4263872"><ele>2.0</ele><time>2026-04-19T11:45:35.061Z</time></trkpt><trkpt lat="41.2142772" lon="9.4263133"><ele>2.0</ele><time>2026-04-19T11:45:36.061Z</time></trkpt><trkpt lat="41.2141817" lon="9.4262125"><ele>2.0</ele><time>2026-04-19T11:45:37.061Z</time></trkpt><trkpt lat="41.2140912" lon="9.4261007"><ele>2.0</ele><time>2026-04-19T11:45:38.061Z</time></trkpt><trkpt lat="41.2140166" lon="9.4259633"><ele>1.5</ele><time>2026-04-19T11:45:39.061Z</time></trkpt><trkpt lat="41.2139624" lon="9.425803"><ele>1.0</ele><time>2026-04-19T11:45:40.06Z</time></trkpt><trkpt lat="41.2139265" lon="9.425631"><ele>0.5</ele><time>2026-04-19T11:45:41.061Z</time></trkpt><trkpt lat="41.2139049" lon="9.4254467"><ele>0.0</ele><time>2026-04-19T11:45:42.061Z</time></trkpt><trkpt lat="41.2138948" lon="9.4252373"><ele>0.0</ele><time>2026-04-19T11:45:43.061Z</time></trkpt><trkpt lat="41.2138829" lon="9.4250374"><ele>0.0</ele><time>2026-04-19T11:45:44.06Z</time></trkpt><trkpt lat="41.213872" lon="9.4248465"><ele>0.0</ele><time>2026-04-19T11:45:45.061Z</time></trkpt><trkpt lat="41.213864" lon="9.4246518"><ele>0.0</ele><time>2026-04-19T11:45:46.061Z</time></trkpt><trkpt lat="41.2138523" lon="9.4244602"><ele>0.25</ele><time>2026-04-19T11:45:47.061Z</time></trkpt><trkpt lat="41.2138405" lon="9.4242658"><ele>0.5</ele><time>2026-04-19T11:45:48.061Z</time></trkpt><trkpt lat="41.213825" lon="9.4240724"><ele>0.75</ele><time>2026-04-19T11:45:49.061Z</time></trkpt><trkpt lat="41.2138171" lon="9.4238763"><ele>1.0</ele><time>2026-04-19T11:45:50.061Z</time></trkpt><trkpt lat="41.2138047" lon="9.4236814"><ele>1.0</ele><time>2026-04-19T11:45:51.061Z</time></trkpt><trkpt lat="41.2137956" lon="9.4234823"><ele>1.0</ele><time>2026-04-19T11:45:52.06Z</time></trkpt><trkpt lat="41.2137822" lon="9.423289"><ele>1.0</ele><time>2026-04-19T11:45:53.059Z</time></trkpt><trkpt lat="41.2137709" lon="9.4230972"><ele>1.0</ele><time>2026-04-19T11:45:54.06Z</time></trkpt><trkpt lat="41.2137611" lon="9.4229056"><ele>1.0</ele><time>2026-04-19T11:45:55.059Z</time></trkpt><trkpt lat="41.2137504" lon="9.4227117"><ele>1.0</ele><time>2026-04-19T11:45:56.059Z</time></trkpt><trkpt lat="41.2137404" lon="9.4225182"><ele>1.0</ele><time>2026-04-19T11:45:57.059Z</time></trkpt><trkpt lat="41.2137298" lon="9.4223199"><ele>1.0</ele><time>2026-04-19T11:45:58.059Z</time></trkpt><trkpt lat="41.2137202" lon="9.4221243"><ele>1.0</ele><time>2026-04-19T11:45:59.06Z</time></trkpt><trkpt lat="41.2137086" lon="9.421936"><ele>1.0</ele><time>2026-04-19T11:46:00.06Z</time></trkpt><trkpt lat="41.2136997" lon="9.4217454"><ele>1.0</ele><time>2026-04-19T11:46:01.06Z</time></trkpt><trkpt lat="41.2136887" lon="9.4215588"><ele>1.0</ele><time>2026-04-19T11:46:02.06Z</time></trkpt><trkpt lat="41.2136735" lon="9.4213768"><ele>1.0</ele><time>2026-04-19T11:46:03.06Z</time></trkpt><trkpt lat="41.2136649" lon="9.4212052"><ele>1.0</ele><time>2026-04-19T11:46:04.06Z</time></trkpt><trkpt lat="41.2136521" lon="9.4210492"><ele>1.0</ele><time>2026-04-19T11:46:05.06Z</time></trkpt><trkpt lat="41.2136593" lon="9.4209012"><ele>1.0</ele><time>2026-04-19T11:46:06.06Z</time></trkpt><trkpt lat="41.2136946" lon="9.4207647"><ele>1.0</ele><time>2026-04-19T11:46:07.059Z</time></trkpt><trkpt lat="41.213755" lon="9.420636"><ele>1.0</ele><time>2026-04-19T11:46:08.06Z</time></trkpt><trkpt lat="41.2138218" lon="9.4205093"><ele>1.0</ele><time>2026-04-19T11:46:09.06Z</time></trkpt><trkpt lat="41.213892" lon="9.4203809"><ele>1.0</ele><time>2026-04-19T11:46:10.06Z</time></trkpt><trkpt lat="41.2139685" lon="9.4202467"><ele>1.5</ele><time>2026-04-19T11:46:11.06Z</time></trkpt><trkpt lat="41.2140485" lon="9.4201091"><ele>2.0</ele><time>2026-04-19T11:46:12.059Z</time></trkpt><trkpt lat="41.2141234" lon="9.4199723"><ele>2.5</ele><time>2026-04-19T11:46:13.06Z</time></trkpt><trkpt lat="41.2141929" lon="9.4198457"><ele>3.0</ele><time>2026-04-19T11:46:14.06Z</time></trkpt><trkpt lat="41.2142535" lon="9.4197273"><ele>2.8</ele><time>2026-04-19T11:46:15.06Z</time></trkpt><trkpt lat="41.2143182" lon="9.4196246"><ele>2.5999999999999996</ele><time>2026-04-19T11:46:16.06Z</time></trkpt><trkpt lat="41.2144001" lon="9.4195596"><ele>2.4000000000000004</ele><time>2026-04-19T11:46:17.06Z</time></trkpt><trkpt lat="41.2145009" lon="9.4195225"><ele>2.2</ele><time>2026-04-19T11:46:18.06Z</time></trkpt><trkpt lat="41.2146184" lon="9.4194918"><ele>2.0</ele><time>2026-04-19T11:46:19.06Z</time></trkpt><trkpt lat="41.2147424" lon="9.4194638"><ele>2.0</ele><time>2026-04-19T11:46:20.06Z</time></trkpt><trkpt lat="41.2148698" lon="9.4194317"><ele>2.0</ele><time>2026-04-19T11:46:21.06Z</time></trkpt><trkpt lat="41.2150001" lon="9.4194052"><ele>2.0</ele><time>2026-04-19T11:46:22.06Z</time></trkpt><trkpt lat="41.2151295" lon="9.4193758"><ele>2.0</ele><time>2026-04-19T11:46:23.059Z</time></trkpt><trkpt lat="41.2152575" lon="9.4193547"><ele>2.0</ele><time>2026-04-19T11:46:24.059Z</time></trkpt><trkpt lat="41.2153801" lon="9.4193325"><ele>2.0</ele><time>2026-04-19T11:46:25.059Z</time></trkpt><trkpt lat="41.2155038" lon="9.4193078"><ele>2.0</ele><time>2026-04-19T11:46:26.059Z</time></trkpt><trkpt lat="41.2156327" lon="9.4192791"><ele>2.0</ele><time>2026-04-19T11:46:27.06Z</time></trkpt><trkpt lat="41.2157576" lon="9.4192561"><ele>2.0</ele><time>2026-04-19T11:46:28.06Z</time></trkpt><trkpt lat="41.2158787" lon="9.419231"><ele>2.0</ele><time>2026-04-19T11:46:29.06Z</time></trkpt><trkpt lat="41.216004" lon="9.4192046"><ele>2.0</ele><time>2026-04-19T11:46:30.06Z</time></trkpt><trkpt lat="41.2161236" lon="9.4191746"><ele>2.0</ele><time>2026-04-19T11:46:31.06Z</time></trkpt><trkpt lat="41.2162446" lon="9.4191371"><ele>2.0</ele><time>2026-04-19T11:46:32.06Z</time></trkpt><trkpt lat="41.2163607" lon="9.4190805"><ele>2.0</ele><time>2026-04-19T11:46:33.06Z</time></trkpt><trkpt lat="41.2164727" lon="9.4189976"><ele>2.0</ele><time>2026-04-19T11:46:34.06Z</time></trkpt><trkpt lat="41.2165791" lon="9.4188914"><ele>2.0</ele><time>2026-04-19T11:46:35.059Z</time></trkpt><trkpt lat="41.2166737" lon="9.4187707"><ele>2.5</ele><time>2026-04-19T11:46:36.06Z</time></trkpt><trkpt lat="41.2167589" lon="9.4186523"><ele>3.0</ele><time>2026-04-19T11:46:37.06Z</time></trkpt><trkpt lat="41.2168336" lon="9.4185336"><ele>3.5</ele><time>2026-04-19T11:46:38.06Z</time></trkpt><trkpt lat="41.2168955" lon="9.4184113"><ele>4.0</ele><time>2026-04-19T11:46:39.06Z</time></trkpt><trkpt lat="41.2169509" lon="9.4182817"><ele>3.9999999999999996</ele><time>2026-04-19T11:46:40.06Z</time></trkpt><trkpt lat="41.2169971" lon="9.4181526"><ele>4.0</ele><time>2026-04-19T11:46:41.06Z</time></trkpt><trkpt lat="41.217032" lon="9.4180384"><ele>4.0</ele><time>2026-04-19T11:46:42.06Z</time></trkpt><trkpt lat="41.2170622" lon="9.4179369"><ele>4.0</ele><time>2026-04-19T11:46:43.06Z</time></trkpt><trkpt lat="41.2170922" lon="9.4178417"><ele>3.9999999999999996</ele><time>2026-04-19T11:46:44.06Z</time></trkpt><trkpt lat="41.2171341" lon="9.417753"><ele>4.0</ele><time>2026-04-19T11:46:45.06Z</time></trkpt><trkpt lat="41.217189" lon="9.4176921"><ele>3.6</ele><time>2026-04-19T11:46:46.06Z</time></trkpt><trkpt lat="41.2172616" lon="9.4176546"><ele>3.2</ele><time>2026-04-19T11:46:47.06Z</time></trkpt><trkpt lat="41.2173537" lon="9.4176182"><ele>2.8000000000000003</ele><time>2026-04-19T11:46:48.059Z</time></trkpt><trkpt lat="41.2174753" lon="9.4175844"><ele>2.4000000000000004</ele><time>2026-04-19T11:46:49.06Z</time></trkpt><trkpt lat="41.2176015" lon="9.417564"><ele>2.0</ele><time>2026-04-19T11:46:50.06Z</time></trkpt><trkpt lat="41.2177332" lon="9.4175396"><ele>3.25</ele><time>2026-04-19T11:46:51.06Z</time></trkpt><trkpt lat="41.2178603" lon="9.4175108"><ele>4.5</ele><time>2026-04-19T11:46:52.06Z</time></trkpt><trkpt lat="41.2179758" lon="9.4174901"><ele>5.75</ele><time>2026-04-19T11:46:53.06Z</time></trkpt><trkpt lat="41.2180824" lon="9.4174687"><ele>7.0</ele><time>2026-04-19T11:46:54.06Z</time></trkpt><trkpt lat="41.2181816" lon="9.417446"><ele>7.000000000000001</ele><time>2026-04-19T11:46:55.059Z</time></trkpt><trkpt lat="41.2182761" lon="9.4174301"><ele>7.0</ele><time>2026-04-19T11:46:56.06Z</time></trkpt><trkpt lat="41.2183608" lon="9.4174158"><ele>7.0</ele><time>2026-04-19T11:46:57.059Z</time></trkpt><trkpt lat="41.2184306" lon="9.417408"><ele>7.0</ele><time>2026-04-19T11:46:58.059Z</time></trkpt><trkpt lat="41.2185355" lon="9.4173904"><ele>7.000000000000001</ele><time>2026-04-19T11:47:00.06Z</time></trkpt><trkpt lat="41.2186138" lon="9.4173795"><ele>7.0</ele><time>2026-04-19T11:47:02.06Z</time></trkpt><trkpt lat="41.2186814" lon="9.4173711"><ele>7.0</ele><time>2026-04-19T11:47:04.06Z</time></trkpt><trkpt lat="41.2187545" lon="9.4173573"><ele>6.999999999999999</ele><time>2026-04-19T11:47:07.06Z</time></trkpt><trkpt lat="41.2188199" lon="9.4173442"><ele>6.999999999999999</ele><time>2026-04-19T11:47:10.059Z</time></trkpt><trkpt lat="41.218933" lon="9.4173211"><ele>7.0</ele><time>2026-04-19T11:47:12.059Z</time></trkpt><trkpt lat="41.2190353" lon="9.4173049"><ele>7.0</ele><time>2026-04-19T11:47:13.06Z</time></trkpt><trkpt lat="41.2191522" lon="9.4172824"><ele>7.25</ele><time>2026-04-19T11:47:14.059Z</time></trkpt><trkpt lat="41.2192889" lon="9.417256"><ele>7.5</ele><time>2026-04-19T11:47:15.059Z</time></trkpt><trkpt lat="41.2194065" lon="9.4172384"><ele>7.75</ele><time>2026-04-19T11:47:16.059Z</time></trkpt><trkpt lat="41.2195071" lon="9.4172121"><ele>8.0</ele><time>2026-04-19T11:47:17.06Z</time></trkpt><trkpt lat="41.2195863" lon="9.4171503"><ele>8.4</ele><time>2026-04-19T11:47:18.06Z</time></trkpt><trkpt lat="41.2196537" lon="9.417052"><ele>8.8</ele><time>2026-04-19T11:47:19.06Z</time></trkpt><trkpt lat="41.2197103" lon="9.4169165"><ele>9.2</ele><time>2026-04-19T11:47:20.06Z</time></trkpt><trkpt lat="41.2197509" lon="9.4167909"><ele>9.6</ele><time>2026-04-19T11:47:21.06Z</time></trkpt><trkpt lat="41.2197845" lon="9.4166991"><ele>10.0</ele><time>2026-04-19T11:47:22.06Z</time></trkpt><trkpt lat="41.2198259" lon="9.4165947"><ele>10.0</ele><time>2026-04-19T11:47:24.059Z</time></trkpt><trkpt lat="41.2198472" lon="9.4164709"><ele>10.0</ele><time>2026-04-19T11:47:27.06Z</time></trkpt><trkpt lat="41.2197714" lon="9.4163378"><ele>10.0</ele><time>2026-04-19T11:47:29.059Z</time></trkpt><trkpt lat="41.2197007" lon="9.4162508"><ele>10.0</ele><time>2026-04-19T11:47:30.059Z</time></trkpt><trkpt lat="41.2196127" lon="9.4161484"><ele>10.0</ele><time>2026-04-19T11:47:31.06Z</time></trkpt><trkpt lat="41.2195001" lon="9.4160503"><ele>11.75</ele><time>2026-04-19T11:47:32.06Z</time></trkpt><trkpt lat="41.2193665" lon="9.4159663"><ele>13.5</ele><time>2026-04-19T11:47:33.06Z</time></trkpt><trkpt lat="41.2192456" lon="9.415899"><ele>15.25</ele><time>2026-04-19T11:47:34.06Z</time></trkpt><trkpt lat="41.2191402" lon="9.4158158"><ele>17.0</ele><time>2026-04-19T11:47:35.06Z</time></trkpt><trkpt lat="41.219039" lon="9.4157069"><ele>16.75</ele><time>2026-04-19T11:47:36.06Z</time></trkpt><trkpt lat="41.2189411" lon="9.4155766"><ele>16.5</ele><time>2026-04-19T11:47:37.06Z</time></trkpt><trkpt lat="41.2188487" lon="9.4154407"><ele>16.25</ele><time>2026-04-19T11:47:38.06Z</time></trkpt><trkpt lat="41.218755" lon="9.4152963"><ele>16.0</ele><time>2026-04-19T11:47:39.06Z</time></trkpt><trkpt lat="41.2186603" lon="9.4151469"><ele>16.5</ele><time>2026-04-19T11:47:40.06Z</time></trkpt><trkpt lat="41.2185683" lon="9.4150043"><ele>17.0</ele><time>2026-04-19T11:47:41.06Z</time></trkpt><trkpt lat="41.2184781" lon="9.4148661"><ele>17.5</ele><time>2026-04-19T11:47:42.06Z</time></trkpt><trkpt lat="41.218388" lon="9.4147359"><ele>18.0</ele><time>2026-04-19T11:47:43.06Z</time></trkpt><trkpt lat="41.2183049" lon="9.4146124"><ele>18.333333333333332</ele><time>2026-04-19T11:47:44.06Z</time></trkpt><trkpt lat="41.218231" lon="9.4145057"><ele>18.666666666666668</ele><time>2026-04-19T11:47:45.06Z</time></trkpt><trkpt lat="41.2181699" lon="9.4144133"><ele>19.0</ele><time>2026-04-19T11:47:46.06Z</time></trkpt><trkpt lat="41.2181145" lon="9.414324"><ele>19.333333333333336</ele><time>2026-04-19T11:47:47.06Z</time></trkpt><trkpt lat="41.2180673" lon="9.4142394"><ele>19.666666666666668</ele><time>2026-04-19T11:47:48.06Z</time></trkpt><trkpt lat="41.2180133" lon="9.41418"><ele>20.0</ele><time>2026-04-19T11:47:49.06Z</time></trkpt><trkpt lat="41.2178933" lon="9.4141385"><ele>20.0</ele><time>2026-04-19T11:47:51.06Z</time></trkpt><trkpt lat="41.2178282" lon="9.414152"><ele>20.0</ele><time>2026-04-19T11:47:52.06Z</time></trkpt><trkpt lat="41.2177416" lon="9.414195"><ele>20.0</ele><time>2026-04-19T11:47:53.06Z</time></trkpt><trkpt lat="41.2176488" lon="9.4142347"><ele>20.0</ele><time>2026-04-19T11:47:54.06Z</time></trkpt><trkpt lat="41.2175576" lon="9.4142714"><ele>20.0</ele><time>2026-04-19T11:47:55.06Z</time></trkpt><trkpt lat="41.2174731" lon="9.4143185"><ele>20.0</ele><time>2026-04-19T11:47:56.06Z</time></trkpt><trkpt lat="41.2174086" lon="9.4143273"><ele>20.0</ele><time>2026-04-19T11:47:57.059Z</time></trkpt><trkpt lat="41.2173344" lon="9.4143414"><ele>20.0</ele><time>2026-04-19T11:47:58.059Z</time></trkpt><trkpt lat="41.2172552" lon="9.4143375"><ele>20.0</ele><time>2026-04-19T11:47:59.059Z</time></trkpt><trkpt lat="41.2171876" lon="9.4143158"><ele>20.0</ele><time>2026-04-19T11:48:00.06Z</time></trkpt><trkpt lat="41.2170896" lon="9.4143127"><ele>20.0</ele><time>2026-04-19T11:48:02.06Z</time></trkpt><trkpt lat="41.2170104" lon="9.4143319"><ele>20.0</ele><time>2026-04-19T11:48:04.06Z</time></trkpt><trkpt lat="41.21699" lon="9.4144184"><ele>18.8</ele><time>2026-04-19T11:48:07.06Z</time></trkpt><trkpt lat="41.2170387" lon="9.4146232"><ele>17.6</ele><time>2026-04-19T11:48:09.06Z</time></trkpt><trkpt lat="41.2170673" lon="9.4147321"><ele>16.4</ele><time>2026-04-19T11:48:10.059Z</time></trkpt><trkpt lat="41.2171113" lon="9.414823"><ele>15.2</ele><time>2026-04-19T11:48:11.06Z</time></trkpt><trkpt lat="41.2171468" lon="9.4148995"><ele>14.0</ele><time>2026-04-19T11:48:12.06Z</time></trkpt><trkpt lat="41.2171792" lon="9.4149758"><ele>14.2</ele><time>2026-04-19T11:48:13.06Z</time></trkpt><trkpt lat="41.2172542" lon="9.4150475"><ele>14.399999999999999</ele><time>2026-04-19T11:48:15.06Z</time></trkpt><trkpt lat="41.2173481" lon="9.415034"><ele>14.6</ele><time>2026-04-19T11:48:17.06Z</time></trkpt><trkpt lat="41.2174107" lon="9.4149745"><ele>14.8</ele><time>2026-04-19T11:48:18.06Z</time></trkpt><trkpt lat="41.2174768" lon="9.4149089"><ele>15.0</ele><time>2026-04-19T11:48:19.06Z</time></trkpt><trkpt lat="41.2175586" lon="9.4147961"><ele>15.0</ele><time>2026-04-19T11:48:21.06Z</time></trkpt><trkpt lat="41.2176781" lon="9.4148048"><ele>15.0</ele><time>2026-04-19T11:48:23.06Z</time></trkpt><trkpt lat="41.217745" lon="9.4148362"><ele>15.0</ele><time>2026-04-19T11:48:24.06Z</time></trkpt><trkpt lat="41.2177949" lon="9.4149926"><ele>15.0</ele><time>2026-04-19T11:48:25.06Z</time></trkpt><trkpt lat="41.217858" lon="9.4150965"><ele>15.0</ele><time>2026-04-19T11:48:26.06Z</time></trkpt><trkpt lat="41.2179206" lon="9.4152122"><ele>15.0</ele><time>2026-04-19T11:48:27.06Z</time></trkpt><trkpt lat="41.217979" lon="9.4153026"><ele>15.0</ele><time>2026-04-19T11:48:28.059Z</time></trkpt><trkpt lat="41.2180341" lon="9.4153926"><ele>15.0</ele><time>2026-04-19T11:48:29.06Z</time></trkpt><trkpt lat="41.2180828" lon="9.4154729"><ele>15.0</ele><time>2026-04-19T11:48:30.06Z</time></trkpt><trkpt lat="41.2181282" lon="9.4155367"><ele>15.0</ele><time>2026-04-19T11:48:31.06Z</time></trkpt><trkpt lat="41.2181655" lon="9.4156073"><ele>15.0</ele><time>2026-04-19T11:48:32.06Z</time></trkpt><trkpt lat="41.218224" lon="9.4157214"><ele>15.2</ele><time>2026-04-19T11:48:34.06Z</time></trkpt><trkpt lat="41.2183008" lon="9.4158238"><ele>15.4</ele><time>2026-04-19T11:48:36.059Z</time></trkpt><trkpt lat="41.2183579" lon="9.415908"><ele>15.600000000000001</ele><time>2026-04-19T11:48:38.06Z</time></trkpt><trkpt lat="41.2183557" lon="9.4160113"><ele>15.8</ele><time>2026-04-19T11:48:40.06Z</time></trkpt><trkpt lat="41.2183165" lon="9.4161264"><ele>16.0</ele><time>2026-04-19T11:48:42.06Z</time></trkpt><trkpt lat="41.2182676" lon="9.4162428"><ele>14.8</ele><time>2026-04-19T11:48:44.06Z</time></trkpt><trkpt lat="41.2182229" lon="9.4163711"><ele>13.600000000000001</ele><time>2026-04-19T11:48:46.06Z</time></trkpt><trkpt lat="41.2181738" lon="9.4164764"><ele>12.4</ele><time>2026-04-19T11:48:48.06Z</time></trkpt><trkpt lat="41.2181085" lon="9.4165575"><ele>11.2</ele><time>2026-04-19T11:48:50.06Z</time></trkpt><trkpt lat="41.2180216" lon="9.4165921"><ele>10.0</ele><time>2026-04-19T11:48:52.06Z</time></trkpt><trkpt lat="41.2179337" lon="9.4166061"><ele>9.0</ele><time>2026-04-19T11:48:54.059Z</time></trkpt><trkpt lat="41.2178504" lon="9.4165784"><ele>9.0</ele><time>2026-04-19T11:48:56.06Z</time></trkpt><trkpt lat="41.217776" lon="9.4165754"><ele>9.0</ele><time>2026-04-19T11:48:58.06Z</time></trkpt><trkpt lat="41.2177144" lon="9.4166058"><ele>9.0</ele><time>2026-04-19T11:49:03.059Z</time></trkpt><trkpt lat="41.2176969" lon="9.4166954"><ele>9.0</ele><time>2026-04-19T11:49:09.06Z</time></trkpt></trkseg></trk></gpx>